GFSSW_sfc_wetblb_000.txt.gz
Wetbulb
55.40 55.42 55.26 55.50 55.18 55.20 55.18 55.26 55.35 55.37 55.54 55.69 55.77 56.17 56.62 56.79 56.16 59.06 53.36 56.21 57.87 60.35 58.80 56.50 57.30 53.99 54.37 51.25 52.32 52.39 45.70 42.99 43.57 44.44 45.15 48.41 47.08 51.14 52.26 50.45 51.70 52.77 54.99 62.52 65.04
55.40 55.59 55.75 55.62 55.11 54.90 54.99 55.39 55.26 55.12 54.91 54.93 55.58 56.21 56.35 56.49 58.98 53.75 59.26 60.41 60.07 60.33 57.70 54.79 52.47 53.14 51.21 50.40 51.16 49.55 46.04 44.58 47.27 47.47 46.88 48.20 47.45 48.69 48.50 49.47 50.32 52.74 56.05 60.69 63.50
55.06 55.08 54.87 54.87 54.90 55.18 55.21 55.10 55.15 55.13 54.97 55.19 55.76 56.61 56.35 56.42 56.74 53.47 59.88 61.37 60.92 59.03 58.53 57.38 56.03 52.82 50.36 51.37 50.88 49.69 45.06 47.37 48.46 49.26 48.82 48.11 48.17 50.36 48.12 47.36 51.25 50.82 54.31 57.19 59.39
55.28 54.99 55.20 55.46 55.76 56.00 55.64 55.57 55.37 55.21 55.56 55.64 56.29 56.69 56.64 59.56 47.17 56.10 62.36 62.63 62.81 59.59 57.83 56.10 54.27 51.82 50.00 48.65 51.25 47.63 49.26 49.58 50.13 50.43 49.70 49.26 50.87 49.49 49.95 49.84 52.99 53.55 55.40 56.55 57.31
55.45 55.53 55.57 55.82 56.11 56.22 56.19 55.91 55.85 55.45 55.41 55.51 56.33 56.57 58.96 55.39 53.49 59.89 62.53 63.84 59.88 58.49 55.62 54.14 52.83 52.64 49.02 49.95 50.97 49.25 49.68 50.87 51.57 51.56 51.03 51.19 49.52 49.90 49.60 52.04 53.64 54.01 55.60 55.87 56.57
55.38 55.43 55.27 55.47 55.83 56.18 56.31 56.23 55.93 55.57 55.33 55.37 56.03 55.56 58.18 50.28 59.36 60.41 60.03 59.70 58.98 58.11 56.06 55.86 53.89 54.47 52.31 51.37 50.58 51.37 51.11 50.95 51.68 51.30 51.03 49.58 49.21 49.53 50.24 52.86 52.37 53.03 53.82 54.92 55.71
55.63 55.32 55.16 55.39 55.59 55.88 56.22 56.11 55.73 55.66 55.57 55.51 55.96 58.67 57.06 53.17 59.66 60.81 60.10 58.99 59.10 57.95 54.81 55.79 56.56 54.68 54.41 51.77 52.95 51.60 48.84 50.98 51.07 49.90 48.18 50.55 46.50 46.63 51.86 52.89 51.35 51.62 52.87 53.67 54.49
55.37 55.30 55.12 54.90 55.15 55.43 55.75 55.67 55.50 55.65 55.65 55.69 55.77 59.38 53.31 59.42 61.05 59.31 60.10 58.72 59.43 59.19 57.21 56.86 57.36 54.74 54.10 53.67 52.31 49.16 49.45 44.61 48.72 49.17 49.54 48.34 42.64 48.84 51.84 50.76 50.07 50.87 51.91 52.72 53.72
55.20 55.28 55.02 54.71 54.86 55.46 55.52 55.33 55.16 55.69 55.73 55.98 59.12 59.58 52.40 60.41 57.01 58.90 59.50 56.90 58.09 58.76 58.68 57.56 56.22 53.08 53.45 50.15 47.68 47.99 42.87 44.43 46.51 49.89 48.18 47.34 44.39 48.86 51.67 50.52 50.00 51.14 51.57 52.21 53.15
55.03 55.16 54.83 54.96 55.21 55.36 55.34 55.32 55.91 56.34 58.14 60.63 60.95 54.43 55.18 53.21 56.45 57.68 59.50 58.68 56.53 56.41 55.85 54.57 53.44 50.69 49.78 46.95 40.06 42.56 43.31 45.39 45.36 48.33 48.44 47.07 46.61 49.70 51.34 50.92 50.72 51.34 51.84 51.99 52.37
54.81 54.91 54.78 54.82 55.65 55.19 57.27 60.69 56.60 56.46 56.81 53.09 52.91 52.66 53.20 56.09 58.17 55.33 56.34 56.48 56.45 54.39 49.34 51.41 49.07 45.08 46.22 47.75 47.37 46.27 45.42 44.83 47.29 48.99 47.59 46.79 47.15 48.89 50.27 49.92 50.09 50.45 51.33 51.80 52.67
54.38 54.49 54.41 54.50 55.61 56.16 60.13 59.30 58.34 60.16 50.97 54.18 53.75 53.20 54.21 55.52 51.98 53.88 55.92 52.59 51.60 48.22 49.93 48.55 46.89 48.11 48.62 48.73 46.95 45.69 44.95 44.81 46.86 48.76 47.97 47.27 46.76 49.08 49.23 49.22 49.76 50.02 50.91 51.60 52.44
53.92 54.26 53.83 53.61 55.08 60.47 61.81 59.58 63.47 63.49 54.52 50.94 53.25 52.17 52.53 54.57 50.58 50.97 53.20 51.77 49.56 47.41 47.18 45.12 47.83 48.75 47.59 47.03 45.11 44.83 44.76 44.01 43.65 47.12 49.17 47.26 45.40 47.30 48.54 49.37 49.56 50.80 51.45 51.78 51.50
53.88 53.75 53.46 53.11 56.28 62.71 59.89 62.75 65.26 65.20 50.32 47.81 50.56 52.59 53.36 52.82 50.14 54.41 53.64 51.39 50.73 46.61 46.60 47.18 48.89 46.84 46.40 45.85 45.69 41.93 47.48 46.04 45.40 44.35 40.06 47.33 38.25 44.98 47.10 46.76 48.37 49.84 51.68 51.70 52.16
53.44 53.77 53.83 53.53 63.80 59.07 60.74 63.37 65.04 64.31 41.19 48.96 49.99 55.50 53.58 50.33 50.68 51.58 54.88 52.54 47.87 47.12 47.21 46.50 46.36 44.56 44.95 45.21 46.90 44.29 47.76 46.60 46.83 45.31 44.14 44.22 40.53 44.22 47.06 45.42 47.05 49.71 50.61 51.60 52.53
53.21 53.79 55.30 60.45 64.89 61.35 63.15 64.96 63.91 52.32 40.71 46.55 49.88 49.19 49.63 50.37 50.00 51.68 51.92 53.58 51.58 47.75 47.76 46.33 48.96 47.68 46.40 47.81 48.75 49.17 47.66 47.53 48.27 44.80 38.96 43.98 42.20 41.89 44.64 46.16 47.22 49.20 50.69 51.43 51.79
53.05 53.86 59.76 63.57 60.24 63.59 65.42 62.58 49.77 43.77 48.93 45.87 46.86 48.50 47.78 47.26 48.19 48.60 48.10 48.04 45.88 43.32 44.52 47.38 46.77 48.37 48.73 46.14 49.41 47.81 44.26 38.97 37.92 40.24 38.01 44.57 41.14 43.21 48.23 49.07 48.46 48.36 49.41 50.93 51.92
52.86 52.71 59.71 63.10 64.37 65.47 63.31 55.10 42.11 45.87 46.25 49.06 47.94 47.34 45.96 47.20 47.83 47.49 47.73 46.18 48.18 46.75 44.44 41.97 41.06 45.83 48.81 46.08 43.80 44.85 43.65 38.96 30.46 32.71 35.04 42.09 37.54 43.15 49.34 49.77 49.74 50.02 51.09 51.17 52.01
52.10 64.74 63.56 64.30 65.27 65.13 57.52 48.18 45.08 46.97 47.98 47.19 47.17 44.87 46.10 46.75 45.74 46.95 46.32 45.35 46.42 47.27 41.76 41.65 42.09 49.08 48.18 48.12 47.19 44.45 41.82 45.72 38.26 36.60 34.47 38.53 43.68 48.08 50.17 49.00 49.34 49.81 50.55 50.74 51.41
62.23 62.06 59.36 64.47 65.35 62.74 56.95 45.76 47.13 48.74 49.08 48.11 43.81 45.27 43.41 45.03 44.88 45.82 45.55 46.92 46.13 48.33 49.44 45.93 38.88 47.28 47.94 49.91 49.59 46.11 48.03 39.27 41.11 31.33 29.75 36.82 38.48 40.29 46.45 47.68 49.14 49.70 50.13 50.87 51.95
63.07 57.89 60.84 63.63 63.68 57.35 50.97 47.24 47.15 49.01 50.01 47.73 46.09 44.72 44.78 44.19 45.44 44.71 44.60 46.96 48.12 47.75 49.36 47.97 44.08 43.11 46.80 46.09 43.96 44.18 42.72 43.93 43.09 40.23 33.13 31.33 36.07 47.21 46.45 48.17 48.76 49.33 50.18 50.49 51.23
63.16 54.61 62.20 63.61 54.53 54.24 49.28 48.69 44.58 48.83 50.59 49.32 49.43 47.89 46.12 46.39 45.06 44.81 43.89 46.67 49.59 48.85 45.27 47.88 43.59 38.08 41.51 47.90 48.76 46.44 44.50 44.38 36.23 35.47 37.86 36.36 36.10 48.37 50.15 50.95 50.09 50.34 50.35 50.95 51.18
56.30 55.88 63.17 61.93 50.12 49.20 49.70 48.33 49.73 48.61 48.70 48.59 47.48 48.70 48.92 46.31 43.33 45.78 46.34 49.40 49.74 47.94 45.61 46.55 42.83 35.77 39.35 44.79 46.75 44.34 45.30 45.43 44.13 38.97 35.19 31.95 35.29 49.05 49.98 49.89 50.67 49.51 49.48 49.64 50.25
56.46 50.22 56.91 57.77 55.82 51.09 48.54 47.95 46.59 50.49 48.88 49.62 48.44 49.39 47.92 46.22 48.00 45.00 45.74 48.85 49.82 49.13 46.88 47.19 42.73 39.54 34.83 39.00 43.27 39.94 42.72 44.17 42.54 35.94 36.67 37.26 39.82 45.17 47.50 47.69 48.78 49.14 48.23 48.51 48.79
56.12 52.18 53.01 50.54 52.51 51.46 50.80 48.97 47.09 46.63 49.86 49.97 48.02 47.50 46.26 41.02 43.15 43.20 46.55 47.50 49.63 47.56 48.78 46.66 39.62 41.58 42.37 42.91 42.46 40.92 40.72 41.93 40.74 40.97 35.91 38.74 40.82 44.31 46.52 47.11 47.42 47.79 48.08 47.89 47.61
54.21 53.26 53.80 50.88 50.52 49.97 46.60 47.52 46.75 47.62 47.43 46.83 45.89 47.81 47.75 44.99 44.69 43.07 45.79 45.95 44.97 48.37 47.43 47.63 38.05 38.47 36.47 41.31 41.61 38.35 40.52 41.58 41.37 41.65 41.63 42.21 41.65 47.58 47.89 48.06 46.96 47.05 47.20 46.83 46.54
57.68 56.67 55.28 48.17 49.92 49.28 49.14 47.51 47.10 48.50 49.43 49.16 48.75 47.82 43.60 47.63 50.31 50.23 50.08 49.20 48.49 46.33 44.77 43.89 39.37 34.34 32.82 38.37 36.44 32.21 37.04 40.45 42.02 43.49 42.70 37.25 42.38 46.49 45.47 45.51 45.51 46.20 46.85 45.55 45.55

GFSSW_sfc_wetblb_003.txt.gz
Wetbulb
55.57 55.52 55.43 55.36 55.21 54.81 55.18 55.35 55.72 55.70 55.67 55.78 55.81 56.27 56.82 56.73 56.50 57.94 49.54 52.32 53.57 59.89 60.01 54.25 53.62 52.91 49.92 45.21 44.96 43.67 37.67 33.91 36.72 38.93 39.65 41.05 41.34 44.69 46.36 45.17 46.84 48.57 55.50 57.81 59.85
55.59 55.60 55.53 55.48 55.28 55.21 55.01 55.62 55.62 55.37 55.36 55.28 55.64 56.47 56.76 56.35 56.89 51.99 57.14 59.74 60.63 61.56 54.26 53.57 51.94 51.27 44.90 43.84 45.73 43.01 35.92 37.18 42.04 42.38 39.44 41.91 42.30 43.28 43.54 43.27 44.75 48.04 56.02 59.24 61.40
55.63 55.25 55.07 55.17 54.97 55.28 55.77 55.62 55.33 55.54 55.64 55.66 55.86 56.81 56.33 55.34 55.55 50.09 59.30 61.46 61.70 60.99 54.74 54.55 54.32 51.82 45.36 44.83 44.87 41.58 38.90 43.69 44.80 46.68 44.54 43.57 45.35 46.16 42.06 41.03 45.67 45.99 50.26 56.53 57.67
55.32 55.05 54.95 54.95 55.35 56.08 56.08 55.47 55.67 55.64 55.52 55.60 55.89 56.15 55.79 56.10 43.54 51.61 61.31 62.03 62.54 60.10 55.51 53.43 51.71 47.89 45.01 42.98 45.62 42.16 45.96 46.95 45.39 46.61 45.99 44.36 44.93 46.06 42.25 43.29 49.88 48.76 51.89 52.49 53.40
55.84 55.64 55.58 55.79 56.11 56.37 56.23 55.99 55.89 55.93 55.52 55.07 55.60 55.82 55.99 52.82 50.92 56.79 61.54 61.31 59.60 56.50 53.77 52.81 50.61 49.18 45.24 46.12 47.84 44.96 45.78 47.56 48.35 48.32 46.65 48.38 45.65 45.58 45.06 47.79 49.88 50.35 52.93 50.79 52.24
55.71 55.71 55.61 55.54 55.92 56.38 56.33 56.09 55.77 55.63 55.23 54.82 55.45 54.44 54.29 48.07 56.55 57.41 57.73 57.35 55.94 54.57 52.38 52.36 50.93 51.79 49.51 47.86 46.09 48.46 48.15 47.30 47.81 47.81 47.91 46.38 45.78 44.14 46.09 46.18 48.76 50.07 49.66 49.76 49.95
55.51 55.31 55.23 55.41 55.68 56.02 56.07 55.95 55.45 55.35 55.25 54.50 55.01 56.46 54.84 50.47 54.59 55.50 57.97 55.76 55.59 55.32 52.38 52.88 53.32 50.52 50.66 48.72 50.60 49.21 44.30 46.59 47.23 46.81 43.69 43.56 42.02 41.26 47.43 48.10 47.91 48.28 49.27 49.47 50.18
55.49 55.23 54.94 54.74 54.99 55.13 55.43 55.23 55.06 55.45 55.27 54.66 54.70 54.74 50.39 57.70 55.11 57.01 56.22 55.80 57.12 56.90 54.55 53.74 53.67 51.70 50.26 50.65 49.38 45.82 43.98 39.02 46.09 46.43 46.13 43.90 37.60 43.34 45.65 47.11 46.01 46.34 47.28 48.89 49.46
55.25 55.06 54.86 54.62 54.58 54.93 55.00 54.95 55.08 55.55 55.35 54.98 53.55 54.14 48.63 58.23 55.23 55.94 55.95 55.36 56.40 56.69 55.43 56.40 53.21 49.13 49.31 44.32 41.21 42.18 36.06 40.04 43.37 45.66 43.90 42.22 39.49 45.36 47.33 45.95 44.53 45.23 45.62 46.96 47.51
55.02 55.02 54.78 54.66 54.86 55.56 55.23 55.14 56.20 55.28 55.64 57.17 58.21 50.88 53.46 52.12 54.40 55.33 54.11 54.99 54.36 53.94 53.07 52.05 48.44 44.75 42.69 39.67 32.94 37.06 37.74 41.30 39.13 42.89 43.76 41.68 41.38 44.30 46.55 45.06 43.67 43.44 43.71 44.25 45.97
54.76 54.96 54.66 54.49 55.29 54.62 55.74 56.30 50.50 50.69 52.64 47.94 48.87 50.43 51.58 54.22 55.89 52.16 53.33 52.53 52.77 51.13 45.30 46.49 42.79 37.97 39.51 42.60 43.92 42.10 40.24 38.47 41.33 45.67 43.16 41.57 41.27 43.97 42.78 43.64 43.38 43.56 44.33 45.47 47.10
54.31 54.45 54.45 54.29 54.93 55.37 54.91 54.53 54.14 54.46 46.95 52.98 52.09 51.71 53.85 53.25 50.19 50.93 53.00 48.73 48.40 43.96 46.04 43.02 40.52 44.48 46.10 45.69 44.01 42.24 40.27 39.40 42.49 45.78 44.44 42.14 42.02 43.18 44.24 43.76 44.30 44.89 44.95 45.97 46.49
54.01 54.29 54.19 53.63 53.99 57.00 55.19 54.51 60.22 59.88 49.92 50.09 52.52 51.29 51.72 52.69 49.62 48.54 49.94 48.68 46.60 44.76 43.22 40.12 44.35 47.53 45.78 44.33 42.57 40.53 40.34 39.71 39.87 43.54 44.86 41.57 39.64 41.55 43.74 45.00 46.50 46.64 46.13 46.64 46.42
53.66 53.86 53.70 53.12 53.51 57.58 53.95 58.07 60.94 59.84 45.56 45.67 49.34 50.92 52.67 52.17 49.50 51.77 51.25 49.25 48.48 44.12 43.34 43.59 47.18 44.85 43.38 43.54 42.77 38.03 44.46 43.66 42.29 39.35 34.54 42.17 31.79 39.06 41.56 42.40 44.89 45.96 44.65 45.33 46.17
53.46 53.70 53.82 53.28 57.39 54.50 56.64 58.93 59.51 58.89 30.59 48.58 48.45 52.18 51.29 48.49 48.43 49.85 51.17 50.14 44.31 44.17 43.63 42.37 41.78 41.19 42.36 42.54 44.24 41.48 45.53 43.51 42.96 39.72 36.66 39.02 34.34 37.12 41.41 40.62 42.41 43.89 45.32 45.39 46.33
53.26 53.76 53.77 56.96 57.55 55.96 59.63 60.51 58.29 43.02 31.75 45.78 49.46 48.47 48.74 49.06 48.91 49.81 50.44 51.40 49.89 46.71 45.11 43.35 45.85 44.30 43.02 45.78 45.88 46.69 44.24 43.33 43.36 39.32 30.41 38.16 36.02 34.68 39.30 41.18 43.19 44.87 45.46 46.06 46.10
52.82 53.30 55.20 60.54 54.53 58.42 60.15 57.49 42.73 33.66 48.47 44.05 45.76 47.97 46.83 45.50 47.31 47.01 46.62 44.08 40.80 37.22 37.99 44.48 43.38 44.56 47.32 42.75 45.89 43.41 38.94 28.62 27.56 27.41 27.52 40.01 36.31 37.29 43.45 44.20 44.55 43.76 44.16 45.02 45.11
52.43 52.14 58.67 60.52 60.02 60.15 58.85 48.01 33.54 44.72 44.33 48.20 46.96 46.35 44.12 44.67 45.64 46.07 44.82 41.50 44.54 43.12 38.72 37.10 34.00 43.57 46.85 43.44 40.55 40.59 39.35 28.70 24.41 23.13 27.58 38.58 32.77 38.24 45.13 45.82 46.83 46.52 44.99 46.04 46.75
52.45 57.53 57.71 59.08 60.86 59.29 53.32 38.33 36.27 43.88 46.65 45.35 46.11 42.73 43.16 45.75 43.69 44.65 42.18 41.97 43.39 44.06 38.23 36.32 38.69 46.39 46.63 46.20 44.24 41.02 35.89 41.64 32.70 26.45 25.16 32.54 38.66 43.67 44.85 46.91 48.03 46.96 47.18 46.35 45.98
54.85 57.91 54.33 58.94 59.57 58.19 47.32 41.11 43.69 47.58 47.44 47.41 41.87 43.47 40.40 42.40 42.27 42.69 42.08 44.96 44.58 46.30 45.80 43.00 35.88 44.72 46.86 46.87 46.09 43.03 44.50 33.20 31.13 25.01 24.43 31.27 33.19 35.12 41.59 43.67 46.10 44.10 44.81 45.61 45.98
57.80 52.99 55.97 58.57 58.97 52.89 39.86 38.98 44.95 47.96 48.69 45.70 44.09 43.32 43.56 42.07 43.05 42.06 42.28 44.72 46.24 45.69 46.01 44.25 39.77 38.11 43.34 42.70 40.02 39.37 36.79 38.78 40.93 33.61 29.12 26.96 30.92 42.13 43.47 44.07 44.81 46.40 46.88 46.03 45.88
55.91 48.88 56.09 58.50 48.80 47.69 40.94 46.01 45.19 47.89 49.63 48.22 47.29 46.10 43.99 44.47 42.50 42.63 42.63 44.76 47.37 46.14 42.79 43.77 38.41 30.17 38.36 44.83 46.13 43.16 42.04 41.93 32.83 32.42 30.95 28.58 33.09 46.02 44.32 45.91 47.68 46.93 46.72 46.44 45.87
51.83 50.72 57.55 56.47 37.04 37.20 45.37 47.23 47.88 47.56 47.38 47.46 46.13 46.79 46.66 43.64 37.44 43.57 44.62 47.75 47.14 46.09 42.11 42.84 34.37 28.10 33.37 39.36 42.70 40.75 42.49 41.63 38.28 32.25 31.13 28.50 31.95 45.95 46.72 46.48 46.80 43.84 44.15 45.18 46.08
51.47 39.18 50.72 52.66 50.52 45.56 44.03 45.19 44.90 48.72 47.79 48.64 47.29 47.69 45.59 43.15 45.17 40.81 43.26 47.19 47.93 47.02 46.17 44.74 39.23 33.25 28.90 34.15 39.54 36.59 39.49 40.46 37.83 24.79 31.12 32.28 35.84 40.66 43.06 42.79 42.96 42.91 43.58 43.69 44.13
50.85 43.84 47.35 39.34 43.03 45.58 46.06 46.94 45.09 44.46 48.41 48.22 46.19 46.24 44.00 36.61 38.57 39.45 44.48 46.30 47.11 45.83 45.49 43.63 33.35 37.70 38.99 40.56 41.05 40.19 38.88 39.00 37.08 36.41 31.81 35.16 36.36 40.22 41.49 42.15 42.46 44.11 45.15 45.06 44.39
47.47 45.85 49.14 44.61 47.37 45.44 42.24 44.25 44.83 45.75 45.69 45.54 43.64 46.06 45.25 39.84 42.80 38.84 42.85 42.15 40.97 44.42 42.32 44.01 32.86 34.66 35.10 39.52 40.00 35.97 36.86 38.14 37.71 37.50 37.46 37.75 36.99 42.56 42.71 44.13 43.58 43.48 44.36 43.48 43.81
51.81 50.65 49.47 43.78 42.66 38.16 39.69 45.17 45.69 46.82 46.66 47.83 46.05 43.87 38.03 44.89 45.90 45.82 45.66 45.62 44.85 42.55 38.37 37.94 32.31 30.87 33.14 36.35 34.36 27.53 33.82 36.25 37.79 39.09 37.98 31.87 36.39 42.17 41.34 42.41 42.68 43.00 42.95 42.98 43.80

GFSSW_sfc_wetblb_006.txt.gz
Wetbulb
55.86 55.61 55.38 55.79 55.54 55.28 54.95 55.05 55.77 55.67 55.78 55.89 56.01 56.46 57.31 57.06 56.63 56.25 47.29 52.68 53.16 60.58 59.42 53.58 53.02 51.16 48.22 44.37 43.51 41.35 35.89 33.34 34.52 36.82 38.15 40.55 40.44 43.45 45.04 44.18 45.60 50.02 53.19 54.59 58.46
55.72 55.70 55.77 55.70 55.23 55.47 54.96 55.59 55.85 55.55 55.73 55.96 56.02 56.86 56.83 56.41 56.68 50.32 56.42 59.79 60.70 61.34 51.59 51.46 50.36 51.17 44.83 42.86 44.78 39.88 34.10 35.75 40.66 40.35 36.71 39.41 40.32 41.48 41.71 44.18 44.88 52.29 54.84 57.40 61.30
55.54 55.37 55.26 55.29 54.91 55.08 55.69 55.70 55.52 55.63 55.77 55.93 55.99 56.74 56.49 55.28 52.25 49.40 59.88 60.38 61.35 60.34 53.25 52.71 52.47 50.32 44.49 44.40 42.81 42.83 38.23 41.67 43.20 43.20 41.20 41.01 43.56 44.46 41.27 40.43 44.92 51.46 52.85 57.07 58.41
55.44 55.23 55.01 54.76 55.10 55.68 56.17 55.64 55.68 55.91 55.99 55.43 55.84 56.68 56.29 55.15 41.37 51.39 61.44 62.24 62.76 59.08 54.33 52.39 50.59 47.25 43.41 42.67 43.71 40.65 43.77 44.70 43.68 43.80 43.35 41.89 41.99 44.15 44.10 43.39 48.50 51.14 55.73 55.93 57.14
55.64 55.80 55.79 56.00 56.14 56.59 56.06 55.86 55.84 55.90 55.40 54.98 55.89 56.24 54.28 49.81 49.44 55.87 61.39 59.96 55.77 54.98 52.30 50.71 49.33 47.47 44.51 44.69 45.48 42.83 43.74 45.49 46.59 46.35 44.64 46.20 43.46 44.16 43.13 45.22 47.66 50.26 51.69 52.37 53.49
55.22 55.42 55.46 55.82 56.11 56.31 56.12 55.64 55.52 55.38 55.44 54.98 55.79 55.38 52.16 45.18 55.17 55.96 56.18 56.04 54.80 53.27 51.57 51.01 48.96 49.97 47.74 46.22 44.59 46.86 46.03 45.72 46.12 45.59 45.67 44.41 43.64 43.13 45.75 44.15 47.00 49.78 48.78 49.10 49.97
55.26 55.01 54.95 55.26 55.56 55.78 55.93 55.70 55.28 55.17 55.24 54.98 55.50 56.36 54.35 49.04 53.05 53.45 55.03 54.48 54.14 53.85 51.23 51.09 51.09 49.59 48.36 46.93 49.20 47.28 43.36 45.02 45.79 44.61 43.54 43.06 39.39 40.33 44.70 45.22 46.45 46.72 48.36 48.96 49.77
55.38 54.95 54.50 54.65 54.75 54.89 55.05 54.87 54.83 55.10 54.95 55.00 55.13 54.81 48.22 56.12 54.10 55.40 54.87 54.54 56.05 55.81 53.85 52.78 52.16 49.55 48.20 49.04 48.42 44.27 41.54 37.57 44.03 45.42 44.40 41.65 36.95 43.51 43.39 44.64 44.56 45.10 45.95 47.75 48.69
54.95 54.81 54.32 54.34 54.20 54.33 54.50 54.52 54.71 55.38 55.58 55.01 53.42 52.51 49.05 57.23 53.59 54.27 53.99 53.80 54.61 55.21 54.36 55.07 52.07 47.63 47.22 40.89 37.82 39.12 34.48 36.70 41.58 44.45 42.55 40.40 38.19 43.62 45.01 44.40 44.23 43.36 43.72 45.31 45.39
54.79 54.77 54.40 54.22 54.08 53.54 53.46 54.52 55.59 54.87 54.75 55.98 56.63 48.64 52.15 50.38 52.60 53.69 52.37 52.90 51.16 51.93 51.62 50.31 46.41 42.16 40.46 37.70 31.66 34.83 35.41 38.08 36.53 41.68 42.33 39.88 39.94 42.99 43.77 43.17 43.28 41.63 43.03 44.43 46.35
54.69 54.59 54.28 54.18 54.20 53.83 54.79 54.99 51.62 48.09 50.95 46.22 47.38 48.65 49.55 52.35 53.88 51.10 51.93 51.35 50.62 49.53 43.46 45.08 40.70 36.63 38.52 40.04 41.96 39.73 37.59 36.37 39.28 42.69 42.15 39.64 39.42 42.44 42.75 40.61 41.28 41.66 42.73 43.42 45.00
54.38 54.36 54.22 53.93 53.81 54.10 56.16 52.77 52.96 53.15 46.21 50.72 50.31 50.17 51.79 51.42 48.37 49.88 50.99 47.09 46.83 41.58 43.56 42.09 38.29 42.73 44.36 44.11 41.74 40.45 38.11 37.13 40.51 43.67 42.05 41.06 40.13 39.69 41.41 40.64 41.79 42.78 42.90 43.80 44.09
53.86 54.12 54.08 53.26 52.95 55.40 53.70 53.80 59.28 57.66 47.72 47.84 50.50 49.58 50.01 51.06 47.71 47.41 48.42 47.03 44.66 43.04 40.81 39.28 42.42 45.67 43.64 42.01 40.73 38.59 38.00 37.71 38.43 41.20 41.67 40.27 38.31 39.15 42.15 43.20 43.96 43.69 43.84 44.52 44.80
53.57 53.60 53.43 53.40 52.64 54.82 53.08 56.34 57.83 57.37 40.46 43.95 47.52 49.71 50.80 50.20 47.49 50.43 49.74 47.99 45.49 41.97 41.54 41.81 44.25 42.65 42.31 41.22 40.49 36.38 41.96 41.74 40.36 37.52 32.96 39.95 31.03 37.39 39.53 40.19 42.47 43.20 42.60 43.45 45.24
53.31 53.41 53.39 54.68 55.08 52.98 55.32 57.44 58.15 54.65 27.94 46.36 46.81 50.99 49.71 47.03 46.81 48.15 50.04 48.34 42.52 42.53 41.85 40.60 40.04 40.22 40.52 40.54 42.40 39.79 43.09 41.85 40.88 36.94 34.80 36.88 32.88 36.60 39.78 39.09 41.17 41.29 43.19 42.81 43.45
53.09 53.15 53.43 56.44 53.97 53.70 57.43 57.90 55.71 40.40 30.63 43.79 47.46 46.64 46.53 47.37 47.15 48.46 49.15 50.18 48.65 45.49 44.24 41.85 43.79 42.49 41.42 44.16 44.22 44.80 42.42 40.84 39.98 36.90 29.07 35.54 33.66 33.30 37.25 39.90 41.14 42.71 43.30 44.52 43.46
52.38 52.61 56.13 58.74 53.03 56.55 58.06 53.43 40.84 31.21 46.89 42.20 43.85 45.78 45.32 43.60 45.54 45.78 44.41 42.42 39.15 35.38 36.09 42.48 41.69 43.35 45.40 41.26 43.76 41.41 36.71 27.61 26.33 25.69 26.38 37.97 33.91 34.53 39.51 42.44 43.30 43.55 42.94 42.93 43.97
52.10 52.37 57.14 58.90 57.92 57.43 54.15 44.87 33.51 42.27 42.52 45.98 44.98 44.66 42.38 43.16 43.45 44.27 42.50 39.37 43.10 41.29 36.91 36.01 33.23 42.36 45.23 41.74 38.91 39.22 37.69 27.63 23.57 22.09 27.04 36.30 30.82 35.89 42.77 43.24 43.60 44.16 44.14 45.85 43.67
52.54 56.28 54.50 55.88 58.47 58.03 49.07 34.99 33.57 41.29 44.62 43.59 44.64 40.91 41.22 44.13 42.03 42.74 40.38 40.20 41.84 42.45 36.55 34.40 36.68 44.69 45.20 44.87 43.15 40.03 34.40 39.63 31.17 24.15 24.18 30.99 36.44 40.89 42.08 44.34 44.95 43.49 44.58 44.40 45.00
53.12 54.37 51.44 56.38 56.91 54.09 41.73 37.66 41.27 45.50 45.90 46.17 39.94 41.99 38.07 40.73 40.84 40.89 39.94 43.32 42.77 44.46 43.71 41.07 34.94 42.63 44.71 45.44 44.32 41.09 42.57 32.81 30.32 20.87 25.10 29.84 31.25 33.62 39.81 42.48 44.69 42.59 42.25 44.02 43.52
56.81 48.43 51.96 56.62 55.91 47.75 35.65 35.90 43.04 46.28 47.18 44.52 42.62 41.60 41.68 40.50 41.43 40.13 40.35 43.28 44.60 43.96 44.93 41.33 38.07 37.06 41.14 40.66 38.36 37.47 35.50 37.52 38.19 31.77 26.44 26.01 30.06 39.24 41.89 43.07 43.51 44.96 43.38 42.49 42.98
52.69 41.90 51.24 54.65 45.00 42.61 38.41 43.93 44.56 45.97 48.29 46.61 45.72 44.12 42.12 42.25 40.80 40.98 40.93 43.00 45.66 44.83 40.87 42.23 35.66 29.70 36.34 42.18 43.77 40.87 38.72 37.97 27.40 30.61 29.36 28.19 32.05 44.68 42.81 45.09 43.34 42.52 43.30 43.47 42.85
48.23 47.74 54.12 53.53 34.70 33.95 43.23 45.55 46.28 46.14 45.49 45.80 44.15 45.10 45.11 41.92 36.51 41.70 42.68 46.19 45.37 44.54 40.62 40.96 32.61 27.08 31.67 36.64 40.55 38.67 40.32 39.17 36.27 30.16 28.45 22.60 28.45 43.53 44.29 43.08 43.19 41.72 42.53 43.03 42.98
46.47 39.28 45.96 48.07 46.44 42.75 41.83 42.97 43.05 47.09 46.12 46.71 45.36 46.08 43.47 41.43 42.98 38.78 41.78 45.87 46.23 45.30 45.50 43.47 37.23 31.95 27.30 31.76 36.88 35.49 38.54 39.27 35.11 23.43 30.81 32.26 33.95 38.50 41.21 41.73 41.88 42.26 42.31 41.86 42.97
46.76 41.27 45.29 36.74 40.85 42.40 44.07 44.97 43.32 42.51 46.35 46.18 44.28 44.15 41.97 35.34 36.93 38.14 42.45 43.23 45.14 45.13 43.55 40.84 32.42 35.28 36.82 38.28 38.67 38.69 38.04 38.40 36.00 35.06 29.30 32.77 33.77 37.76 38.82 39.35 41.15 42.44 43.37 43.40 43.27
45.04 44.58 45.49 43.06 45.87 42.89 39.78 42.04 43.11 43.89 44.62 43.20 42.24 44.01 43.58 38.93 39.65 36.61 40.98 39.94 39.84 42.38 39.91 41.42 31.70 32.93 34.38 38.14 38.07 35.71 37.98 37.26 36.61 36.77 35.19 35.24 34.46 40.40 42.16 42.49 42.11 42.08 43.06 42.68 42.45
49.76 48.68 45.67 39.73 39.15 35.92 37.03 42.83 43.80 45.46 45.00 46.14 44.48 41.84 36.40 42.80 44.71 44.84 44.91 44.36 43.53 40.91 35.97 36.09 30.59 27.40 30.03 33.81 32.77 30.68 33.43 34.73 35.96 37.18 35.31 30.28 34.92 40.55 40.48 41.70 42.19 42.43 42.85 42.51 42.44

GFSSW_sfc_wetblb_009.txt.gz
Wetbulb
55.45 55.41 55.65 55.26 55.14 55.30 55.61 55.26 55.27 55.67 55.56 56.11 56.49 56.53 57.18 57.52 56.15 55.14 45.66 51.61 52.28 60.51 59.24 51.75 50.93 50.23 46.83 43.54 41.78 39.10 34.86 32.15 33.10 34.83 37.56 39.79 39.17 42.56 42.68 47.43 45.16 49.67 50.99 53.35 60.25
55.52 55.67 55.86 55.91 55.54 55.73 55.44 55.43 55.51 55.33 55.58 55.92 56.18 56.39 57.00 56.80 54.86 48.28 56.28 59.72 60.50 60.69 51.47 50.49 49.68 49.88 43.45 42.17 41.81 38.73 33.94 35.74 39.33 38.58 36.67 39.59 39.99 40.20 41.14 44.46 48.93 51.57 53.68 56.07 60.04
55.83 55.59 55.43 55.41 55.06 54.80 55.51 55.57 55.52 55.41 55.88 55.92 56.30 56.56 56.61 55.44 48.40 48.23 59.50 60.85 61.59 59.97 52.32 51.69 51.15 48.83 43.73 43.15 41.83 37.93 37.43 40.46 42.16 41.89 41.02 40.17 41.15 42.27 40.63 39.37 47.92 50.55 51.67 57.09 58.53
56.04 55.07 55.00 55.04 54.81 55.16 55.63 55.44 55.54 55.55 55.96 56.06 55.95 56.75 56.58 53.74 38.81 50.04 61.49 62.15 62.27 58.48 53.14 50.68 49.66 45.91 42.53 42.77 43.24 40.10 41.93 43.04 41.76 43.75 41.88 40.25 44.15 42.21 42.66 42.63 47.81 52.98 52.94 56.61 57.51
55.40 55.61 55.73 55.68 55.80 55.89 55.95 55.62 55.69 55.71 55.95 55.72 55.97 56.93 52.33 47.47 48.23 54.76 60.83 58.84 53.86 52.94 50.18 49.57 48.01 45.81 43.52 43.63 44.00 41.89 42.46 43.77 44.53 44.35 42.64 44.40 42.35 42.27 42.76 44.74 46.24 52.19 54.13 55.95 56.62
54.96 55.12 55.42 55.69 55.91 56.23 55.83 55.46 55.26 55.54 55.65 55.37 56.11 56.44 50.51 43.79 53.78 54.02 54.43 54.77 53.38 52.49 50.96 49.90 48.05 48.22 46.12 45.14 43.04 45.31 44.46 44.63 44.35 44.24 43.67 42.88 42.22 41.46 44.23 42.73 45.45 49.45 51.82 53.51 54.10
54.96 54.94 54.94 55.16 55.31 55.51 55.59 55.34 55.28 55.10 55.26 55.31 56.18 55.84 51.65 48.03 52.01 52.95 54.43 52.97 52.34 52.73 50.79 50.02 49.82 48.30 47.03 45.34 47.96 45.84 42.43 43.55 43.51 43.27 43.16 43.04 39.40 40.22 42.89 42.95 44.59 46.82 48.48 49.32 50.33
55.12 54.82 54.53 54.51 54.61 54.66 54.74 54.55 54.88 55.16 55.04 55.15 55.82 55.02 46.89 54.86 52.92 53.93 53.62 53.27 54.24 53.62 52.84 52.14 51.19 48.44 46.48 47.14 45.36 41.75 39.65 36.26 42.43 42.58 42.63 40.52 36.34 42.63 41.81 41.93 42.72 43.49 45.76 46.80 47.46
54.78 54.57 54.27 54.04 54.00 54.08 54.10 54.17 54.43 55.37 55.45 55.03 53.76 50.76 47.08 56.74 52.21 52.62 51.36 50.45 51.55 52.85 52.88 54.39 50.79 45.56 44.91 38.55 36.48 37.34 32.20 34.38 39.35 43.10 42.47 39.38 37.29 42.07 43.24 42.53 42.69 41.91 43.02 44.62 43.70
54.74 54.53 54.17 54.14 53.90 53.61 53.57 54.33 55.32 54.69 54.93 55.41 55.20 46.79 50.65 48.80 51.34 51.57 51.11 51.37 49.39 50.36 49.97 48.76 44.10 40.48 38.64 37.19 30.75 32.91 33.10 36.48 35.32 40.69 41.78 38.54 38.27 41.90 43.14 41.33 41.44 39.67 40.06 40.81 42.91
54.59 54.55 54.20 53.92 53.77 53.53 52.87 52.11 50.55 47.52 50.70 44.73 45.56 46.92 47.88 51.19 52.42 50.30 50.14 50.13 49.44 46.96 41.75 43.80 39.54 35.76 36.27 38.33 39.81 37.85 36.00 34.42 37.43 41.01 40.98 38.02 38.35 41.52 40.92 39.33 38.90 38.18 41.14 43.02 44.56
54.25 54.27 54.14 53.77 53.58 53.94 54.55 52.00 51.25 51.26 43.63 49.90 48.53 48.29 50.13 49.79 46.89 48.90 50.26 46.30 45.74 40.52 41.72 41.10 36.85 40.81 42.56 42.26 40.08 38.55 36.27 35.17 39.10 41.81 40.27 39.42 38.85 38.90 40.36 39.64 39.42 40.56 41.32 43.00 43.55
53.92 54.15 54.13 53.49 53.17 54.48 53.31 53.75 58.12 55.55 43.60 46.57 48.62 47.79 48.49 49.48 45.81 46.29 47.60 45.62 43.31 40.78 39.90 37.95 40.58 43.55 42.27 39.94 38.83 36.97 35.90 35.63 37.01 39.73 39.46 38.48 37.22 38.13 41.03 41.99 42.80 42.47 42.19 42.56 43.37
53.45 53.66 53.20 54.08 54.59 53.36 52.00 54.76 56.48 53.95 37.50 42.47 45.84 48.33 49.13 48.51 46.02 48.85 48.86 46.55 44.20 39.79 39.87 40.34 42.18 41.47 40.37 39.25 38.89 34.81 40.00 39.25 38.67 36.17 32.02 37.59 30.17 36.57 38.00 38.47 40.85 41.42 40.57 40.64 43.16
53.03 53.28 53.09 56.05 53.63 51.82 54.56 56.45 57.29 52.07 25.31 44.39 45.11 49.99 47.89 45.51 45.19 47.82 49.83 46.84 41.49 42.05 40.64 39.05 38.66 39.42 39.11 39.84 40.67 39.12 42.04 39.46 38.94 35.52 33.40 35.64 31.01 35.75 38.13 37.02 38.14 39.37 41.39 42.18 42.41
52.83 52.95 53.30 56.60 52.27 52.23 55.87 55.19 53.99 38.13 28.48 41.77 45.67 44.75 44.84 46.09 45.85 47.89 47.67 48.84 47.03 43.66 43.17 41.12 42.49 41.48 40.62 42.40 42.81 43.76 40.15 38.76 37.52 34.98 28.28 33.10 32.12 31.24 34.84 37.52 39.30 41.39 42.04 42.40 42.37
52.49 52.76 55.72 57.54 50.11 55.25 56.10 51.35 38.83 29.34 44.79 40.34 41.81 43.87 43.47 41.89 43.73 44.33 42.76 41.27 37.95 33.69 34.46 41.07 41.31 43.27 43.83 40.29 42.65 40.77 35.36 26.34 25.24 24.71 25.70 35.53 31.81 33.35 38.65 40.71 41.37 41.51 42.88 43.51 42.35
52.11 54.01 56.66 57.37 56.32 55.83 51.72 43.33 31.63 39.94 40.25 44.40 43.12 43.04 40.53 41.73 41.95 42.56 40.70 37.97 41.44 39.51 35.49 34.20 31.47 40.94 44.49 40.18 37.62 37.68 35.94 26.34 21.87 20.93 25.71 34.49 28.86 34.73 40.57 42.21 42.72 43.85 42.20 43.44 44.07
53.43 55.77 52.18 53.99 56.68 55.68 46.18 32.56 32.62 38.89 42.70 41.70 42.58 39.58 39.52 42.57 41.11 40.80 39.00 38.61 40.16 40.80 35.22 33.41 35.17 42.94 43.63 43.56 41.26 38.40 33.36 37.79 29.09 22.76 23.18 29.69 34.96 39.26 40.86 42.51 43.61 42.75 43.29 41.97 42.54
54.33 50.44 49.50 54.96 55.87 49.55 39.89 36.36 39.50 43.57 44.11 44.15 38.07 40.04 36.25 39.67 39.41 38.93 38.42 41.76 41.04 43.37 42.16 39.43 33.92 40.76 42.83 43.50 43.19 40.36 41.02 31.98 29.91 19.67 23.31 29.30 30.44 32.58 37.58 40.35 42.55 41.38 40.43 40.70 41.52
55.44 44.69 49.87 55.50 53.20 44.86 34.02 34.09 41.18 44.96 45.42 43.11 40.87 40.13 40.16 38.75 39.57 38.15 38.80 41.56 42.88 42.69 43.29 39.34 36.55 35.52 39.09 38.56 36.40 36.89 34.63 35.46 35.85 30.70 26.64 22.44 29.04 38.11 38.37 40.09 40.92 39.96 41.11 40.26 40.53
48.87 40.97 50.17 52.19 44.66 39.48 36.98 41.91 43.87 44.94 47.03 45.26 44.33 42.63 40.68 40.46 39.35 39.18 39.22 41.43 44.05 43.34 39.02 40.30 34.46 28.90 34.58 40.31 41.94 39.84 37.17 36.11 30.16 28.74 28.02 24.55 29.76 40.33 39.63 40.77 40.73 39.93 41.89 41.99 41.60
47.11 46.04 51.79 49.99 35.32 31.89 41.56 43.94 44.79 44.33 44.05 43.77 42.35 43.59 43.86 39.82 35.66 40.03 40.87 44.52 44.19 42.79 39.10 39.66 31.95 26.10 30.35 34.93 38.02 36.84 37.78 37.41 33.20 29.29 28.40 24.02 27.66 40.34 43.05 41.08 40.82 40.31 41.51 42.20 42.53
44.49 38.06 44.94 45.52 43.40 41.10 40.28 40.86 41.48 45.47 44.56 45.05 43.59 44.53 41.90 39.72 41.23 37.49 40.56 44.38 45.38 43.82 44.41 42.55 35.30 30.97 26.85 30.58 34.94 34.19 36.57 37.22 34.53 26.88 28.57 31.08 33.46 38.21 39.06 38.75 40.41 40.86 41.46 42.23 42.47
44.41 39.54 44.00 35.86 39.53 41.43 42.29 43.04 41.36 40.65 44.36 44.82 42.86 42.48 40.14 34.15 35.68 36.54 40.80 41.88 43.47 44.15 42.25 39.49 32.26 33.92 35.04 36.39 36.57 36.91 36.27 37.48 35.18 34.41 31.15 33.01 33.08 36.95 37.81 39.09 40.11 41.68 41.89 42.21 43.18
44.87 43.36 43.18 42.25 44.23 40.68 38.52 40.03 41.84 42.26 42.84 41.39 41.12 42.23 42.06 37.75 38.51 35.80 39.70 38.65 38.95 41.07 38.76 39.67 30.24 32.04 31.47 36.01 36.53 34.64 36.75 36.40 36.52 36.06 34.64 34.15 32.93 38.30 40.42 41.76 41.48 41.95 42.55 41.87 41.61
47.61 46.41 43.73 37.33 36.34 35.09 35.61 40.92 42.31 43.81 43.86 44.58 43.39 40.27 34.91 42.02 43.77 43.46 43.83 43.03 41.69 39.31 35.64 35.32 30.09 27.83 25.03 32.63 30.99 26.20 31.24 33.96 34.90 35.71 34.50 29.57 33.86 38.46 39.23 40.03 40.80 41.39 41.87 41.42 41.59

GFSSW_sfc_wetblb_012.txt.gz
Wetbulb
55.82 55.34 55.25 55.24 55.06 54.87 55.23 55.44 55.35 55.37 55.78 56.20 56.50 56.90 57.31 57.00 56.27 53.82 44.93 52.10 52.58 59.91 59.01 51.34 50.17 48.29 45.23 42.01 40.66 37.84 34.35 31.79 32.96 34.35 36.73 38.41 40.85 39.80 42.30 47.39 44.93 49.93 52.64 53.02 60.41
55.82 55.23 55.49 55.33 55.41 55.14 55.15 55.13 55.43 55.43 55.90 56.02 56.37 56.71 56.76 56.69 53.39 46.92 56.56 59.26 60.52 60.50 50.71 49.69 48.37 47.73 43.14 40.96 40.94 38.25 33.78 35.12 38.09 37.54 39.58 38.13 38.70 39.35 41.71 45.36 48.90 49.78 53.22 57.05 59.30
55.71 55.61 55.78 55.49 55.45 54.74 54.91 55.38 55.50 55.69 55.78 56.30 56.66 56.75 56.41 55.10 46.26 46.45 59.85 61.74 62.12 59.21 51.48 50.77 49.74 46.42 43.03 41.99 40.41 40.24 37.08 39.11 40.59 39.66 38.67 39.30 40.77 41.39 41.74 41.48 48.07 48.43 52.15 56.45 57.22
55.92 55.71 55.15 55.17 55.29 55.02 55.24 55.14 55.54 55.79 56.10 56.40 56.51 56.79 56.55 52.00 39.98 48.22 61.51 61.35 62.07 55.34 50.73 49.93 48.96 45.63 42.60 41.45 41.72 39.55 40.83 41.10 40.67 41.91 41.37 39.19 42.90 40.73 38.74 42.39 48.71 50.70 54.26 56.45 57.26
55.36 55.49 55.65 55.56 54.89 55.53 55.48 55.48 55.71 55.97 56.11 56.16 56.27 56.58 51.75 46.17 46.76 52.94 60.13 58.13 53.32 52.62 49.25 48.39 47.30 44.91 42.45 42.49 42.99 41.30 40.85 43.03 43.33 43.50 41.65 43.09 40.75 40.84 42.01 44.71 43.90 50.33 54.62 56.59 57.36
54.88 54.98 55.28 55.51 55.75 56.09 55.89 55.52 55.20 55.34 55.65 55.90 56.21 56.56 48.20 43.65 52.04 52.77 53.10 53.31 51.71 51.12 49.52 48.83 46.77 46.72 45.14 43.86 42.45 43.76 42.66 42.29 42.52 42.34 42.38 41.83 40.92 40.57 43.01 41.77 42.73 50.53 51.11 54.82 56.10
54.82 54.67 54.71 55.10 55.42 55.40 55.63 55.26 55.02 55.08 55.45 55.96 56.21 54.79 48.23 46.79 51.22 51.91 53.30 51.28 50.65 51.14 49.65 48.61 48.48 47.01 45.35 43.59 46.23 44.20 41.15 41.29 42.84 41.83 41.04 40.95 38.78 39.28 42.34 41.99 42.51 44.36 50.31 52.31 54.07
54.84 54.61 54.27 54.49 54.71 54.67 54.80 54.39 54.55 55.02 55.34 55.59 56.00 52.99 45.58 53.64 52.44 52.46 51.24 50.13 51.37 52.15 51.52 50.90 50.14 47.44 45.19 45.07 43.00 39.69 37.95 35.08 41.50 41.72 40.77 39.74 36.19 42.26 40.60 40.49 43.11 41.80 46.17 49.53 51.25
54.74 54.41 54.00 53.82 53.82 53.92 53.92 53.84 54.43 55.02 55.43 55.23 52.19 50.22 44.85 55.84 51.20 51.28 49.98 48.90 50.12 51.22 51.85 52.81 49.17 43.55 42.96 37.67 35.49 36.10 31.63 32.96 37.84 41.32 41.46 39.75 37.16 41.49 40.51 42.49 42.01 40.19 41.36 44.52 44.09
54.70 54.53 54.12 54.00 53.71 53.35 53.37 54.25 54.80 54.23 54.05 53.77 53.03 45.37 49.07 47.04 49.62 50.45 49.44 50.33 48.54 48.94 48.33 46.75 42.61 38.99 37.89 36.68 29.84 31.53 31.53 34.79 33.27 39.68 40.82 37.96 37.51 40.63 42.26 41.30 40.60 38.41 38.95 41.54 41.44
54.63 54.49 54.06 53.79 53.63 53.21 52.37 50.84 47.99 46.32 49.14 43.63 44.08 45.18 46.31 49.86 50.31 49.14 48.45 48.80 47.76 45.16 39.77 42.64 38.73 34.49 35.30 36.69 37.54 36.21 34.16 32.95 34.95 39.04 39.25 36.17 36.81 39.28 38.59 38.49 38.26 36.64 39.05 41.50 42.54
54.25 54.45 54.27 53.90 53.63 53.63 52.09 51.27 49.83 50.11 42.09 47.84 46.83 46.73 48.42 48.29 46.14 48.29 49.18 45.70 44.23 39.00 40.21 39.97 35.76 38.99 41.14 40.26 38.28 37.01 34.48 33.42 37.61 39.54 38.65 37.57 37.60 37.86 39.76 38.64 37.93 38.93 40.07 41.44 41.85
53.86 54.27 54.02 53.57 53.26 53.57 52.82 52.65 57.44 53.27 41.67 45.30 47.14 46.65 47.26 48.50 44.67 45.86 47.20 44.71 42.19 39.52 38.91 37.10 38.45 42.27 40.81 38.77 38.51 36.33 34.12 33.91 35.55 38.23 37.55 36.47 34.70 37.16 39.37 40.61 41.20 40.95 40.16 41.21 42.24
53.41 53.50 53.14 53.31 53.79 52.19 50.53 54.07 56.13 50.16 36.44 41.00 44.90 46.79 47.76 46.87 43.97 47.42 48.54 45.14 43.29 38.20 38.74 38.97 40.64 40.46 39.72 38.33 37.60 33.96 38.48 37.63 36.84 34.66 31.22 35.71 29.10 35.31 36.74 37.59 39.61 39.98 39.88 39.33 40.84
53.11 53.37 54.22 54.68 53.39 51.20 53.24 55.93 55.75 49.61 23.58 42.26 44.33 48.80 47.32 44.82 43.80 47.61 48.62 45.70 40.86 40.60 39.68 36.69 37.47 38.80 38.88 38.15 39.24 38.01 40.34 37.72 37.05 34.00 32.51 34.26 30.00 34.33 36.67 36.09 36.67 38.28 40.96 39.91 41.57
52.80 53.35 53.53 54.65 51.49 50.99 55.07 53.08 52.38 35.23 26.94 40.00 44.08 43.63 43.67 44.67 44.74 46.59 46.11 47.63 45.23 41.97 42.19 39.77 41.66 40.41 39.27 41.00 40.77 42.31 38.51 36.89 35.57 33.53 27.55 31.96 30.69 30.71 33.69 36.23 38.21 39.97 40.64 42.03 41.86
52.37 54.74 56.04 55.74 48.47 53.92 53.86 50.05 37.05 28.64 42.84 38.51 40.14 42.54 41.74 40.66 42.79 43.16 41.34 39.58 36.99 32.83 33.70 39.48 39.76 42.44 42.30 39.42 41.68 39.81 33.35 25.07 24.68 23.99 24.85 34.05 30.24 32.39 38.20 39.17 39.53 40.02 42.01 42.15 41.90
52.99 54.68 55.04 55.94 54.64 54.21 49.92 42.46 30.49 37.94 38.27 42.32 41.20 41.72 38.90 39.85 40.72 41.33 39.39 36.98 40.27 38.26 34.06 33.35 30.24 39.69 43.46 38.82 35.98 36.44 34.38 25.57 21.16 19.97 24.65 32.74 28.20 34.04 40.13 40.72 43.22 43.29 41.30 42.05 41.48
54.33 52.71 50.52 53.26 55.30 52.17 45.45 31.68 32.15 37.42 40.82 40.12 41.05 38.18 37.79 40.95 40.11 39.41 37.56 37.24 38.95 39.58 34.00 32.39 33.71 41.71 42.30 41.84 39.84 36.76 32.26 36.11 28.60 21.31 22.16 28.50 33.16 38.13 39.17 40.89 41.44 41.53 40.68 40.06 40.92
54.16 47.17 49.39 54.06 54.10 47.61 39.23 35.28 37.82 42.23 42.49 42.41 36.37 38.32 34.62 38.50 37.67 37.34 36.88 40.16 39.17 41.93 40.74 37.54 32.91 38.69 41.28 41.72 41.92 39.17 39.73 30.47 29.11 19.45 21.34 27.65 29.03 30.97 36.25 38.09 39.68 38.61 38.77 40.17 41.37
51.87 43.71 49.17 54.15 50.56 43.15 33.11 33.01 39.89 43.98 44.47 41.71 39.46 38.55 38.41 37.47 38.10 36.57 37.14 40.33 41.44 41.29 41.81 37.78 34.94 33.98 37.37 36.67 34.72 36.15 33.16 34.07 34.09 29.67 21.63 22.24 27.63 36.73 36.58 38.18 38.61 38.69 40.25 40.21 40.63
45.28 39.67 50.18 51.22 42.68 37.09 35.86 40.12 43.11 43.47 45.70 43.93 42.96 41.27 39.31 39.11 37.79 37.52 37.72 39.85 43.14 41.79 37.79 38.53 33.25 28.09 32.99 37.86 39.83 37.58 35.35 34.33 25.43 25.94 26.97 23.37 28.06 38.39 38.94 39.00 39.68 39.12 41.12 41.38 41.69
45.77 44.65 49.91 49.18 34.41 30.73 39.90 42.53 43.52 42.89 42.85 42.10 40.95 42.41 42.35 38.48 34.96 38.56 39.58 42.89 43.39 41.44 38.15 38.50 31.32 25.06 28.75 33.47 36.53 35.61 36.39 35.75 31.43 29.49 29.38 26.74 27.82 38.53 40.12 40.57 39.60 39.39 40.76 41.52 42.01
43.87 38.88 44.01 44.95 41.57 39.78 39.01 39.09 40.42 44.39 43.08 43.69 42.13 43.08 40.69 38.08 40.18 37.01 38.71 42.70 44.05 42.55 43.99 41.91 33.85 30.09 25.21 29.56 32.66 31.55 34.90 35.58 34.00 29.80 29.33 29.35 32.60 37.60 39.23 37.87 38.92 40.02 40.58 41.17 41.68
42.88 39.70 42.06 35.39 38.45 40.64 41.14 40.63 40.11 39.05 43.03 43.52 41.52 41.19 38.79 33.71 35.21 35.69 39.42 40.63 42.04 43.52 41.05 38.68 32.26 32.72 33.75 35.18 34.97 35.08 34.80 35.22 33.16 33.03 31.21 33.33 32.08 36.41 38.54 37.16 39.56 41.05 41.39 42.91 42.80
43.92 42.86 42.22 40.46 42.55 39.49 37.47 38.45 40.64 40.89 41.27 40.02 40.07 40.67 40.52 36.55 37.51 35.41 38.84 37.02 37.70 40.02 36.98 37.89 29.94 30.89 29.93 33.04 33.61 31.50 34.31 35.09 34.83 34.72 34.38 34.86 33.92 38.78 37.53 39.89 40.18 41.15 41.58 41.21 41.29
45.74 44.55 43.83 36.49 34.91 34.38 34.87 39.80 40.76 42.51 42.19 42.94 42.50 39.04 34.58 40.63 42.34 41.98 42.71 41.69 39.97 36.96 35.14 34.53 28.96 28.01 23.95 30.10 29.69 23.42 29.55 32.25 33.81 35.14 34.05 30.01 34.40 35.67 37.13 39.00 39.55 40.58 40.55 40.85 40.36

GFSSW_sfc_wetblb_015.txt.gz
Wetbulb
56.77 55.75 55.21 55.09 54.81 54.75 54.58 55.44 55.90 55.49 55.68 56.26 56.52 56.92 57.01 57.11 56.32 55.01 51.16 55.43 55.50 60.30 58.77 53.80 52.90 51.52 49.10 46.57 45.45 44.36 41.78 38.57 39.45 40.40 42.48 44.63 45.09 46.64 48.88 53.31 51.50 54.17 58.39 58.37 65.10
55.90 55.89 55.32 55.25 54.99 54.91 54.86 55.56 55.59 55.45 55.96 56.11 56.59 56.85 56.91 56.56 54.62 51.39 58.04 60.03 61.51 60.77 54.35 52.45 50.76 49.35 47.55 46.68 46.04 44.50 41.40 40.71 43.14 42.98 44.06 45.13 44.90 45.34 47.76 50.67 52.56 54.66 57.04 61.07 64.39
55.88 55.55 55.51 55.47 55.57 55.02 54.96 55.23 55.51 55.81 56.21 56.48 56.70 57.11 56.32 56.00 51.78 51.08 59.65 61.73 61.87 59.62 54.70 53.73 51.89 50.46 47.38 47.39 45.99 45.00 43.05 43.98 44.67 44.70 45.97 46.07 46.34 46.41 47.86 47.39 51.39 51.82 56.84 61.16 63.17
55.75 55.58 55.39 55.29 55.14 55.57 55.41 55.14 55.31 55.88 56.20 56.69 56.70 57.08 56.50 54.12 44.55 53.13 60.84 61.27 62.27 57.94 53.94 52.90 51.91 49.38 46.88 45.99 46.65 44.72 44.79 45.92 46.30 46.12 45.94 45.88 46.94 45.96 46.45 47.98 50.21 54.54 60.07 61.36 61.26
55.39 55.55 55.88 55.15 55.43 55.41 55.29 55.26 55.71 56.05 56.16 56.27 56.60 56.73 54.31 50.82 51.01 55.18 59.65 58.22 55.21 54.83 51.40 51.47 50.51 49.40 46.47 47.43 47.75 45.98 45.69 46.10 47.03 45.71 46.53 47.07 46.37 46.23 46.72 49.15 48.84 54.32 59.16 60.74 61.43
54.92 55.06 55.27 55.59 55.83 56.01 56.05 55.65 55.35 55.59 55.73 56.18 56.74 56.50 54.33 47.26 54.57 54.40 53.35 54.60 54.40 54.55 52.25 52.44 50.76 50.62 49.12 47.48 47.66 47.79 47.14 46.70 47.39 47.06 47.31 46.39 46.40 46.70 47.77 48.07 48.60 53.14 57.72 60.50 61.60
54.66 54.70 54.96 55.22 55.57 55.77 55.73 55.31 55.12 55.08 55.55 56.21 56.42 55.28 51.76 51.77 55.29 54.12 53.07 54.73 53.62 55.29 52.98 52.33 52.37 51.28 50.23 48.19 48.80 46.61 44.70 45.11 45.72 46.21 46.03 46.13 44.79 45.04 47.62 47.33 47.06 49.05 54.12 58.76 60.48
54.97 54.64 54.37 54.62 54.80 54.84 54.86 54.68 54.51 54.96 55.47 55.90 56.03 54.61 50.55 55.52 55.84 53.53 53.20 53.41 53.58 54.77 54.82 54.32 53.59 50.81 49.05 49.15 45.96 43.58 43.54 41.98 45.05 46.69 46.24 46.44 43.13 47.45 46.64 47.11 47.95 47.83 48.26 54.18 57.92
54.60 54.35 54.11 53.80 53.76 53.92 53.76 53.86 54.27 55.11 55.49 55.58 55.57 54.77 50.11 56.28 52.52 53.16 52.72 51.83 52.56 54.20 53.61 52.50 51.56 47.23 47.34 43.40 41.93 42.22 38.94 39.93 42.51 45.24 46.07 46.34 43.97 48.03 48.35 46.76 47.72 47.20 46.80 50.71 54.90
54.52 54.54 54.11 53.90 53.74 53.43 53.37 54.11 54.89 54.88 54.65 54.70 52.28 50.22 50.84 48.81 50.77 51.65 52.61 52.84 51.23 53.15 51.85 50.26 46.92 44.90 44.12 43.47 36.86 38.71 38.86 39.75 40.15 43.98 45.65 43.73 44.16 46.47 44.99 43.62 44.75 45.11 45.28 47.95 51.45
54.74 54.48 53.87 53.63 53.39 53.28 53.79 53.83 49.24 49.44 50.95 47.10 48.09 47.15 48.00 51.15 52.05 50.64 51.01 52.27 50.70 48.48 44.90 46.27 43.96 40.62 41.50 42.55 42.27 41.37 39.82 39.32 41.47 43.60 44.16 42.56 42.96 44.28 44.56 44.70 44.07 44.80 45.86 47.92 49.39
54.55 54.53 54.49 53.96 53.57 53.64 53.88 52.72 51.17 52.88 45.64 49.08 48.43 48.85 49.92 50.52 47.72 50.26 52.19 48.71 47.26 43.06 44.77 44.28 40.56 43.13 43.50 43.09 42.13 41.44 39.56 39.24 41.85 43.05 43.63 42.86 43.11 43.28 44.38 43.46 43.85 45.76 46.87 47.99 48.89
53.78 54.07 54.05 53.51 53.60 54.28 55.15 55.68 58.04 55.98 45.17 46.97 48.65 49.00 49.44 50.59 47.10 47.97 49.82 48.84 44.59 42.79 42.06 41.37 42.09 44.33 43.51 42.13 41.69 41.13 39.93 39.35 39.45 41.98 42.90 41.73 41.39 42.47 43.87 45.01 45.68 46.38 47.12 47.74 49.15
53.41 53.58 53.52 52.98 53.36 54.61 53.65 56.49 57.65 54.43 39.20 42.07 46.12 48.91 49.58 49.59 46.41 50.67 50.30 48.95 46.38 42.11 42.95 42.10 43.66 43.09 42.78 41.36 41.78 38.80 41.94 41.73 40.25 40.05 38.16 40.76 36.37 41.16 41.61 43.02 44.57 45.65 46.89 47.79 48.14
53.08 53.55 53.26 53.73 54.44 52.87 55.21 56.81 58.62 51.25 28.40 43.80 46.26 51.37 49.05 46.79 47.02 49.25 50.66 49.48 44.23 42.97 44.21 40.72 42.38 42.27 42.11 41.70 43.02 41.66 42.79 41.27 40.87 39.73 39.17 39.72 38.16 40.51 41.94 41.13 42.73 45.14 46.21 47.86 47.90
53.19 53.82 53.67 54.10 54.09 55.00 56.53 56.19 53.74 37.79 28.73 42.21 46.04 45.36 45.70 45.94 46.24 47.92 47.28 49.52 47.89 44.42 44.91 42.88 45.73 44.26 43.54 44.20 44.31 44.25 41.94 40.12 39.48 38.77 34.78 36.50 36.65 37.64 39.89 40.42 42.88 45.94 47.25 46.67 47.28
54.11 54.53 55.94 54.70 51.31 55.95 55.01 51.33 39.10 31.63 43.74 40.32 42.13 44.39 42.90 42.40 44.02 44.43 42.80 42.06 40.40 38.29 37.68 41.78 42.77 45.32 44.93 43.10 44.97 43.61 38.55 33.99 33.93 33.66 33.32 36.98 35.81 37.99 41.62 43.38 44.38 45.11 45.85 46.28 47.25
53.62 53.98 54.21 55.66 55.86 55.60 52.04 44.41 33.20 38.75 40.47 43.99 42.98 43.02 40.92 42.60 42.79 42.53 41.78 39.87 43.03 40.89 38.12 36.60 35.39 42.45 45.17 42.94 40.43 40.72 39.05 33.93 27.04 29.25 31.85 36.06 33.55 38.11 43.52 45.26 46.38 45.97 45.20 45.88 46.56
53.86 51.84 52.54 54.46 56.22 52.81 47.48 35.46 34.94 38.63 42.79 42.07 43.05 40.43 40.57 43.32 41.96 41.69 40.16 39.83 41.71 42.74 37.93 36.60 36.73 44.00 44.67 44.62 43.53 40.53 37.69 39.53 32.23 25.96 30.94 34.58 37.91 41.52 43.05 44.15 44.39 44.13 44.99 45.19 46.38
51.55 49.52 51.37 53.99 54.71 49.16 41.93 36.96 40.69 43.39 44.20 44.14 39.24 41.27 38.34 40.37 40.09 40.13 39.84 43.06 41.73 43.37 44.28 40.53 35.77 41.15 43.10 44.71 44.58 42.52 42.45 36.07 36.04 28.41 26.38 32.83 33.66 36.65 39.43 41.19 42.76 43.39 43.95 45.34 46.19
49.15 47.03 51.41 54.68 51.33 44.49 36.65 36.58 41.85 45.28 45.98 43.73 41.72 40.76 40.86 40.46 40.56 39.30 39.53 42.75 44.05 43.76 44.25 41.29 38.30 37.93 40.70 39.89 38.72 40.34 38.32 37.73 37.50 34.74 30.02 26.38 32.88 41.42 41.10 41.83 42.66 43.72 44.39 45.63 46.98
45.84 43.79 52.15 52.77 43.35 38.85 38.27 41.97 43.39 44.71 46.42 45.11 44.65 43.43 41.78 41.50 40.17 40.25 39.92 42.08 44.33 45.53 41.20 41.82 37.29 33.40 36.72 41.14 42.96 41.49 38.70 37.32 32.35 29.64 32.92 31.89 31.85 42.11 43.14 42.82 43.74 44.24 44.32 46.04 47.11
46.36 46.96 50.97 50.78 37.49 35.13 42.77 43.67 44.13 44.28 43.36 43.75 43.15 44.48 43.98 40.77 37.97 41.23 42.16 45.40 44.89 44.88 42.55 42.22 36.27 30.57 32.48 37.42 40.15 39.25 39.74 37.27 35.64 34.25 32.33 29.67 32.31 41.73 42.89 44.16 44.17 44.26 45.20 46.37 46.95
44.94 41.83 45.46 45.17 43.09 41.74 41.08 41.53 41.98 44.93 44.11 44.31 43.42 44.76 42.38 39.92 42.28 40.29 41.50 45.03 45.76 44.67 43.64 43.62 36.84 33.99 30.39 33.08 36.70 34.73 36.89 37.81 37.73 33.48 32.53 33.55 35.75 40.50 42.45 42.24 43.41 43.63 45.42 46.34 46.04
44.51 42.06 44.08 38.26 41.22 42.08 42.81 42.41 41.32 40.62 44.71 44.85 43.12 42.70 41.16 36.73 38.72 39.60 41.94 42.89 43.92 44.38 43.61 42.37 36.27 35.86 36.47 37.48 36.77 36.44 36.16 36.76 35.80 36.70 33.17 35.92 36.15 39.79 42.03 42.13 42.58 44.80 44.82 44.44 45.22
44.82 43.77 42.88 40.75 42.81 42.09 38.81 41.72 41.76 42.31 43.00 42.59 41.66 43.27 43.08 39.31 39.76 38.60 41.87 41.38 40.85 43.14 41.62 40.09 35.66 35.50 32.87 34.77 34.88 33.01 35.78 36.09 36.59 37.05 36.63 37.25 36.49 42.91 42.62 43.61 43.39 43.06 43.18 43.09 43.48
46.53 45.95 45.38 37.05 37.08 38.04 37.98 41.86 42.44 43.48 43.37 44.59 43.66 41.60 37.85 42.93 45.26 45.54 44.81 43.08 43.29 41.54 39.21 38.19 35.29 32.03 29.30 31.79 32.05 29.29 33.33 35.35 36.78 38.15 37.76 33.75 38.83 40.65 41.05 42.00 42.61 42.94 43.03 41.56 39.82

GFSSW_sfc_wetblb_018.txt.gz
Wetbulb
56.98 56.41 56.15 55.68 55.20 55.00 54.99 55.48 55.65 56.03 56.12 56.46 56.87 57.23 57.38 57.44 56.89 59.62 55.13 58.20 59.20 60.63 59.45 56.83 56.25 55.74 53.39 50.86 51.37 51.02 46.98 43.90 43.99 44.89 46.14 49.06 48.29 50.77 55.19 55.24 55.66 57.48 58.96 61.66 66.33
57.16 56.40 56.28 55.53 55.47 55.18 55.11 55.66 55.96 55.78 55.89 56.49 56.78 57.12 57.46 56.81 59.11 55.62 59.53 61.46 62.33 61.55 57.32 55.42 53.27 52.91 51.94 51.07 52.24 50.83 47.13 44.88 47.15 48.10 47.96 48.59 48.58 49.58 50.50 50.82 52.49 56.14 60.43 64.16 66.87
56.54 56.23 55.86 55.87 56.06 55.37 55.46 55.42 55.71 55.62 56.29 56.81 57.09 57.35 56.83 57.82 55.36 55.02 61.16 62.07 61.91 61.22 57.77 56.53 55.14 53.75 50.93 52.24 51.13 49.98 46.54 48.17 47.80 49.08 49.91 48.83 48.58 49.93 48.92 48.40 51.26 51.68 57.99 63.70 65.45
55.73 56.09 55.84 55.85 55.80 55.62 55.86 55.51 55.67 55.80 56.51 56.80 57.10 57.40 56.98 59.12 46.96 57.47 61.07 61.49 62.60 60.08 56.98 56.50 55.04 51.83 49.84 48.57 50.70 47.01 48.96 48.59 48.38 49.42 49.24 48.34 50.24 48.74 50.02 50.28 53.16 55.29 59.51 62.95 63.67
55.35 55.70 56.11 55.74 55.40 55.65 55.83 55.25 55.61 55.81 56.41 56.33 56.87 57.23 58.82 54.76 53.52 58.80 60.61 61.66 59.20 58.37 56.54 55.48 53.02 52.00 48.54 50.10 51.15 49.85 50.16 50.55 50.18 49.70 50.07 50.23 49.50 49.54 50.12 52.27 52.94 57.06 60.59 61.18 61.72
55.25 55.43 55.57 56.00 55.88 55.37 55.61 55.61 55.57 55.89 55.88 56.37 56.98 56.40 58.34 50.35 58.08 59.04 57.22 57.95 58.62 58.41 56.93 56.42 54.53 54.91 52.48 51.44 50.82 51.61 51.12 50.67 51.03 50.51 50.49 49.47 49.98 50.57 50.96 52.90 52.66 54.74 58.13 60.52 61.01
55.19 55.00 55.21 55.53 55.93 56.13 56.13 55.73 55.41 55.41 55.94 56.26 56.67 58.94 55.78 53.17 59.14 58.96 57.01 57.16 57.32 58.01 56.29 56.62 56.51 54.58 54.61 52.25 52.87 51.46 49.22 50.56 50.26 50.49 49.86 50.11 48.83 48.69 51.54 51.42 51.14 52.82 55.54 59.24 60.75
55.17 54.94 54.78 54.96 55.10 55.12 55.18 55.12 54.94 55.31 55.74 55.99 56.11 59.75 52.83 58.40 60.08 57.25 57.24 56.41 57.84 58.50 58.22 57.38 57.70 54.84 53.64 53.17 50.54 48.52 49.15 45.88 49.30 50.40 50.75 51.24 46.48 50.50 53.06 52.46 51.68 52.75 53.40 57.50 60.23
54.75 54.66 54.48 54.13 54.29 54.21 54.33 54.33 54.60 55.36 55.93 56.15 60.01 57.79 51.00 59.14 55.09 56.93 56.48 55.05 56.58 57.38 57.49 55.86 55.63 52.94 51.75 49.58 47.11 47.15 44.06 43.63 46.11 49.78 49.86 49.39 47.04 51.45 52.21 50.63 51.91 53.46 53.53 54.53 58.15
54.83 54.69 54.44 54.25 54.13 53.92 53.64 54.37 55.12 55.80 57.59 58.33 56.33 53.45 53.53 51.60 54.63 55.02 56.21 55.92 54.97 55.45 54.90 54.27 54.30 50.79 50.61 47.88 42.42 42.62 43.09 44.09 44.00 47.77 48.77 47.46 47.73 49.68 50.80 49.72 51.02 52.50 52.98 53.16 56.50
55.03 54.74 54.37 54.10 54.15 53.68 55.66 60.28 55.86 54.49 55.40 51.26 51.29 51.02 51.86 54.84 55.96 55.02 54.80 54.97 54.57 53.61 49.69 51.28 49.86 46.14 46.68 47.74 46.91 45.60 44.29 43.55 45.78 47.89 47.84 47.62 47.77 48.11 49.96 50.47 50.82 51.22 51.57 53.23 56.35
54.86 55.20 54.88 54.31 54.17 54.09 60.17 57.59 56.22 57.71 49.78 52.75 51.95 52.34 53.25 54.27 51.78 54.64 57.26 52.03 51.40 47.96 49.99 48.85 45.31 47.32 48.38 47.91 46.14 45.70 43.79 43.90 46.13 47.31 47.34 47.46 46.43 47.92 49.44 49.61 50.79 51.82 52.63 53.64 54.27
54.37 54.95 54.62 53.86 53.77 58.44 61.72 59.50 62.78 60.52 50.67 50.78 52.20 51.97 52.20 55.06 51.40 52.46 54.53 51.82 49.75 47.63 48.07 46.31 45.88 47.26 47.03 47.12 46.03 45.81 44.02 43.95 43.67 47.03 47.96 46.92 45.89 46.23 48.20 50.15 51.02 51.78 52.67 53.16 53.35
53.78 54.35 54.15 53.15 56.18 60.49 58.64 60.79 63.81 59.39 47.15 45.92 48.89 51.68 52.75 52.68 49.81 54.77 54.74 51.74 49.48 46.62 47.48 46.59 47.71 47.18 46.91 45.34 46.77 43.32 46.09 46.18 44.90 44.59 42.63 46.95 41.30 44.56 46.36 47.48 49.12 50.32 51.72 52.49 52.82
53.70 54.52 53.35 54.27 61.37 58.70 59.72 63.32 64.19 59.86 37.55 47.15 49.08 54.97 54.20 50.54 50.54 52.03 55.00 53.43 47.93 46.97 48.12 43.73 46.24 46.35 45.61 44.89 47.40 45.00 47.46 45.88 45.34 44.90 44.34 44.33 42.62 44.34 46.87 44.95 47.02 50.06 51.18 52.41 52.97
54.03 54.41 54.07 59.19 63.34 60.57 63.24 62.33 61.78 47.88 34.89 44.89 49.31 48.78 49.63 51.03 50.06 51.97 52.25 54.09 51.62 49.13 49.36 47.21 49.70 48.90 47.72 47.67 47.46 48.43 46.21 45.63 46.30 45.96 40.03 42.24 42.07 42.54 45.51 44.15 46.98 49.99 51.50 52.16 52.69
54.09 54.74 59.39 61.44 58.98 63.16 63.34 60.44 46.59 40.83 46.63 43.78 45.60 48.28 48.20 47.02 48.07 48.93 48.55 47.54 45.92 43.04 43.06 45.95 46.47 49.16 49.80 46.69 48.77 48.45 44.67 40.51 38.33 38.89 38.29 42.24 41.19 42.66 45.34 47.39 48.26 48.85 50.39 51.98 53.00
53.44 55.12 56.17 60.98 63.76 62.83 61.44 54.05 39.46 43.04 43.82 46.94 47.16 47.54 44.86 46.80 46.80 47.45 46.39 45.42 48.33 46.52 44.72 42.00 40.13 46.63 49.00 46.44 44.57 45.14 44.57 39.53 30.61 35.09 38.41 41.38 38.59 42.23 47.34 49.24 49.86 49.99 50.61 51.25 51.75
53.74 61.06 61.69 61.58 62.71 61.85 56.70 46.95 43.46 44.88 46.63 46.02 46.90 44.42 44.22 46.14 46.51 46.35 45.60 44.66 46.38 47.74 42.90 41.69 40.67 47.56 47.51 48.45 47.30 44.56 42.35 44.61 38.02 33.22 36.70 41.29 42.32 45.97 47.41 47.36 48.15 48.42 49.41 49.74 50.69
59.66 59.70 59.48 61.05 61.44 60.11 53.98 42.32 45.07 47.20 48.07 47.67 43.16 45.04 42.72 44.46 44.44 45.06 44.29 45.95 45.25 47.69 48.88 44.27 40.04 44.65 46.40 48.27 48.71 46.67 46.61 40.88 42.52 32.69 29.19 37.80 38.60 40.78 44.43 46.41 46.88 47.88 48.30 49.31 50.83
59.44 54.74 58.96 61.09 59.78 56.29 48.50 45.45 46.35 48.72 49.47 47.38 45.49 44.54 45.23 44.08 45.22 43.96 43.21 45.75 47.37 46.95 48.71 45.80 42.95 41.90 44.99 44.14 43.38 45.23 44.03 42.38 42.38 40.14 33.46 30.92 37.09 46.51 45.36 46.30 45.93 48.01 48.24 49.45 50.41
57.35 51.17 59.05 60.55 52.33 50.98 47.63 47.54 45.94 48.69 50.36 49.21 49.33 47.71 46.04 45.59 44.55 44.12 43.41 45.66 48.18 48.41 44.58 46.06 43.81 38.78 39.68 45.05 46.86 45.80 42.90 41.96 37.60 32.04 37.62 35.95 36.11 46.53 47.23 47.56 47.39 47.86 48.14 49.64 50.62
56.27 55.34 59.09 58.52 48.46 48.24 47.89 47.23 48.44 48.24 47.67 47.91 47.13 48.54 48.45 45.65 42.72 45.33 45.44 48.07 48.77 48.28 46.14 46.87 42.07 36.16 37.32 42.29 44.92 43.12 43.62 42.75 40.88 39.50 35.44 33.39 37.41 46.19 47.38 47.43 48.48 47.90 48.34 49.35 49.81
55.89 51.72 55.01 55.07 52.06 49.74 47.49 46.66 46.06 49.05 48.10 49.10 47.70 49.28 47.55 45.62 47.06 44.69 45.28 47.32 48.54 48.20 43.78 47.16 43.19 38.73 34.87 37.71 41.03 38.59 40.68 41.92 40.85 35.90 36.17 37.46 39.65 43.95 45.46 45.90 47.32 47.34 48.49 49.12 49.16
55.34 51.51 51.26 49.17 49.27 50.15 49.58 48.00 46.08 45.18 48.77 49.64 47.50 47.63 46.54 43.13 44.01 43.83 46.00 46.32 47.10 45.22 47.80 47.38 39.02 41.03 41.60 42.07 41.96 40.63 39.86 40.76 39.11 39.96 35.84 39.03 39.77 43.21 45.22 45.64 46.71 47.78 48.09 47.72 47.84
53.61 52.07 51.90 49.17 49.38 49.40 45.35 47.44 46.41 46.01 47.52 46.09 46.63 47.21 47.39 43.81 44.15 42.94 44.68 44.54 43.69 46.92 46.28 45.91 40.00 38.86 36.84 40.35 40.38 38.22 40.81 40.92 40.65 41.03 41.05 41.09 40.19 46.10 46.42 47.10 46.53 46.55 46.71 46.08 46.14
54.22 53.12 55.62 43.08 46.72 49.09 47.48 47.61 47.27 49.05 47.84 49.40 49.53 47.83 45.28 47.00 49.70 49.96 49.78 48.85 47.64 45.62 43.53 43.05 41.20 37.27 34.57 37.40 37.11 34.37 38.15 39.97 41.01 42.23 41.42 37.48 42.33 45.15 44.39 44.74 45.67 46.27 46.19 44.87 43.54

GFSSW_sfc_wetblb_021.txt.gz
Wetbulb
57.88 57.76 57.28 56.80 55.96 55.44 55.41 55.92 56.15 55.67 56.35 56.76 56.86 57.45 57.81 57.97 56.89 60.31 57.02 59.08 60.70 60.57 58.91 59.07 58.26 57.74 56.29 53.25 54.15 53.96 48.40 45.92 45.96 46.30 46.75 50.14 49.30 51.34 54.15 53.89 54.99 55.73 58.77 61.09 64.66
57.60 57.74 57.33 56.83 55.92 55.83 55.48 55.89 56.04 56.02 56.28 56.55 57.13 57.54 57.85 57.47 60.81 56.90 58.35 62.69 63.18 62.56 59.29 56.65 54.93 54.59 53.51 52.48 53.11 50.91 48.63 46.52 49.04 49.45 48.54 49.46 49.83 49.94 51.65 51.64 52.21 55.38 58.66 63.77 64.92
57.63 57.36 57.16 57.15 56.64 56.16 55.81 56.12 55.93 55.76 56.02 56.62 57.24 57.71 57.54 57.83 58.57 55.92 61.67 62.52 62.48 62.27 60.90 57.92 55.60 54.71 51.49 52.87 51.65 50.73 47.85 49.05 48.57 49.81 50.46 49.25 48.78 50.41 49.84 49.35 52.43 53.39 56.22 61.90 63.20
56.84 56.41 56.66 56.66 56.41 55.97 55.88 55.74 56.13 55.97 56.26 56.80 57.38 57.72 57.64 61.88 48.46 58.26 62.06 62.88 63.31 63.36 58.88 56.75 55.46 52.53 51.08 49.68 51.86 47.84 49.77 49.45 49.38 49.78 49.77 48.79 50.80 49.14 50.38 51.60 54.01 55.00 58.45 61.06 61.83
56.17 56.21 56.25 56.45 55.96 55.68 55.73 55.82 56.10 55.97 56.36 56.76 57.08 57.63 60.61 57.23 54.20 59.86 61.87 64.31 61.15 59.86 57.43 55.18 53.09 52.10 48.82 49.78 50.29 49.10 49.43 49.90 50.29 50.13 50.42 51.05 49.77 49.80 50.17 53.03 53.81 56.03 58.60 60.14 61.71
55.72 55.82 56.04 56.31 56.46 55.83 56.00 55.80 55.76 56.06 56.43 56.63 57.13 56.92 59.83 52.06 59.16 60.07 59.28 59.21 59.55 58.40 56.13 55.86 54.13 54.39 51.03 50.97 50.93 51.92 51.82 51.87 51.94 51.41 51.47 50.58 50.69 51.57 52.00 53.62 53.14 55.06 57.16 59.24 60.13
55.78 55.58 55.64 55.80 56.22 56.44 56.42 56.06 55.78 55.86 56.29 56.68 57.25 60.53 58.96 54.42 59.70 59.95 58.66 58.35 59.27 59.22 55.96 57.48 56.91 54.30 54.49 51.86 53.99 52.68 49.84 51.66 51.98 52.55 51.38 52.33 49.10 49.71 53.07 53.47 52.97 53.58 55.34 58.19 59.45
55.60 55.56 55.09 55.40 55.68 55.64 55.60 55.34 55.38 55.78 56.19 56.70 56.73 61.29 54.56 59.02 61.06 58.02 58.54 57.69 59.46 60.25 59.28 59.01 58.57 56.45 55.02 55.48 52.19 50.16 50.80 47.45 50.91 51.66 52.25 52.04 47.73 51.47 53.98 53.72 53.07 54.26 55.04 56.34 58.68
55.39 55.33 55.22 54.81 54.66 54.85 54.89 54.93 55.01 55.87 56.45 56.93 60.72 61.54 52.14 58.46 56.21 57.25 58.07 55.95 58.02 59.29 58.93 57.45 57.98 54.64 54.23 50.77 48.58 48.84 45.62 45.30 47.80 51.23 50.70 50.69 48.54 52.76 54.22 53.21 52.81 53.73 54.82 55.32 57.17
54.94 55.13 55.07 54.84 54.69 54.63 54.52 54.56 55.47 55.77 57.66 60.70 59.93 54.80 53.95 52.36 55.24 56.41 58.18 58.22 57.01 57.43 56.16 55.64 54.75 51.93 51.08 49.03 43.62 44.77 44.24 45.30 45.36 49.52 49.11 48.53 48.53 51.76 52.34 52.36 52.84 53.99 54.92 55.13 55.80
55.02 55.29 55.09 54.98 55.07 54.44 55.49 60.26 56.83 56.68 57.16 53.32 52.96 52.34 52.90 55.45 57.77 55.86 57.14 56.70 56.57 55.38 51.59 53.13 50.36 48.64 48.35 48.82 48.18 46.90 45.75 45.08 47.39 49.60 48.35 48.20 48.79 49.58 51.80 52.85 52.85 53.40 53.84 54.39 56.06
54.93 55.48 54.94 54.83 54.79 54.79 60.64 59.41 58.91 59.22 51.02 54.45 54.50 54.78 55.60 56.43 52.30 55.11 58.40 53.90 53.48 49.87 51.16 49.41 48.15 49.27 49.73 49.31 48.05 47.52 46.12 46.01 47.86 49.04 48.61 48.74 48.30 49.76 51.13 51.72 53.27 53.78 54.78 55.93 56.59
54.86 55.38 55.41 54.68 54.20 58.96 63.00 61.40 64.56 62.52 51.52 51.69 53.88 53.18 53.72 55.82 52.31 52.90 56.07 53.43 50.48 48.04 48.12 48.23 48.54 49.33 49.05 48.34 47.38 47.78 46.27 46.31 45.74 48.62 50.07 48.70 47.14 47.80 50.39 51.89 52.58 53.63 54.40 54.87 54.78
54.65 55.42 54.34 53.47 56.21 63.78 60.92 63.54 65.80 63.74 48.60 46.92 50.25 52.47 54.05 54.56 51.10 56.23 56.45 53.52 50.53 47.40 48.97 48.42 50.10 48.50 48.22 47.06 48.44 45.58 48.43 47.68 47.00 46.01 43.50 49.28 42.91 46.78 49.00 49.39 50.90 52.26 53.40 53.93 54.28
54.53 55.65 53.50 54.18 62.52 59.54 61.92 66.06 67.20 63.62 39.18 48.50 50.31 56.90 54.41 52.15 52.45 53.16 57.01 54.16 48.99 48.89 49.78 46.82 47.74 47.96 47.13 47.19 49.09 47.01 49.70 48.06 47.84 46.71 46.43 46.11 43.48 45.79 48.80 47.15 48.97 51.39 52.72 53.77 54.53
54.94 55.10 53.81 59.51 65.38 62.95 65.48 66.16 65.24 49.70 37.43 46.20 50.57 50.66 50.94 52.04 51.65 53.68 53.42 55.58 54.59 49.90 50.68 49.28 51.77 50.79 49.49 50.03 49.44 50.66 49.07 48.24 48.78 47.37 41.08 45.37 44.13 44.85 46.74 47.63 49.11 51.66 52.75 53.66 54.66
54.68 55.29 56.50 64.17 60.14 65.75 66.87 62.59 46.56 42.42 48.30 45.15 47.44 49.91 49.80 48.99 49.54 51.05 50.07 49.68 48.85 45.43 45.46 47.83 48.13 51.07 51.32 48.76 50.82 50.28 47.35 41.94 39.75 40.28 39.65 45.47 42.56 45.03 48.08 49.55 50.44 50.48 51.75 53.25 54.42
54.77 55.78 59.67 64.78 66.93 65.97 63.43 53.41 42.41 45.53 45.88 49.51 49.12 49.46 46.99 49.21 48.75 49.04 48.79 47.53 50.16 49.00 47.39 44.23 42.07 48.14 50.44 48.40 46.33 47.00 46.58 41.23 33.08 36.56 39.85 44.64 39.58 45.15 49.90 51.24 51.38 51.61 52.03 52.71 53.12
54.36 64.89 64.06 65.08 66.80 65.14 56.60 47.26 45.98 46.59 48.66 47.82 48.55 46.26 45.93 47.89 48.34 48.63 48.19 46.89 48.03 49.90 45.72 44.02 43.38 49.26 49.58 50.77 49.75 46.74 44.37 47.01 41.06 38.99 37.95 42.06 45.03 48.53 49.70 49.55 49.92 50.44 51.30 51.62 52.29
60.70 60.05 60.68 65.11 66.31 63.04 54.55 45.68 47.76 49.92 49.69 49.91 45.08 47.37 44.69 46.51 46.65 47.28 46.70 48.19 47.30 49.56 51.07 46.50 42.60 46.68 48.28 50.15 50.34 48.27 48.92 42.83 44.23 33.37 31.02 38.99 40.12 42.06 45.76 47.52 49.68 49.17 49.96 51.32 52.23
60.93 54.86 62.04 66.06 63.98 56.24 49.26 48.17 48.63 51.15 51.62 49.17 47.15 46.26 47.55 46.06 47.46 46.23 45.86 47.83 49.42 48.78 50.46 47.85 44.85 44.54 46.41 45.89 44.76 46.63 46.18 44.68 43.81 41.35 34.62 32.88 38.37 47.77 46.74 47.93 47.82 48.96 50.37 51.38 51.97
59.43 52.32 62.96 64.41 52.45 54.45 50.26 49.89 48.72 50.75 52.68 50.98 51.38 49.55 48.27 48.14 46.64 46.34 45.76 48.35 50.62 50.32 46.36 48.01 45.62 40.64 42.01 47.13 49.07 47.50 45.17 44.67 38.71 35.30 39.15 37.37 37.50 48.56 48.44 48.91 48.89 49.55 50.55 51.03 52.11
56.06 56.35 62.86 62.15 50.31 51.63 51.20 49.92 51.18 50.46 50.34 50.32 49.27 50.73 51.20 48.58 44.83 47.53 47.92 50.28 50.79 50.06 48.28 48.80 44.90 38.82 40.75 44.65 47.19 44.41 45.65 44.74 42.44 40.88 35.98 35.69 38.01 48.03 49.06 48.78 49.48 49.36 50.16 50.63 50.79
57.41 52.45 55.94 57.87 56.74 51.76 49.85 49.07 48.16 51.90 50.53 51.48 50.52 51.70 50.15 47.84 49.74 47.07 47.40 49.36 50.75 50.60 45.14 48.59 45.37 40.45 37.07 40.21 43.47 40.73 42.64 43.75 42.61 37.07 37.92 38.88 41.02 45.35 46.65 47.19 48.30 49.00 50.03 50.66 50.07
58.64 54.37 54.96 50.66 52.21 52.56 52.46 50.70 48.45 46.95 51.18 52.09 49.47 49.62 48.79 45.23 47.01 46.17 48.66 48.61 49.42 45.35 48.93 48.56 40.99 43.34 43.68 43.81 43.24 42.30 41.86 42.52 40.99 41.69 37.58 40.35 41.37 44.89 46.62 46.90 47.94 49.59 49.62 49.03 48.58
55.20 54.53 56.28 54.74 53.60 52.28 47.93 49.55 48.52 48.37 49.81 48.34 48.73 49.89 49.66 46.56 46.18 45.15 46.97 46.50 45.70 48.58 48.00 47.86 41.51 41.90 39.05 42.86 42.52 40.18 42.26 42.70 42.59 42.53 42.72 42.51 41.86 47.68 48.53 49.01 48.17 47.95 47.76 46.72 47.64
59.79 59.51 57.58 47.33 52.51 51.09 50.14 50.18 49.65 51.09 50.36 51.47 51.35 49.70 48.24 49.18 51.92 52.35 51.86 50.66 49.44 47.51 45.63 44.98 43.43 39.06 35.72 40.88 39.59 35.99 40.50 41.58 42.41 43.95 43.02 38.84 43.78 47.36 46.52 46.32 45.59 45.57 46.15 47.11 46.31

GFSSW_sfc_wetblb_024.txt.gz
Wetbulb
58.40 58.30 58.31 58.25 57.16 56.43 55.96 56.20 56.17 56.33 56.32 56.86 57.04 57.34 58.11 58.15 56.82 59.40 56.09 59.23 60.53 60.90 59.51 57.40 57.69 56.83 56.48 53.53 53.60 53.43 48.26 46.41 47.09 48.03 46.62 50.09 48.90 51.45 54.06 53.44 54.52 57.29 58.07 61.83 63.57
58.06 58.03 58.12 58.31 57.37 56.44 56.23 56.14 56.30 56.36 56.29 56.71 56.91 57.71 57.96 57.64 58.59 57.92 61.26 62.84 63.55 62.49 57.76 56.33 54.81 55.49 52.57 52.16 52.47 49.71 47.11 45.80 48.72 49.00 47.70 48.81 49.19 49.49 50.91 50.99 51.81 56.01 60.62 62.62 62.45
58.11 57.99 57.81 58.02 57.76 57.24 56.00 56.39 56.46 56.30 56.33 56.90 57.28 57.98 57.53 57.36 57.42 55.88 62.01 62.26 63.28 62.68 60.41 60.01 55.79 53.64 50.84 52.12 51.26 50.28 46.22 48.43 48.13 49.54 49.75 48.50 48.44 50.56 49.98 48.16 52.03 52.57 58.81 60.91 61.28
57.89 57.70 57.47 57.16 57.49 57.03 56.57 56.09 56.27 56.48 56.67 56.89 57.26 57.96 57.82 58.50 48.90 57.20 62.20 62.87 63.59 61.78 60.15 56.43 54.14 51.63 50.06 48.69 51.14 47.50 48.96 48.79 48.64 49.73 49.24 47.70 49.22 48.41 50.45 50.97 54.06 55.37 57.56 60.73 60.15
56.86 56.81 56.42 56.51 57.08 56.42 55.59 55.92 56.18 56.31 56.38 56.61 57.18 57.90 58.44 56.61 54.44 59.32 62.46 65.05 60.58 60.48 57.72 55.46 53.41 52.28 49.06 49.73 49.77 48.04 47.76 48.67 49.41 49.48 50.19 50.58 48.66 49.13 49.71 52.52 54.32 56.70 57.96 59.59 60.43
56.46 56.20 56.16 56.27 56.85 56.32 55.59 56.04 56.16 55.98 56.55 56.86 57.10 57.13 58.21 52.18 58.74 59.66 58.98 58.98 58.73 57.93 55.91 55.61 53.93 53.86 50.24 49.55 49.45 50.36 49.84 49.58 50.00 50.25 50.31 48.98 49.89 50.59 50.71 52.48 52.38 54.84 56.80 58.81 60.35
56.26 56.08 55.90 56.20 56.42 56.70 56.70 56.06 56.02 56.22 56.45 56.86 57.11 58.58 58.43 55.05 58.81 59.51 58.83 58.05 58.78 58.58 56.39 56.80 56.64 53.32 53.28 51.11 52.75 51.53 48.63 50.34 50.70 51.00 49.80 50.95 48.31 48.26 52.00 52.87 51.60 52.64 54.96 57.73 58.90
56.37 55.98 55.37 55.61 55.90 55.90 55.96 55.92 55.68 56.05 56.50 56.79 57.08 59.48 55.23 59.36 59.86 57.97 58.11 57.03 58.53 59.22 58.28 58.10 57.86 56.22 54.67 54.50 50.89 48.78 49.78 45.99 50.00 51.30 51.86 50.63 45.62 50.02 52.90 51.92 51.42 52.57 53.48 54.74 58.14
56.25 55.91 55.52 55.23 55.23 55.41 55.48 55.37 55.46 56.05 56.47 56.88 58.44 59.68 54.45 59.34 55.54 57.19 57.50 55.63 57.11 58.23 58.77 57.52 57.14 53.63 52.81 49.04 47.02 48.03 44.09 46.21 47.69 51.13 50.84 49.77 47.43 51.13 53.42 53.11 52.11 52.99 53.94 54.35 55.59
55.74 55.62 55.57 55.34 55.05 54.83 54.74 54.85 55.72 55.77 57.45 60.46 60.87 55.94 55.00 52.32 55.23 55.82 57.56 58.06 55.99 56.61 55.09 54.68 53.76 50.50 50.25 48.18 41.79 43.69 44.04 45.24 44.95 48.85 48.19 47.08 47.58 51.18 52.43 52.12 52.08 52.90 53.24 54.43 54.82
55.78 55.90 55.69 55.46 55.18 54.79 54.00 58.07 55.92 55.36 57.85 53.15 52.41 52.78 52.35 54.46 55.90 55.41 56.96 56.33 56.46 54.99 50.76 52.68 49.02 47.02 47.70 48.45 47.54 47.00 45.49 44.71 47.28 49.49 47.44 46.77 47.79 49.73 51.37 52.41 53.04 54.49 55.14 55.19 56.24
55.40 55.65 55.33 55.43 55.34 55.46 57.92 58.41 59.11 59.31 51.29 54.48 54.30 54.03 55.05 56.54 51.80 54.06 57.56 53.44 52.37 49.25 51.59 48.56 46.37 49.34 49.78 48.98 47.82 47.17 45.73 45.69 48.12 49.11 47.63 47.72 47.53 49.61 50.72 51.53 52.85 53.26 54.17 55.05 54.93
55.38 56.20 55.66 54.82 54.72 56.97 60.65 61.53 64.47 64.04 51.19 51.58 54.10 53.04 53.77 55.80 52.24 52.30 55.28 53.78 50.73 49.15 47.90 47.32 48.10 49.72 48.67 47.99 47.05 47.54 45.66 46.31 45.18 48.10 49.27 47.37 45.91 47.16 49.98 51.51 52.59 53.38 54.48 54.49 54.08
55.37 55.72 55.17 53.91 55.65 63.03 60.63 63.29 65.46 65.21 47.21 46.41 49.97 51.69 53.90 54.55 50.59 55.36 55.69 53.76 50.16 47.25 48.37 48.57 49.97 48.46 47.83 47.10 48.00 44.24 49.26 47.80 46.15 45.08 41.13 48.22 39.61 45.47 47.94 48.69 50.46 51.60 52.70 53.01 53.57
55.35 56.49 53.75 53.37 61.42 59.07 62.33 65.06 66.27 63.93 38.31 48.76 49.88 56.48 54.06 52.00 52.36 52.34 55.88 53.26 49.30 48.47 49.08 47.05 47.74 47.88 47.21 47.58 48.87 46.40 49.59 47.43 47.11 45.40 44.98 45.21 42.57 45.44 48.06 46.37 48.40 50.88 52.18 53.26 54.02
56.15 55.59 53.89 57.90 64.72 63.51 65.47 66.55 64.59 49.02 38.26 45.96 50.40 50.31 49.90 51.29 51.75 53.15 52.61 55.49 54.67 49.29 50.56 49.06 51.68 50.63 49.46 50.01 49.54 50.08 49.12 48.68 47.99 45.96 40.60 44.18 43.43 42.07 45.05 46.93 48.94 51.20 52.22 53.23 53.86
55.09 54.80 56.51 64.57 61.18 66.02 67.49 62.20 45.53 42.34 48.56 45.11 47.04 49.90 49.55 48.36 49.70 50.92 50.01 49.48 48.18 44.70 45.00 47.89 48.32 51.03 50.88 48.14 50.88 49.67 46.35 41.10 38.97 39.46 38.63 45.83 42.27 44.52 48.07 50.08 50.62 50.29 51.33 52.77 53.89
55.57 55.39 60.37 65.10 66.08 67.00 63.52 52.90 41.83 46.05 45.66 49.50 48.90 49.55 46.93 49.00 48.57 49.30 48.80 46.78 49.85 49.47 46.43 43.59 41.24 47.96 50.50 48.23 45.79 47.24 45.62 41.52 32.63 34.55 37.68 44.88 39.23 43.03 49.59 50.69 51.33 51.62 51.73 52.70 53.26
54.64 65.41 64.89 66.18 67.46 66.62 56.96 46.44 45.90 46.17 49.03 47.59 48.37 46.00 45.93 48.21 48.65 48.62 48.28 46.64 47.90 49.88 45.41 43.58 43.36 49.34 49.66 50.21 49.02 46.26 43.73 46.60 41.43 38.93 37.17 39.80 44.28 47.80 49.26 48.97 50.05 50.33 51.04 51.57 52.66
60.78 60.53 60.90 66.23 67.52 62.66 53.93 46.60 48.87 51.00 49.95 49.55 44.76 47.47 44.27 45.94 46.37 47.58 46.85 48.67 47.27 49.71 50.92 46.35 42.65 46.99 48.12 49.62 50.80 47.02 47.93 41.60 44.35 33.54 31.21 37.41 39.46 40.56 45.01 46.67 48.91 49.20 49.29 50.86 52.29
62.69 54.32 62.68 66.66 65.10 55.42 48.90 50.20 49.32 51.53 52.01 48.68 47.41 46.13 47.45 46.22 47.55 46.69 46.74 48.26 50.07 48.88 50.71 47.91 45.40 44.41 46.96 45.79 43.33 45.32 44.37 44.57 43.43 41.39 33.86 31.88 36.68 46.23 46.25 47.74 47.69 48.30 50.05 50.70 51.41
62.81 50.00 63.96 66.13 50.98 52.54 50.12 50.63 48.38 50.50 52.91 51.53 51.64 49.32 48.16 48.14 46.90 46.64 46.22 48.49 50.88 50.36 46.28 47.14 45.53 41.96 42.42 46.86 48.39 46.91 44.65 44.25 39.49 36.04 39.76 37.84 36.23 48.08 48.07 48.85 49.08 49.02 49.96 51.03 51.50
54.75 56.70 63.10 63.16 49.07 52.83 51.80 50.30 51.41 50.20 50.36 50.34 49.46 50.92 51.69 48.74 45.20 47.97 48.18 50.69 51.00 50.48 47.45 47.87 45.32 39.52 40.41 44.49 47.15 43.42 45.29 44.73 43.67 41.20 35.49 33.14 36.13 48.68 48.71 48.10 49.43 48.47 49.66 50.45 50.74
57.79 51.85 54.58 56.49 57.08 51.72 50.00 49.01 48.60 52.95 51.46 51.85 50.88 51.72 50.14 48.36 49.99 47.08 47.26 49.73 51.38 49.71 46.37 48.77 45.25 41.38 37.25 39.98 43.12 40.43 42.37 43.85 42.42 37.05 37.06 37.24 39.44 44.18 46.49 46.49 47.60 48.38 49.54 49.75 49.56
58.34 53.66 53.97 49.07 51.62 52.41 51.87 50.36 48.55 47.42 51.69 52.22 49.79 49.80 48.93 45.89 47.05 46.65 48.74 48.26 49.77 46.02 48.90 48.81 41.84 43.57 43.44 43.12 42.87 41.82 41.44 42.15 40.58 41.26 36.13 39.46 40.04 43.72 45.91 46.61 47.50 47.72 48.20 47.93 48.02
55.68 54.15 55.98 54.01 53.78 52.08 48.40 49.75 49.01 49.18 49.95 48.47 48.37 50.08 50.43 47.50 47.41 45.96 47.93 47.59 46.53 48.49 48.07 48.67 42.19 42.48 39.47 42.81 41.98 39.24 41.35 41.87 42.07 42.07 41.76 41.73 41.14 47.08 48.33 47.81 47.12 47.37 47.40 46.76 46.58
59.84 60.51 56.97 49.35 52.50 52.14 50.48 50.26 49.98 51.45 51.33 52.41 51.47 50.43 47.96 49.68 51.60 51.59 51.79 50.89 49.64 47.82 46.39 45.85 44.45 39.95 35.96 39.57 38.75 36.23 40.91 41.81 42.44 43.61 42.76 38.30 43.25 46.80 45.43 45.63 45.72 45.73 46.18 45.38 45.16

GFSSW_sfc_wetblb_027.txt.gz
Wetbulb
58.73 58.73 58.45 58.32 58.20 57.37 57.06 56.40 56.29 56.31 56.16 56.54 56.93 57.20 57.90 57.81 56.83 56.84 52.39 56.55 57.47 60.27 58.85 54.71 54.76 54.96 53.69 50.38 51.31 47.94 40.35 39.17 42.29 42.79 42.80 45.58 44.66 47.05 50.40 50.33 53.53 55.28 58.09 58.77 59.84
58.60 58.50 58.41 58.52 57.89 57.50 56.84 56.60 56.05 56.42 56.69 56.79 57.03 57.39 57.74 57.32 55.83 55.81 60.75 61.13 61.95 61.42 54.62 53.16 52.27 52.91 48.94 48.38 48.25 44.53 39.83 40.61 44.47 44.41 42.80 43.48 44.56 46.08 47.15 48.17 53.50 56.47 59.37 60.13 59.04
58.38 58.65 58.65 58.52 57.89 57.78 57.20 56.14 56.12 56.50 56.75 56.92 57.08 57.49 57.10 56.68 55.34 54.89 61.60 62.97 62.92 61.68 55.91 55.81 55.79 52.27 48.04 47.11 46.44 43.33 40.71 43.40 44.78 45.84 45.04 43.41 44.16 47.62 46.35 44.51 52.66 54.74 56.55 57.10 57.01
56.45 56.98 57.90 57.96 57.65 57.42 56.65 55.92 56.36 56.58 56.83 57.02 57.15 57.71 57.25 55.71 47.32 52.37 62.03 63.08 62.86 59.66 57.59 55.77 53.89 47.44 44.68 43.91 46.24 42.66 44.85 45.42 45.39 46.24 45.27 43.97 44.11 44.62 45.11 46.73 52.96 57.81 58.18 57.49 56.93
56.19 56.85 57.18 56.84 56.94 57.01 56.44 55.18 55.97 56.29 56.60 56.83 57.24 57.43 55.69 54.21 53.50 56.96 63.24 62.74 60.13 57.33 56.38 55.67 51.81 48.27 45.70 45.66 45.68 43.36 44.00 45.68 46.09 46.81 46.22 47.49 44.56 45.35 45.94 48.94 52.79 58.63 58.77 57.70 57.51
56.47 56.37 56.25 56.25 56.20 56.50 56.10 55.03 55.64 56.11 56.31 56.68 57.14 57.15 54.93 49.54 58.23 56.84 56.14 57.03 57.32 56.82 55.98 55.00 51.45 50.63 48.24 47.10 45.37 46.18 45.09 44.80 44.31 45.47 46.76 46.02 46.32 45.59 45.26 48.35 52.11 55.81 56.23 56.24 57.42
56.39 56.07 55.79 55.93 56.11 56.19 56.47 56.11 55.68 55.48 56.31 56.81 57.13 56.72 55.97 55.39 55.25 54.51 56.14 54.78 55.16 55.27 53.89 53.91 53.21 51.02 49.75 47.77 49.63 47.77 44.33 45.22 45.31 46.26 45.32 44.99 42.90 44.40 46.77 47.99 49.68 51.71 54.12 55.49 57.75
56.45 55.89 55.44 55.26 55.34 55.66 55.69 55.62 55.48 55.89 56.26 56.55 56.99 55.60 53.06 59.40 54.13 55.83 54.63 54.26 55.92 56.44 56.26 55.47 55.27 52.76 51.03 49.13 47.87 44.66 43.86 39.83 45.43 46.95 46.90 45.67 39.60 45.00 47.47 47.63 46.24 48.39 49.48 52.30 55.68
56.09 55.67 55.26 54.71 54.61 54.85 54.89 54.77 55.04 55.77 56.17 56.33 54.33 55.05 52.00 57.74 53.30 54.32 53.50 54.23 55.68 55.85 56.08 56.14 53.22 50.11 48.77 43.44 40.57 41.63 37.69 41.02 43.31 47.73 46.81 44.70 41.95 45.64 47.30 47.53 46.31 45.95 47.08 48.46 49.83
55.66 55.39 55.08 54.96 54.69 54.30 54.20 54.73 55.39 54.98 55.70 57.41 57.87 51.80 56.19 52.11 53.48 53.41 53.32 56.37 54.24 54.63 53.68 51.59 48.94 45.01 43.76 41.37 36.04 38.77 39.97 43.26 40.88 43.00 43.11 40.98 40.77 45.00 47.08 47.96 45.24 45.46 46.41 51.46 52.85
55.38 55.55 55.16 54.80 54.76 54.30 51.91 51.77 51.34 51.42 54.24 50.97 51.47 53.06 51.71 52.44 53.58 52.34 54.14 54.29 53.45 51.85 45.97 48.94 43.57 40.17 40.84 43.46 44.44 43.38 42.26 40.52 41.90 45.34 42.53 41.20 41.20 44.42 46.49 46.72 45.75 48.61 50.68 51.39 52.11
55.56 55.30 54.97 54.93 54.87 54.63 52.19 54.44 55.57 54.21 47.65 55.36 53.84 52.92 54.46 53.97 50.06 52.20 55.17 50.63 50.15 45.78 48.30 44.71 41.22 45.68 47.31 46.57 45.46 44.48 42.85 41.90 43.30 46.13 43.75 41.38 40.85 44.17 47.11 46.44 49.11 49.35 49.68 50.24 51.39
55.50 55.35 54.81 54.32 54.33 52.65 54.28 57.29 60.55 59.77 46.39 50.50 53.43 51.52 53.48 54.20 50.80 49.40 52.98 51.37 48.15 46.25 45.79 42.53 44.96 48.96 47.41 46.25 44.77 44.41 42.48 41.83 41.82 44.42 43.81 41.76 39.73 43.04 46.64 48.34 49.89 48.93 49.37 50.34 50.73
55.38 54.82 54.39 53.64 52.71 57.07 54.24 59.68 61.38 60.04 40.46 45.73 49.01 50.89 53.13 53.22 49.25 52.90 52.88 51.28 48.17 45.50 46.01 44.84 48.05 47.42 46.10 45.43 44.97 41.92 47.06 45.82 44.01 40.67 35.20 41.91 32.16 39.53 44.07 45.34 47.62 48.03 46.69 47.24 49.79
55.19 55.36 53.40 54.52 53.72 56.56 58.48 61.29 60.64 56.96 27.99 46.65 49.17 52.39 51.26 50.81 49.84 50.38 51.70 51.32 46.72 46.32 46.40 43.73 44.91 45.70 45.52 45.29 46.61 44.23 47.17 45.07 44.20 40.16 37.65 40.09 35.52 38.03 44.61 43.32 45.13 46.04 47.50 47.70 48.81
55.36 54.99 53.41 54.04 53.85 60.13 62.30 61.91 57.00 42.38 29.90 45.95 49.29 48.75 47.08 49.98 50.62 50.31 50.50 52.36 51.74 47.26 46.61 45.39 48.85 47.09 45.77 48.30 47.77 47.82 45.91 45.21 43.94 40.37 31.19 40.27 38.57 38.53 40.45 43.79 45.60 47.85 48.51 48.59 48.38
54.59 54.27 54.44 59.59 56.98 61.46 61.40 56.50 38.79 33.90 47.86 43.15 45.12 48.47 47.50 46.59 48.01 48.60 47.06 45.39 43.23 39.49 39.91 44.75 45.57 47.43 48.94 44.80 47.45 45.43 40.89 31.59 30.50 29.56 29.59 43.21 40.05 41.63 45.01 47.05 47.65 47.24 47.18 47.80 48.20
54.47 54.04 58.25 62.82 63.11 62.36 58.88 47.43 34.84 45.27 43.81 47.38 47.22 47.82 45.00 47.06 46.59 47.62 45.62 42.32 46.17 46.07 42.30 39.22 36.46 44.30 48.41 45.04 42.12 43.03 41.17 30.27 27.38 26.97 30.76 41.47 35.89 38.73 45.80 47.55 48.80 49.07 48.06 48.70 48.19
54.87 58.99 59.89 61.24 63.02 60.29 51.92 38.91 40.56 44.96 47.44 46.04 46.57 43.87 43.71 47.23 46.47 46.26 43.76 42.99 44.13 45.35 40.82 40.11 39.66 46.44 47.44 47.22 45.89 42.25 37.66 42.33 35.12 31.84 27.77 34.32 39.09 43.83 45.81 46.90 48.34 47.94 47.53 46.73 47.29
55.87 56.70 56.91 61.66 62.33 57.53 47.58 42.56 46.65 49.22 49.06 47.96 42.55 45.05 41.07 43.44 43.75 44.21 43.96 46.76 45.29 47.00 46.99 43.50 37.98 44.88 46.45 46.84 47.94 44.01 45.02 34.79 34.88 26.40 26.39 32.24 35.98 37.06 41.75 44.29 47.48 46.42 46.25 46.47 47.48
56.52 48.98 57.92 62.37 59.62 49.84 40.94 45.45 48.55 50.55 51.17 47.94 45.64 44.47 45.50 43.34 44.58 43.94 44.07 46.49 48.24 47.22 46.19 43.60 41.34 40.16 43.80 41.62 39.76 41.02 39.77 40.52 39.42 33.14 26.29 23.77 29.87 41.86 43.77 45.48 45.32 45.30 46.81 45.71 45.98
54.56 44.17 59.31 60.80 44.44 45.81 42.82 49.45 46.98 48.80 51.44 50.57 49.57 47.53 46.06 45.45 44.60 44.19 43.83 45.75 48.81 48.11 43.11 43.59 40.47 31.07 39.19 44.08 45.65 42.92 41.48 41.30 29.13 30.80 29.52 27.93 29.72 43.28 43.57 45.00 45.01 44.67 47.22 46.08 46.38
50.28 51.51 59.05 58.65 37.95 38.92 48.09 49.61 49.92 48.32 48.49 48.86 47.74 49.34 48.93 45.86 41.40 45.51 45.35 49.00 49.52 46.88 43.63 44.21 38.60 29.76 35.12 40.38 44.06 40.33 42.54 42.92 39.84 32.36 29.38 21.61 27.27 44.58 47.05 45.82 46.19 44.64 45.36 45.94 46.08
52.64 43.50 50.27 51.79 50.97 47.45 46.83 46.13 46.91 50.82 50.04 50.45 48.86 49.34 47.04 44.98 47.34 43.84 44.54 48.74 48.94 46.75 45.40 45.98 41.78 35.27 29.50 35.31 38.45 35.95 39.23 40.20 38.06 28.17 29.61 30.40 35.45 40.47 43.78 44.77 43.05 43.84 44.45 44.39 44.67
53.57 47.69 48.00 40.17 43.47 46.63 48.11 47.72 46.43 45.85 49.97 50.17 47.36 47.76 46.10 39.59 43.36 43.19 45.60 46.17 47.91 45.76 46.20 44.12 36.32 39.30 40.00 40.00 39.97 38.63 38.11 38.51 36.98 36.51 29.87 33.35 37.19 41.66 41.63 42.21 43.17 44.24 45.14 44.42 44.21
52.14 50.84 48.96 45.62 46.94 46.39 45.22 46.02 46.59 47.62 47.59 46.37 45.63 47.67 47.20 43.18 44.02 42.16 45.26 44.01 43.28 44.92 44.19 44.80 33.69 33.84 32.65 39.56 38.88 35.50 37.76 38.62 38.87 39.14 37.89 38.04 37.15 44.00 44.43 44.06 42.91 43.40 43.55 42.83 42.86
54.67 55.14 52.15 46.25 43.83 43.64 44.31 47.29 48.19 48.76 48.98 50.62 48.19 45.55 41.74 45.56 46.65 46.50 46.61 45.86 46.35 43.85 42.03 41.17 33.82 30.00 27.89 35.57 33.58 27.91 35.32 39.15 39.55 40.24 38.42 31.95 38.36 42.28 40.83 41.07 41.09 41.08 41.99 41.57 42.10

GFSSW_sfc_wetblb_030.txt.gz
Wetbulb
58.82 58.63 58.76 58.58 58.45 58.04 58.00 57.23 56.57 56.60 56.21 56.41 56.61 57.01 57.29 57.79 56.57 55.80 50.71 54.25 56.59 60.40 57.57 53.36 53.98 53.38 52.98 49.96 50.06 47.45 40.28 36.29 39.22 42.36 45.15 45.38 46.89 47.76 50.35 52.73 52.99 55.09 55.37 56.24 56.25
58.50 58.45 58.49 58.62 58.15 57.76 57.64 57.26 56.36 56.33 56.38 56.36 56.74 56.90 57.35 57.05 54.93 53.89 58.69 60.74 61.14 60.68 52.38 51.32 50.48 51.18 48.02 47.47 48.16 44.10 38.26 39.63 43.23 45.35 42.85 43.98 45.28 46.36 50.58 52.86 53.28 54.60 57.45 57.29 56.09
58.05 56.59 56.96 58.14 58.23 57.88 57.53 56.97 56.31 56.35 56.79 56.73 56.93 57.19 56.83 56.20 53.84 54.64 61.48 61.83 61.89 60.73 52.85 53.48 53.54 51.79 47.50 46.62 45.74 42.12 39.34 42.40 44.35 44.13 44.92 44.05 44.70 46.58 49.08 48.58 54.35 53.73 55.10 55.82 54.70
57.82 56.70 56.11 57.26 57.77 57.68 56.89 56.26 55.84 56.37 56.62 56.59 56.84 57.26 56.91 54.96 44.44 52.31 61.59 62.47 62.81 58.45 54.88 53.97 52.78 49.86 44.83 43.02 44.56 40.52 42.67 44.49 43.45 43.65 43.41 43.35 43.44 44.63 44.91 50.41 57.59 57.55 57.30 55.73 54.47
56.74 56.45 56.83 56.96 57.02 57.07 56.34 56.06 55.34 56.02 56.10 56.23 56.59 57.12 54.86 52.33 51.18 57.04 62.62 62.75 60.11 56.51 54.19 53.36 51.88 48.77 44.35 44.48 42.79 42.27 42.61 44.28 45.30 45.79 43.24 44.62 43.88 44.86 44.50 53.02 58.08 57.89 57.38 56.46 56.17
56.60 56.36 56.20 56.26 56.36 56.29 56.04 55.86 54.57 55.56 56.00 56.19 56.86 56.78 52.62 47.45 57.34 55.40 56.96 58.74 56.02 54.82 54.10 53.97 51.93 50.77 47.27 45.45 43.20 44.04 43.85 43.50 43.25 43.95 45.04 44.73 44.13 44.59 44.08 53.97 55.93 56.68 55.87 56.53 56.83
56.50 55.94 55.72 55.96 55.98 55.88 55.74 55.64 55.35 55.25 55.54 56.45 56.83 55.78 53.89 52.79 57.49 56.56 53.98 53.15 53.67 55.13 52.56 53.00 52.31 50.27 49.39 45.83 46.20 44.64 41.29 42.87 42.41 43.44 42.52 44.88 41.83 41.97 45.78 55.37 55.23 55.74 55.98 56.27 56.86
56.44 55.78 55.19 55.17 55.01 54.99 55.01 54.91 54.97 55.45 55.70 56.19 56.63 54.65 49.93 58.75 55.12 53.98 52.92 52.65 54.38 55.22 55.08 53.81 52.93 50.82 48.63 48.03 46.46 43.90 42.33 38.51 43.27 44.44 45.07 44.01 38.56 43.91 44.85 50.38 53.12 54.54 55.14 55.44 54.48
55.64 55.39 54.91 54.50 54.18 54.18 54.28 54.22 54.48 55.23 55.79 55.87 53.25 53.07 47.74 59.20 51.87 53.23 52.49 52.49 54.29 54.45 53.93 54.20 52.22 48.37 47.01 41.41 39.02 40.19 35.93 38.50 41.33 45.49 44.10 42.72 40.38 44.37 44.81 46.20 46.29 45.34 48.07 50.99 52.66
55.31 55.03 54.69 54.42 54.03 53.67 53.57 54.24 55.02 54.66 54.78 56.08 56.19 49.96 54.21 52.75 51.90 51.79 51.98 54.18 52.63 52.40 51.47 49.64 46.49 43.20 41.85 39.93 34.21 37.10 37.05 40.23 39.08 41.77 42.41 39.78 39.27 43.80 44.25 44.71 44.44 47.85 49.40 50.65 50.85
55.18 55.02 54.69 54.30 54.30 53.81 51.56 50.18 48.59 49.26 52.18 47.51 49.59 51.64 51.84 52.88 52.26 50.20 51.86 52.45 51.77 49.87 44.30 47.67 42.69 38.57 40.32 41.28 43.14 42.32 39.39 39.44 39.13 42.83 41.09 39.61 40.30 42.43 43.81 46.41 47.10 48.33 49.08 49.40 50.12
54.86 54.74 54.47 54.51 54.28 53.85 50.92 52.44 52.70 53.56 45.50 52.97 53.82 53.12 54.94 51.15 48.42 50.16 53.14 48.60 48.54 44.08 46.76 43.18 39.59 44.01 45.55 45.80 44.78 43.32 41.20 39.28 42.20 45.04 41.93 39.43 39.88 42.46 44.97 45.78 47.94 48.16 48.26 48.90 49.69
54.45 54.56 54.23 54.04 53.97 51.89 50.76 54.65 58.26 57.74 48.18 48.73 52.09 50.59 51.11 52.60 48.79 47.93 51.45 49.77 46.57 44.27 43.94 40.65 43.31 46.87 46.62 44.28 43.38 42.48 40.49 39.83 39.94 42.04 41.90 41.01 38.87 41.98 45.16 46.59 48.09 48.26 49.26 50.03 49.51
54.31 53.98 53.48 53.27 50.49 52.70 50.53 55.51 57.69 55.58 38.18 44.04 47.45 49.19 51.75 51.74 47.54 50.87 51.14 49.46 47.39 43.33 44.10 42.97 46.35 45.91 44.87 43.53 42.98 39.91 44.73 43.68 41.72 38.30 33.80 39.53 29.89 37.36 41.74 43.07 45.29 46.53 46.90 48.11 49.65
53.94 54.09 53.06 53.40 51.59 54.81 57.27 60.63 59.40 53.71 25.49 44.67 47.34 51.20 49.49 48.85 48.54 48.22 50.16 50.19 44.93 44.33 44.28 41.64 43.61 43.98 43.15 43.47 44.46 42.29 44.78 42.86 42.19 37.77 35.82 37.36 33.08 35.23 42.73 41.21 42.97 43.86 46.15 47.11 48.18
53.81 54.01 52.85 52.06 51.42 57.27 60.02 59.80 52.33 39.79 27.89 43.40 47.97 46.61 45.66 48.05 47.74 48.09 48.47 50.41 49.84 45.91 44.65 43.74 47.00 45.14 43.93 46.12 45.76 46.07 43.90 43.05 41.38 38.29 29.79 38.18 35.65 34.05 37.71 41.59 44.03 45.88 45.94 46.84 46.88
53.56 53.79 52.84 58.02 55.59 59.52 59.07 49.80 36.83 31.52 45.46 41.59 43.09 45.65 45.42 44.50 46.16 46.15 45.28 43.79 41.57 37.67 37.86 43.25 43.79 45.71 46.97 43.34 45.55 43.53 39.22 29.87 29.41 28.20 28.18 41.08 37.75 37.19 43.23 46.03 46.89 45.34 45.04 45.88 46.07
53.04 52.64 54.03 59.91 60.98 59.01 53.80 43.68 33.85 42.88 42.13 45.39 45.69 45.64 43.10 45.05 44.73 45.71 43.39 40.68 44.03 44.19 39.17 37.16 34.74 42.67 46.56 43.11 40.24 40.67 39.70 29.09 27.02 25.66 28.74 38.70 33.13 36.65 44.85 47.49 47.58 47.94 46.56 46.72 45.98
53.55 54.54 57.84 59.07 60.40 57.05 47.99 36.74 38.46 42.87 45.47 44.26 45.02 42.00 41.79 45.04 44.32 44.08 41.34 41.07 42.06 43.19 39.25 37.78 37.75 44.46 44.97 45.22 44.00 40.64 35.87 40.64 33.25 30.16 26.25 32.80 36.85 41.92 44.16 46.36 47.52 47.26 48.80 47.91 46.83
53.77 53.93 53.63 59.21 58.72 52.37 45.47 40.11 44.70 47.41 47.76 46.22 40.64 43.29 39.16 41.97 41.83 41.97 41.65 44.96 43.35 45.10 45.07 41.75 36.06 43.21 44.67 45.71 45.80 42.05 42.90 34.56 32.07 25.23 25.70 30.39 33.45 36.15 40.55 42.53 45.05 44.66 44.54 45.35 45.13
53.87 45.81 52.34 60.10 53.55 46.39 38.81 42.65 47.57 49.17 49.76 46.05 43.73 42.15 42.72 41.45 42.60 41.65 41.89 44.68 46.04 45.46 44.12 42.42 39.00 38.29 43.05 39.43 37.88 39.15 37.65 38.01 36.80 31.03 25.73 22.79 28.50 39.49 41.96 44.19 43.25 43.92 45.07 44.32 45.19
50.72 41.95 55.49 53.31 40.51 42.05 40.63 47.07 47.22 47.05 49.53 48.25 47.56 46.28 43.43 43.37 42.52 42.22 41.99 43.78 47.40 46.63 40.58 42.10 37.61 29.99 37.22 42.06 43.53 40.84 39.65 38.37 28.17 29.82 27.78 26.34 28.46 42.10 42.64 43.05 43.51 44.26 44.86 44.00 43.31
47.32 49.55 56.87 50.78 34.06 34.85 44.21 47.75 47.99 46.45 46.36 46.53 45.91 47.62 46.94 43.87 40.45 43.60 43.55 47.12 46.74 45.17 42.05 41.73 35.89 28.22 33.38 38.58 41.93 38.13 40.42 40.79 36.50 30.43 28.86 21.36 26.45 41.82 43.86 42.81 43.90 42.99 43.96 43.03 42.85
48.80 41.52 47.28 50.07 45.73 42.97 44.30 44.13 45.07 48.78 47.90 48.23 46.85 47.73 45.47 43.20 45.23 42.12 42.95 46.86 46.53 44.56 44.50 44.86 38.91 33.53 29.06 33.54 36.30 33.33 36.68 38.77 35.99 26.64 28.49 28.64 33.05 37.63 40.49 40.78 41.29 41.52 42.19 41.74 41.60
50.58 44.29 44.88 38.24 40.80 45.26 45.79 45.45 44.51 43.66 47.89 47.89 45.55 45.68 44.09 38.53 41.77 41.02 43.76 44.53 46.07 44.62 44.46 42.20 34.80 36.95 37.31 37.27 37.22 35.89 35.36 35.57 34.70 34.27 29.62 32.36 33.98 37.93 39.69 39.89 41.00 42.53 42.69 42.08 41.65
49.91 48.24 46.09 42.00 43.92 44.33 43.09 44.33 44.85 45.78 45.91 44.59 43.48 45.74 45.09 41.25 42.38 40.79 43.17 41.89 41.04 42.47 41.87 42.38 32.46 32.82 31.41 37.36 36.55 32.95 35.67 36.37 36.75 36.76 36.00 36.04 35.54 40.80 41.37 41.74 41.38 41.44 41.11 40.70 40.84
53.71 52.87 48.03 43.12 40.34 41.14 42.29 44.77 46.08 47.17 47.34 48.29 46.36 42.74 40.02 43.67 44.42 44.11 43.91 44.88 44.86 41.97 40.53 38.65 32.14 28.27 24.96 32.93 31.60 26.09 34.19 37.00 37.15 37.52 36.97 31.36 36.71 39.41 39.12 40.08 39.49 39.57 39.93 39.34 39.97

GFSSW_sfc_wetblb_033.txt.gz
Wetbulb
58.68 58.56 58.51 58.60 58.42 58.33 58.15 57.87 57.15 56.61 56.30 56.26 56.48 56.68 57.15 57.43 56.48 54.76 49.96 53.04 54.97 59.83 58.27 51.44 52.60 52.20 51.44 49.47 47.48 43.94 39.29 36.90 39.57 43.97 43.69 48.66 46.60 48.26 54.16 54.60 54.21 54.71 53.98 57.50 57.50
58.56 58.32 57.19 57.36 57.22 58.03 57.81 57.49 56.88 56.49 56.01 56.27 56.49 56.79 57.15 56.80 54.13 52.28 57.45 60.35 61.16 60.69 50.97 49.98 49.29 50.38 46.18 45.84 46.90 42.83 38.47 39.75 42.91 46.79 47.29 44.55 51.78 50.95 52.22 51.84 52.08 51.47 53.57 56.09 55.49
58.45 58.29 57.65 56.54 56.18 57.01 57.58 57.00 56.50 56.40 56.33 56.33 56.42 56.89 56.62 55.71 51.69 51.41 61.10 61.17 62.02 59.51 51.94 51.20 51.27 49.72 45.29 45.88 44.80 42.24 39.07 42.05 43.42 44.96 44.64 44.03 46.33 48.48 51.77 49.13 52.52 50.91 51.92 53.54 54.34
57.93 57.79 57.42 56.45 56.38 57.36 57.12 56.20 56.24 55.72 55.92 56.29 56.63 56.84 56.72 53.72 41.93 51.65 61.75 62.91 62.32 55.17 52.99 51.44 50.07 47.53 45.70 43.93 46.12 40.27 42.69 43.42 43.34 44.58 44.03 43.47 43.92 48.50 45.10 52.75 55.56 54.80 54.02 53.60 53.85
56.66 56.82 56.96 56.85 57.06 56.98 56.56 55.81 55.98 55.17 55.88 56.04 56.29 56.83 53.69 50.17 49.90 54.83 62.70 62.85 57.84 54.58 51.32 51.03 49.91 48.52 44.59 43.46 42.86 41.28 42.20 43.76 44.05 44.02 42.17 44.05 43.74 44.21 43.93 53.48 56.19 55.73 54.63 53.85 54.00
56.34 56.36 56.40 56.48 56.42 56.38 55.90 55.39 55.23 54.42 55.59 56.00 56.23 56.63 50.38 44.15 54.29 55.20 56.82 56.79 55.32 53.66 52.67 52.43 51.00 50.55 46.12 43.94 41.64 43.23 42.42 42.06 43.06 43.81 43.81 43.82 42.48 43.21 44.67 54.17 55.12 55.24 54.04 53.97 54.18
56.46 56.16 55.93 56.03 55.89 55.69 55.47 55.21 55.03 55.03 55.53 55.80 56.42 54.91 52.27 49.94 54.81 55.17 54.47 54.65 54.68 53.90 51.96 52.70 52.84 48.73 47.21 43.54 44.94 43.00 40.59 41.37 41.51 41.78 41.54 43.82 40.62 41.58 46.58 54.97 54.45 54.56 55.01 54.84 54.50
56.56 56.05 55.35 55.15 55.07 55.07 54.95 54.64 54.56 55.37 55.51 55.92 56.29 53.13 48.70 56.20 55.74 55.98 52.76 51.53 53.36 54.93 53.44 52.74 51.82 49.56 46.16 45.54 44.64 41.81 40.53 36.85 41.18 42.68 42.66 42.51 37.47 41.77 49.30 53.38 52.96 53.15 52.22 51.94 52.26
56.08 55.37 54.93 54.40 54.12 54.01 54.05 54.01 54.23 55.07 55.50 55.48 52.03 51.99 46.52 56.74 52.59 52.30 51.47 51.04 53.05 53.31 53.02 53.38 51.08 46.14 45.56 40.51 37.40 38.85 34.82 36.81 40.41 43.22 41.70 41.16 38.89 41.92 46.03 52.56 47.59 46.83 48.74 50.83 50.39
55.25 55.11 54.64 54.34 53.93 53.52 53.30 53.97 54.70 54.11 54.13 55.39 54.89 47.86 51.48 49.49 51.86 50.46 50.72 52.96 51.33 51.30 49.85 48.83 45.36 41.43 40.04 38.02 32.62 35.02 36.13 37.65 37.91 40.54 41.34 38.39 38.59 41.22 41.78 43.75 45.80 46.88 47.92 48.82 48.98
55.13 55.07 54.52 53.97 53.85 53.48 51.45 49.08 47.48 47.22 50.58 45.52 46.70 49.27 51.50 52.22 51.02 48.76 50.54 51.30 50.73 48.44 42.74 45.78 40.81 37.05 37.46 39.69 41.11 40.04 37.31 36.70 37.48 40.98 40.15 37.79 38.44 40.31 43.68 46.06 45.50 46.27 47.35 47.70 48.44
54.84 54.56 54.42 54.19 54.11 53.74 50.33 49.16 50.17 52.05 44.76 51.59 52.47 52.17 53.42 53.30 47.45 48.51 51.82 47.23 46.56 41.87 44.88 42.09 38.58 42.19 44.77 44.67 42.86 41.70 38.53 37.09 40.07 42.81 40.86 38.85 38.50 41.78 44.02 44.61 46.14 46.79 46.69 47.17 47.24
54.36 54.30 54.12 53.84 53.74 51.32 50.07 52.02 56.66 54.49 46.55 48.72 49.97 49.20 50.33 51.41 46.77 46.02 49.90 48.00 44.78 42.89 42.03 39.22 41.59 46.02 44.66 42.87 42.72 41.00 38.63 37.96 38.53 40.45 41.01 39.35 36.83 39.83 43.57 45.57 47.13 47.15 47.31 47.80 47.72
53.88 53.84 53.09 53.06 50.30 51.04 48.36 53.67 57.07 53.29 37.73 42.32 45.96 48.33 49.96 50.12 45.83 49.35 49.66 47.95 45.68 42.16 42.23 41.56 45.59 44.65 43.07 41.87 41.72 38.35 42.89 41.90 40.00 36.60 32.36 37.98 28.57 36.06 39.76 41.85 44.42 45.64 45.43 46.53 47.84
53.86 53.68 52.87 52.78 51.12 53.26 55.60 59.76 56.98 51.65 25.98 42.56 45.76 49.87 48.07 47.42 46.44 46.33 48.88 48.72 42.83 42.79 42.81 40.14 42.08 42.54 41.68 41.50 42.65 40.70 42.99 41.02 40.29 35.95 34.13 35.59 31.99 33.21 40.48 39.44 41.59 43.07 45.37 47.28 48.62
53.50 53.48 52.57 51.66 49.75 54.27 58.79 55.65 51.54 37.93 26.55 40.87 46.24 44.28 44.61 46.19 45.75 46.40 47.55 50.07 47.86 44.08 43.45 42.39 44.87 43.52 42.41 44.36 43.79 44.25 42.42 41.15 39.25 36.44 29.06 35.80 33.07 31.69 36.27 39.78 41.72 43.63 45.59 47.60 48.12
53.07 53.32 52.09 55.81 55.14 58.60 56.94 47.75 35.23 30.66 43.33 39.85 41.89 43.64 43.32 42.51 43.93 43.88 43.85 42.36 40.50 36.60 36.41 41.64 41.88 43.69 45.11 41.60 43.59 42.37 37.66 28.81 28.54 27.18 27.68 37.84 35.13 34.50 40.57 43.07 43.83 43.91 44.84 46.78 47.20
52.69 52.34 52.32 54.33 59.78 57.33 50.12 41.08 32.17 40.88 39.91 43.66 43.70 42.75 41.16 43.22 43.00 43.50 41.69 39.43 42.46 41.28 37.29 35.67 33.62 40.97 44.57 41.36 38.97 39.04 37.91 28.27 27.83 24.88 27.59 36.84 31.24 35.78 42.51 45.13 45.87 46.06 45.11 45.38 45.13
52.41 51.52 56.03 57.70 58.84 53.75 44.97 32.99 36.43 40.77 43.51 42.70 43.36 40.01 40.05 43.10 43.17 42.17 39.42 39.21 40.43 41.67 37.71 35.92 36.13 42.94 43.17 43.61 42.68 39.25 34.24 38.58 31.65 29.18 25.55 30.82 34.97 41.21 42.44 43.49 44.48 44.27 45.28 46.52 44.94
53.74 53.01 52.69 57.86 56.29 51.52 42.70 38.04 43.22 46.43 45.50 44.70 39.12 41.35 37.79 40.26 40.36 40.23 39.81 43.00 41.64 43.09 43.35 41.01 34.87 41.15 42.77 43.65 42.92 39.86 41.93 33.37 30.65 24.49 25.00 28.62 31.46 32.74 38.71 41.30 44.30 45.69 44.88 43.11 43.51
51.63 44.71 50.25 58.48 49.74 43.97 35.96 40.55 46.66 47.39 47.94 43.59 41.58 40.42 40.86 39.78 40.68 39.54 40.02 43.01 44.04 43.87 43.14 40.94 37.13 36.42 41.16 37.98 36.31 38.13 36.17 35.67 35.04 29.66 24.80 21.83 28.03 37.33 40.75 42.47 42.66 42.30 42.83 42.75 42.42
47.76 40.42 53.86 49.27 39.52 39.48 39.96 45.34 46.35 45.32 48.14 46.99 45.94 44.18 41.49 41.63 40.96 40.20 40.16 42.01 45.93 44.76 38.73 40.54 35.82 29.43 35.37 40.60 41.79 38.87 37.40 35.93 25.98 28.45 26.56 25.29 27.75 39.64 41.01 43.00 42.55 41.81 42.09 41.00 42.23
46.11 49.53 55.75 46.86 32.50 33.55 41.52 45.75 46.40 44.73 44.68 44.95 44.04 45.68 45.05 42.32 38.90 41.48 41.85 45.52 44.38 43.53 40.31 40.22 34.56 27.75 32.41 37.36 39.95 36.75 38.53 37.48 33.81 29.77 27.94 20.90 26.16 40.43 41.38 40.70 41.59 40.34 41.05 41.03 41.05
47.37 41.32 45.96 48.12 41.82 40.38 41.12 42.88 43.02 47.10 46.18 46.35 45.06 46.07 43.61 41.77 43.51 40.17 41.39 44.79 44.11 42.70 44.29 43.38 37.08 32.02 28.13 31.70 34.98 31.84 34.91 36.89 34.37 26.18 27.78 27.49 30.64 36.41 38.21 38.91 39.60 39.89 40.31 40.22 40.38
48.06 42.55 43.87 37.95 41.37 43.82 43.52 43.91 42.70 41.84 46.04 46.10 43.83 44.02 42.54 37.83 39.69 39.59 42.28 42.77 43.76 43.96 42.63 40.37 33.58 35.24 34.65 35.33 35.10 34.00 34.30 35.14 33.96 32.93 29.01 31.09 32.26 35.73 38.50 38.52 39.45 40.83 40.63 40.38 40.10
48.21 44.40 43.84 39.60 42.37 43.53 41.65 43.19 43.22 43.91 44.02 42.79 42.40 43.96 42.98 40.04 41.21 39.52 41.88 39.81 38.00 41.07 40.07 40.45 31.40 32.43 30.29 35.18 34.68 31.66 34.02 33.86 33.79 34.00 34.27 34.02 34.09 39.15 39.81 40.73 40.02 40.15 40.01 39.17 39.90
49.96 50.39 45.69 40.34 38.97 39.07 40.28 43.62 44.68 45.70 45.80 46.35 44.95 41.57 38.59 41.75 43.07 42.77 43.00 43.49 43.06 40.54 38.90 36.03 31.05 27.33 23.78 30.59 28.79 24.08 31.31 35.44 35.76 36.27 35.26 31.48 35.82 38.40 38.21 39.12 38.74 38.80 39.17 38.10 39.38

GFSSW_sfc_wetblb_036.txt.gz
Wetbulb
58.19 58.09 57.53 57.16 57.30 56.72 57.72 58.15 57.55 57.37 56.84 56.39 56.43 56.67 56.87 57.10 56.28 53.92 48.72 52.27 53.93 59.67 58.23 51.17 49.95 49.56 48.75 46.07 45.78 44.55 38.86 35.54 38.37 43.79 46.47 50.89 50.19 49.40 54.94 53.81 54.15 53.71 55.74 58.82 58.71
57.93 57.95 58.10 58.46 57.23 55.99 56.04 57.63 57.21 57.11 56.69 56.24 56.33 56.43 56.85 56.70 53.00 50.63 56.15 60.19 60.59 60.29 50.56 49.01 46.59 47.84 45.13 43.52 45.10 43.10 38.72 39.02 44.01 46.82 49.50 51.99 51.89 52.21 52.70 51.91 50.51 50.80 54.92 57.32 56.39
57.86 58.03 58.16 57.81 57.87 56.56 55.49 56.50 56.78 56.81 56.45 56.39 56.25 56.57 56.44 55.36 49.97 49.21 60.43 60.97 61.58 58.84 51.35 50.32 49.76 47.62 44.47 44.17 44.23 41.21 40.08 41.98 43.76 47.15 46.10 47.25 47.63 50.53 51.09 48.68 50.65 50.92 52.41 53.85 54.13
57.70 57.64 57.41 57.19 57.35 56.94 55.94 56.30 56.58 56.37 55.83 55.95 56.41 56.52 56.41 52.33 40.31 49.23 63.33 62.24 62.14 52.77 51.61 49.93 48.53 46.40 45.03 44.30 44.22 40.67 42.50 42.45 42.95 44.90 45.18 47.68 46.40 50.88 47.09 50.43 54.43 54.88 54.49 53.33 52.39
56.74 56.70 56.89 56.89 56.52 56.97 56.56 56.08 56.08 56.20 55.34 55.89 56.15 56.50 52.30 48.80 48.42 56.27 62.86 61.93 54.56 52.44 50.06 49.59 48.03 47.01 43.82 42.63 42.47 40.14 42.05 42.86 43.16 43.07 44.40 44.31 43.89 49.44 42.20 52.54 53.28 54.61 53.76 52.51 52.21
56.40 56.30 56.40 56.42 56.54 56.48 56.16 55.48 55.11 55.34 54.59 55.64 56.03 56.49 49.58 43.05 52.20 56.91 57.41 54.92 53.50 52.12 50.81 50.22 49.47 49.80 45.52 43.38 41.91 43.09 42.23 41.71 41.58 41.73 42.27 42.74 41.38 42.22 44.43 52.00 51.64 53.07 52.13 51.95 53.20
56.38 56.30 56.08 56.12 56.08 55.90 55.74 55.13 54.91 54.91 55.27 55.52 56.02 54.46 50.88 49.37 53.35 53.84 54.25 54.61 53.87 53.19 50.33 51.62 51.54 47.92 46.27 43.82 43.59 41.82 39.64 42.07 42.14 41.65 41.58 42.88 38.82 39.39 48.89 52.74 51.66 51.51 52.03 51.40 51.70
56.66 56.24 55.38 55.24 55.16 55.09 54.97 54.63 54.39 54.97 55.52 55.72 56.00 52.20 47.37 54.93 54.32 55.40 53.08 50.91 53.83 53.71 52.16 51.96 52.52 49.18 45.56 45.10 43.86 40.75 39.35 35.65 39.93 41.56 41.36 40.67 35.24 39.56 50.76 52.12 50.02 50.92 51.50 51.10 51.81
56.20 55.70 54.79 54.37 54.25 54.04 54.00 53.84 54.18 54.81 55.24 55.40 50.46 50.44 46.43 55.39 52.16 52.75 51.36 50.46 51.75 51.76 51.57 52.60 50.33 45.66 44.09 39.65 37.28 38.08 35.09 35.14 38.27 41.50 40.62 40.48 37.29 40.28 48.83 50.26 46.85 46.96 48.78 49.64 49.53
55.64 55.32 54.67 54.22 54.00 53.60 53.11 53.89 54.58 53.79 53.69 54.70 54.28 46.80 49.14 47.63 52.22 50.44 49.79 51.20 50.29 50.31 48.66 48.25 44.08 41.37 39.74 37.94 32.52 34.56 34.63 36.21 35.81 38.70 40.79 38.19 37.18 41.14 42.11 46.76 45.83 46.36 46.77 47.28 47.54
55.32 55.03 54.59 54.26 53.88 53.37 51.43 48.42 46.27 45.41 49.16 45.60 46.23 46.33 49.97 52.79 50.51 47.60 49.22 50.21 49.43 47.68 42.51 44.68 40.62 36.69 39.03 38.70 39.00 38.14 36.06 34.94 36.01 39.66 38.58 37.93 38.03 40.61 43.50 44.66 44.62 44.90 45.61 46.39 47.09
54.91 54.63 54.34 54.14 53.87 53.67 49.17 46.56 47.46 49.39 44.97 50.17 50.09 50.59 52.21 51.87 46.98 47.49 50.79 46.11 45.61 41.29 43.79 41.47 37.18 40.64 43.39 42.39 41.37 39.41 36.82 35.48 38.07 40.70 40.17 37.86 37.68 40.72 43.15 43.72 44.35 44.41 44.35 45.10 46.10
54.39 54.24 54.16 53.61 53.51 50.83 47.55 50.26 55.56 53.22 45.66 47.73 49.98 48.24 47.98 51.27 46.14 45.12 48.89 46.99 43.48 41.33 40.49 38.49 39.93 44.36 43.50 41.91 41.36 39.48 37.54 36.11 36.90 38.72 39.77 37.61 35.31 38.30 42.53 44.83 46.00 45.82 45.64 45.87 46.19
54.02 53.57 53.02 52.79 49.21 48.91 47.67 51.96 56.60 51.82 37.07 41.21 45.17 47.78 48.87 49.01 44.97 48.21 48.29 46.85 44.16 40.47 41.03 40.68 43.94 42.89 41.51 40.62 40.43 36.54 41.06 40.00 38.23 34.90 32.00 36.40 29.47 34.80 38.98 41.32 43.55 44.88 44.47 44.91 46.30
53.80 53.55 52.76 52.57 48.78 51.24 52.84 58.84 56.84 48.95 25.60 42.25 44.55 48.47 47.02 45.55 44.99 45.20 48.18 47.33 41.68 41.47 41.23 38.93 40.38 41.11 40.35 39.66 41.13 39.09 42.14 40.17 38.32 35.21 32.72 33.84 31.60 32.83 40.15 39.76 41.79 43.03 44.33 45.17 46.19
53.51 53.41 52.75 51.03 48.76 53.20 57.25 52.86 49.07 37.25 27.84 39.96 44.72 43.17 43.39 44.59 44.16 44.75 47.17 48.99 45.96 43.17 42.58 40.84 43.22 42.14 40.71 42.75 42.45 42.79 41.26 39.66 37.70 35.08 28.41 33.43 32.10 30.54 35.32 39.33 41.47 43.00 44.69 45.85 46.13
52.92 53.19 52.12 52.65 52.75 57.16 53.99 46.45 35.48 29.78 41.88 38.16 39.91 42.42 42.24 40.86 42.44 43.15 42.62 41.18 38.60 36.04 35.55 40.49 40.49 42.73 43.62 40.41 41.83 40.93 36.58 28.21 27.78 26.46 27.12 35.64 33.04 33.76 38.52 41.25 43.54 43.20 44.39 45.63 46.10
52.30 52.22 51.79 52.94 56.11 55.54 47.94 40.16 30.21 38.52 38.68 41.56 41.29 41.24 39.71 41.52 41.40 41.97 40.28 38.30 41.26 39.20 36.04 34.33 32.66 39.43 43.12 40.01 38.22 37.57 36.36 29.26 27.17 24.90 27.40 35.20 30.73 35.22 41.00 43.32 44.76 45.39 45.13 45.18 45.00
52.03 49.89 52.22 56.46 53.96 51.37 43.21 31.35 33.46 38.68 41.90 41.19 41.23 38.45 37.97 41.16 41.49 40.39 37.86 37.98 39.01 39.85 36.93 34.36 34.61 41.07 41.81 42.27 41.15 37.72 32.79 36.68 30.83 28.38 24.92 29.51 34.35 39.62 41.31 41.62 43.01 43.22 44.07 44.04 45.28
51.41 50.99 52.37 56.66 54.52 49.56 39.19 35.33 40.66 45.79 43.69 42.55 36.86 39.57 36.00 38.51 38.57 38.47 37.98 41.29 39.87 41.21 41.87 39.59 34.03 39.19 40.95 42.30 41.87 38.23 40.69 32.35 29.66 23.57 24.10 26.86 29.83 32.04 37.32 39.67 41.72 42.09 42.21 42.94 42.75
48.55 45.96 49.88 55.02 48.65 42.92 34.02 37.01 44.79 48.26 46.14 42.20 40.17 38.74 39.07 38.28 39.05 37.87 38.38 41.15 42.28 42.31 42.29 39.10 36.06 35.30 39.27 36.36 35.39 36.99 34.96 33.86 33.56 28.63 23.78 20.36 27.40 36.31 39.95 41.70 41.69 41.93 43.65 41.58 41.47
44.69 39.90 53.31 47.98 39.74 38.32 38.42 43.55 45.84 44.14 45.88 45.41 44.40 41.81 39.74 39.86 39.21 38.60 38.98 40.70 43.92 43.15 38.03 39.01 34.92 29.75 33.91 38.39 40.08 37.38 35.96 34.19 25.08 26.98 25.92 24.85 26.37 37.85 39.16 41.88 42.49 41.29 41.54 40.65 40.50
46.59 48.66 54.16 46.42 33.84 33.35 39.94 43.63 45.00 43.13 43.42 43.38 42.59 43.87 43.50 40.82 37.54 39.57 40.42 43.86 42.71 41.63 39.22 39.39 33.54 27.81 31.63 35.26 37.95 35.20 36.82 35.19 32.02 29.29 27.26 20.79 25.49 39.08 39.67 39.66 40.51 39.20 39.44 39.76 39.81
47.01 41.75 45.62 45.52 40.51 38.88 39.43 40.62 41.50 45.48 44.59 44.94 43.75 44.58 42.30 40.22 41.92 39.14 40.10 42.98 42.56 41.50 44.31 42.10 35.28 31.65 28.53 30.23 33.62 31.15 34.54 35.08 33.33 25.57 27.14 26.97 29.26 34.83 36.98 37.99 38.19 38.64 39.16 39.17 39.37
45.90 41.82 44.50 38.73 40.87 38.00 41.51 42.18 41.56 40.47 44.41 44.93 42.52 42.93 41.02 37.09 38.15 37.88 40.82 41.11 41.76 43.36 41.51 38.52 32.64 33.27 32.57 33.42 33.29 32.19 32.40 34.14 32.88 31.76 28.79 29.43 30.41 34.15 37.88 37.75 37.97 39.17 39.17 39.25 39.22
47.36 42.41 40.93 38.90 43.82 41.55 39.65 41.39 41.79 42.34 42.87 41.06 41.48 41.89 41.38 39.01 40.12 38.58 40.63 38.65 36.51 40.27 38.42 38.79 31.20 31.54 30.28 33.09 33.01 31.20 32.66 32.67 32.85 31.79 32.53 31.72 32.11 37.81 38.34 39.20 38.90 39.11 39.08 38.50 38.77
48.74 48.46 43.98 38.53 38.87 38.66 39.52 42.24 43.12 44.83 44.19 44.33 43.36 40.86 37.97 40.77 42.12 42.01 41.64 41.50 40.67 39.22 37.07 34.48 30.58 28.00 25.06 28.69 27.35 23.56 30.50 32.17 32.76 34.29 33.52 29.99 34.24 37.44 36.92 38.38 38.43 38.14 38.58 37.98 38.05

GFSSW_sfc_wetblb_039.txt.gz
Wetbulb
58.05 58.07 57.37 57.08 57.21 57.79 56.96 56.01 56.25 57.41 57.44 57.19 56.89 56.71 56.91 56.97 55.78 54.34 50.07 54.81 56.24 59.78 58.60 53.00 52.92 52.36 53.14 51.40 50.53 47.99 44.28 41.43 44.63 48.63 49.14 53.28 53.14 53.06 56.77 55.66 55.84 54.60 59.86 62.36 62.15
57.70 57.35 57.35 57.76 57.95 57.78 56.94 56.25 55.92 57.11 57.11 56.90 56.72 56.55 56.69 56.58 52.55 51.28 57.17 59.71 60.06 60.66 52.84 51.55 50.38 51.68 49.91 49.65 49.71 47.52 43.91 43.57 47.23 53.08 51.21 53.62 54.13 53.09 54.63 54.48 52.51 55.12 59.11 60.99 60.96
57.54 57.72 57.82 57.89 57.75 57.13 57.43 55.73 55.26 56.97 56.75 56.67 56.29 56.45 56.56 56.02 51.13 50.68 60.00 60.65 61.18 60.24 54.34 53.43 52.09 50.47 47.92 48.86 48.17 46.45 44.68 46.07 46.44 51.96 53.61 51.72 52.07 55.20 54.52 53.07 54.14 55.22 57.74 59.45 59.85
57.36 57.24 57.32 57.27 56.80 56.13 56.41 55.80 56.48 56.62 56.53 56.13 55.87 56.41 56.44 54.24 43.29 53.77 63.37 62.23 62.08 54.82 53.66 52.39 50.76 49.41 48.42 46.81 48.56 44.77 45.44 45.00 45.57 47.65 49.59 51.48 53.58 54.19 54.96 53.77 57.22 59.05 59.91 59.06 58.47
56.54 56.70 56.91 56.88 56.30 55.86 56.34 56.08 56.06 56.16 56.10 55.38 55.81 56.33 53.77 50.55 50.26 58.90 62.47 62.30 57.12 53.30 52.50 50.84 49.43 49.31 47.33 47.32 45.92 44.85 44.52 44.48 45.12 46.50 49.59 49.55 52.53 54.07 50.57 54.64 58.08 58.81 58.91 58.28 57.71
56.00 56.32 56.36 56.58 56.70 56.62 56.34 55.72 55.37 55.29 55.54 54.93 55.84 56.37 51.35 44.96 53.91 59.93 57.17 54.73 54.44 53.20 51.97 52.10 50.81 51.59 49.12 46.65 45.40 45.44 44.57 43.58 43.88 44.99 45.89 46.00 46.01 50.84 50.26 54.86 56.20 56.82 56.46 56.55 55.78
56.02 56.04 56.02 56.30 56.24 56.02 55.86 55.25 54.79 54.83 55.17 55.50 55.83 54.69 51.55 50.07 55.32 57.16 56.09 55.26 55.15 54.16 51.91 52.58 53.39 51.32 49.92 45.69 46.08 45.08 43.69 44.98 45.23 45.88 45.50 46.97 43.89 44.17 52.57 54.76 54.88 55.29 54.71 54.51 54.84
56.28 56.26 55.60 55.46 55.11 55.19 54.95 54.61 54.38 54.83 55.27 55.54 55.85 53.89 48.65 55.68 56.34 54.91 54.87 53.84 55.23 55.09 53.83 54.53 54.74 51.89 48.87 48.19 46.29 44.02 43.78 40.90 44.43 45.19 45.02 45.37 40.59 44.40 53.53 53.40 52.92 53.57 53.82 53.93 54.92
56.10 55.76 55.29 54.57 54.16 54.22 54.00 53.73 54.00 54.81 55.29 55.36 52.64 52.21 48.32 56.34 53.53 54.98 54.93 52.67 52.99 53.87 54.34 53.22 53.86 49.05 47.23 44.03 42.71 42.78 38.91 40.68 42.53 45.51 45.18 44.87 41.31 45.56 50.46 52.86 51.63 52.53 53.19 53.79 53.93
55.76 55.60 55.09 54.40 53.96 53.61 53.07 53.71 54.30 54.50 53.83 54.70 53.85 49.14 50.73 50.20 53.48 52.25 54.19 54.08 53.21 52.38 51.70 51.03 47.71 45.34 43.87 43.17 38.08 39.61 39.84 40.64 41.24 43.84 45.06 43.02 42.45 45.58 47.93 51.78 50.16 50.87 51.71 51.79 51.96
55.70 55.23 54.91 54.40 53.95 53.32 52.07 50.35 48.27 47.49 50.66 47.17 47.66 47.93 49.62 53.47 53.37 50.73 52.67 53.96 52.53 51.07 46.91 47.59 45.14 42.32 42.97 43.36 42.36 42.14 41.16 40.72 42.00 43.15 44.30 42.20 42.78 44.49 47.35 49.35 49.12 49.72 50.65 50.88 51.06
55.05 54.85 54.65 54.28 53.85 53.51 50.73 47.27 49.05 52.58 48.06 50.32 50.32 50.46 52.36 53.13 49.24 49.83 54.23 50.40 49.83 45.74 46.86 45.36 42.06 44.36 45.62 44.66 43.32 42.21 41.36 40.82 42.14 43.49 44.53 42.79 42.54 45.11 46.78 46.91 48.49 49.49 49.83 50.93 52.54
54.40 54.46 54.34 53.75 53.47 51.46 49.45 50.62 55.59 56.96 49.39 48.48 50.49 49.61 49.37 52.07 48.98 48.22 52.34 50.77 47.38 45.20 43.52 43.10 44.15 46.04 45.54 44.30 43.94 42.67 41.66 41.11 41.31 43.08 43.67 43.05 41.67 43.14 46.10 47.56 47.98 48.87 50.39 51.99 52.91
53.86 53.92 53.13 52.85 50.27 49.87 48.75 54.04 54.67 55.78 40.21 42.90 46.41 48.83 50.06 50.79 48.02 50.46 51.86 50.49 47.09 43.90 43.54 44.85 46.28 44.68 43.79 43.06 43.96 41.15 44.47 42.82 41.22 40.85 38.85 41.56 37.26 40.90 44.00 45.21 46.85 48.08 49.68 50.68 51.21
53.60 53.72 52.74 52.98 50.00 49.24 53.24 59.37 56.51 51.51 29.34 44.08 46.13 51.07 49.27 47.66 47.85 48.58 51.46 50.03 45.03 44.19 45.08 43.06 44.25 43.68 43.14 43.12 44.70 42.67 44.88 43.45 41.59 40.35 40.18 39.77 39.04 39.33 43.67 43.74 45.70 47.62 48.91 49.83 50.93
53.38 53.47 52.75 51.92 50.28 52.96 57.05 55.54 51.97 39.61 30.37 41.60 46.00 44.96 45.75 46.78 46.95 48.39 49.92 50.52 48.55 45.68 45.85 44.19 47.19 45.86 45.03 45.08 45.00 45.63 44.55 43.06 41.77 40.80 36.18 38.11 37.94 38.45 41.33 44.32 46.58 48.01 48.77 49.37 50.34
52.19 53.21 52.61 52.40 50.85 58.61 56.15 49.63 38.38 33.28 43.28 39.99 41.51 44.50 44.60 43.96 44.76 46.06 44.56 44.20 42.90 40.31 40.18 43.22 43.53 45.61 46.81 44.60 45.74 45.08 42.12 35.65 34.46 35.12 33.63 38.51 37.28 41.17 42.73 44.74 49.07 47.79 48.46 49.75 50.95
51.61 52.16 52.04 52.72 55.39 55.80 50.34 42.64 33.92 38.87 39.91 43.35 42.42 43.24 41.97 43.89 43.87 43.97 43.13 41.91 44.25 42.77 39.90 38.39 36.64 43.25 45.54 44.57 43.20 41.83 42.13 36.89 29.50 31.15 34.43 38.01 35.64 41.07 44.90 46.50 49.61 49.83 50.18 50.15 50.08
51.92 50.74 50.72 54.26 54.14 52.84 45.12 34.91 35.77 38.47 43.61 41.87 42.61 40.72 41.55 43.95 43.41 42.83 41.34 41.16 42.64 43.85 40.47 38.85 38.12 44.72 44.64 45.99 45.40 41.42 38.41 41.03 34.77 31.77 32.09 35.49 39.16 43.36 44.03 44.37 46.72 48.02 48.54 49.29 50.09
50.45 49.39 50.97 57.64 56.03 49.22 41.41 36.41 40.00 45.46 45.24 43.73 38.68 41.48 38.85 41.38 41.31 41.47 41.71 44.05 43.00 44.26 46.01 42.46 37.74 42.33 43.88 45.56 44.79 43.63 43.27 37.55 36.39 28.93 27.50 32.67 34.34 37.85 41.23 42.78 45.47 46.86 47.95 49.07 48.99
50.84 47.74 52.30 57.09 50.65 44.49 36.84 37.59 44.09 48.66 46.97 43.34 41.37 40.72 41.02 40.91 41.47 40.73 40.98 43.93 45.07 44.41 45.73 42.75 41.01 39.69 42.61 40.76 40.88 41.23 39.38 37.48 37.81 34.35 29.86 28.17 33.90 42.13 43.56 45.03 45.32 47.31 48.28 48.15 47.19
46.62 41.70 54.62 49.78 41.62 39.96 38.80 42.11 46.15 46.28 47.39 46.80 45.53 43.78 42.08 42.44 41.52 40.95 41.32 43.47 45.99 46.57 42.83 42.47 39.47 36.01 38.84 42.50 43.71 42.42 40.34 39.33 33.60 30.91 31.17 31.82 34.54 41.74 43.74 45.59 46.22 46.61 47.04 46.40 46.02
43.87 48.65 55.05 47.89 36.42 36.38 41.89 44.77 46.40 44.94 45.36 45.66 45.25 45.98 46.06 42.66 39.96 42.03 42.86 45.70 45.16 44.90 42.82 42.81 37.97 33.70 36.09 39.86 41.96 40.38 40.31 37.77 35.70 34.99 31.90 32.75 34.38 41.58 42.97 43.49 46.06 46.31 44.61 44.17 43.90
48.42 43.21 47.64 44.78 42.52 40.91 41.22 42.16 43.67 46.79 46.44 46.12 44.98 46.14 44.45 42.71 43.43 41.10 42.22 44.90 45.44 44.70 43.82 44.21 37.92 37.10 34.49 36.19 38.43 36.51 38.49 37.71 38.18 33.60 32.63 34.04 36.09 38.73 42.11 42.30 42.42 43.35 44.01 43.83 43.64
46.47 43.72 46.86 40.11 40.65 40.61 42.89 43.39 42.83 42.52 46.63 46.50 44.79 44.80 43.12 39.67 40.89 40.39 43.00 43.20 43.92 44.43 43.77 42.77 37.35 37.07 36.00 36.42 36.84 36.58 36.47 37.26 36.42 36.54 35.17 35.89 35.57 39.66 41.71 43.57 43.02 43.25 42.87 42.19 42.43
44.87 42.95 41.79 41.36 43.64 41.60 41.55 42.24 42.68 44.17 44.86 44.04 43.41 44.24 44.79 41.36 42.68 40.54 42.51 41.51 40.18 43.42 42.09 40.70 36.55 36.15 34.47 35.33 35.05 34.83 36.18 36.18 36.69 36.48 36.85 35.97 36.37 41.60 42.10 43.05 41.70 41.63 41.85 41.96 42.25
49.92 48.09 44.67 38.67 40.50 38.76 39.85 42.63 43.58 45.61 45.62 45.52 45.15 43.26 41.81 44.28 44.93 43.87 43.68 43.36 43.18 42.32 39.30 37.87 35.85 33.57 30.41 31.17 31.22 29.70 34.55 36.68 36.38 37.37 38.89 35.01 40.40 41.41 40.46 41.31 42.16 42.11 42.29 42.19 42.16

GFSSW_sfc_wetblb_042.txt.gz
Wetbulb
58.12 57.70 57.31 57.37 56.99 57.84 58.32 57.73 56.49 56.44 56.97 57.58 57.36 57.04 56.90 57.11 55.78 57.28 53.80 57.24 58.43 60.54 58.46 56.35 56.07 54.92 55.32 53.73 55.06 53.70 47.54 47.39 51.08 52.25 52.35 57.89 55.06 56.93 58.78 57.58 58.85 59.19 61.35 64.55 65.70
57.80 57.60 57.93 57.68 57.95 58.01 57.25 57.33 56.50 55.99 56.79 57.51 57.03 56.67 56.89 56.88 56.09 54.48 59.52 60.72 60.53 61.48 55.30 54.95 53.02 54.23 51.76 52.10 53.57 50.91 47.53 47.54 54.10 56.55 53.81 53.14 55.27 55.66 55.70 55.87 55.84 58.91 64.24 65.84 66.24
57.51 57.69 57.73 57.71 57.86 56.73 56.25 55.84 56.60 56.45 57.15 57.34 56.61 56.27 56.66 56.98 54.09 52.97 60.82 60.83 60.73 60.76 58.41 57.47 54.91 53.08 49.79 52.20 51.82 50.70 47.68 50.38 49.72 56.38 55.61 52.65 55.88 58.16 55.70 55.40 57.76 58.27 62.47 64.16 64.77
57.40 57.20 57.10 57.19 57.52 56.43 55.66 55.35 56.73 56.86 56.88 56.63 56.21 56.41 56.60 57.23 46.30 57.34 63.07 63.28 61.47 59.67 57.03 56.09 53.83 50.53 48.42 47.96 51.36 47.69 49.96 48.80 50.59 56.02 53.87 54.97 57.45 56.59 57.59 56.32 59.56 61.48 64.81 64.58 63.51
56.76 56.74 56.58 57.01 57.07 56.63 55.63 55.91 56.25 56.45 56.18 56.00 55.73 56.30 56.87 53.41 52.67 62.34 62.67 61.73 59.32 56.95 55.16 54.73 52.13 50.83 48.27 49.37 50.09 48.62 48.58 48.64 54.43 54.13 53.28 56.12 55.67 56.39 55.26 59.16 61.93 64.06 63.91 62.70 61.87
56.39 56.01 56.27 56.65 56.91 56.91 56.53 56.05 55.67 55.71 55.63 55.39 55.90 55.93 55.49 48.44 56.39 61.64 61.30 59.52 58.22 56.14 55.48 55.59 52.87 53.06 51.93 50.58 49.31 49.64 46.68 47.81 50.19 52.75 52.46 53.37 54.67 56.74 55.68 59.95 61.07 62.37 61.62 60.11 59.21
55.99 55.79 56.13 56.45 56.41 56.45 56.13 55.75 55.28 55.20 55.35 55.61 55.81 57.00 53.43 52.69 58.20 61.54 59.25 57.66 58.86 57.39 55.35 56.86 56.06 53.54 53.55 49.47 48.19 47.76 44.27 45.82 47.36 50.30 50.26 54.06 51.34 47.96 55.24 58.99 59.07 59.79 59.80 58.69 57.96
56.23 55.79 55.69 55.65 55.49 55.02 55.04 54.74 54.70 54.88 55.26 55.59 55.73 56.53 51.20 57.89 59.86 58.24 58.95 58.00 58.83 58.83 57.57 56.95 57.21 54.22 52.18 50.35 48.06 46.15 46.82 43.36 47.30 50.82 48.48 49.88 44.68 49.17 56.27 57.36 57.66 58.10 57.85 57.77 57.69
55.79 55.57 55.48 54.96 54.56 54.25 54.27 54.13 54.27 54.72 55.07 55.76 55.89 55.05 50.79 59.01 55.50 57.80 58.52 54.45 56.62 57.15 57.06 56.20 56.13 52.78 50.35 46.42 44.82 45.97 42.17 43.31 44.28 48.42 49.37 48.54 45.52 49.71 56.34 56.33 56.40 57.43 57.51 57.73 58.18
55.41 55.57 55.57 54.76 54.43 53.99 53.72 54.06 54.51 54.75 55.38 56.89 56.25 52.63 55.24 52.02 55.62 56.86 56.32 55.62 55.22 54.82 52.59 53.22 52.77 48.73 48.00 45.76 40.48 42.99 41.95 43.88 43.55 46.82 48.23 46.97 47.44 49.59 54.90 56.09 55.77 56.84 57.65 57.71 57.96
55.29 55.69 55.22 54.82 54.37 53.82 54.11 56.19 53.51 52.71 53.75 51.61 50.35 51.91 51.82 55.87 56.80 54.00 54.73 55.50 55.25 53.45 49.13 51.86 48.51 45.15 46.95 47.41 46.97 46.51 45.54 44.03 45.95 47.53 48.04 47.14 48.09 49.07 54.15 55.99 55.58 56.35 56.81 57.22 57.49
55.00 55.32 54.86 54.61 54.31 53.68 55.41 52.63 53.75 56.93 51.04 54.22 53.12 52.85 54.50 55.25 51.42 52.84 55.69 51.44 50.60 47.00 50.40 49.21 45.90 48.23 49.05 48.25 47.11 46.13 45.25 45.28 46.26 47.24 48.75 48.66 47.96 49.66 51.90 54.61 56.01 56.44 56.78 57.20 58.01
54.76 54.82 54.61 54.09 53.62 54.08 54.54 53.91 60.30 59.13 53.36 51.23 53.58 51.98 51.88 54.41 50.96 51.02 54.06 52.58 49.17 47.19 48.48 46.89 47.44 49.37 48.99 47.90 46.61 46.57 45.61 45.48 45.12 47.09 48.98 48.54 46.74 48.33 49.85 52.37 53.70 55.46 57.24 57.79 58.82
54.53 54.25 53.67 53.10 51.72 55.76 52.60 56.54 57.96 58.06 47.47 45.62 48.62 51.22 52.03 53.99 49.71 53.57 54.67 52.40 50.35 47.50 48.63 48.16 49.00 48.11 48.33 46.88 47.89 44.44 47.57 46.87 46.14 45.59 42.53 47.76 40.77 47.43 49.38 49.43 51.61 53.59 55.67 57.58 58.25
54.25 53.92 53.13 52.86 55.72 52.59 56.90 59.35 61.38 58.25 34.16 47.10 48.92 54.56 53.23 50.64 50.64 50.94 55.39 52.84 47.92 47.72 48.00 46.33 47.51 47.35 46.57 46.30 47.66 46.10 48.26 47.44 46.30 46.05 45.03 44.86 42.53 46.48 49.14 48.01 49.59 53.04 55.55 56.91 57.21
53.65 53.58 53.08 53.30 55.39 58.17 61.54 63.19 59.72 45.85 34.10 44.44 49.25 48.11 48.67 49.68 49.25 51.39 52.31 53.73 52.63 49.14 49.83 48.61 50.86 49.71 48.57 48.87 49.17 50.16 48.64 48.18 47.85 46.51 39.92 43.64 42.86 42.65 46.95 48.79 50.86 52.96 55.23 55.86 56.05
51.62 53.09 53.96 57.08 53.31 63.06 61.91 58.00 44.91 38.23 45.93 43.27 45.13 47.63 47.34 46.72 47.49 48.88 48.83 48.29 46.44 44.00 44.65 47.23 47.26 49.58 50.35 48.05 49.69 49.29 45.99 40.33 37.89 38.32 37.13 43.60 42.07 43.99 47.95 49.38 52.52 52.71 54.50 55.15 55.19
50.69 52.29 54.08 56.77 59.85 60.73 59.03 50.69 37.94 42.33 43.53 46.70 46.45 47.06 44.56 47.18 46.94 47.76 47.93 46.06 48.37 47.78 45.80 42.66 40.51 46.47 48.97 48.23 46.31 46.42 45.23 40.06 31.17 34.58 39.39 42.87 39.80 45.87 49.46 51.02 52.64 54.96 55.58 55.03 54.38
51.61 53.87 54.66 57.28 58.15 58.34 53.28 42.75 41.87 44.29 47.28 45.42 45.90 43.75 44.27 46.63 46.51 47.23 47.00 46.73 47.79 48.90 44.07 43.11 41.86 47.98 48.04 49.70 48.94 45.66 43.82 46.40 40.40 37.41 38.03 41.80 44.24 48.21 49.05 49.21 50.77 53.77 54.48 53.34 54.16
54.67 53.61 53.93 59.06 60.40 54.75 49.58 42.71 45.73 49.05 48.27 47.35 42.13 45.19 42.56 45.04 44.46 45.65 46.07 47.69 46.89 48.47 50.52 47.11 41.43 46.21 46.89 49.04 49.02 48.04 48.50 41.41 42.99 32.27 31.02 38.23 39.27 42.59 45.54 47.37 49.74 52.12 52.63 53.17 54.51
54.26 49.78 58.42 62.43 60.17 51.94 44.76 45.46 46.95 51.67 50.64 46.62 44.74 44.33 45.38 44.88 45.63 44.66 45.50 47.16 48.49 48.08 50.33 49.21 46.02 43.88 46.18 45.14 44.70 45.10 44.35 43.77 43.92 41.40 34.73 33.63 39.55 47.61 47.19 49.27 49.63 52.33 53.03 53.75 54.39
53.34 46.34 59.98 59.52 49.04 51.34 46.51 47.88 47.77 49.98 51.94 49.28 49.32 47.44 46.02 46.95 45.74 44.93 45.05 47.03 49.69 50.06 47.40 47.73 47.02 42.50 43.69 46.53 47.71 46.96 45.38 45.16 39.10 36.21 39.43 38.55 39.06 47.01 49.22 50.77 51.60 52.04 53.27 54.56 54.93
50.15 52.75 56.34 55.90 45.82 46.22 48.25 47.64 50.35 48.41 49.43 49.36 48.28 49.37 49.93 47.79 44.42 46.69 47.45 48.17 49.03 48.96 48.26 48.02 44.83 39.84 40.68 44.14 46.30 44.47 46.09 45.23 42.86 42.49 37.89 36.92 39.21 47.00 48.74 49.37 51.17 51.95 53.10 53.29 52.70
51.75 48.07 52.70 52.08 52.35 48.88 46.30 46.05 46.65 50.36 49.89 50.23 49.38 50.53 49.28 47.28 48.39 46.21 46.85 47.37 48.19 48.52 43.92 47.74 45.74 43.53 39.45 41.58 45.15 41.93 43.59 44.47 43.57 38.52 38.84 39.46 40.59 44.12 46.48 47.90 49.68 51.50 52.99 51.99 50.88
53.33 49.18 52.19 46.72 47.82 47.91 48.76 47.53 45.83 46.56 50.14 51.21 48.95 49.90 48.67 45.33 46.01 45.72 47.48 45.98 47.60 45.20 48.43 48.53 43.08 43.17 42.07 41.77 41.98 42.42 42.49 43.28 41.95 42.87 38.94 41.24 40.68 43.46 45.59 47.32 49.43 51.27 51.65 50.55 49.59
50.77 49.92 50.90 50.79 50.17 47.25 45.24 46.33 46.21 47.59 48.99 48.26 48.75 49.80 50.24 47.62 48.14 46.39 47.89 47.32 46.90 47.92 47.75 46.49 42.74 41.93 39.71 40.45 40.45 39.51 42.42 42.77 43.69 43.74 43.37 43.32 42.62 47.84 48.48 48.68 48.98 49.21 49.47 48.88 48.77
56.69 53.59 53.41 43.74 47.64 46.15 45.81 47.19 47.24 50.93 48.75 49.41 51.53 49.93 48.67 48.92 50.74 51.88 50.66 50.23 49.47 48.24 46.47 45.40 43.29 40.29 36.50 37.46 37.77 35.88 40.99 42.86 43.19 44.35 44.11 40.53 45.18 47.16 46.07 46.75 48.08 48.83 49.11 48.72 48.86

GFSSW_sfc_wetblb_045.txt.gz
Wetbulb
57.76 58.08 57.60 58.36 57.82 58.04 58.40 57.60 57.22 57.43 56.53 56.22 57.73 57.59 57.29 57.35 56.44 58.47 55.69 58.42 59.83 61.82 58.55 58.44 57.55 55.63 55.27 53.88 55.28 54.95 48.79 47.12 49.51 50.88 51.98 58.08 55.15 58.32 58.49 56.45 58.19 60.38 62.07 64.66 66.97
57.62 58.08 58.20 58.30 58.18 58.11 57.07 56.42 56.10 57.34 56.72 56.75 57.54 57.16 56.97 56.98 57.24 55.58 60.48 62.57 61.58 62.09 56.26 56.13 54.53 54.09 52.12 52.39 53.46 51.12 48.93 48.80 54.12 54.24 54.84 57.67 55.52 56.01 54.25 54.13 56.88 60.57 65.36 66.31 66.53
57.59 57.63 57.80 57.77 57.91 57.87 57.16 56.01 55.81 56.77 57.29 57.29 57.33 56.98 56.94 56.92 55.88 55.00 62.33 62.03 61.08 61.19 57.50 57.63 56.28 53.25 50.66 52.39 52.48 51.87 48.70 51.75 55.47 53.57 56.64 53.72 54.29 56.76 55.26 52.39 56.05 56.65 62.22 65.48 65.87
57.37 57.25 57.49 57.20 57.29 57.67 57.08 56.01 56.16 56.76 57.01 56.99 56.84 56.50 56.96 58.26 48.44 59.04 63.18 62.96 61.68 59.71 58.23 56.48 53.86 50.95 49.85 49.09 52.47 49.28 51.49 51.45 51.99 56.68 54.22 53.46 56.29 55.21 56.11 55.42 60.06 62.37 65.05 65.10 64.55
57.08 56.94 56.93 56.72 56.98 57.30 56.93 56.43 56.63 56.58 56.38 56.21 56.30 56.48 57.26 54.83 53.44 63.19 63.56 63.09 60.30 57.62 56.37 54.96 52.56 51.32 48.51 49.73 50.83 49.45 51.05 50.99 54.97 54.56 53.92 56.23 54.11 52.64 54.50 57.69 59.28 64.58 64.29 64.03 64.13
56.56 56.48 56.40 56.56 56.90 57.01 56.85 56.49 56.21 56.11 55.81 55.95 56.08 56.05 57.45 49.75 57.82 60.16 61.40 60.44 58.57 56.95 56.44 55.70 53.77 53.66 52.13 51.27 50.00 51.53 52.10 52.50 54.02 53.91 54.28 54.07 55.54 54.80 56.38 59.41 61.13 62.43 62.24 62.09 61.50
56.44 56.09 56.01 56.41 56.61 56.53 56.51 56.07 55.80 55.50 55.41 56.03 56.28 57.60 55.09 52.71 59.15 61.56 61.13 58.97 59.84 58.78 56.15 57.36 56.92 53.99 53.93 51.72 51.63 50.96 49.86 50.35 51.23 53.85 53.20 55.44 51.72 51.80 57.49 58.83 59.42 59.76 59.65 58.80 57.65
56.50 56.07 55.65 55.62 55.74 55.54 55.30 55.14 55.22 55.33 55.37 55.87 56.18 58.09 52.74 58.66 60.44 59.06 60.45 59.45 60.20 60.19 58.61 58.46 58.37 55.31 54.26 52.29 49.13 47.52 47.15 44.42 49.82 52.57 53.30 52.96 46.51 52.14 57.29 57.43 56.66 57.39 56.75 56.46 56.73
56.34 55.83 55.36 55.36 55.08 54.98 54.91 55.02 54.90 55.17 55.40 56.02 56.97 56.89 52.17 59.23 56.09 58.66 59.76 56.56 57.51 58.51 58.81 57.14 56.87 53.61 53.20 47.38 45.20 46.86 41.59 44.18 46.48 51.91 51.27 51.19 46.60 52.42 56.77 57.23 56.75 56.84 56.96 56.58 56.68
55.95 55.61 55.46 55.56 55.08 54.69 54.33 54.41 55.10 54.48 55.50 58.63 58.00 54.02 56.97 53.36 56.37 58.11 58.73 56.93 56.50 56.61 55.07 54.64 53.82 51.04 49.82 46.32 40.33 42.57 43.38 45.35 45.57 49.20 49.72 47.74 48.18 52.32 55.75 55.99 56.87 57.29 57.30 57.04 57.54
55.81 55.67 55.69 55.36 55.28 54.57 54.14 57.00 55.01 54.38 56.15 52.92 53.01 52.24 53.77 57.23 58.28 56.33 56.72 55.74 56.56 54.57 49.45 52.74 48.50 44.97 46.86 48.53 47.85 47.00 44.82 44.53 46.66 48.38 47.37 46.87 48.20 51.03 54.48 55.04 55.71 57.26 57.64 58.13 58.92
55.37 55.29 55.56 55.30 55.16 54.57 56.14 54.53 55.89 58.99 53.32 54.88 53.61 53.85 55.53 56.38 52.48 54.65 56.68 52.13 52.56 47.68 50.32 49.77 46.02 50.08 49.91 48.85 47.28 46.44 45.49 44.69 47.41 48.36 48.81 47.44 47.67 50.96 54.07 54.85 55.66 56.42 57.72 58.57 59.34
55.18 55.39 55.12 54.77 54.33 54.64 55.81 55.79 61.83 60.89 54.68 53.21 53.93 53.05 54.02 54.99 52.46 52.42 54.84 53.06 50.54 48.40 49.15 46.13 48.51 50.98 49.02 47.79 46.49 46.40 45.42 45.64 45.84 48.04 48.65 48.78 47.25 49.90 52.88 55.50 56.63 57.72 58.56 59.21 59.41
54.65 54.98 54.47 53.46 51.95 57.48 55.51 59.02 60.25 60.59 49.14 48.00 50.04 52.18 53.33 54.64 50.74 55.25 55.66 53.13 50.79 47.09 48.29 48.84 51.51 49.61 47.78 46.62 47.94 44.93 49.14 47.86 46.75 46.50 42.14 49.40 40.56 47.96 51.31 52.17 54.21 56.23 57.87 58.86 60.13
54.37 54.69 53.62 52.87 57.51 54.82 59.69 60.90 62.00 61.40 37.30 48.48 49.60 56.57 54.33 51.54 51.53 51.74 55.84 53.33 48.77 48.69 48.98 47.44 48.67 47.91 46.80 48.05 49.58 47.06 49.77 48.44 47.81 46.10 45.40 46.13 42.87 45.42 51.52 49.66 51.93 55.22 57.07 59.11 60.59
54.16 54.23 53.46 54.45 55.88 59.36 62.06 65.00 61.31 47.52 37.14 45.10 50.38 49.52 49.63 51.11 50.29 51.98 52.01 54.06 53.88 49.43 50.62 46.86 53.10 51.19 50.68 50.21 50.06 51.24 49.06 48.85 48.48 46.61 40.91 44.67 43.99 43.90 48.06 50.09 52.30 54.78 56.85 58.65 59.10
53.83 53.78 54.33 58.67 55.23 61.98 62.11 60.52 46.59 40.45 47.74 44.42 46.44 49.15 48.59 47.55 48.33 48.82 48.60 48.01 46.20 43.33 44.70 48.45 48.76 51.32 51.89 48.63 50.79 49.93 47.17 40.48 39.02 39.40 38.30 46.03 43.36 44.86 49.54 51.44 52.94 54.26 56.21 58.02 58.66
52.02 52.58 54.39 58.11 60.65 62.90 60.87 52.85 40.53 44.77 45.72 48.38 47.84 48.12 45.86 47.91 47.73 47.79 47.49 45.35 48.71 48.45 44.94 42.96 41.83 48.58 51.21 50.08 47.76 48.01 46.88 41.17 33.06 35.42 39.23 45.58 39.77 46.09 52.14 53.17 54.08 56.29 57.21 57.87 57.65
51.30 55.45 56.87 58.42 60.40 61.10 54.86 44.87 44.33 45.83 48.11 46.28 47.09 44.62 45.09 47.08 46.97 47.13 47.06 46.48 48.18 49.43 43.09 43.89 42.92 50.09 50.11 50.96 50.21 47.48 43.94 48.82 42.32 42.60 38.60 41.37 45.73 50.36 51.34 51.65 52.76 55.21 56.38 56.67 56.66
53.67 54.95 54.92 60.92 60.57 58.39 50.89 44.26 48.06 49.97 49.33 48.65 43.63 45.95 43.29 45.25 44.84 45.61 45.96 49.15 48.41 50.82 52.76 47.85 42.57 48.17 48.95 51.14 50.94 49.07 50.38 42.72 43.47 33.83 33.08 39.52 40.50 43.51 47.00 48.61 51.23 53.86 55.32 56.27 56.46
54.06 50.89 58.21 61.56 59.83 52.91 45.78 47.56 49.95 51.27 52.15 47.80 46.20 45.12 45.66 45.09 46.24 45.19 45.80 49.41 51.00 50.81 52.84 49.85 47.04 46.10 48.01 46.55 45.75 47.22 45.48 45.61 45.18 43.68 36.40 34.69 41.33 47.78 47.44 49.74 50.81 53.39 55.64 56.24 56.10
53.26 46.92 59.06 61.71 46.63 49.98 47.66 50.02 49.39 50.23 54.10 50.91 50.02 48.17 47.29 47.49 46.30 45.94 45.24 48.51 52.88 52.40 48.17 50.53 47.92 43.23 45.24 49.43 50.36 49.46 47.04 46.89 40.94 39.14 41.09 40.72 40.16 49.08 49.93 50.72 52.00 53.13 55.14 56.38 56.65
49.54 51.80 59.62 58.96 43.71 47.91 50.80 50.48 51.20 49.37 50.91 50.45 48.26 49.57 50.37 48.16 45.04 47.35 47.65 51.84 52.01 51.78 49.56 51.01 45.47 40.50 42.49 46.34 48.54 46.19 47.52 47.29 46.71 44.56 40.16 39.14 40.76 49.79 50.24 49.64 51.14 52.13 54.29 55.56 56.24
51.55 47.38 51.48 54.63 51.62 50.31 48.70 48.65 47.81 52.00 51.42 51.88 49.67 50.56 49.20 47.33 49.54 47.33 47.92 50.08 51.64 51.75 45.87 49.77 46.75 43.91 40.02 43.20 47.05 44.92 46.08 47.28 45.85 40.72 40.47 41.18 42.86 45.82 47.94 48.36 49.68 51.39 52.89 54.84 55.57
51.30 49.17 51.63 46.49 48.89 51.11 51.04 49.51 47.08 46.68 51.71 52.73 50.14 49.95 48.92 45.93 47.12 47.23 50.10 49.19 50.42 46.55 49.78 50.78 44.70 46.25 46.35 46.24 45.86 45.58 45.01 45.51 44.34 44.78 41.84 43.17 42.87 44.86 46.76 47.67 49.63 51.10 51.88 52.90 54.27
51.12 50.28 52.52 50.53 50.65 50.88 48.30 48.50 46.92 48.16 50.24 49.32 48.63 49.79 50.89 48.41 49.13 47.31 50.16 49.91 48.82 50.69 50.61 50.75 44.95 45.62 42.72 45.63 45.08 43.24 45.21 45.38 45.07 45.29 44.49 44.47 44.07 49.23 49.96 50.22 49.24 49.80 51.01 51.52 53.06
55.02 56.86 54.03 49.25 50.75 49.41 49.52 49.15 48.19 50.37 52.01 53.04 51.67 50.30 50.39 51.33 54.65 55.01 54.54 53.61 52.83 50.84 49.78 48.88 46.28 42.72 38.60 41.94 41.63 37.40 43.02 44.40 45.25 46.36 45.93 42.59 46.67 49.11 48.52 48.08 48.61 49.74 50.86 51.17 52.33

GFSSW_sfc_wetblb_048.txt.gz
Wetbulb
58.32 57.96 58.57 58.80 58.65 58.37 58.37 57.66 56.74 56.69 56.94 57.66 57.21 57.86 57.67 57.65 56.29 57.01 54.34 58.20 59.58 61.84 59.33 57.12 57.38 55.33 54.78 52.41 53.53 53.51 46.35 44.83 47.20 50.12 50.87 55.47 52.42 55.56 59.32 57.22 57.98 59.61 59.52 63.48 64.47
58.18 57.98 58.01 58.40 58.36 58.09 57.98 57.76 56.63 56.42 56.65 57.71 57.55 57.67 57.51 57.20 55.49 54.12 59.74 63.34 62.21 62.07 55.43 54.37 53.65 54.60 51.17 50.66 51.23 49.66 46.54 47.06 53.91 54.14 50.59 51.68 53.14 53.96 54.98 55.34 55.07 60.96 64.64 65.97 64.69
58.14 57.76 57.63 57.84 57.94 57.69 57.80 57.35 56.69 56.73 57.09 57.68 57.43 57.47 56.90 56.50 54.57 55.85 63.08 62.76 62.42 60.85 55.59 55.60 55.64 54.00 49.97 50.83 50.52 49.99 47.07 50.95 54.66 53.48 53.08 51.58 51.93 56.61 54.01 52.25 54.96 59.03 61.84 63.71 64.54
58.09 57.64 57.26 57.26 57.51 57.49 57.29 56.70 57.03 56.94 57.00 57.13 57.03 56.98 56.97 56.57 48.56 57.40 64.11 62.78 62.54 59.28 56.05 55.12 54.62 50.63 48.31 47.64 50.97 47.67 51.59 51.66 56.12 54.94 53.30 50.63 54.07 51.64 53.66 54.02 56.88 60.18 63.79 63.45 62.86
57.39 57.15 57.11 57.01 57.02 57.12 56.91 56.80 56.78 56.81 56.66 56.69 56.62 56.72 56.31 54.44 54.15 61.24 64.43 62.36 59.64 56.11 55.63 54.32 52.08 50.56 47.47 49.00 50.20 49.24 50.47 51.76 52.52 56.09 54.73 54.57 53.16 51.93 52.89 57.06 58.01 61.45 62.62 62.43 62.48
57.22 56.72 56.56 56.66 56.80 57.03 56.97 56.56 56.30 56.34 56.27 56.35 56.53 56.37 55.28 49.21 58.38 60.52 61.08 61.55 58.75 54.99 55.14 54.95 53.06 53.27 50.73 50.93 49.19 51.02 51.62 52.25 53.84 53.59 53.50 51.32 50.45 49.86 54.75 61.66 61.57 60.87 60.55 61.11 62.29
57.00 56.48 56.25 56.33 56.41 56.61 56.47 56.20 55.90 56.04 56.07 56.35 56.51 56.48 53.78 52.04 59.49 60.57 61.14 59.45 59.27 58.31 55.10 56.82 55.92 53.48 53.11 50.98 52.58 52.41 48.81 50.53 51.64 52.93 52.45 54.85 48.18 49.17 56.01 59.63 58.80 58.97 59.76 60.73 58.86
57.27 56.40 55.74 55.46 55.52 55.62 55.54 55.27 55.39 55.82 55.91 56.21 56.24 56.43 51.77 59.68 60.02 58.08 59.28 59.61 60.51 59.60 58.46 58.75 58.60 55.04 53.26 54.43 49.46 48.29 48.63 43.84 49.18 51.64 53.01 52.21 45.44 52.71 56.45 56.69 56.55 57.13 57.39 56.59 56.01
56.88 56.18 55.50 55.01 55.31 55.23 55.13 54.95 55.25 55.65 55.80 56.30 55.83 55.84 51.69 60.60 55.83 57.97 58.80 56.41 57.48 58.25 58.77 58.18 56.50 53.56 53.06 48.33 45.51 46.26 40.19 42.91 46.11 50.76 50.90 50.29 46.98 52.33 56.06 55.64 54.87 55.10 55.24 54.72 55.43
56.70 56.12 55.48 55.26 55.23 54.83 54.46 54.93 56.08 55.00 55.77 57.29 57.27 52.30 56.15 53.06 56.09 56.71 58.92 57.38 55.81 56.80 55.07 54.08 53.14 49.94 49.64 45.82 38.30 41.70 41.93 44.27 44.52 48.34 49.56 48.67 47.38 50.89 54.39 55.18 54.38 54.64 54.14 54.38 54.69
56.42 56.18 55.69 55.60 55.40 55.23 54.39 56.18 54.03 53.18 54.27 51.82 53.08 51.83 53.80 56.91 58.25 55.88 57.91 55.30 55.32 54.57 49.73 52.44 48.11 44.29 46.79 47.94 47.16 46.45 44.93 44.04 46.52 49.15 47.37 46.36 47.28 48.36 52.36 54.06 54.88 54.98 54.80 55.06 55.27
56.12 55.98 55.61 55.68 55.50 54.99 54.84 54.02 55.88 58.11 51.96 56.95 53.91 54.01 55.32 56.61 52.15 54.02 57.23 51.81 52.04 48.76 50.29 48.57 45.48 48.92 49.64 49.02 47.30 46.21 45.10 44.57 46.40 47.71 46.69 46.30 45.68 49.23 50.99 52.51 55.05 55.66 55.56 55.84 56.86
55.75 55.75 55.86 55.26 54.58 53.84 54.69 54.52 59.27 59.85 52.28 54.56 56.09 51.18 52.83 55.10 51.98 52.19 54.44 52.72 49.70 47.95 48.07 45.56 46.33 50.52 49.79 48.43 45.80 46.11 44.73 44.81 45.13 47.21 47.43 46.97 44.30 47.59 51.08 52.55 54.08 56.01 57.52 57.89 58.01
55.15 55.14 54.99 53.77 51.06 56.83 55.04 59.24 59.10 60.76 46.50 49.33 50.72 51.57 53.88 54.05 50.71 55.30 55.43 52.62 50.09 47.06 48.85 46.34 49.76 48.64 48.45 46.24 47.28 43.80 48.84 47.77 46.28 43.73 39.91 47.58 38.02 45.98 48.75 50.44 52.69 54.32 55.75 57.05 58.25
54.69 54.62 54.08 52.58 56.21 55.89 59.70 61.67 61.78 59.79 36.93 50.13 50.22 55.65 54.27 50.87 51.59 51.92 55.51 52.71 48.33 48.09 49.04 45.91 47.25 47.42 46.93 46.82 49.42 45.36 48.93 47.91 47.21 45.01 43.92 42.65 40.09 44.30 48.41 47.90 51.00 54.48 56.10 57.53 59.00
54.18 54.16 53.77 54.17 55.15 57.60 60.59 62.58 59.32 46.42 35.92 45.36 49.24 48.77 49.29 50.16 50.36 51.74 51.35 53.77 52.89 49.04 49.65 47.48 51.71 50.48 49.34 50.22 49.61 51.01 48.59 48.02 47.60 45.69 38.26 41.61 41.67 41.93 44.79 47.43 51.13 53.84 55.92 57.74 58.81
53.73 53.96 53.46 57.73 54.38 61.05 61.08 58.35 45.14 38.50 48.52 45.30 45.76 48.51 48.06 47.55 48.21 48.38 48.06 47.02 45.21 43.09 43.40 46.98 46.80 51.03 51.71 47.52 49.98 48.56 45.62 39.06 34.31 35.50 36.71 44.57 42.39 44.56 47.40 51.94 52.60 53.65 55.57 57.79 59.25
53.15 53.17 53.66 56.40 60.08 62.07 60.32 51.04 38.44 44.31 46.05 48.18 47.43 47.90 45.44 47.70 47.24 47.44 46.08 44.40 47.45 47.16 43.76 41.93 40.30 48.00 50.56 47.83 44.60 45.59 44.99 37.64 31.82 34.32 38.43 44.72 39.85 44.86 51.35 52.57 54.77 55.86 56.45 58.23 57.84
52.27 53.37 54.06 57.18 59.02 61.16 53.75 42.92 41.83 46.52 48.88 47.51 46.70 44.59 44.63 46.94 46.74 46.60 45.45 45.09 46.89 47.70 43.13 42.31 42.20 48.66 50.77 50.24 49.80 45.75 43.84 48.20 42.04 43.19 39.72 40.23 42.55 49.79 51.14 51.18 52.75 54.15 55.57 56.35 57.02
51.91 51.74 51.82 59.20 60.74 56.76 49.22 43.41 46.48 50.56 50.44 48.84 43.33 45.48 42.60 44.61 44.47 45.24 44.84 48.08 46.80 49.04 51.33 46.57 39.05 46.36 49.82 50.52 50.17 47.53 49.19 42.56 43.35 33.90 32.13 38.29 40.47 42.40 46.36 48.04 50.56 53.03 54.60 56.25 57.00
51.57 46.96 56.15 61.14 59.11 50.83 43.71 45.55 48.47 52.52 52.25 48.40 45.69 44.84 45.12 44.74 45.58 44.59 44.46 47.57 49.33 50.25 51.37 47.84 43.22 45.38 48.21 45.90 43.81 46.33 44.67 44.60 43.90 43.55 36.27 34.37 38.69 47.78 47.38 49.39 49.73 51.98 55.17 56.18 56.42
49.15 42.91 58.18 60.25 46.88 46.17 44.55 48.08 49.11 51.24 52.53 50.62 50.06 47.94 46.23 46.58 45.20 44.68 44.37 47.44 51.92 51.33 47.39 49.79 47.29 42.98 44.63 49.22 50.12 48.46 46.18 46.21 41.74 38.63 41.99 40.69 39.45 49.50 50.01 50.94 51.52 52.16 54.91 56.68 57.02
45.31 49.40 58.86 57.52 41.51 42.91 46.67 48.34 50.01 49.90 50.61 49.89 49.05 49.40 49.86 46.97 44.55 46.76 47.35 52.51 52.45 50.82 48.52 50.49 46.02 39.80 41.60 45.96 48.94 45.73 46.12 46.25 46.45 46.05 40.35 37.88 39.68 49.69 49.78 49.49 50.84 51.53 53.65 55.40 56.33
46.69 44.35 50.05 53.26 51.38 45.48 44.47 46.22 47.13 52.29 50.52 50.92 50.05 50.36 48.50 47.17 49.26 46.71 47.13 50.72 52.42 51.79 47.38 51.88 47.19 42.84 38.70 41.85 46.05 44.41 45.60 46.20 45.59 40.88 40.35 40.18 41.89 45.80 47.66 48.26 49.50 50.89 52.37 53.93 55.12
48.78 46.65 49.97 43.20 46.61 47.31 49.02 47.82 46.05 46.72 51.10 51.53 49.25 48.95 47.61 44.94 46.27 45.93 48.50 49.79 50.85 47.04 50.00 50.20 42.83 44.15 44.47 45.64 45.86 45.18 45.09 45.35 43.62 44.58 40.52 43.18 42.78 45.69 47.32 48.80 50.33 51.40 51.64 51.43 51.96
46.35 47.67 51.50 49.03 48.98 47.29 45.93 47.57 46.77 48.47 48.60 48.07 48.39 49.17 49.02 46.98 47.13 45.76 48.61 49.71 47.82 50.22 49.50 50.67 44.34 45.53 43.43 46.23 45.44 43.04 44.49 44.80 44.69 44.66 44.14 44.81 43.98 48.98 49.97 50.41 49.34 49.61 49.21 49.85 50.89
51.88 53.17 50.75 46.96 47.66 45.60 46.20 48.46 48.92 50.73 51.01 50.96 51.08 50.09 48.93 50.55 53.64 54.68 54.98 54.12 52.30 50.27 48.79 48.64 46.73 43.72 39.49 42.72 40.98 35.49 42.51 43.46 44.30 45.82 45.45 41.34 46.58 49.42 48.25 48.14 48.76 49.64 49.82 50.52 50.87

GFSSW_sfc_wetblb_051.txt.gz
Wetbulb
58.97 58.67 58.37 58.53 58.35 58.28 58.00 57.92 57.61 57.13 56.87 57.11 57.90 58.06 58.06 57.73 56.22 54.46 50.59 54.71 55.31 60.19 59.49 54.91 53.84 53.71 50.50 46.76 47.55 45.28 37.72 36.75 40.02 47.28 49.64 54.26 51.84 55.96 55.87 55.58 55.37 56.12 56.29 61.60 62.40
59.02 58.84 58.25 58.25 57.91 57.82 57.60 57.43 57.06 57.17 57.23 57.41 57.67 57.81 57.71 56.86 53.34 51.29 56.90 60.91 61.84 61.75 53.50 51.10 50.09 51.54 46.27 45.31 44.87 41.92 36.46 39.87 49.94 50.80 50.01 52.12 51.90 53.62 53.43 52.89 53.87 58.74 60.70 62.11 60.02
58.82 58.53 57.99 57.89 57.69 57.62 57.36 56.82 56.74 57.26 57.35 57.35 57.41 57.34 56.89 55.69 51.60 54.87 62.08 62.14 62.23 59.81 52.87 51.92 52.03 50.43 46.60 45.36 44.05 43.00 39.89 47.81 51.35 52.81 51.76 50.65 51.96 54.42 51.89 50.00 53.58 56.54 58.75 60.02 59.24
58.40 58.10 57.91 57.70 57.57 57.20 56.65 56.22 56.64 57.22 57.07 57.15 57.12 57.24 56.61 53.90 45.60 52.46 62.75 63.03 62.82 56.14 53.44 51.46 50.32 46.50 45.06 42.60 45.36 41.22 46.59 50.11 53.01 52.69 52.22 50.50 52.07 51.61 52.58 51.85 56.25 60.18 61.69 58.07 57.78
57.55 57.26 57.26 57.29 56.97 56.71 56.22 56.28 56.42 56.70 56.76 56.67 56.80 57.10 53.68 50.16 52.25 58.54 62.91 61.92 58.01 54.84 51.89 51.78 49.97 48.00 43.90 44.39 45.41 44.56 46.66 49.31 54.56 53.13 52.83 53.99 50.21 51.61 52.12 55.36 57.19 63.04 62.53 59.73 58.96
57.24 56.92 56.71 56.43 56.39 56.39 56.16 55.99 55.85 55.91 56.20 56.57 56.68 56.69 52.15 46.20 57.40 60.79 61.66 58.34 56.43 52.83 51.86 52.26 50.59 50.50 47.72 46.82 47.00 49.39 49.24 49.15 50.99 51.71 51.43 50.99 51.29 48.67 54.60 55.51 56.52 59.81 60.24 58.67 57.92
57.32 56.73 56.27 56.21 55.88 55.80 55.75 55.71 55.39 55.41 55.87 56.25 56.47 54.86 51.16 48.63 55.48 54.91 56.22 57.81 56.76 53.26 51.16 53.20 53.45 49.86 49.55 48.23 50.54 48.73 45.26 47.49 49.11 49.97 48.73 49.51 47.31 46.61 51.99 55.85 57.23 57.91 58.74 57.12 55.16
57.54 56.86 55.88 55.50 55.11 54.99 55.21 54.94 54.88 55.25 55.73 56.10 56.36 52.76 48.22 58.38 56.08 56.45 56.06 54.76 58.27 57.14 55.76 56.22 55.50 52.14 50.06 50.46 48.86 45.64 45.30 40.61 48.03 50.87 51.42 49.80 43.41 49.59 52.47 53.79 53.29 55.53 56.77 58.03 54.04
57.48 56.69 55.80 54.92 54.46 54.50 54.72 54.44 54.64 55.41 55.84 55.62 52.24 50.94 49.12 59.96 56.24 57.09 55.01 54.33 56.34 56.29 56.22 57.21 53.59 49.72 49.30 44.61 42.36 43.25 38.74 40.51 43.48 51.29 49.95 48.64 44.65 49.52 51.84 53.16 51.57 51.13 50.49 52.12 52.68
57.23 56.53 55.74 54.91 54.39 54.28 53.85 54.25 54.81 53.97 54.62 55.02 54.56 47.53 52.59 52.14 55.05 55.26 55.32 55.99 53.76 54.40 53.58 51.70 48.24 44.89 45.49 41.82 35.37 39.24 39.52 41.17 40.62 46.39 48.86 46.77 44.03 47.65 51.05 52.16 50.48 49.51 49.23 50.10 51.48
56.95 56.51 55.86 54.89 54.74 54.58 52.89 51.90 50.06 49.10 50.22 49.04 49.82 49.75 51.57 55.01 56.54 53.57 55.19 53.41 52.41 51.62 45.53 49.32 44.07 40.38 43.10 45.85 45.18 44.07 42.93 40.24 42.96 46.29 45.05 46.01 44.76 47.09 49.34 50.68 49.10 48.21 48.22 48.91 50.73
56.76 56.27 55.76 54.93 54.92 54.78 50.83 48.36 51.89 52.38 47.60 54.07 53.10 53.65 54.21 54.52 50.68 52.85 54.59 49.22 48.23 44.72 47.73 44.68 42.15 47.34 49.09 48.34 46.12 44.34 42.53 42.42 45.20 46.34 44.02 41.60 42.40 45.79 48.23 50.38 51.20 50.10 48.99 49.64 51.27
56.30 55.88 55.48 54.83 54.40 51.05 50.37 50.72 54.87 53.98 47.21 51.58 54.45 53.94 52.98 52.48 49.76 50.24 51.92 49.51 46.46 45.60 45.22 41.89 46.03 50.17 48.28 46.35 45.42 45.04 43.69 42.29 42.50 45.13 44.15 43.36 40.05 42.20 46.92 48.96 52.17 52.56 52.23 52.42 53.48
55.57 55.17 54.44 53.29 50.42 52.05 50.76 55.81 55.16 53.08 41.94 46.52 50.32 53.39 53.24 50.86 49.07 53.59 53.78 49.85 47.54 44.74 46.07 44.35 48.70 47.48 46.09 45.17 46.56 41.92 47.33 46.57 44.43 41.54 35.57 43.21 32.94 41.10 45.17 46.64 48.82 51.64 51.50 51.96 53.33
55.15 54.72 53.72 53.13 50.28 50.97 56.03 57.56 55.56 53.39 30.49 49.72 50.16 53.63 50.61 49.35 49.99 50.45 53.71 50.10 45.07 46.11 46.53 44.16 46.07 46.28 44.75 45.91 48.24 44.27 47.70 46.05 45.73 42.06 39.82 39.92 36.53 40.16 45.53 45.08 46.76 48.24 50.79 53.11 54.96
54.81 54.28 53.54 52.27 51.36 52.45 54.70 55.83 55.27 43.27 32.23 46.02 49.17 46.84 46.92 48.79 48.94 49.84 49.08 50.69 50.03 47.18 47.33 45.82 49.29 48.16 47.42 49.92 48.42 48.53 45.98 45.75 43.79 41.59 32.96 40.53 38.70 36.44 40.92 45.68 48.60 50.81 51.47 52.40 53.31
54.29 53.85 53.02 54.48 50.06 56.96 54.36 52.68 40.94 35.91 47.13 44.18 43.75 46.29 45.79 45.10 46.12 46.88 45.38 43.18 40.77 38.32 39.25 44.38 45.62 48.48 49.93 45.06 47.64 45.91 41.45 32.93 30.79 30.38 30.71 43.49 39.75 39.73 46.34 48.05 49.76 49.76 50.85 52.21 54.57
53.69 53.05 52.59 53.32 54.01 54.92 54.87 48.98 36.37 41.83 43.24 48.35 45.97 46.01 43.02 45.37 45.23 45.74 42.96 40.43 44.04 42.99 39.58 38.20 36.86 44.46 48.59 45.99 43.96 43.91 42.36 33.15 28.13 29.43 32.22 42.65 37.39 40.87 47.90 49.62 51.53 52.18 50.77 53.57 53.73
52.99 52.38 51.09 52.00 53.46 53.18 51.40 40.00 37.00 43.40 46.41 46.51 45.14 42.26 41.75 44.87 45.77 43.89 41.75 40.99 43.26 44.11 37.82 39.39 39.49 48.35 49.86 49.66 47.33 43.72 39.30 45.33 37.28 35.45 29.10 35.27 40.01 45.50 47.98 48.27 50.20 49.96 51.96 51.94 52.46
51.67 50.37 49.47 53.66 55.32 52.00 47.17 39.78 43.74 48.55 49.25 48.52 42.07 43.22 39.48 42.02 42.86 41.87 41.65 44.92 44.27 46.00 46.71 44.69 38.24 45.33 47.90 49.42 47.99 45.33 46.83 37.01 36.25 27.73 25.98 33.17 35.30 37.66 43.70 46.28 48.25 49.16 50.53 51.57 52.19
50.81 46.45 50.91 54.77 54.76 49.23 39.09 41.28 45.29 50.41 50.69 47.61 44.77 42.75 42.99 41.90 43.18 41.08 42.44 45.46 46.82 48.57 48.88 45.47 40.76 41.34 46.36 43.94 42.21 42.39 40.40 41.10 39.97 36.51 28.35 25.94 32.31 42.47 44.08 45.92 45.79 48.05 51.63 52.06 51.74
49.40 41.77 52.57 56.21 43.92 42.44 40.07 43.65 46.09 48.28 50.60 49.41 48.36 47.11 45.05 43.61 43.84 41.83 42.34 44.77 48.45 49.73 45.14 46.92 41.26 36.61 41.15 46.74 48.09 44.97 42.71 42.39 30.69 33.05 33.95 29.30 32.32 44.39 45.10 46.63 47.01 47.11 52.23 52.95 53.05
45.78 46.43 54.19 53.26 35.85 38.32 42.76 43.41 46.44 47.06 47.29 48.25 47.01 48.30 47.85 44.18 42.10 43.58 44.09 50.15 49.07 47.80 45.30 46.80 40.52 31.80 36.58 41.19 45.16 42.31 43.48 43.23 42.16 38.07 33.78 26.41 31.63 44.82 45.85 45.10 46.74 45.65 49.66 52.43 52.80
46.19 40.93 48.14 49.69 44.00 40.61 40.62 40.88 42.25 48.56 48.01 49.33 48.90 48.70 46.26 43.29 45.58 44.40 45.20 50.04 50.28 48.41 45.97 47.95 43.29 38.12 31.72 36.82 41.30 40.02 42.55 43.34 40.64 30.52 32.87 33.25 37.60 42.24 43.36 44.05 45.08 45.68 46.05 49.50 52.42
46.57 43.22 47.73 42.17 42.99 42.76 42.58 42.66 41.71 43.31 48.86 49.61 47.61 46.88 45.20 40.70 42.57 44.17 46.25 47.18 49.24 46.92 47.16 45.22 38.35 40.12 40.88 42.49 43.26 42.58 41.83 42.07 41.12 40.04 34.15 37.61 39.48 42.55 42.39 43.26 43.41 45.66 46.58 46.91 48.51
43.87 43.49 47.74 45.77 46.48 44.35 42.72 41.13 42.54 45.01 47.00 45.86 45.50 47.13 46.30 42.59 43.67 42.45 46.03 45.68 44.21 45.91 44.00 46.00 38.10 39.49 37.66 43.07 41.92 38.59 41.11 41.34 41.03 41.26 40.06 39.58 39.14 43.89 44.73 44.90 44.43 44.79 45.37 45.96 46.39
48.11 48.43 47.59 43.76 44.40 42.48 41.73 42.89 43.44 47.10 48.43 49.42 47.76 46.31 44.45 46.08 48.68 48.17 50.01 49.49 48.33 45.21 42.78 43.19 40.05 34.87 31.79 37.11 36.79 29.61 37.83 39.75 40.98 41.60 40.24 35.41 40.00 43.74 43.31 44.23 43.86 44.30 45.85 45.95 46.83

GFSSW_sfc_wetblb_054.txt.gz
Wetbulb
58.94 58.82 58.78 58.62 57.99 57.88 57.82 57.42 57.09 57.31 57.30 57.45 57.56 57.54 57.51 57.59 56.08 53.50 48.40 52.13 54.81 59.40 58.46 53.11 51.73 50.64 48.78 44.62 45.46 43.98 36.52 33.76 36.97 45.60 47.77 52.69 49.88 54.34 55.37 53.94 54.47 56.56 57.72 59.88 62.84
59.33 58.85 58.38 58.46 57.59 57.42 57.34 57.01 56.69 56.99 57.35 57.47 57.53 57.51 57.47 56.80 52.69 50.37 55.72 59.95 59.75 61.75 52.84 50.71 47.88 48.79 44.88 43.42 44.06 40.73 34.84 37.15 42.73 49.25 48.75 50.67 49.79 52.59 51.81 51.32 54.89 57.11 61.06 61.80 62.27
59.50 58.94 58.22 58.30 57.51 57.26 56.96 56.39 56.36 56.95 57.15 57.13 57.15 57.39 56.85 55.66 50.22 53.92 61.06 61.71 61.66 61.44 52.52 51.02 50.43 48.57 43.66 43.62 42.79 41.17 38.57 45.28 49.59 50.43 50.71 50.31 50.35 52.77 51.01 48.27 53.86 55.40 57.70 59.26 59.99
58.44 58.20 57.80 57.84 57.49 57.09 56.25 55.68 56.36 56.69 56.89 56.87 56.98 57.22 56.49 53.43 43.05 51.40 62.14 62.51 62.72 56.26 52.03 49.90 48.39 44.78 42.81 41.92 42.72 40.07 43.97 48.46 50.19 51.03 50.07 48.67 51.10 50.83 50.66 50.37 58.35 59.45 59.33 57.88 58.44
57.41 57.18 57.29 57.51 57.29 56.72 55.88 55.49 55.98 56.34 56.32 56.31 56.70 57.12 52.34 47.61 49.65 57.14 62.33 62.00 56.52 53.69 50.83 49.49 48.40 46.80 42.80 43.14 44.70 42.21 44.21 50.62 51.84 51.82 50.97 52.06 48.78 50.31 50.63 54.97 58.83 57.87 58.92 57.68 57.35
57.26 56.90 56.68 56.64 56.58 56.31 55.82 55.33 55.47 55.51 55.72 56.19 56.46 56.53 51.28 43.99 55.24 60.19 58.07 56.81 54.13 51.48 50.34 50.41 49.44 48.97 46.13 45.55 44.03 46.85 50.36 50.40 50.31 50.20 51.44 49.99 49.79 48.25 51.77 55.12 58.54 58.64 57.33 57.57 57.69
57.31 56.85 56.49 56.29 56.05 55.80 55.52 55.03 55.07 55.07 55.45 55.97 56.22 54.45 49.85 45.37 52.84 52.38 53.76 55.26 55.05 51.82 49.72 50.90 51.24 49.06 47.97 46.78 49.39 46.92 43.85 47.04 47.10 46.75 47.46 49.39 45.05 46.31 52.41 55.14 57.22 58.26 57.00 58.21 57.55
57.68 56.95 55.98 55.60 55.23 54.74 54.50 54.32 54.48 54.93 55.33 55.82 56.01 51.62 45.41 56.32 54.86 55.21 54.31 54.11 55.36 53.38 52.27 53.28 53.56 50.98 48.58 48.81 47.63 42.54 41.67 37.79 46.83 49.24 49.99 47.07 41.94 48.16 51.81 54.33 55.19 56.94 56.45 58.18 56.83
57.43 56.89 56.08 55.09 54.48 54.01 53.95 54.00 54.48 55.13 55.56 55.36 50.63 49.08 46.90 58.22 54.83 57.01 55.55 53.14 54.12 54.45 54.21 55.50 52.14 47.99 48.01 42.81 40.59 42.43 37.79 39.29 44.27 50.11 48.62 46.80 42.50 48.12 51.25 52.14 53.55 55.50 54.73 54.83 56.63
57.75 56.99 56.22 55.07 54.32 53.50 53.49 54.11 54.50 53.99 53.77 54.75 53.39 44.25 49.97 50.11 54.26 54.78 54.08 54.27 51.90 53.17 51.66 50.04 46.39 43.50 43.27 41.08 35.73 38.67 39.36 41.27 40.15 46.48 47.13 45.13 43.68 45.58 49.47 51.58 51.06 53.51 53.90 51.07 53.41
57.56 56.96 56.24 55.29 54.46 53.97 51.72 50.44 48.45 48.31 48.99 47.53 46.45 46.53 49.17 53.51 55.15 52.01 53.38 52.03 50.85 50.00 44.19 47.33 43.07 39.93 42.27 44.72 46.09 44.23 42.26 38.86 42.42 45.58 44.98 45.07 44.23 45.26 48.17 49.51 47.27 47.99 51.80 51.11 52.38
57.16 56.74 55.96 55.07 54.22 54.09 50.26 46.28 49.39 49.17 43.88 51.40 51.99 51.36 53.11 54.27 49.19 50.76 53.51 48.06 46.60 43.40 46.21 43.60 41.15 46.68 47.68 47.76 45.63 44.21 41.38 40.16 43.26 44.86 45.94 41.59 42.57 44.76 47.78 49.97 49.38 48.84 48.81 49.37 49.97
56.26 56.46 55.72 54.38 53.58 50.59 48.60 49.29 52.92 52.19 44.34 49.28 52.49 51.99 52.84 54.52 48.94 48.40 51.41 48.22 44.80 44.01 43.93 40.18 44.23 49.17 47.09 45.55 44.04 42.93 40.81 40.95 40.73 42.88 42.10 40.22 38.49 41.75 46.09 49.39 50.09 50.39 49.96 50.49 51.06
55.43 55.68 54.54 53.18 48.85 49.52 49.36 54.50 54.63 51.74 39.88 44.44 48.97 52.02 53.79 51.44 45.68 51.42 52.06 48.90 45.93 43.40 43.80 42.81 46.56 45.74 44.07 44.42 45.12 39.98 45.70 44.67 42.82 38.16 33.63 40.17 31.16 38.30 42.88 46.25 48.80 49.25 47.81 48.30 51.64
54.88 55.23 53.74 52.71 49.53 48.66 54.17 53.16 53.08 51.58 23.20 46.12 48.97 55.31 51.88 46.50 48.26 48.79 51.66 48.64 43.28 45.19 44.02 41.21 43.75 44.16 42.69 43.99 47.01 42.36 45.58 44.44 43.72 39.29 37.38 39.28 34.89 37.77 42.80 42.77 44.87 48.46 48.65 49.16 52.62
54.64 54.90 53.28 52.04 50.39 50.57 53.74 52.37 53.45 41.51 28.50 45.22 49.03 46.16 44.28 45.59 47.27 48.27 48.22 49.07 48.63 45.98 45.20 42.82 47.10 46.67 45.26 48.44 47.14 47.05 43.95 43.47 41.59 39.11 32.26 39.79 35.88 35.36 39.55 43.45 47.12 47.95 50.21 50.15 52.43
53.87 54.40 52.89 53.67 47.42 53.08 53.82 52.21 39.77 34.57 45.31 43.31 42.61 44.39 44.17 43.30 44.81 45.42 44.03 41.85 39.81 36.82 37.22 42.46 43.33 46.28 48.33 43.87 45.63 44.03 38.59 30.20 28.28 28.53 28.97 40.56 36.49 38.67 43.62 46.57 46.76 47.44 48.53 49.66 52.15
52.84 53.32 53.15 52.80 51.15 52.73 52.90 46.07 34.14 39.39 41.46 47.74 43.98 43.68 40.86 43.54 43.29 43.92 41.62 39.01 41.60 41.48 37.54 36.27 34.80 44.05 47.53 44.17 41.57 42.71 39.76 30.36 26.60 26.40 29.36 40.28 34.47 39.14 46.28 48.35 48.80 48.97 48.23 51.52 52.11
52.79 53.07 51.94 52.37 52.34 51.97 49.07 38.52 34.90 41.20 45.04 43.78 43.19 40.11 39.65 43.01 43.34 42.41 40.36 39.44 41.96 42.12 36.94 37.05 37.84 46.27 47.61 47.76 45.72 42.13 37.91 42.40 35.25 32.22 28.23 34.23 37.50 43.94 46.60 47.70 48.52 47.57 49.06 50.58 51.90
49.79 50.82 50.73 52.99 53.61 51.00 45.71 37.63 41.60 47.12 47.68 46.86 39.72 41.63 37.47 40.16 40.09 40.46 39.84 43.18 42.03 44.43 43.65 42.61 36.47 43.94 46.16 47.43 46.08 43.27 45.16 36.57 35.05 26.84 25.24 30.76 33.20 36.37 41.72 44.13 46.63 46.05 47.72 50.37 51.11
49.35 46.38 52.07 54.45 52.75 46.41 38.38 38.96 42.75 47.62 48.37 46.11 43.59 41.78 41.07 40.09 41.20 39.26 40.59 43.74 44.67 44.77 45.35 43.79 39.90 39.30 44.35 42.06 40.38 40.40 38.82 39.23 38.35 33.79 27.75 25.13 30.86 39.97 43.35 45.18 46.52 47.24 49.79 50.56 50.69
47.76 41.09 51.65 54.24 41.39 41.07 39.35 42.12 44.21 45.36 48.20 47.45 47.37 45.50 42.83 41.89 40.68 40.23 40.26 43.10 46.74 47.55 42.92 44.65 39.95 34.47 39.84 45.09 47.09 43.26 40.70 40.68 30.08 31.19 31.35 27.66 30.92 42.62 44.23 45.79 45.81 46.78 50.41 51.34 51.97
44.42 45.37 51.09 51.09 34.93 35.55 40.86 42.53 44.46 43.66 45.19 46.12 45.63 46.96 46.31 42.62 38.82 41.69 42.36 47.42 47.21 47.37 43.97 45.05 38.43 31.77 35.78 40.86 43.64 40.80 41.72 41.52 39.89 34.99 31.50 25.74 30.89 43.21 42.59 43.95 45.67 44.89 47.51 50.95 51.66
46.01 39.38 45.93 47.15 44.04 38.37 37.78 39.72 40.24 45.30 44.43 45.80 46.17 47.32 44.90 42.57 43.92 41.27 43.23 47.70 48.33 47.61 46.22 46.22 40.75 36.03 31.97 35.88 39.18 37.42 40.68 41.13 38.32 29.05 31.24 31.82 36.09 41.04 42.70 42.41 43.59 44.13 45.11 49.52 51.54
45.84 40.30 43.20 38.54 40.27 40.39 39.73 40.00 39.06 39.48 44.28 47.46 45.50 45.07 43.84 40.13 40.65 41.11 44.92 45.30 47.34 45.76 46.04 43.57 37.63 39.07 39.77 40.66 41.25 39.69 39.37 39.57 38.32 37.89 32.86 36.30 36.80 41.00 41.27 41.81 42.28 43.78 44.27 47.39 49.60
42.79 40.74 44.97 42.20 42.94 40.43 38.70 37.99 38.92 40.88 43.01 41.43 42.96 45.84 45.66 41.89 41.99 40.33 44.73 43.53 42.47 44.37 42.97 43.94 36.72 36.41 35.30 39.06 39.15 36.69 38.79 38.89 39.35 39.42 38.66 38.11 37.70 41.18 41.67 41.96 42.13 42.45 44.14 44.33 46.00
46.87 46.35 45.74 41.94 41.52 40.03 39.42 39.09 40.35 42.93 44.60 45.88 46.28 45.56 44.19 45.64 46.56 45.80 47.89 48.09 46.79 43.37 41.36 41.10 38.25 32.65 30.83 34.71 35.02 29.53 36.20 38.47 39.27 39.48 39.27 34.02 37.97 40.91 40.53 41.41 41.41 42.25 43.78 44.32 45.69

GFSSW_sfc_wetblb_057.txt.gz
Wetbulb
59.14 58.84 58.81 58.75 58.04 57.41 57.41 57.20 56.89 56.85 56.96 57.23 57.25 57.19 57.29 57.45 55.80 52.63 46.40 51.47 53.16 58.84 58.08 51.24 50.06 49.33 47.67 44.13 43.24 41.20 35.63 32.99 35.10 40.72 45.36 51.26 48.69 52.92 53.67 52.93 57.28 58.84 57.40 59.41 62.11
59.62 59.38 58.70 58.52 57.67 57.27 57.08 56.72 56.35 56.51 56.97 57.01 56.96 57.03 57.17 56.58 52.27 49.42 55.21 59.43 59.68 61.16 51.65 49.35 46.33 47.09 43.72 42.08 42.01 38.91 34.00 36.10 40.31 46.39 47.95 49.85 48.48 50.89 49.98 50.77 54.36 56.68 60.23 61.15 60.68
59.75 59.29 58.80 58.27 57.96 57.53 56.92 56.09 55.92 56.57 57.01 56.91 56.87 57.17 56.62 55.42 47.24 51.37 60.61 60.54 61.19 60.25 52.16 49.81 49.03 46.88 42.12 41.57 41.78 38.43 37.27 40.22 48.01 50.30 50.36 49.51 48.62 51.00 48.80 46.05 53.79 55.31 57.55 59.15 59.07
58.92 58.58 58.28 57.98 57.92 57.57 56.37 55.34 56.03 56.27 56.53 56.31 56.46 57.04 56.55 52.43 39.00 49.48 62.13 62.58 62.34 57.46 50.62 48.38 46.68 43.36 41.32 40.74 41.81 38.23 42.26 46.40 48.77 50.92 49.46 48.58 49.93 49.30 48.78 49.22 57.85 58.74 59.78 58.92 58.35
57.78 57.57 57.63 57.70 57.59 56.98 56.15 55.34 55.58 56.00 56.04 56.03 56.30 56.78 51.62 44.72 46.02 54.21 61.59 60.57 57.76 52.48 49.54 47.97 46.87 45.22 41.71 42.45 42.36 40.07 44.45 46.28 50.53 50.16 48.47 50.16 47.53 48.23 48.81 56.53 59.01 58.25 59.22 58.08 57.82
57.35 57.13 56.94 57.02 56.96 56.57 56.01 55.38 54.99 55.35 55.70 55.74 56.03 56.41 49.34 40.47 51.75 58.10 55.15 54.39 52.84 50.33 48.59 48.87 48.45 48.20 44.74 43.94 42.89 47.91 48.87 48.81 48.80 49.50 49.68 47.36 47.72 46.63 50.46 55.92 57.64 57.11 57.25 57.44 57.20
57.67 57.05 56.67 56.79 56.51 56.05 55.62 54.83 54.42 54.85 55.41 55.54 55.79 54.04 48.67 43.45 50.75 52.00 53.92 52.18 53.93 51.14 47.89 49.58 50.10 47.90 47.59 45.15 47.56 46.68 43.94 45.69 46.16 47.32 46.80 47.79 43.72 44.98 52.20 56.83 56.42 55.75 56.89 56.20 56.96
58.30 57.29 56.26 56.10 55.80 55.27 54.71 54.13 53.87 54.79 55.19 55.44 55.25 50.31 43.19 53.33 53.33 55.02 53.03 53.33 53.83 53.63 50.49 51.65 51.20 49.27 47.14 47.60 45.86 42.69 41.41 38.30 45.87 47.13 47.79 45.93 39.81 48.24 53.76 55.90 54.89 55.31 55.80 55.82 55.81
57.90 57.38 56.42 55.60 54.91 54.44 54.02 53.73 54.22 55.15 55.23 54.99 49.24 47.15 45.20 56.04 51.76 55.34 55.08 52.54 52.74 52.89 51.50 53.46 50.56 46.61 46.42 43.40 38.02 38.57 34.83 37.25 42.33 48.37 47.28 44.93 42.06 47.26 51.76 54.95 55.05 54.89 55.38 55.84 55.95
57.28 57.38 56.56 55.64 54.81 53.82 53.37 53.87 54.26 53.89 53.81 54.30 52.65 42.55 46.06 48.11 52.52 53.82 53.60 53.72 50.63 50.91 49.97 48.78 45.49 42.12 41.32 38.20 32.61 35.93 36.42 38.64 37.77 44.61 46.84 44.22 43.49 45.53 49.13 53.16 54.06 54.68 54.93 56.13 55.69
56.56 57.18 56.82 55.92 54.89 53.73 51.36 48.58 46.32 47.02 48.11 46.14 44.70 42.99 46.73 51.62 54.78 50.67 52.18 50.76 49.84 48.80 43.14 45.76 41.39 38.51 41.21 42.83 44.42 42.59 40.85 39.07 40.86 44.18 44.77 43.27 42.09 43.26 46.69 49.23 49.16 53.08 52.97 54.52 55.73
55.64 56.72 56.48 56.02 54.89 53.69 49.59 45.29 46.61 47.99 42.19 49.17 49.74 48.80 51.68 52.82 49.31 51.50 51.97 46.61 45.57 41.67 44.47 42.35 40.61 44.94 45.48 45.23 44.18 42.30 40.35 39.95 42.05 43.49 43.85 40.76 41.62 43.08 46.15 47.82 49.91 51.14 52.49 51.08 53.43
54.91 55.31 56.16 55.19 53.64 50.70 47.99 47.99 52.13 51.11 41.69 46.47 50.27 49.57 50.83 52.66 48.92 49.37 49.80 46.80 43.35 41.34 42.02 39.05 42.03 46.93 45.45 43.10 42.22 40.73 40.12 39.39 39.57 41.57 42.17 39.40 37.72 40.51 45.07 48.14 48.87 51.19 53.95 51.68 51.60
54.10 54.55 55.08 53.55 49.79 48.98 48.79 53.01 52.04 50.25 36.63 40.70 47.72 49.92 52.12 51.57 45.30 51.15 50.74 47.68 44.42 41.72 42.44 41.16 44.85 44.32 42.30 42.30 43.14 37.86 43.68 42.85 41.05 37.75 32.60 38.83 30.41 37.44 42.13 46.09 47.67 48.51 49.23 49.99 51.04
53.30 54.57 54.34 53.13 48.17 48.68 52.88 52.91 51.49 49.72 22.54 41.65 47.58 53.51 51.38 45.87 45.58 46.77 49.99 47.01 43.29 43.82 42.89 40.78 42.94 42.28 41.32 42.19 44.39 40.69 44.05 42.72 41.72 38.23 35.49 36.58 33.35 36.50 41.01 42.20 45.61 47.46 47.32 48.29 49.71
53.22 53.59 53.98 52.29 50.32 50.04 51.74 52.74 52.84 37.78 25.20 41.63 47.70 46.30 43.98 43.91 44.79 46.15 47.19 47.96 46.96 44.40 43.40 41.22 46.15 44.79 43.29 45.69 45.39 45.53 42.84 40.98 38.96 37.22 30.38 36.24 34.51 33.89 37.67 42.56 45.88 48.98 48.78 48.15 48.59
52.68 53.44 53.32 53.88 47.41 51.70 52.13 51.05 39.54 31.64 41.85 41.24 42.26 43.47 42.36 40.82 42.22 43.55 42.48 40.60 39.19 36.16 36.13 40.74 42.60 44.67 46.93 41.59 43.75 42.40 36.85 29.06 28.19 27.39 28.49 37.88 34.71 37.38 41.28 43.86 44.52 46.29 48.53 47.63 49.21
51.90 51.87 53.49 53.85 51.15 51.00 52.20 46.43 32.30 37.31 39.08 46.14 42.53 41.84 38.90 41.87 41.62 42.37 39.97 37.85 39.87 39.56 35.76 34.91 33.16 41.91 45.22 42.59 40.40 40.06 37.52 29.50 25.90 25.61 27.93 37.81 32.76 37.73 44.53 46.66 46.24 46.84 47.52 47.60 49.61
51.42 48.37 50.99 53.91 53.13 50.02 48.70 37.74 33.41 38.74 43.91 40.80 41.36 37.95 37.52 41.48 41.46 40.54 38.85 38.18 40.34 41.15 36.10 35.07 35.83 44.88 46.30 45.76 43.98 40.10 36.50 39.93 32.97 31.50 28.02 32.15 35.97 42.52 44.48 45.10 46.00 45.11 47.52 47.73 49.34
46.89 45.39 47.57 54.43 53.99 49.02 43.54 38.08 39.78 45.16 46.36 45.19 37.12 39.33 35.69 38.34 38.73 38.89 38.08 41.66 40.71 42.68 42.59 39.82 34.43 42.42 45.20 45.87 45.43 41.93 43.55 34.55 33.24 26.58 25.17 29.09 31.10 34.15 40.76 43.03 45.00 43.78 45.41 48.75 50.43
44.37 41.26 48.95 53.74 53.06 44.33 36.92 37.84 41.75 46.60 46.82 44.10 41.97 39.87 39.63 38.09 39.30 37.67 39.21 42.11 42.84 42.35 42.60 41.48 38.03 37.09 42.97 40.73 39.36 39.08 37.34 36.98 36.72 31.59 26.89 24.78 30.32 38.07 41.77 43.67 44.74 44.66 46.52 48.76 50.33
42.38 36.76 51.23 52.57 41.84 39.38 37.50 40.73 43.86 44.07 45.88 45.08 45.18 44.21 41.71 40.56 38.63 38.87 39.40 42.01 44.75 44.34 40.58 42.63 38.06 32.63 38.73 42.60 44.50 40.96 39.67 38.28 29.78 30.44 30.15 27.28 29.68 40.54 42.27 44.66 44.82 46.90 47.81 49.02 50.45
38.86 42.46 51.48 49.93 38.01 35.93 39.90 41.05 43.42 43.00 43.67 42.92 43.60 45.18 44.65 40.40 37.11 40.24 41.16 45.00 46.54 44.36 42.16 42.97 36.28 30.39 34.39 38.61 41.49 39.70 40.41 40.26 37.57 33.11 30.02 25.26 30.19 41.40 41.24 42.65 44.75 44.75 46.12 49.47 50.02
40.51 37.59 44.29 46.93 45.27 39.97 37.27 38.47 39.38 45.16 43.27 43.89 43.09 44.86 42.98 40.64 42.83 40.06 40.79 46.20 46.60 45.80 45.70 45.08 38.50 35.86 32.24 36.00 39.77 37.89 38.62 38.95 37.22 28.76 30.50 30.60 34.29 39.22 41.24 41.12 42.07 43.69 43.29 46.03 49.79
41.35 37.55 41.17 37.52 40.05 41.25 39.51 39.46 38.32 39.34 43.38 43.65 40.56 41.80 41.34 37.92 39.65 39.73 43.65 44.38 45.77 44.40 43.93 42.62 36.77 37.11 37.83 38.46 39.01 38.47 38.80 38.64 37.10 36.07 32.15 34.95 34.89 39.23 40.38 41.42 41.35 42.09 42.59 45.51 48.28
38.04 40.85 42.38 38.81 41.40 41.27 38.98 37.65 38.45 40.53 41.00 39.39 39.19 43.41 42.52 40.05 41.89 39.00 43.56 41.94 41.92 43.14 41.08 42.02 34.96 34.70 34.38 37.29 37.87 36.12 38.79 37.72 37.62 37.26 37.08 36.65 35.99 39.38 39.44 40.53 40.46 41.06 42.85 43.83 45.61
41.68 44.56 42.64 39.84 38.86 38.84 38.56 38.31 38.94 42.14 43.17 43.81 42.35 41.56 39.26 43.51 46.96 46.38 46.03 45.87 44.95 42.71 40.13 39.39 36.38 31.65 29.98 33.37 33.25 29.63 35.02 37.53 38.04 38.44 37.77 33.15 37.55 39.07 38.91 40.05 39.64 40.89 42.88 43.79 45.85

GFSSW_sfc_wetblb_060.txt.gz
Wetbulb
59.50 59.26 59.00 58.83 58.28 57.69 57.39 57.03 56.58 56.48 56.41 57.15 57.25 57.05 57.11 57.29 55.42 51.63 45.50 51.12 53.05 58.92 57.63 51.08 48.86 48.31 46.34 43.30 41.67 39.48 34.38 31.82 35.49 36.84 42.05 50.96 47.92 51.93 52.72 53.07 55.96 57.99 56.26 59.91 62.32
60.06 59.94 59.52 58.98 57.78 57.45 57.18 56.82 55.97 56.07 56.62 57.08 56.93 57.02 57.09 56.57 51.74 48.00 54.82 58.60 59.60 60.29 50.29 47.86 44.83 45.85 42.53 41.17 40.56 38.21 32.58 35.25 39.26 41.42 46.94 49.96 47.91 49.46 49.08 51.53 54.28 57.09 60.06 61.16 60.92
60.25 59.97 59.47 58.95 58.16 57.45 57.08 56.35 55.81 56.14 56.52 56.83 56.79 56.82 56.51 54.94 44.65 48.21 61.13 60.55 60.16 58.71 51.08 48.68 47.65 45.36 41.06 40.29 39.82 37.11 36.70 39.75 42.44 48.75 49.75 49.21 48.08 50.04 47.68 45.85 53.09 55.07 56.52 59.47 59.66
59.43 59.23 58.82 58.61 58.18 57.51 56.55 55.78 55.81 56.02 56.26 56.37 56.26 56.76 56.33 51.59 37.71 47.20 62.37 62.25 61.42 55.51 50.09 46.75 45.03 42.35 40.35 39.09 40.95 36.66 40.64 41.23 46.87 50.23 49.30 47.98 48.95 48.04 47.92 48.53 56.64 57.93 59.15 59.38 58.28
58.43 58.10 58.01 58.18 57.92 57.22 56.33 55.60 55.68 55.60 55.65 55.89 56.06 56.50 51.56 42.81 43.92 49.95 60.32 61.15 55.52 51.38 47.71 46.77 45.55 43.92 40.61 41.21 41.11 38.20 43.60 47.81 49.18 49.20 48.35 49.48 45.52 47.46 49.67 55.58 58.41 59.01 58.55 57.98 57.82
58.12 57.77 57.37 57.30 57.22 57.00 56.39 55.62 55.01 54.91 55.18 55.58 55.92 56.21 48.46 38.59 48.82 55.61 51.64 51.95 52.17 49.30 47.37 47.12 46.66 47.01 43.80 42.43 41.75 47.19 46.04 46.86 47.24 47.57 49.12 46.30 46.51 46.05 51.39 57.41 57.47 57.31 57.25 57.05 57.38
57.31 57.74 57.35 57.31 57.07 56.63 56.17 55.38 54.63 54.48 55.05 55.40 55.57 53.83 47.49 42.69 49.18 50.84 53.45 51.92 51.94 50.65 46.69 48.44 49.09 46.15 46.24 43.07 47.06 45.74 43.47 45.04 45.07 46.57 45.75 46.10 41.86 43.58 52.95 56.55 55.30 55.64 56.85 56.85 57.03
56.30 57.27 56.98 56.62 56.18 55.82 55.42 54.53 54.16 54.38 55.03 55.19 55.17 50.23 41.75 51.04 51.31 53.21 52.46 53.01 52.91 52.51 49.43 50.22 49.56 47.34 45.33 45.85 43.98 42.37 39.60 37.20 42.79 45.46 45.59 44.06 37.95 46.02 54.08 55.38 54.42 54.95 55.73 56.26 56.25
55.88 55.74 56.60 56.20 55.54 55.06 54.37 53.90 54.08 55.05 55.44 54.79 49.05 45.83 42.70 53.60 49.40 52.23 53.93 51.69 51.61 51.41 50.28 52.24 49.13 44.92 45.25 40.03 36.38 37.48 32.79 36.22 39.61 47.30 44.01 43.87 39.13 47.53 54.89 54.57 53.57 54.20 54.79 54.92 54.83
55.38 55.64 56.36 56.32 55.70 54.39 53.29 53.59 53.89 53.60 53.73 53.91 52.05 43.47 45.19 46.20 50.49 52.51 52.89 52.70 49.31 49.15 48.83 47.07 44.12 40.81 39.82 37.17 31.44 33.77 34.67 38.68 37.35 43.59 44.40 41.02 41.97 45.12 52.39 54.32 53.57 53.63 54.17 54.63 53.84
55.29 55.46 56.10 56.34 55.84 54.12 51.22 48.14 44.08 45.80 48.92 45.36 44.91 43.03 44.03 50.81 53.33 49.66 50.60 49.94 49.10 47.47 41.62 44.27 40.49 36.97 38.86 40.25 41.80 41.18 40.21 38.65 40.08 44.43 40.66 40.27 41.01 43.10 47.33 51.72 52.46 52.64 52.80 53.95 54.54
54.89 54.54 55.15 56.32 55.86 53.85 50.53 43.79 45.36 47.35 42.40 47.44 48.47 47.81 49.43 51.49 47.62 50.11 50.48 45.67 44.43 40.14 43.07 41.02 38.04 42.66 43.37 43.67 42.09 41.26 40.43 38.83 41.69 42.18 41.58 39.71 39.58 42.24 45.75 49.11 52.13 53.00 52.78 53.90 55.31
54.30 54.07 54.50 55.46 54.35 51.68 47.14 47.22 51.44 50.84 41.96 43.89 47.98 47.45 48.39 50.67 47.01 47.31 48.79 45.41 42.29 40.31 40.92 38.16 41.24 45.37 44.09 41.79 40.87 39.53 38.80 37.52 38.67 40.18 40.59 38.39 37.37 40.49 43.77 47.27 49.62 52.71 54.61 54.18 54.49
53.32 53.42 53.54 54.46 50.75 49.08 47.05 52.09 52.27 50.26 34.53 38.67 45.11 47.77 50.43 50.48 45.57 51.93 49.42 46.59 42.74 40.51 40.38 39.42 42.80 42.98 41.48 40.88 41.30 36.34 42.52 41.88 40.34 36.72 32.13 36.81 29.95 35.90 39.91 44.43 47.44 49.84 51.96 53.13 52.52
53.11 53.15 53.25 53.52 49.32 48.24 51.17 51.82 51.95 48.12 22.44 40.65 46.29 52.45 50.13 45.63 44.71 45.54 48.65 45.93 42.00 42.02 41.60 39.34 40.64 40.71 39.66 40.85 42.85 39.54 43.02 41.66 41.16 37.20 33.97 34.15 31.49 35.42 39.83 41.50 45.37 47.65 48.53 52.11 52.01
52.85 52.93 52.59 53.26 51.50 50.69 52.19 52.33 51.62 35.91 24.37 38.18 46.36 44.93 43.56 42.39 43.13 44.51 45.32 46.60 45.91 43.21 41.47 39.96 44.02 43.34 42.38 43.80 43.72 43.87 41.19 38.96 37.33 35.66 29.58 34.22 33.00 32.74 36.27 40.79 44.31 46.50 46.95 49.01 50.18
52.12 52.61 52.66 54.25 49.90 51.18 52.22 49.48 40.18 29.88 40.32 38.83 41.72 43.28 40.76 39.36 40.30 42.14 40.94 39.93 38.05 34.94 34.42 39.04 40.34 42.54 44.87 40.10 42.02 40.08 35.60 28.32 27.04 26.83 28.00 36.01 33.60 36.22 39.19 42.41 44.06 45.82 47.72 47.89 48.53
51.18 51.45 51.28 52.80 53.14 51.42 51.88 45.19 32.67 36.39 37.68 44.09 42.02 41.45 38.36 39.51 39.59 40.55 38.61 37.12 38.27 38.40 34.12 33.70 31.71 40.40 43.53 41.42 38.48 38.33 36.89 29.36 25.20 24.61 27.23 35.55 32.08 36.89 42.84 44.93 45.67 45.14 45.81 47.66 45.91
50.84 46.37 47.60 49.81 53.71 51.14 47.11 36.75 32.93 36.87 42.11 40.31 40.08 36.35 36.31 39.69 39.02 38.95 37.21 36.70 39.03 40.14 35.36 33.08 34.08 41.98 44.27 44.36 42.23 38.26 34.95 38.06 31.54 30.37 27.08 30.98 35.53 39.80 41.99 43.35 45.57 43.89 44.68 44.72 45.28
47.09 43.43 43.44 50.43 54.57 49.86 41.23 37.26 39.45 43.01 45.08 44.35 36.35 38.04 33.67 36.28 37.20 37.33 36.27 39.81 39.44 41.54 41.06 38.65 32.64 40.52 43.19 44.36 43.38 40.05 42.22 33.55 31.88 26.70 25.26 27.95 29.90 32.44 38.42 40.71 43.50 44.12 44.29 45.81 46.10
45.72 39.74 43.36 50.85 53.19 46.01 35.52 36.91 42.28 45.72 45.76 42.78 40.64 38.51 37.55 36.56 37.75 35.80 37.14 40.08 41.71 40.67 41.33 39.78 36.11 34.79 40.65 39.45 38.32 37.99 36.25 35.46 35.31 30.50 26.52 23.83 29.20 37.47 39.10 41.54 41.30 42.32 45.22 45.20 48.65
43.29 33.37 46.13 52.21 41.50 42.88 38.99 38.53 43.31 43.81 45.41 43.40 43.11 42.83 39.75 38.40 36.53 36.73 37.65 40.78 43.21 42.56 39.08 41.41 36.06 30.78 36.73 40.43 42.01 39.65 38.49 37.08 29.57 29.64 29.29 26.70 28.52 39.72 40.03 41.13 42.62 43.97 45.79 46.03 49.04
39.15 37.56 50.45 49.27 34.81 37.63 41.57 39.86 41.69 41.89 42.04 41.02 41.13 43.37 43.20 38.50 35.18 38.24 39.42 43.68 43.11 42.47 40.72 41.60 34.55 28.70 32.10 36.23 39.70 37.94 38.96 38.41 35.49 31.87 29.64 24.81 29.75 40.28 40.20 40.49 41.87 43.27 44.28 47.09 48.98
39.08 31.46 41.93 44.47 41.82 38.15 38.58 38.49 37.38 43.86 42.20 42.49 41.25 42.77 41.70 38.90 40.25 37.82 39.47 43.75 44.98 43.79 44.87 44.06 36.98 33.44 30.31 33.13 37.16 35.66 37.97 38.46 36.91 28.88 30.35 29.61 33.33 38.21 39.61 39.84 40.93 41.99 42.91 42.88 47.56
39.44 33.46 39.87 35.32 36.22 38.45 39.73 39.63 36.87 37.34 42.38 42.50 39.54 40.44 40.12 36.36 37.49 37.97 42.02 43.18 44.49 44.49 42.38 41.48 35.22 35.82 36.25 36.95 37.62 37.13 36.97 36.17 35.18 34.77 31.74 34.35 33.25 37.98 39.42 39.20 39.86 40.17 40.93 41.89 43.85
35.62 35.60 40.85 37.59 39.12 38.34 40.12 37.87 37.55 38.65 40.04 38.73 38.29 40.32 41.04 37.73 39.40 38.40 42.70 41.30 40.21 41.28 40.49 40.07 34.97 34.45 33.55 35.39 36.55 35.08 37.85 37.05 36.75 35.84 35.14 35.11 34.51 39.24 37.98 38.52 39.27 39.89 41.79 43.76 44.43
40.91 41.14 41.21 38.32 38.80 36.34 36.97 38.10 38.43 40.86 42.09 42.61 41.73 40.61 39.12 41.29 43.99 45.05 45.35 44.69 43.54 40.28 38.43 37.95 35.01 31.68 30.30 32.54 33.29 29.25 34.29 37.06 37.47 37.25 37.34 32.44 37.08 38.30 37.29 38.67 37.77 39.98 41.97 43.24 43.70

GFSSW_sfc_wetblb_063.txt.gz
Wetbulb
59.87 59.81 59.43 59.24 58.50 57.92 57.69 57.45 56.81 56.48 56.35 56.58 57.19 57.32 57.17 57.11 55.13 52.83 48.64 54.26 54.66 58.84 58.71 53.75 52.53 52.60 51.58 48.73 47.62 45.83 43.47 39.89 40.77 40.28 44.31 53.34 51.86 54.53 56.07 56.32 57.38 58.45 57.39 60.98 63.18
60.50 60.51 60.27 59.72 58.37 57.83 57.41 57.18 56.43 56.39 56.60 56.80 57.04 57.19 57.05 56.32 52.39 48.80 56.22 58.23 59.87 60.19 52.86 50.86 48.57 49.65 48.67 47.81 46.48 45.51 42.20 42.01 44.43 44.34 48.65 51.96 51.79 52.67 53.05 54.72 55.01 56.70 60.36 62.20 62.30
60.87 60.49 60.12 59.46 58.74 58.11 57.36 56.55 56.25 56.54 56.58 56.31 56.69 56.89 56.43 55.52 47.67 49.46 61.50 60.25 59.99 59.59 54.34 52.37 50.78 49.08 46.95 47.20 45.54 43.09 42.97 44.41 44.88 45.73 52.49 51.71 51.82 53.44 51.91 51.12 55.53 55.69 58.04 60.05 59.88
58.92 59.78 59.48 59.19 58.78 57.99 57.10 56.02 56.29 56.54 56.34 56.14 56.63 56.84 56.25 53.20 40.57 51.52 62.23 62.34 61.03 56.66 52.61 49.85 48.44 47.67 46.51 45.41 46.39 42.82 44.28 44.42 46.82 51.85 52.22 51.41 52.39 51.40 52.37 52.57 57.57 59.29 59.99 59.10 57.99
56.87 58.05 58.94 58.92 58.42 57.72 56.85 56.14 56.20 56.15 55.97 55.69 56.16 56.66 53.03 45.39 45.62 55.13 61.07 61.93 57.39 54.26 50.85 49.58 48.61 48.15 46.17 46.39 45.62 42.81 46.27 50.50 51.02 51.78 51.58 51.61 49.61 50.58 54.21 57.93 59.51 59.51 59.64 58.35 58.38
56.12 56.41 57.46 58.18 57.93 57.45 56.83 56.10 55.67 55.57 55.43 55.55 55.83 56.15 49.97 41.09 50.50 54.61 53.84 54.14 54.50 52.42 51.29 50.48 50.14 50.37 47.91 46.72 46.35 49.87 49.32 49.99 51.15 50.88 51.49 49.41 49.80 50.38 54.24 58.80 57.94 58.23 57.40 57.80 58.17
55.64 55.80 56.18 57.58 57.66 57.40 56.84 56.10 55.35 55.21 55.37 55.16 55.52 53.82 48.07 45.35 52.01 52.69 53.91 54.31 53.68 52.86 50.13 51.38 52.10 50.32 50.03 47.22 51.64 49.57 48.03 48.56 49.67 51.37 49.86 50.80 47.66 48.13 54.62 57.48 55.45 56.87 57.68 58.35 59.00
54.97 55.57 55.29 55.65 56.64 56.66 56.18 55.31 54.81 55.05 55.15 55.33 55.42 51.98 43.68 51.81 53.09 52.91 54.64 54.53 55.15 53.89 51.98 52.74 52.60 50.97 49.89 50.06 46.60 47.16 44.76 42.74 47.91 49.79 49.24 49.78 44.38 49.64 56.51 56.02 54.87 55.56 57.02 57.66 57.52
54.50 54.80 54.93 54.82 55.57 55.76 55.33 54.57 54.68 55.05 55.39 55.05 51.12 48.08 43.54 54.02 49.48 52.92 55.35 53.11 53.32 53.51 53.25 52.85 52.51 49.26 48.64 45.58 42.86 42.99 40.58 40.86 43.27 49.88 48.27 47.81 45.15 50.94 56.37 55.74 54.75 55.36 56.09 57.05 57.17
53.91 54.34 54.70 54.91 55.34 55.16 54.01 53.99 54.36 53.93 54.17 54.11 52.36 45.58 48.13 47.42 51.26 54.08 55.17 54.47 52.51 52.45 51.56 50.30 48.57 46.41 45.16 44.19 37.93 39.82 39.56 41.52 42.39 46.24 48.28 46.23 46.20 51.19 54.32 54.82 54.72 55.13 55.85 56.11 56.20
53.70 54.36 54.66 54.25 55.59 55.06 52.82 50.54 44.85 46.51 49.82 47.00 45.92 45.48 45.11 51.66 54.12 52.68 53.12 52.27 52.17 50.89 46.50 48.26 45.28 42.77 44.38 43.94 43.66 43.06 42.33 41.48 44.39 46.62 45.13 44.26 44.48 46.52 53.78 54.39 54.23 54.56 54.89 55.83 56.23
53.27 54.03 54.26 54.23 54.97 54.18 52.05 47.48 45.75 48.89 43.11 49.09 49.03 48.07 50.08 52.56 48.81 50.89 52.51 48.64 47.89 43.99 46.90 45.48 43.06 46.14 45.54 45.08 44.93 44.13 42.65 42.48 44.56 45.95 45.04 44.49 44.22 46.01 51.29 53.59 55.30 55.18 55.55 56.27 57.29
53.00 53.06 53.87 53.34 54.81 52.32 50.85 48.77 51.93 52.57 44.29 46.60 47.54 46.96 48.49 50.79 47.24 47.81 49.95 48.00 45.54 42.94 44.30 42.61 44.70 46.46 45.73 44.91 43.42 43.47 42.01 41.39 41.81 43.71 43.87 42.47 41.65 43.94 46.84 51.76 54.14 56.21 56.90 56.92 56.97
52.65 52.34 52.74 53.43 51.47 51.21 48.37 52.48 52.67 52.91 38.13 38.99 43.71 47.69 50.09 50.22 45.82 52.08 50.78 49.05 45.62 43.65 43.47 43.47 45.33 44.37 43.99 43.48 44.48 40.34 44.74 43.95 42.86 41.50 38.07 41.67 35.47 40.61 44.28 46.28 49.78 52.99 55.60 56.49 56.94
52.15 52.07 52.36 53.51 50.06 47.85 50.79 53.15 52.85 49.81 25.81 41.04 45.69 52.84 50.60 46.37 47.01 48.26 50.30 49.02 44.46 43.31 44.84 42.77 43.60 43.38 42.44 43.73 45.27 43.19 45.05 43.99 43.44 41.91 40.16 39.15 38.30 42.02 42.91 43.00 46.81 50.23 53.51 56.23 57.45
51.78 51.96 52.04 51.85 52.29 52.07 53.55 54.04 52.82 37.40 26.85 38.88 46.37 44.81 44.84 46.19 45.33 46.30 47.95 49.72 48.58 45.42 45.19 43.50 47.18 45.90 45.82 45.63 45.77 45.97 44.58 42.06 41.35 40.46 36.46 38.70 38.98 40.79 42.26 44.04 46.53 49.39 51.74 54.23 57.02
51.26 51.73 51.47 53.17 49.10 53.31 53.56 50.00 39.43 32.03 40.89 38.06 42.21 43.89 42.76 41.31 42.12 43.65 43.50 43.08 42.03 38.88 39.36 42.43 43.79 46.50 47.36 44.57 45.72 44.52 41.03 35.37 33.57 34.37 34.20 39.52 37.31 41.61 45.05 46.56 47.14 48.19 50.65 52.52 55.37
50.47 50.68 50.69 51.39 53.64 52.82 52.37 43.19 31.96 37.02 37.44 44.03 43.02 42.81 39.51 41.01 41.31 41.95 40.86 40.67 42.02 41.99 38.20 37.69 35.93 43.49 46.35 45.22 43.35 42.59 41.53 36.79 29.12 30.52 34.19 37.94 36.41 42.45 46.61 48.37 49.16 49.68 49.40 51.08 52.03
50.43 48.67 47.74 49.50 52.61 52.19 45.63 35.19 34.31 37.97 41.45 40.81 41.06 39.46 38.77 39.99 40.91 41.37 40.13 41.09 42.43 42.94 39.51 36.66 37.06 44.65 46.20 46.79 46.31 42.06 39.57 42.21 35.57 34.11 33.32 36.57 40.26 43.99 45.63 46.43 48.70 49.59 49.31 49.54 50.27
45.02 44.61 45.43 49.54 52.67 48.89 41.44 36.17 39.74 42.92 44.76 44.50 37.96 39.90 37.05 37.89 38.26 39.92 38.13 41.67 41.49 43.71 46.14 42.19 36.76 43.08 45.50 47.56 45.91 44.34 44.83 38.41 37.49 30.49 28.78 33.49 34.65 38.47 43.58 44.52 46.62 47.86 49.28 50.20 50.75
43.86 39.15 45.11 49.73 50.91 43.55 35.71 36.34 40.94 45.49 45.70 42.45 41.53 40.59 38.39 37.29 39.04 37.91 38.78 41.93 44.11 42.25 44.54 42.52 40.67 39.06 44.12 42.77 42.11 41.97 40.95 39.30 39.93 36.67 32.50 30.20 35.29 43.51 44.72 45.31 47.07 48.40 49.44 50.75 51.89
41.53 32.90 44.48 48.73 36.84 39.26 36.38 39.94 42.99 43.23 45.82 43.67 43.94 42.67 41.13 39.49 38.41 38.53 39.17 42.21 44.01 44.12 41.42 44.53 40.74 35.69 39.97 43.98 45.02 44.03 42.62 41.52 37.39 34.41 34.51 33.59 35.38 45.48 45.87 45.15 45.54 48.40 49.23 51.73 52.47
37.31 38.04 45.59 44.92 31.58 33.70 38.76 40.28 42.41 41.45 43.05 42.22 41.36 43.53 45.60 41.35 37.30 39.84 40.85 45.10 43.33 43.98 42.75 43.60 38.55 34.24 36.08 40.31 43.81 42.35 42.13 41.03 39.10 37.39 34.42 34.31 37.04 44.50 44.89 46.24 46.41 46.63 48.74 49.71 52.03
37.88 32.06 39.65 41.18 39.23 36.05 35.46 37.93 38.57 43.56 42.85 43.42 42.27 43.55 43.53 41.49 42.48 39.20 40.36 44.83 44.26 44.87 44.43 45.59 39.67 37.92 34.35 37.71 40.94 39.19 40.74 40.76 41.27 35.63 36.82 36.17 40.13 43.86 45.66 44.79 47.01 47.04 47.45 48.06 49.35
38.39 34.34 38.48 32.47 33.27 35.68 37.75 38.19 36.97 37.35 42.71 43.45 40.87 41.39 41.77 39.01 40.18 39.83 42.95 45.00 45.63 45.19 44.66 45.56 38.91 38.70 39.10 39.23 40.49 40.83 40.81 39.86 39.27 40.88 37.76 40.38 38.06 42.99 44.79 45.83 45.64 44.63 45.06 46.16 47.86
34.87 35.75 37.81 38.92 36.87 34.97 36.98 36.60 37.04 39.09 40.43 39.14 39.19 41.15 42.08 39.63 41.16 40.32 43.10 44.23 43.37 43.53 43.23 43.14 39.16 38.66 37.49 39.03 39.04 38.58 40.16 39.84 40.26 39.94 39.42 39.26 38.64 44.47 44.99 44.01 43.83 43.74 45.96 47.60 48.03
41.51 41.83 38.38 37.27 36.06 33.49 33.91 36.70 38.63 41.06 42.05 43.07 42.14 41.00 39.94 42.39 45.39 46.00 47.58 46.74 46.31 44.77 41.54 40.67 38.45 36.28 34.34 36.41 37.43 33.30 38.26 39.56 40.35 41.33 41.70 37.85 42.86 42.91 42.36 42.68 43.15 44.30 46.55 45.95 45.43

GFSSW_sfc_wetblb_066.txt.gz
Wetbulb
60.69 60.42 60.12 59.92 59.36 58.65 58.07 57.71 57.15 56.94 56.97 57.19 57.12 57.45 57.90 57.49 56.08 56.74 54.37 57.44 57.52 59.20 57.65 56.85 56.52 56.34 55.11 51.41 52.74 52.45 46.99 44.70 44.26 44.97 46.77 54.95 54.52 57.55 58.78 58.37 59.32 60.66 60.65 63.11 64.36
59.41 61.17 61.09 60.37 59.17 58.57 58.05 57.66 56.79 56.87 57.04 56.86 56.59 56.95 57.28 56.61 55.90 53.69 58.03 58.70 60.07 60.59 56.35 54.34 52.48 54.38 53.33 52.28 51.82 49.73 46.96 45.26 48.37 48.74 48.27 52.67 55.10 55.92 56.30 56.31 57.45 58.84 61.31 63.74 63.57
57.89 58.57 60.03 60.29 59.54 58.67 57.98 57.09 56.69 57.13 57.16 56.80 56.48 56.76 56.49 56.68 53.30 53.97 61.08 60.22 60.42 59.34 57.37 55.88 53.62 53.10 51.36 52.40 51.40 49.97 46.81 49.42 49.71 50.32 50.37 52.25 54.78 57.29 55.19 53.51 56.84 57.38 59.30 61.80 61.58
56.37 56.89 57.69 59.39 59.64 58.76 57.65 56.72 56.82 57.23 57.07 56.86 56.61 56.74 56.35 56.48 44.26 57.12 62.39 62.51 61.07 60.57 56.81 53.96 52.13 50.42 50.32 49.09 51.60 47.95 50.49 50.35 50.12 53.32 52.79 52.52 55.62 54.46 55.44 56.50 59.89 61.35 62.00 61.56 59.25
55.30 55.90 56.83 57.72 58.71 58.62 57.56 56.90 57.02 57.07 56.76 56.71 56.51 56.73 56.26 50.48 50.35 58.36 62.82 62.39 60.34 57.21 54.47 52.22 50.83 51.89 49.25 50.54 50.76 48.62 51.12 53.20 52.81 53.86 54.78 55.16 53.23 53.41 56.39 60.23 61.90 62.09 61.12 58.90 59.15
55.08 55.24 56.11 56.46 57.07 57.99 57.60 57.02 56.55 56.33 56.35 56.34 56.08 55.71 53.35 46.03 53.67 58.56 58.24 57.78 57.21 56.37 54.26 54.20 53.45 54.01 51.76 51.04 50.28 53.34 52.97 52.70 53.83 54.30 55.01 52.91 52.68 54.48 57.82 60.86 60.63 59.98 59.70 59.34 59.13
54.54 54.74 55.24 55.87 56.04 56.44 57.23 56.87 56.31 56.13 56.07 55.96 55.71 55.60 50.65 49.73 54.78 58.60 57.40 57.13 58.17 56.58 53.52 55.17 55.14 53.83 53.82 50.83 54.50 53.77 51.42 53.21 54.23 54.72 53.07 54.83 51.29 51.56 57.24 60.00 58.98 59.15 58.46 60.07 60.39
54.08 54.29 54.17 54.61 54.92 55.22 56.03 56.09 55.83 55.97 55.81 55.85 55.56 54.88 48.00 55.21 56.57 54.89 56.70 57.79 58.00 57.78 56.42 56.38 56.24 54.58 53.61 53.66 51.26 50.14 49.99 45.70 51.74 53.49 53.14 53.27 46.50 52.66 58.41 59.01 57.32 58.40 59.49 58.89 59.60
53.58 53.50 53.80 54.00 54.41 55.02 55.55 55.63 55.69 55.69 55.35 55.01 54.58 52.58 47.59 55.82 53.07 55.11 55.77 54.20 56.32 57.49 57.35 55.22 55.85 53.45 52.92 49.41 46.85 48.03 43.80 44.23 46.60 52.90 51.58 51.25 47.67 53.79 58.83 58.16 57.46 58.23 58.85 59.15 58.56
53.53 53.27 53.43 54.03 54.07 54.26 54.73 54.79 56.38 53.85 55.47 55.63 55.04 49.23 51.76 49.65 53.65 56.46 58.32 55.56 54.90 55.18 53.60 53.56 53.25 50.54 50.34 47.79 40.59 42.96 43.45 44.70 45.06 49.29 50.70 49.48 49.13 51.39 56.67 57.75 57.55 58.27 57.55 58.15 58.07
53.07 53.34 53.29 53.76 54.13 54.62 55.21 57.56 52.81 50.08 52.47 49.94 49.58 49.57 49.78 54.15 56.83 55.51 57.52 55.76 54.78 53.66 49.61 52.57 48.75 46.30 47.12 48.54 48.08 46.91 45.13 44.24 47.07 49.72 48.59 48.23 48.64 49.77 54.26 56.46 55.86 57.86 57.42 57.40 58.19
52.41 52.96 52.92 53.43 53.90 54.92 54.61 52.86 52.37 51.92 45.41 51.55 51.18 51.98 53.94 54.36 50.50 54.58 56.58 51.56 51.07 48.25 50.73 49.46 46.48 49.92 49.96 49.27 47.87 47.00 45.11 45.12 47.50 49.09 48.79 48.41 47.46 49.48 51.91 55.23 56.99 57.37 58.03 58.04 59.23
52.04 52.67 52.73 53.06 53.87 53.87 54.89 54.43 54.85 54.74 46.14 48.33 51.67 49.98 50.75 53.05 49.41 51.70 53.94 52.09 49.63 47.89 48.35 46.81 48.09 50.17 49.07 48.22 46.58 47.08 45.48 45.11 44.84 48.22 49.36 47.44 46.17 47.84 50.93 55.07 57.48 58.49 59.02 59.69 60.13
51.64 51.87 52.17 52.42 51.30 55.22 53.16 55.93 56.94 56.48 43.15 43.53 45.97 49.82 51.09 51.99 48.17 53.90 55.28 51.93 49.06 46.72 48.20 48.08 50.68 47.99 47.66 46.39 47.94 44.21 48.27 47.31 46.01 45.22 42.39 46.57 40.38 45.29 48.85 50.57 53.71 56.69 58.84 59.40 60.04
51.45 51.56 51.69 52.21 51.10 51.73 54.46 58.08 56.31 54.27 30.90 44.49 46.10 54.40 52.15 47.90 48.79 49.88 55.72 51.67 47.76 47.49 48.35 46.26 47.17 46.71 46.05 47.02 48.94 45.67 48.44 47.23 47.16 46.02 45.04 44.68 42.44 45.72 48.23 47.79 50.44 54.01 57.10 59.56 60.46
51.42 51.12 51.44 51.05 52.32 54.73 56.80 57.94 53.86 40.81 30.52 40.92 48.03 46.93 46.42 47.75 48.08 50.67 50.47 52.67 52.49 48.64 49.25 48.39 50.72 49.79 48.62 49.13 49.74 50.01 47.91 47.10 47.32 45.93 39.60 43.05 42.58 44.66 46.42 47.59 50.00 52.44 54.42 57.45 60.27
51.05 50.85 50.91 52.36 48.75 56.64 57.21 52.90 40.39 33.75 42.54 39.98 44.04 46.05 45.72 44.30 45.76 47.62 46.68 46.32 44.92 41.86 42.63 46.38 46.99 49.82 50.21 47.57 49.19 48.80 46.30 40.00 38.01 38.33 37.86 44.02 41.79 44.16 48.12 50.32 51.28 52.44 54.55 56.21 58.18
50.52 50.16 50.70 52.00 53.18 54.52 53.21 43.82 33.03 38.02 39.77 45.21 45.51 44.99 42.63 44.86 45.31 46.45 45.49 44.09 47.79 46.34 43.66 41.40 39.58 46.91 50.08 48.38 46.32 47.16 46.40 40.94 32.23 34.12 38.07 42.49 38.81 44.75 50.03 51.81 53.02 54.07 55.54 55.30 56.95
50.25 49.56 47.92 50.76 53.53 52.21 46.49 35.46 36.10 40.39 43.25 41.68 43.63 42.03 40.60 43.61 44.49 45.15 45.06 44.17 46.83 47.93 42.46 41.86 41.50 47.81 49.26 49.95 49.68 46.16 43.37 47.25 40.98 40.48 39.45 41.72 44.07 48.38 49.38 49.85 51.59 51.40 53.59 55.07 55.22
47.68 45.07 44.82 50.82 52.97 47.93 40.43 36.77 40.45 45.36 45.44 45.55 39.21 44.34 39.24 40.23 41.62 43.65 43.48 46.23 46.01 48.59 49.89 45.94 40.74 46.50 48.69 50.32 49.35 48.22 49.48 41.73 43.67 33.60 32.34 39.20 39.96 42.32 45.49 47.09 49.18 50.24 51.98 54.58 56.65
45.65 38.78 47.12 51.29 51.75 41.26 33.25 36.94 42.17 47.43 47.68 44.24 42.55 42.04 42.06 41.01 41.86 42.54 43.03 44.94 47.94 47.50 49.48 47.86 45.26 43.69 47.57 45.97 45.54 45.84 44.88 45.41 45.10 42.60 36.19 34.76 39.79 48.09 47.17 48.64 49.69 51.12 52.56 54.11 56.03
42.94 33.58 49.53 51.21 36.12 37.29 34.59 40.91 43.43 44.78 48.64 46.36 45.53 44.20 43.87 42.07 41.59 42.01 42.66 45.12 48.79 49.11 45.12 48.58 45.74 41.13 43.18 48.30 49.53 48.98 46.96 46.93 40.60 38.86 41.36 40.44 40.00 49.80 50.44 51.15 50.96 51.92 53.66 54.68 56.38
37.33 38.18 49.93 48.66 30.35 31.45 38.76 39.89 42.92 43.53 44.36 45.15 43.97 45.14 46.95 44.80 39.82 43.63 44.21 48.75 48.26 48.37 46.77 48.20 43.94 38.83 40.27 43.97 47.26 45.43 47.01 47.29 46.28 44.40 40.42 38.22 40.57 49.43 50.40 50.92 52.24 51.99 52.86 54.18 55.59
38.52 32.05 39.37 41.10 42.74 36.49 35.52 37.02 38.34 44.60 44.41 46.20 44.93 46.11 43.95 43.18 46.12 41.98 43.39 45.75 48.26 48.75 47.29 48.75 45.73 42.28 38.12 41.11 44.57 42.65 44.68 46.29 45.35 41.01 40.70 41.27 43.15 47.03 49.34 50.05 51.55 52.50 52.97 53.25 54.16
38.51 35.74 39.94 31.47 34.83 37.96 37.77 38.47 36.63 38.11 43.85 46.30 44.54 44.15 43.39 40.79 42.44 42.06 43.81 45.56 45.86 45.56 48.42 49.01 42.77 44.50 44.45 44.79 44.72 44.01 43.44 44.34 43.36 43.96 40.77 43.57 43.89 46.71 49.38 50.83 52.11 51.80 50.82 50.91 51.99
35.21 37.67 41.48 38.13 38.78 37.47 37.13 36.77 37.24 39.62 42.10 41.27 41.98 43.95 44.60 41.66 42.98 40.79 44.13 45.30 45.45 47.25 47.37 48.79 43.02 44.77 42.14 44.59 44.05 42.24 44.24 44.79 45.21 45.35 45.42 45.69 44.82 50.05 51.40 51.08 50.34 50.12 49.84 51.46 52.49
43.20 44.77 42.51 38.65 37.67 35.68 36.66 35.95 37.87 41.69 43.73 45.39 44.80 43.46 41.65 43.81 46.82 46.99 48.05 47.60 47.36 46.06 46.42 46.30 44.65 42.37 38.73 42.63 42.27 37.32 42.31 44.55 45.74 47.03 46.53 43.19 47.12 50.40 49.82 49.77 50.18 49.93 50.65 50.98 51.67

GFSSW_sfc_wetblb_069.txt.gz
Wetbulb
59.23 59.58 60.45 60.89 60.19 59.62 59.00 58.48 57.77 57.67 57.75 57.87 57.64 57.26 57.24 57.16 56.18 59.04 56.88 58.44 58.71 59.97 57.38 58.27 56.98 57.07 56.60 53.93 53.50 53.97 47.60 44.66 46.05 45.91 47.77 52.92 52.26 58.51 59.93 58.08 59.61 61.74 61.79 65.34 65.09
57.67 58.01 58.47 59.61 59.95 59.56 59.05 58.51 57.73 57.63 57.88 57.80 57.56 57.19 56.95 56.51 57.28 56.21 58.77 60.03 60.37 60.06 57.90 55.57 54.14 55.75 53.79 53.28 52.97 50.86 47.66 46.66 49.68 50.21 49.08 50.83 53.17 55.85 55.96 56.35 56.78 59.92 63.04 64.63 64.86
55.40 55.79 56.37 57.35 58.84 59.47 59.03 58.26 57.54 57.77 58.05 57.77 57.39 57.24 56.18 56.55 55.97 55.81 61.71 59.92 60.29 60.70 58.52 57.26 56.12 54.03 52.18 53.67 52.80 51.49 47.37 50.02 50.50 51.46 52.48 50.93 52.78 57.33 55.50 52.90 57.73 57.90 61.27 62.48 62.85
54.49 54.58 54.95 56.48 57.84 58.31 58.23 57.68 57.76 58.14 58.03 57.73 57.78 57.27 56.50 58.30 47.38 59.42 62.58 62.31 61.30 59.47 58.24 55.46 54.04 51.48 50.86 50.59 53.01 48.67 51.67 51.79 52.03 52.59 53.85 52.23 55.99 55.09 55.62 57.73 60.60 62.16 62.55 62.28 61.00
54.80 54.92 54.49 54.93 56.57 57.07 57.11 57.50 57.77 57.89 57.61 57.52 57.53 57.01 56.72 53.32 53.30 61.10 62.78 63.06 60.09 59.02 56.60 54.01 52.12 51.57 50.14 51.21 51.64 50.32 52.26 53.52 54.10 54.29 54.70 55.23 54.26 54.28 55.58 60.11 62.35 62.30 61.84 61.11 60.03
54.13 54.55 54.77 54.82 55.53 56.23 56.33 56.56 57.14 57.36 57.37 57.33 57.21 55.80 54.76 48.59 56.15 57.39 59.64 61.49 59.97 58.19 55.87 54.83 53.72 55.04 52.77 51.64 50.86 53.92 53.75 53.72 54.42 53.97 54.98 53.68 54.13 55.41 58.51 60.78 60.83 60.50 60.48 60.81 59.75
53.95 53.86 54.24 54.59 54.55 55.13 55.64 55.90 56.38 56.80 57.14 56.97 56.62 56.62 52.69 52.07 57.71 58.45 58.73 58.80 59.37 57.63 54.92 56.85 56.81 54.63 54.75 51.66 53.87 53.74 50.75 52.43 52.86 54.28 52.53 54.28 51.07 51.47 59.14 60.19 59.83 59.41 60.04 60.70 60.28
53.87 53.86 53.45 53.79 53.79 54.28 54.87 55.17 55.94 56.82 56.96 56.32 56.15 56.71 51.30 57.87 58.72 56.32 57.89 59.15 59.87 59.06 57.69 58.20 58.31 56.15 54.23 54.98 52.36 49.75 50.88 45.88 49.41 53.50 53.30 52.97 45.68 49.44 59.41 59.29 58.52 59.32 59.35 59.39 57.76
53.38 53.28 53.14 52.92 53.46 53.93 54.00 54.81 55.74 56.88 56.18 55.70 56.23 55.50 50.38 56.54 53.84 55.73 56.08 55.80 58.75 58.47 59.10 58.29 57.42 54.21 54.28 49.29 47.35 48.79 43.95 46.06 48.28 52.64 51.87 51.19 48.10 52.08 58.37 58.54 57.58 58.59 58.28 58.69 58.74
53.29 52.98 53.08 52.94 53.25 53.55 53.47 54.55 56.76 55.70 55.84 58.15 57.06 51.18 53.70 51.33 54.73 55.15 56.14 56.32 56.09 56.62 55.74 54.88 53.62 51.03 51.15 48.63 41.96 43.18 44.86 45.30 45.54 50.40 51.28 49.45 49.48 51.82 56.08 57.58 57.82 58.20 58.81 58.50 58.56
53.10 53.07 52.73 53.16 53.11 53.65 54.82 57.87 54.30 53.71 55.41 50.27 51.53 49.85 50.98 53.97 57.32 55.12 55.70 54.86 55.86 54.68 49.87 52.79 49.20 47.16 49.17 50.53 49.21 47.82 46.59 45.91 48.38 50.81 48.79 47.97 49.70 50.55 55.32 56.50 55.77 57.03 57.48 57.84 58.16
52.98 52.48 52.46 52.99 53.00 53.95 56.10 52.94 53.45 54.40 47.52 52.98 52.88 52.83 55.29 55.57 51.68 53.72 57.67 52.00 51.67 48.86 51.63 50.50 47.09 51.13 51.16 49.31 47.93 47.35 46.10 46.32 49.01 49.89 49.10 48.79 47.85 50.13 54.10 55.90 56.92 57.25 57.37 56.94 58.71
52.84 52.63 52.33 52.51 53.13 53.48 54.48 54.65 58.76 57.55 48.89 48.60 50.96 50.66 51.47 53.55 50.93 52.05 54.68 52.84 50.36 48.69 49.17 47.53 49.72 51.89 49.96 48.65 47.30 47.86 46.70 46.94 46.13 49.41 50.16 48.63 45.92 48.33 52.09 55.59 56.85 57.66 58.46 58.46 57.72
52.38 51.94 51.65 51.80 49.29 53.71 53.46 58.25 59.35 58.67 43.65 43.89 48.83 51.19 51.68 52.23 48.82 54.42 55.56 52.60 50.91 47.97 49.29 48.62 51.31 49.64 48.96 47.75 49.00 45.47 49.97 48.13 47.38 46.57 39.92 49.52 40.21 47.31 49.84 51.55 55.11 56.19 57.82 58.76 59.14
51.95 51.86 51.40 50.84 49.89 51.80 56.26 60.15 60.04 55.98 30.36 46.26 48.35 55.26 52.37 49.27 48.48 50.22 55.94 52.29 48.36 48.75 49.13 46.63 48.12 48.59 47.25 47.95 49.82 46.90 49.85 48.44 48.48 47.12 46.51 45.39 42.54 45.61 48.81 47.82 51.30 55.25 57.53 58.41 59.84
50.79 51.62 51.21 49.85 51.28 51.46 56.95 58.75 57.51 41.79 30.99 42.91 48.94 46.88 47.57 48.57 48.47 50.70 51.52 53.76 52.94 49.26 49.44 48.78 52.34 50.93 49.74 50.51 50.75 51.09 48.64 48.85 48.98 47.45 41.01 44.96 43.59 43.78 46.34 47.79 50.21 53.48 56.02 58.29 59.48
50.40 51.01 51.02 51.50 46.84 54.57 55.30 53.05 40.15 33.55 43.23 41.55 44.96 47.27 46.64 45.65 46.51 48.17 47.38 47.16 45.41 42.80 43.48 46.88 48.11 50.68 51.52 48.28 50.78 49.67 47.17 40.96 38.85 39.30 38.68 45.98 43.01 45.30 48.83 50.63 51.10 52.11 54.66 56.59 59.00
50.11 50.43 50.20 50.13 53.56 53.25 50.38 43.21 32.54 39.35 40.67 46.72 46.20 47.47 43.31 45.92 44.88 46.91 46.14 45.03 48.20 47.23 44.71 41.90 40.53 47.93 50.86 49.26 47.37 47.60 47.40 41.52 34.09 36.12 39.66 44.91 39.73 44.93 50.19 51.39 52.25 53.32 55.17 57.05 57.94
49.75 49.66 48.47 51.42 53.46 52.11 42.85 33.42 35.32 40.09 43.82 42.70 45.06 43.97 42.42 45.13 44.46 45.31 45.59 45.21 47.01 48.42 43.57 42.58 42.67 49.75 50.34 51.04 50.53 47.79 44.87 49.61 43.71 43.51 40.05 43.05 45.90 48.89 49.71 49.55 51.59 51.53 52.94 55.20 57.07
46.72 46.62 45.82 52.59 53.49 49.61 37.97 34.28 40.00 43.86 44.09 45.50 40.13 45.13 41.44 42.43 42.14 43.18 44.49 47.17 46.78 49.31 50.59 46.85 42.16 47.52 49.06 50.98 50.89 49.21 51.18 43.23 44.20 35.46 34.09 40.72 42.48 43.63 46.69 48.20 49.77 50.66 51.68 54.18 57.42
45.04 40.46 47.67 52.67 51.59 42.72 32.02 37.05 41.64 45.58 46.25 44.52 43.35 42.23 44.28 43.82 43.46 41.89 43.69 47.00 48.39 48.56 50.09 48.88 46.23 45.24 48.59 46.53 45.68 46.52 46.01 46.95 46.69 43.80 37.65 36.31 41.04 49.56 48.08 49.01 49.41 51.23 52.27 53.43 55.24
42.54 35.12 48.35 52.55 36.02 37.68 34.11 39.38 42.70 43.74 47.05 46.61 47.45 46.72 44.38 45.36 43.53 42.21 41.19 46.46 49.48 49.71 46.46 49.24 46.71 42.21 44.46 49.33 50.18 49.92 47.22 47.34 41.94 40.27 43.17 41.73 41.81 51.15 51.07 51.60 51.79 52.04 53.07 54.37 55.79
38.44 38.99 49.78 49.66 31.57 34.04 38.84 39.09 41.89 42.49 43.75 45.45 45.09 47.15 48.46 46.28 41.89 44.13 44.22 48.51 49.63 49.29 48.05 49.13 44.56 39.85 41.88 45.71 48.71 46.58 48.41 48.87 48.19 46.92 41.93 39.93 41.52 50.96 51.06 51.04 52.17 52.26 53.27 54.14 55.62
38.71 33.20 40.14 42.68 42.58 38.31 36.68 37.08 37.60 43.23 43.43 45.20 45.79 47.55 46.31 45.19 47.70 43.23 44.41 47.24 50.56 49.87 48.35 50.21 46.14 43.22 39.11 42.51 46.20 43.59 45.46 47.43 46.86 43.22 42.41 42.53 44.16 47.55 48.99 50.12 51.81 52.96 53.91 53.87 54.90
38.58 36.84 41.05 31.72 35.25 39.35 39.51 38.70 37.15 37.20 42.95 44.57 43.78 45.58 44.98 42.47 43.64 43.76 44.65 46.29 47.57 48.38 49.76 49.28 43.27 44.84 45.03 46.24 46.17 45.21 44.99 45.39 44.57 45.35 42.36 44.28 44.67 46.89 49.30 50.07 51.55 53.65 53.87 53.42 53.56
34.89 38.68 40.46 40.30 39.65 38.39 38.37 37.25 37.23 38.97 40.65 40.16 41.60 44.48 45.94 43.57 44.73 42.70 44.37 44.73 44.78 48.36 47.97 49.68 43.60 45.07 42.81 45.59 45.57 43.62 44.93 45.52 45.27 45.19 45.00 45.17 44.84 50.39 51.80 51.80 51.40 52.23 52.74 52.51 53.78
42.49 46.15 43.24 38.30 38.07 36.67 38.17 38.23 37.99 40.67 42.45 43.95 43.82 43.69 44.21 46.35 49.27 48.32 47.72 46.79 47.17 47.82 47.06 47.11 45.79 43.19 39.36 44.50 44.49 40.55 43.68 44.99 45.73 47.08 46.67 43.44 47.62 50.78 50.04 50.37 51.20 51.90 52.71 53.12 54.30

GFSSW_sfc_wetblb_072.txt.gz
Wetbulb
57.34 57.44 58.13 58.58 59.12 59.74 59.96 59.47 58.69 58.31 58.46 58.53 58.47 58.08 58.10 57.52 55.89 56.66 54.98 59.54 60.31 60.45 57.14 58.97 56.25 56.24 55.68 53.85 54.17 52.43 45.30 43.56 45.71 46.44 47.38 51.73 50.53 53.75 54.05 52.47 57.37 60.56 61.54 62.52 63.39
55.29 55.37 55.84 56.88 57.65 58.47 59.03 59.10 58.70 58.38 58.39 58.51 58.21 58.08 57.70 56.89 54.86 55.02 61.06 61.63 60.84 60.61 56.50 55.96 53.53 54.72 52.81 52.49 52.20 49.54 45.58 45.95 50.36 49.67 48.40 50.20 49.79 53.36 52.18 52.11 51.07 52.32 62.68 63.42 63.26
54.76 54.68 54.70 54.68 56.33 57.56 57.75 57.68 57.95 58.68 58.66 58.40 58.27 58.13 57.22 56.73 54.39 56.04 60.98 60.98 60.49 59.45 57.00 57.22 55.52 53.88 50.66 52.48 51.87 50.72 46.50 49.54 49.58 51.06 51.49 50.77 50.87 55.58 53.96 51.17 50.80 51.86 59.74 62.08 61.67
54.32 54.29 54.48 54.33 54.46 56.39 56.66 56.47 57.16 58.50 58.70 58.56 58.60 58.33 57.01 56.37 47.49 58.91 63.24 61.47 60.98 57.61 56.08 55.46 54.02 51.18 49.11 48.88 52.24 48.38 50.03 50.79 51.89 52.46 51.68 50.11 53.09 53.21 53.56 56.05 59.39 60.64 62.30 61.45 60.15
54.29 54.22 54.20 54.29 54.31 54.85 55.50 55.76 56.39 57.12 58.23 58.35 58.20 58.12 56.90 53.64 53.40 60.11 63.62 62.44 59.00 55.57 54.33 54.41 51.83 50.98 47.86 50.03 51.44 49.48 50.39 52.33 52.52 52.39 52.32 52.49 51.71 51.96 53.24 59.33 61.04 61.17 61.07 59.82 59.78
54.00 53.36 53.79 54.51 54.61 54.60 54.49 55.12 55.70 56.03 57.11 58.05 58.04 56.65 55.93 48.45 58.73 58.48 58.69 61.73 58.84 56.90 55.67 55.18 52.48 53.16 51.64 50.94 50.27 51.63 52.75 52.36 53.17 53.30 53.87 51.52 51.57 53.93 54.80 58.66 59.81 60.18 59.58 59.63 58.70
53.57 53.45 53.71 53.85 54.18 54.17 54.02 54.61 54.99 55.54 56.83 57.67 58.01 57.39 53.63 51.42 59.07 59.22 57.94 58.12 59.87 57.85 54.82 55.64 55.16 53.75 53.45 51.22 53.81 52.27 48.59 51.03 51.70 51.92 50.78 54.04 49.36 48.89 52.18 57.48 58.34 58.51 59.26 58.78 57.59
53.91 53.31 52.96 53.20 53.23 53.48 53.44 53.83 54.10 54.97 56.71 57.53 57.26 55.89 49.32 57.46 59.40 58.10 58.22 56.24 59.05 58.78 56.54 57.44 57.27 54.45 53.09 54.14 51.91 49.15 48.80 44.43 50.33 51.37 51.98 52.35 45.73 49.82 52.26 51.97 54.27 57.34 56.27 56.32 56.70
54.13 53.46 52.73 52.53 52.93 52.94 52.90 53.34 53.93 55.08 56.84 57.53 55.24 54.64 48.99 57.85 55.31 56.93 56.74 54.36 57.65 57.78 57.39 57.50 56.52 53.13 52.84 48.70 46.50 47.21 42.73 45.05 47.61 52.31 51.98 50.84 47.24 51.55 52.29 51.70 54.00 56.68 55.56 55.05 56.30
53.71 53.45 52.90 52.57 52.41 52.57 52.54 52.95 54.40 56.53 57.00 58.31 56.34 49.58 52.56 49.28 54.76 55.94 56.35 54.78 55.00 55.65 54.05 53.84 52.33 48.58 49.15 47.09 40.55 43.06 44.33 45.89 45.33 49.77 50.92 48.97 48.35 51.63 54.58 54.26 55.72 56.26 56.39 55.84 56.10
53.21 53.71 52.99 52.50 52.39 52.74 51.92 53.67 52.11 53.08 54.97 51.03 50.49 49.53 50.57 55.30 56.00 54.08 55.40 52.96 53.69 53.27 48.43 51.48 46.83 43.92 47.20 49.63 49.38 47.82 45.90 44.83 47.12 50.64 49.11 47.75 48.21 50.14 53.13 54.30 54.83 55.78 56.09 56.17 56.66
52.66 52.88 53.19 52.64 52.70 52.97 52.09 49.52 51.37 54.42 46.69 52.18 53.51 53.23 54.35 55.39 51.47 53.28 55.80 49.13 49.73 46.80 50.28 48.40 44.64 48.81 50.76 50.91 48.01 46.85 45.02 44.86 48.48 50.71 48.52 47.52 47.46 50.41 52.08 53.56 54.79 55.67 55.81 56.46 56.66
52.03 52.68 52.82 52.24 52.30 50.76 48.88 50.45 57.22 57.28 46.87 47.02 49.54 48.68 49.95 52.36 50.44 51.32 53.37 50.15 47.98 46.87 48.25 46.13 48.17 51.41 49.81 48.81 46.56 46.54 45.52 45.91 46.07 48.91 50.21 48.07 45.76 47.25 51.41 53.86 55.12 57.01 57.30 57.65 57.17
51.55 52.01 51.97 51.59 48.15 51.52 49.61 55.76 56.92 58.56 41.74 41.41 46.29 49.20 50.26 50.61 46.94 53.78 55.30 51.59 48.75 45.92 47.68 47.68 50.51 49.77 48.85 47.26 48.28 44.33 49.40 48.64 46.74 45.24 41.07 48.14 38.94 46.22 48.75 50.27 53.28 55.35 56.62 55.24 56.60
51.43 51.79 51.73 50.75 49.50 48.61 53.91 54.22 57.98 55.60 27.79 44.33 47.00 55.36 52.31 47.32 48.47 48.84 54.67 52.26 47.11 47.04 48.04 45.94 47.51 47.31 47.00 47.35 49.42 46.44 50.00 48.57 47.64 45.34 44.87 44.45 41.59 44.91 48.87 47.47 51.02 53.87 56.27 56.94 57.79
51.56 51.33 51.33 49.68 49.82 50.65 54.45 54.06 54.52 39.38 28.46 41.93 49.13 47.54 47.37 47.49 47.32 50.07 49.80 53.08 51.81 47.79 49.05 47.86 51.41 49.53 48.50 50.38 50.01 50.41 48.40 48.08 47.40 45.73 39.23 44.28 43.11 42.87 45.21 47.67 50.11 53.70 55.68 57.41 58.33
51.12 50.89 50.39 49.83 46.20 53.72 54.13 48.62 37.30 31.12 42.30 39.97 44.21 47.22 45.93 45.60 45.61 47.04 45.89 46.31 44.26 40.59 42.77 46.12 46.71 49.61 50.69 47.24 49.95 48.69 45.66 38.92 37.73 37.98 37.81 45.09 43.43 44.69 48.63 51.02 50.79 51.98 54.89 57.04 58.37
50.47 50.33 49.75 48.83 51.85 53.39 49.09 41.03 29.68 37.04 38.93 46.26 45.26 47.01 43.51 46.37 45.79 45.58 44.97 42.76 47.61 45.66 43.36 41.00 39.35 46.41 49.93 48.05 46.25 46.65 45.79 40.51 31.97 35.25 38.96 44.24 39.73 42.88 50.42 51.52 52.22 52.99 54.56 56.88 57.39
50.33 49.43 48.23 50.10 51.76 51.75 42.58 31.16 32.64 37.65 42.06 41.49 44.84 42.97 43.71 45.84 45.64 44.98 44.68 43.65 46.35 46.83 41.83 41.73 41.43 48.31 49.79 50.02 49.19 46.69 43.26 48.49 43.20 43.75 39.95 42.15 45.42 48.65 50.02 49.48 50.40 51.24 53.36 55.29 56.83
47.35 45.22 45.30 52.13 52.34 47.46 37.30 31.15 36.88 42.57 42.81 42.95 38.88 43.76 41.91 43.93 42.87 43.16 43.19 46.50 45.66 47.86 49.34 46.41 41.51 47.36 48.72 50.18 49.72 47.76 50.17 42.48 44.04 35.23 33.20 39.28 41.11 41.28 46.34 47.84 49.76 50.18 52.11 54.44 57.42
45.33 39.43 46.12 51.53 51.37 41.28 31.55 33.09 37.77 43.01 44.90 41.50 39.85 40.90 41.61 43.48 44.21 42.30 42.40 46.00 47.86 47.76 48.74 48.04 46.14 45.03 47.61 45.45 44.48 45.35 44.39 46.73 45.80 42.91 36.02 34.98 39.57 48.88 48.30 49.02 49.59 51.14 52.56 54.39 56.08
42.87 33.73 46.28 50.93 36.56 37.14 32.65 36.96 40.57 40.67 43.71 43.07 43.98 43.28 42.97 43.53 44.42 42.74 42.11 44.74 50.02 48.37 44.85 48.56 46.30 41.56 43.67 48.42 49.32 48.00 46.08 46.70 41.15 39.54 43.17 40.34 40.99 51.88 51.56 52.41 52.48 52.64 53.20 54.56 55.58
38.41 38.46 46.86 47.71 31.03 31.63 36.95 37.09 39.81 39.55 40.80 41.88 41.58 44.13 46.55 44.85 41.60 45.33 45.18 48.81 49.13 47.31 45.58 48.25 44.10 39.03 41.16 45.24 48.27 45.11 46.57 47.52 47.32 46.05 41.33 37.79 40.46 51.66 51.31 51.07 52.22 53.25 53.04 53.58 55.25
37.46 31.91 39.51 42.36 41.67 36.80 34.57 35.23 35.79 41.25 40.64 42.92 42.82 44.09 42.67 43.43 46.10 44.03 45.00 47.23 49.77 48.53 46.77 48.18 46.23 42.90 38.58 42.12 45.55 43.10 45.03 46.69 46.67 40.93 42.06 42.43 44.05 48.07 49.17 49.81 51.25 52.53 52.87 53.33 55.01
37.47 35.70 40.22 32.29 34.58 37.18 38.05 36.81 35.55 35.70 40.56 42.18 40.93 41.67 40.14 38.55 42.09 42.55 45.62 46.19 47.12 47.71 48.27 47.60 43.01 45.12 45.03 45.41 45.61 44.74 44.52 45.07 43.86 44.94 41.94 44.87 44.31 47.02 49.16 50.24 51.72 52.99 54.09 53.17 53.43
33.21 36.89 40.85 38.89 38.04 36.18 37.06 36.23 35.86 38.03 38.58 37.66 38.64 41.85 42.40 39.26 40.88 41.36 44.36 45.31 44.22 47.89 46.03 47.02 41.13 44.31 42.63 45.21 45.43 43.25 45.63 45.73 45.12 44.98 44.72 45.37 44.78 49.67 50.32 50.98 51.57 51.58 51.89 52.58 53.61
42.09 44.61 41.33 38.29 36.92 34.93 35.21 36.83 37.45 39.82 41.12 41.94 41.24 41.46 41.13 42.52 45.24 47.46 47.97 48.20 47.20 45.14 45.74 44.84 42.91 41.03 37.49 44.09 43.11 37.46 43.47 44.72 45.09 46.40 45.81 42.33 46.98 49.88 49.79 50.05 51.35 52.61 52.37 52.43 53.98

GFSSW_sfc_wetblb_075.txt.gz
Wetbulb
56.14 55.78 55.89 56.31 56.65 57.54 58.11 58.41 58.28 58.42 58.82 58.97 59.07 58.98 58.98 58.36 56.93 54.65 50.00 56.58 57.46 60.90 57.85 55.34 51.48 50.60 50.19 48.32 48.70 46.95 37.18 35.77 39.60 42.31 44.15 50.74 46.95 52.33 51.60 50.94 53.66 54.18 52.35 56.60 63.26
55.08 54.85 54.99 55.03 55.39 56.14 57.03 57.23 56.96 57.49 58.56 58.72 58.62 58.57 58.49 57.73 54.59 51.99 57.43 61.36 60.65 60.70 53.31 52.67 51.50 51.29 46.93 46.92 46.86 42.34 36.01 39.19 45.72 46.51 45.28 48.29 46.04 51.56 50.44 50.72 51.84 52.85 55.29 61.99 62.64
54.78 54.44 54.39 54.76 55.23 55.15 55.44 56.03 56.19 56.83 57.51 58.46 58.47 58.58 57.65 56.78 51.75 53.81 60.25 61.40 61.17 59.46 52.64 52.98 53.41 51.03 46.97 46.25 45.70 44.90 40.68 45.01 46.46 48.64 47.17 47.16 46.90 52.47 49.82 48.47 53.13 52.17 55.31 61.02 60.10
54.80 54.68 54.48 54.17 54.53 54.98 54.56 54.39 55.45 56.30 56.87 57.69 58.52 58.48 57.64 54.77 43.64 54.33 61.48 61.19 60.57 55.01 52.39 51.58 50.87 47.83 45.36 43.20 46.83 43.99 47.35 46.78 46.95 50.05 49.98 47.32 48.28 48.67 53.59 52.51 55.78 58.66 61.15 60.31 58.59
54.14 53.92 54.06 54.22 54.46 54.69 54.39 53.96 54.51 55.41 56.15 56.84 58.06 58.34 54.63 50.82 51.03 58.37 62.95 61.48 56.19 53.11 51.42 50.78 49.56 48.83 44.33 45.34 46.24 46.63 47.83 49.09 50.68 50.90 50.59 52.35 47.64 48.72 51.41 54.86 59.49 60.64 59.89 58.54 58.23
54.16 53.88 53.59 53.50 53.74 54.07 54.03 53.86 53.61 54.43 55.18 56.25 57.38 57.29 52.74 45.98 57.19 57.64 59.30 58.81 56.18 53.31 51.31 51.47 51.39 51.52 47.45 47.87 46.23 48.36 48.15 48.24 49.44 49.87 51.16 49.99 49.60 49.54 50.96 54.84 55.33 58.12 57.24 57.24 56.37
54.39 54.13 53.25 53.23 53.32 53.44 53.75 53.69 53.30 53.51 54.75 55.67 56.87 56.73 51.25 48.36 55.44 55.16 55.84 55.02 57.97 55.90 52.69 53.81 54.48 49.70 49.04 47.43 51.04 49.59 45.37 46.51 48.07 48.02 47.89 47.92 46.39 46.14 51.83 54.77 52.39 53.37 56.67 56.11 56.72
53.68 53.78 53.26 53.11 52.61 52.42 52.94 52.89 52.87 53.28 54.20 55.51 56.90 54.24 47.12 56.10 55.46 55.61 55.54 54.54 55.33 57.54 55.96 55.74 54.83 50.84 49.63 50.51 49.18 45.81 44.01 39.25 45.04 49.19 49.84 48.28 41.14 50.25 52.91 52.12 51.34 54.73 55.05 54.43 54.43
53.14 53.18 53.44 52.78 52.31 52.02 52.02 52.45 52.60 53.45 54.46 55.13 53.99 51.12 46.56 57.31 52.48 54.27 54.67 53.04 54.07 54.56 54.77 56.10 52.96 49.36 49.02 43.76 41.08 42.82 37.88 39.97 43.82 49.28 48.40 46.87 43.51 49.77 52.40 52.36 51.16 52.17 52.92 52.69 53.16
52.76 53.22 53.42 53.18 52.53 52.10 51.68 52.45 52.61 53.27 54.45 56.42 55.63 46.98 50.84 49.49 52.89 54.33 54.73 54.01 51.44 52.98 52.04 50.29 47.50 43.82 42.56 39.99 34.90 38.84 39.87 43.83 42.19 46.67 47.88 45.18 45.89 48.47 50.73 51.45 50.78 51.42 51.28 52.21 52.99
52.76 52.93 52.82 53.01 52.78 52.18 50.50 47.68 47.07 47.53 50.54 49.02 48.66 47.12 48.95 53.96 55.70 51.77 53.70 51.44 49.54 48.60 44.66 47.46 41.42 39.75 41.02 44.04 45.53 44.90 44.24 40.67 43.29 47.11 45.63 44.17 44.19 46.25 48.78 49.63 49.65 50.12 51.11 52.35 52.74
52.62 52.33 52.60 52.37 52.62 52.23 49.03 44.07 48.08 48.64 42.85 51.79 52.65 52.13 53.09 54.83 49.36 51.41 53.23 46.80 45.33 41.28 46.34 44.61 40.78 45.67 47.60 46.81 46.19 45.98 41.71 40.56 43.97 48.64 46.21 42.43 42.18 45.59 47.72 49.51 50.80 51.67 51.81 52.51 53.68
52.37 52.18 52.23 52.11 51.96 48.48 44.86 45.48 50.81 48.70 42.77 46.07 49.19 47.22 48.73 50.77 48.24 48.32 51.51 48.22 44.01 41.58 43.17 42.10 45.13 48.85 47.10 45.44 44.93 43.60 41.92 41.60 42.59 46.08 45.09 42.93 40.47 43.41 47.93 50.58 52.58 53.40 53.99 54.35 53.45
52.14 51.90 51.19 51.43 46.97 46.32 45.29 52.22 52.51 52.70 38.32 39.40 44.04 46.37 48.17 47.73 44.93 51.25 52.40 48.65 44.47 41.58 43.56 43.32 48.05 47.24 46.13 45.06 46.24 40.86 46.88 46.57 45.29 41.17 35.16 43.44 33.13 42.14 46.55 47.84 50.82 52.96 52.98 53.37 54.45
51.27 51.78 51.15 51.40 46.05 43.06 48.54 50.38 52.03 52.05 20.99 40.86 43.66 51.14 48.40 44.52 46.27 46.76 51.59 49.21 43.01 42.95 43.47 41.97 44.53 44.98 44.27 45.99 47.61 43.91 48.47 46.72 45.43 41.11 38.69 39.81 38.15 39.88 45.64 45.52 47.89 52.18 52.77 53.82 54.34
51.09 51.57 51.20 47.24 46.45 47.04 49.76 50.74 49.48 36.85 25.76 39.47 46.88 45.89 44.62 44.25 44.92 47.02 46.27 49.32 48.93 44.54 44.90 43.88 47.97 46.67 46.26 48.51 48.23 48.95 46.05 44.66 43.50 40.15 32.71 40.28 39.92 37.54 40.73 45.22 48.14 51.57 53.49 54.22 54.27
50.83 51.12 50.02 48.43 40.29 48.71 50.31 46.25 33.82 28.29 39.76 36.56 42.25 45.41 44.17 41.73 42.26 43.38 42.42 41.60 39.57 37.34 37.99 42.91 43.52 46.93 48.68 44.36 47.15 45.60 41.11 32.83 30.75 29.93 30.32 42.97 40.11 40.69 45.54 47.61 48.16 50.81 53.71 53.53 54.76
50.46 50.44 49.48 48.23 46.95 47.19 46.35 39.76 27.46 33.21 34.62 42.79 42.16 42.46 40.89 43.25 41.89 42.34 40.80 38.67 43.70 42.24 38.22 36.12 34.89 44.11 47.40 45.29 43.30 42.22 41.41 34.02 29.03 28.89 35.01 42.99 37.68 39.82 48.16 48.98 48.85 49.65 53.60 54.95 54.96
50.31 47.64 46.59 47.70 47.40 44.89 41.15 29.82 28.59 33.09 38.88 37.63 38.71 36.24 39.47 42.84 42.76 41.38 40.15 39.74 42.77 44.10 37.66 36.61 37.48 46.26 47.28 47.92 46.76 43.30 39.30 44.83 39.52 39.18 34.83 37.46 41.45 46.82 47.87 46.29 48.16 46.92 48.59 51.79 55.21
45.90 44.63 43.66 48.57 48.04 44.03 35.78 29.52 32.41 38.70 39.53 39.11 32.57 37.11 33.84 39.31 40.04 39.92 39.62 43.68 42.46 45.36 46.81 43.03 38.01 45.47 46.25 47.32 47.10 44.88 47.19 37.94 39.06 30.54 29.42 35.51 36.14 37.58 43.52 46.42 46.45 45.37 47.16 49.46 51.56
45.12 39.20 44.90 49.04 47.79 37.71 29.18 30.54 34.53 39.64 40.25 36.99 34.90 34.83 36.90 36.48 38.36 38.53 39.87 43.84 44.91 44.43 46.94 44.62 41.35 41.29 45.63 42.76 42.24 42.29 41.25 42.68 42.52 38.71 29.67 27.58 33.16 43.86 45.02 46.15 45.40 45.98 48.49 49.19 50.69
42.69 33.17 46.05 47.52 35.65 34.71 29.50 33.59 37.95 37.12 40.13 38.44 38.42 37.48 36.97 38.11 36.99 36.85 40.28 41.91 46.32 45.80 43.01 43.91 42.50 36.99 39.98 46.09 48.04 45.93 42.33 42.67 35.82 35.74 36.77 32.64 33.47 47.41 46.92 47.04 47.17 46.94 48.65 48.84 51.65
37.36 37.56 45.70 44.68 30.38 30.68 34.12 34.29 35.88 35.70 36.92 37.01 35.95 39.38 39.79 37.72 35.32 39.50 43.07 46.54 45.95 44.78 42.77 44.23 39.94 33.64 36.75 41.82 45.53 42.50 43.62 44.47 43.45 40.83 36.07 29.95 34.79 49.43 48.57 46.21 47.57 46.79 48.15 48.83 49.61
35.66 31.12 38.46 41.09 38.98 34.44 31.88 32.32 32.90 38.18 36.80 38.41 37.58 39.17 37.33 36.91 41.04 37.77 39.10 46.51 46.56 45.98 46.78 46.40 41.55 37.84 32.96 37.91 43.25 40.02 42.88 43.79 41.85 33.95 35.86 36.44 39.92 44.57 46.66 46.05 46.70 46.54 47.79 48.36 49.21
37.09 33.01 37.38 31.64 34.39 34.80 34.80 33.95 32.15 32.27 37.58 38.74 35.59 35.78 36.01 33.85 37.12 36.12 42.09 42.91 45.70 45.81 45.72 44.69 37.66 40.16 41.77 43.44 44.75 43.07 42.35 42.11 40.51 41.72 38.93 40.37 41.46 44.72 45.22 45.40 47.01 48.74 49.12 49.87 50.11
32.78 34.87 38.04 35.47 35.73 35.16 34.20 33.59 32.70 34.23 35.69 34.60 33.92 36.08 37.13 34.27 37.99 35.76 39.87 41.94 41.06 44.17 42.18 43.96 37.36 40.36 38.46 42.89 43.08 41.59 42.88 42.79 42.66 43.20 42.17 41.95 42.61 47.67 47.21 46.25 47.22 48.24 49.65 49.59 50.01
41.55 41.88 38.85 35.57 35.02 32.34 32.45 33.13 34.65 37.18 38.21 38.55 37.98 35.87 34.26 37.25 43.62 44.97 46.48 45.03 43.94 42.19 41.27 42.15 39.39 37.68 33.68 40.75 40.60 33.19 39.21 42.72 43.10 44.75 43.10 38.78 42.41 45.56 44.73 46.18 45.59 47.36 47.74 48.51 50.76

GFSSW_sfc_wetblb_078.txt.gz
Wetbulb
55.35 55.02 54.89 55.20 55.28 55.26 55.56 56.29 56.38 56.60 57.16 58.02 58.56 58.77 59.07 58.47 57.04 55.27 49.03 54.35 56.86 60.34 58.85 53.09 50.37 48.54 47.13 44.87 45.92 44.49 36.84 33.66 36.42 37.44 41.89 47.99 45.44 50.70 49.66 51.94 52.84 54.57 53.93 55.42 62.62
54.73 54.50 54.32 54.21 55.28 55.41 55.12 55.01 54.99 55.53 56.49 57.19 57.65 58.07 58.34 57.69 54.66 52.19 56.96 60.73 61.47 61.17 53.01 51.43 50.07 48.99 45.03 43.72 45.15 41.75 34.68 38.00 42.28 42.56 44.35 46.45 42.97 49.45 49.11 49.24 51.26 53.11 55.73 59.97 62.27
54.11 54.09 53.82 53.91 54.75 54.93 54.87 54.45 54.39 54.73 55.48 56.28 57.05 57.65 57.71 56.83 50.23 51.43 60.99 61.18 61.82 60.24 51.13 51.71 51.68 49.71 43.90 43.73 44.01 41.09 39.16 45.18 45.67 46.00 46.72 46.65 47.00 50.61 49.53 47.72 51.99 51.20 54.20 60.83 59.92
54.47 54.56 54.89 54.72 54.45 54.43 54.45 54.08 54.33 53.96 54.31 55.32 56.37 57.13 56.87 54.67 37.85 52.74 60.61 60.78 60.79 53.38 50.73 49.88 48.77 45.65 42.90 42.43 43.58 40.28 45.05 45.76 45.07 48.96 48.09 46.42 48.00 52.18 51.74 51.98 56.82 57.30 60.72 59.30 58.00
54.60 54.75 54.58 54.61 54.25 53.93 53.80 53.86 54.07 54.30 53.97 54.04 55.57 56.09 54.33 49.32 49.85 55.73 62.37 60.73 55.12 52.02 49.01 48.57 47.14 46.26 43.05 43.84 44.07 43.17 45.43 47.59 48.55 49.57 47.70 50.10 47.92 51.32 50.44 56.27 56.80 59.73 59.39 58.40 58.07
53.94 54.13 54.43 54.34 54.10 53.67 53.37 53.07 53.33 53.80 53.80 53.79 54.86 55.83 51.19 43.49 53.84 56.00 58.57 56.79 54.23 50.77 49.45 49.64 48.32 49.44 47.03 45.04 43.56 47.02 46.63 47.08 47.55 48.20 47.81 47.61 48.73 50.41 53.14 56.04 54.12 55.59 56.28 56.31 57.12
53.26 53.65 53.43 53.74 53.89 53.46 53.09 52.67 52.44 52.79 53.49 53.53 54.23 54.52 49.52 46.19 53.17 52.10 53.00 53.02 55.34 53.72 50.54 51.29 51.00 48.64 47.19 45.09 48.58 47.86 43.60 44.66 44.68 45.60 45.64 46.45 44.30 44.96 52.60 53.98 53.44 55.05 56.83 54.97 55.51
52.79 52.95 52.97 53.20 53.45 52.83 52.76 52.29 52.16 52.61 52.98 53.93 54.24 53.23 45.41 54.86 53.71 53.64 53.71 53.15 54.28 54.64 54.64 54.57 53.25 49.73 46.66 48.17 47.01 44.10 41.94 37.28 44.35 45.26 47.64 46.71 39.76 48.41 52.03 52.73 51.39 55.06 55.25 53.98 54.43
53.07 52.97 53.06 52.93 52.73 52.54 52.25 51.97 52.20 52.62 53.51 54.21 51.44 50.62 44.65 56.11 52.08 53.84 53.05 51.00 52.98 53.49 53.58 56.56 52.19 47.12 47.22 41.58 38.55 39.42 35.70 38.24 41.91 45.95 46.24 45.13 41.29 47.42 51.53 52.84 52.93 53.18 52.32 51.57 52.43
53.14 52.97 52.76 52.79 52.13 51.98 51.76 51.62 51.67 52.18 51.83 54.30 54.82 45.98 48.59 46.45 51.45 52.59 52.15 52.69 50.36 50.60 49.25 49.15 45.69 42.37 40.61 38.09 32.70 35.48 36.89 40.69 39.87 43.96 45.52 42.27 42.54 46.90 49.74 50.35 50.80 50.14 50.62 50.95 51.49
52.91 52.80 52.56 52.39 52.34 51.65 50.39 45.95 45.97 45.35 47.57 47.00 48.23 45.91 47.27 51.39 55.14 51.60 52.25 50.97 49.03 47.18 42.54 45.72 40.02 38.30 39.45 41.29 42.91 41.88 40.83 39.49 42.89 45.47 45.09 43.45 42.20 44.27 47.96 48.58 47.65 48.74 50.13 50.47 51.78
52.12 52.76 52.45 52.23 51.86 51.74 48.16 42.69 44.55 46.50 40.31 46.37 47.83 50.16 52.59 53.25 48.37 51.28 52.24 45.98 44.61 40.24 44.52 42.84 39.61 43.69 44.96 44.14 43.05 42.22 40.40 40.41 43.62 46.01 44.58 41.93 40.22 42.91 47.78 48.78 49.09 49.52 50.29 50.24 51.69
51.58 52.19 52.06 51.53 51.17 46.92 43.74 44.29 49.55 49.80 40.41 43.54 47.54 47.35 49.17 50.60 47.60 48.07 49.87 46.22 43.12 39.95 40.98 40.02 43.53 47.04 45.05 43.79 42.62 42.18 40.15 40.56 40.48 43.59 42.77 40.47 38.99 41.51 46.31 48.47 50.56 51.51 51.63 52.11 51.96
50.87 51.34 51.49 50.42 45.23 45.46 43.33 48.81 49.12 50.22 35.11 37.07 43.08 44.60 47.29 47.38 43.45 50.22 49.82 47.39 43.14 40.23 40.81 40.16 45.32 44.98 43.88 42.84 43.73 38.53 44.83 44.74 43.38 40.00 34.34 40.47 31.64 39.45 43.64 46.63 49.40 50.57 50.79 51.92 52.86
50.69 51.16 51.36 50.70 43.34 41.98 46.32 48.11 50.33 48.89 17.94 37.58 42.14 49.48 47.40 42.24 43.76 45.39 50.18 47.28 41.50 41.49 41.17 39.31 42.18 42.42 41.98 43.48 45.65 41.88 46.45 44.89 44.00 39.88 36.33 37.32 34.67 38.34 42.82 43.86 47.75 49.91 51.46 52.00 53.49
50.64 50.98 51.17 47.13 43.98 44.66 46.69 47.51 49.73 34.92 21.52 36.14 43.68 42.00 41.28 42.70 43.61 45.56 45.06 47.69 47.80 42.54 42.09 41.53 45.26 44.63 44.83 46.58 46.72 47.60 44.37 42.75 41.42 38.52 31.48 37.44 36.91 36.06 38.58 43.28 47.97 50.66 51.99 52.42 53.00
50.63 50.70 49.52 48.02 39.05 44.15 45.90 45.36 35.12 26.96 38.85 35.43 40.81 41.27 41.73 39.38 40.81 42.03 40.59 39.63 38.23 35.80 35.85 39.74 40.94 44.09 45.75 42.56 44.82 43.98 39.07 30.81 29.34 29.03 29.26 40.76 37.48 39.82 44.27 45.40 48.64 50.62 51.38 52.65 53.51
50.00 49.86 48.25 47.52 45.04 44.08 44.68 38.50 26.62 32.47 33.98 40.24 38.73 38.69 35.21 39.39 39.94 40.98 39.08 36.07 40.68 39.91 37.00 34.63 32.33 41.50 45.36 42.88 41.61 40.75 39.72 31.65 27.54 27.51 31.88 40.99 35.33 39.05 45.77 47.70 48.61 50.79 53.32 53.34 53.34
50.06 44.50 43.23 45.48 46.55 43.41 39.07 28.27 27.72 32.17 36.47 36.43 37.34 34.30 35.00 38.87 38.27 38.85 37.72 37.36 39.61 41.41 35.80 34.74 35.45 43.89 45.25 45.86 45.52 41.11 37.07 43.04 36.64 36.20 31.51 35.98 39.67 44.26 44.42 44.89 45.67 47.38 52.32 52.20 52.92
45.24 43.81 42.14 45.93 47.22 41.22 34.35 28.64 30.87 36.93 37.61 36.84 30.25 35.11 31.73 33.79 35.09 35.82 35.33 41.38 40.30 42.78 44.44 40.01 34.02 42.83 44.22 45.80 45.17 43.92 45.51 36.26 36.85 29.73 28.39 33.83 34.93 36.53 41.76 43.09 44.09 45.07 48.76 51.89 52.95
44.26 38.59 44.48 47.69 47.00 38.56 26.47 29.47 32.84 37.17 37.67 34.98 33.23 32.02 32.94 33.04 36.28 35.19 35.58 39.18 41.73 42.76 43.83 42.82 37.84 37.82 43.23 40.56 39.50 40.59 39.74 40.16 40.07 36.92 29.59 27.30 32.40 41.63 43.70 44.92 43.86 44.29 46.94 49.55 52.39
42.39 33.42 45.62 47.05 34.85 35.07 28.77 31.00 36.63 35.09 38.17 36.34 36.06 34.40 32.64 34.66 33.40 34.26 34.28 39.13 45.03 43.80 39.37 42.98 39.43 34.53 37.68 43.71 44.32 44.64 42.33 41.25 33.31 33.45 34.91 31.88 35.30 44.60 44.87 44.89 44.48 44.76 47.58 47.21 49.46
37.80 36.76 45.66 44.06 29.24 30.73 34.63 33.12 33.82 33.72 34.59 35.21 34.81 36.59 37.49 34.62 31.05 37.21 38.47 43.73 43.53 43.93 41.27 41.24 37.98 31.07 35.45 39.87 42.87 40.60 41.91 43.04 41.87 39.25 35.05 30.21 33.89 46.24 45.12 45.26 46.00 44.55 45.85 47.56 49.17
34.13 30.84 37.85 40.28 37.04 33.64 31.97 32.07 31.22 36.25 33.44 35.12 34.82 36.53 34.41 32.90 36.75 34.48 37.89 41.95 44.63 44.53 45.83 44.85 38.97 36.90 31.99 35.57 40.07 38.49 41.84 43.39 41.92 34.17 35.06 34.95 37.95 43.23 46.04 45.46 46.87 45.46 45.55 46.95 47.72
33.78 32.45 37.39 30.57 33.04 33.77 33.70 33.71 31.27 30.84 36.82 36.98 33.41 32.97 32.02 29.93 32.52 32.64 38.56 40.61 42.43 44.53 44.60 43.49 35.53 38.03 39.64 41.45 42.07 40.81 40.50 42.11 40.62 39.71 36.20 38.67 38.94 42.52 45.10 45.92 46.68 46.63 46.54 47.18 47.54
31.77 34.38 37.57 32.72 35.71 33.77 33.52 32.30 31.51 33.00 33.09 32.14 31.99 34.29 34.33 30.78 32.72 31.48 37.91 39.22 38.88 42.14 41.95 42.77 34.68 37.62 35.85 40.71 41.52 39.15 41.64 42.68 41.90 40.71 39.78 41.53 39.94 46.48 47.51 45.99 44.97 46.71 47.27 47.11 47.67
41.38 39.34 38.38 34.72 33.69 32.51 32.01 31.91 33.65 34.89 36.23 36.80 35.89 34.73 32.96 34.94 38.40 39.23 42.25 43.82 42.80 40.08 38.99 39.20 37.48 34.14 30.82 38.97 39.21 32.76 38.39 42.28 41.87 42.28 41.41 37.04 41.05 45.02 45.37 44.80 44.24 45.23 46.87 47.46 47.90

GFSSW_sfc_wetblb_081.txt.gz
Wetbulb
55.35 54.64 54.39 54.26 54.29 54.53 54.32 54.35 54.56 54.10 54.20 54.64 55.66 56.92 57.58 57.61 56.12 54.36 47.90 53.16 55.50 60.84 58.49 50.43 49.19 46.94 45.58 43.07 43.87 41.65 36.33 32.39 35.36 35.90 39.86 45.60 44.48 49.12 49.38 51.00 52.25 54.28 54.16 54.23 62.01
54.81 54.38 54.22 54.13 54.48 54.59 54.70 54.53 54.32 54.24 54.21 54.32 55.18 56.33 56.84 55.92 53.29 50.96 55.84 60.04 60.94 60.41 51.01 50.14 48.48 47.74 44.12 42.42 42.63 39.56 34.31 36.65 41.25 40.80 42.50 44.65 41.45 48.41 48.46 49.16 50.03 52.04 55.97 56.70 61.47
54.77 54.42 54.26 54.18 54.55 54.37 54.39 54.26 54.01 53.62 54.19 54.53 54.88 55.88 55.21 55.05 48.97 46.51 60.44 61.04 62.38 59.84 50.22 50.25 50.25 48.30 42.57 42.49 41.84 39.56 38.06 41.56 43.92 44.22 44.13 44.24 44.09 49.67 47.94 45.21 50.73 50.91 52.09 59.53 58.55
53.18 53.51 54.09 54.27 54.42 54.49 54.07 53.58 53.93 53.32 53.38 53.62 54.01 55.17 55.13 53.35 35.59 50.68 61.36 61.40 61.75 54.32 49.14 47.85 47.15 44.30 41.23 40.02 42.02 38.58 42.94 42.74 44.10 46.17 45.36 44.05 48.11 51.20 49.36 51.06 54.98 54.73 56.95 58.86 56.57
53.62 53.38 53.19 53.27 53.90 54.68 53.90 53.29 53.36 53.49 53.14 52.96 53.66 54.62 53.24 47.50 48.05 53.95 61.55 59.81 54.37 49.48 47.01 46.95 45.92 44.88 41.69 42.15 42.53 41.54 43.24 44.82 46.67 46.56 46.66 48.02 46.88 50.65 50.55 54.59 58.20 59.91 59.41 58.21 57.06
52.98 53.35 53.82 52.96 53.34 54.19 53.94 53.47 53.06 53.08 53.07 52.65 53.26 53.92 50.36 41.50 51.38 53.44 54.21 55.41 52.31 48.59 47.47 48.01 46.30 47.20 44.88 44.03 41.53 44.55 44.73 45.36 45.27 46.05 46.23 47.48 49.33 47.73 50.55 55.41 53.21 55.34 55.23 56.01 55.59
53.22 52.93 53.00 52.62 53.37 53.51 53.57 53.26 52.69 52.75 52.90 52.61 52.91 51.80 47.65 43.94 50.90 51.49 52.54 50.05 52.49 51.64 48.24 49.10 49.03 46.44 46.25 44.21 46.69 45.29 42.11 43.37 43.43 43.35 44.75 46.19 42.96 44.82 49.48 55.21 53.50 53.90 55.65 54.32 54.54
52.96 53.06 52.75 52.79 52.82 52.63 52.29 51.83 51.92 52.50 52.65 52.87 52.93 51.29 43.74 53.43 52.38 52.23 51.84 51.45 53.28 52.28 51.40 52.54 51.15 47.87 46.23 46.86 45.27 42.17 39.74 35.76 41.46 44.53 45.83 44.45 38.62 45.16 52.00 50.95 49.95 54.15 53.91 52.33 52.45
53.29 53.20 52.59 52.28 52.16 51.97 51.70 51.34 51.42 52.19 52.61 52.98 50.41 48.84 42.81 54.75 50.79 53.72 52.78 49.67 51.31 52.29 52.08 54.99 50.82 46.88 45.90 40.28 37.05 37.39 32.84 35.97 40.46 44.33 43.49 42.84 39.97 44.50 49.63 50.29 50.38 53.04 51.18 50.31 51.63
52.29 52.64 52.85 52.38 51.83 51.52 50.98 50.87 51.24 51.84 51.35 52.50 53.02 44.39 46.50 45.77 49.99 52.01 51.67 51.21 48.42 49.11 47.98 46.97 44.75 41.16 39.36 37.53 31.14 33.21 34.51 38.18 37.76 41.05 42.95 41.33 42.13 45.18 48.17 50.26 50.81 50.74 50.20 49.36 50.68
51.83 52.21 52.50 52.55 52.07 51.35 48.52 44.85 43.57 42.81 45.34 44.25 45.37 45.11 47.36 51.91 55.12 51.10 51.91 49.40 47.77 45.60 40.58 43.74 39.04 37.48 39.79 39.98 40.79 39.57 37.91 36.33 40.62 44.12 41.41 41.54 42.73 42.62 46.54 47.01 47.26 48.53 48.95 48.71 49.73
51.48 51.69 51.92 52.22 51.93 51.03 45.64 41.27 44.28 45.25 39.26 46.30 46.40 45.55 49.13 51.31 45.78 49.08 52.58 45.45 43.79 39.28 42.27 40.39 38.47 42.54 43.26 42.38 41.18 40.05 37.67 37.65 40.83 43.64 42.32 40.68 41.05 41.25 45.49 46.87 47.84 48.73 48.80 48.96 48.71
50.85 51.13 51.47 51.37 51.26 45.83 43.34 43.40 48.55 47.93 40.42 42.06 45.55 45.11 45.99 47.42 43.87 45.45 50.10 45.82 42.05 38.96 39.81 37.81 41.54 45.61 43.29 41.71 40.25 39.55 37.80 38.25 37.93 42.04 42.20 39.70 38.01 39.80 45.24 47.02 48.75 49.24 50.41 50.32 50.10
50.39 50.85 50.80 51.04 43.05 44.25 40.93 46.81 46.75 47.54 33.58 35.67 41.37 43.58 46.54 47.20 42.39 49.62 50.64 46.76 42.76 39.59 39.37 38.27 43.64 43.02 41.48 40.86 41.71 36.93 42.92 42.19 40.64 37.86 33.56 38.98 30.91 37.76 41.50 45.05 47.88 49.21 49.00 49.61 50.43
50.09 50.77 50.70 51.20 43.13 40.32 43.06 46.17 46.87 46.38 18.43 36.57 41.36 48.95 46.69 41.22 40.58 44.23 49.45 45.65 40.40 40.06 39.33 36.97 39.35 40.07 39.52 42.10 43.35 40.35 44.34 42.28 41.29 38.72 34.46 35.57 33.38 35.93 41.18 41.98 44.96 48.42 49.71 50.09 51.14
49.92 50.57 50.32 46.71 44.11 44.78 45.46 45.26 47.81 32.50 20.60 33.87 41.71 40.80 41.00 41.63 41.76 44.25 43.79 45.34 45.79 41.84 40.13 39.52 43.73 42.63 42.75 44.73 44.91 45.94 42.01 40.78 39.01 36.56 30.15 35.99 34.98 34.35 36.43 41.74 46.10 48.55 50.14 50.64 51.39
49.68 50.44 48.78 47.33 39.65 43.83 44.88 42.82 32.66 24.31 37.05 34.18 36.44 38.40 37.89 38.52 39.79 40.37 39.14 38.27 36.49 33.96 34.91 37.94 39.50 42.11 44.43 40.80 43.35 42.03 37.04 29.45 27.79 27.67 28.34 38.15 35.43 38.14 41.97 44.03 46.93 48.82 50.25 51.26 51.80
49.49 49.50 47.58 46.99 45.08 43.88 40.99 35.42 25.63 31.72 32.82 38.96 36.78 36.94 34.07 38.26 39.02 39.24 37.11 34.24 38.70 38.28 34.58 33.27 30.89 39.12 42.36 41.56 39.46 39.09 38.15 30.16 26.62 26.08 29.67 38.64 33.94 39.00 44.90 45.81 47.13 51.10 51.84 52.18 51.36
49.12 43.36 44.32 43.96 45.38 42.90 34.81 25.83 25.14 31.31 35.80 33.36 34.95 32.49 32.93 35.72 37.15 37.69 36.44 35.94 37.17 38.91 34.69 33.05 33.55 42.10 43.01 44.11 43.86 38.84 34.82 41.43 33.94 33.84 29.99 34.09 38.33 43.51 43.95 43.55 45.03 47.16 49.60 50.40 51.31
44.17 42.50 41.00 44.65 45.03 41.73 32.06 25.40 28.62 35.65 36.16 35.29 28.48 32.16 28.84 30.78 32.51 34.97 35.18 39.70 37.87 42.00 41.67 38.59 32.91 41.10 42.65 43.75 44.18 41.92 43.39 34.57 34.67 28.07 27.17 31.40 32.92 35.69 40.95 42.00 42.57 44.27 48.65 50.36 51.56
42.10 37.73 42.26 45.95 44.99 37.86 25.97 25.51 31.04 35.48 35.78 33.33 31.46 29.98 30.64 30.22 32.63 33.72 34.57 38.28 41.44 41.36 44.03 39.64 36.78 36.60 41.08 38.26 37.91 38.53 37.95 38.00 38.44 34.11 28.44 26.84 30.78 40.29 42.52 43.84 42.90 43.65 49.01 50.46 51.68
40.89 32.17 44.00 45.80 34.04 34.33 28.30 29.42 35.60 34.16 37.06 34.55 34.55 32.37 30.81 31.83 30.50 31.39 32.90 36.79 42.42 42.69 37.85 42.05 37.02 32.83 36.48 42.00 42.88 41.99 40.42 40.32 32.56 31.69 33.05 31.21 33.95 43.18 43.83 44.13 44.58 43.82 46.23 50.36 52.35
36.73 37.10 45.13 43.44 27.53 29.05 32.92 32.28 32.80 32.04 33.30 33.56 33.57 34.73 34.88 31.26 27.84 32.02 33.83 41.98 43.73 41.90 39.35 41.48 35.46 28.94 33.05 37.93 41.65 38.49 39.94 40.97 39.38 36.89 32.53 29.63 32.31 44.36 44.05 43.81 44.04 43.21 43.63 45.67 49.10
34.66 30.25 37.58 39.70 36.05 31.02 30.52 31.54 31.47 35.31 32.61 33.82 33.43 34.76 32.40 30.68 33.46 31.19 33.96 40.42 43.79 43.38 44.91 44.05 38.80 34.97 29.54 33.29 37.85 36.08 39.53 40.66 40.22 32.06 32.66 35.51 37.65 41.85 43.31 43.87 45.55 45.34 44.19 44.56 46.31
35.73 31.76 36.79 29.81 32.27 33.36 32.54 32.66 31.41 30.47 34.57 34.55 31.54 31.00 29.98 26.94 29.33 29.32 33.15 35.51 41.78 43.30 41.30 42.10 34.58 36.80 37.79 39.16 40.38 39.49 38.68 39.30 37.80 37.79 34.61 36.55 39.00 42.98 44.15 44.25 45.48 46.21 45.18 45.08 45.86
32.47 33.66 37.63 31.86 34.33 33.64 32.84 31.35 30.73 32.56 32.86 31.82 31.75 33.75 32.47 28.60 30.02 28.25 32.38 32.69 36.20 40.75 38.58 40.05 34.33 36.16 34.10 38.31 39.66 38.44 40.51 40.71 39.36 39.34 39.73 39.31 39.66 44.66 45.49 45.05 44.54 45.96 45.30 45.78 46.51
40.94 39.41 36.55 34.13 32.51 32.27 31.55 31.35 32.26 33.83 35.44 35.81 34.69 33.07 31.40 33.33 36.08 36.68 36.73 37.32 39.12 39.38 35.04 33.93 35.06 32.14 29.72 36.91 38.08 32.40 37.42 40.12 40.86 40.30 39.66 36.26 41.13 45.17 44.43 44.31 44.68 45.17 44.92 45.42 46.12

GFSSW_sfc_wetblb_084.txt.gz
Wetbulb
54.43 54.50 54.66 54.90 54.84 54.29 53.94 54.42 54.48 53.65 53.81 54.32 54.36 54.36 55.17 55.04 54.51 52.78 45.69 51.11 54.33 60.22 56.90 50.41 47.75 46.05 44.43 42.31 42.77 40.60 35.09 31.17 34.23 35.01 39.88 43.29 41.77 47.11 48.83 49.17 51.63 53.37 53.62 53.80 59.03
54.69 54.50 54.43 54.47 54.96 54.87 54.73 54.42 54.05 54.11 53.93 53.71 53.88 54.69 55.17 54.47 51.68 49.28 54.31 59.70 60.81 61.16 50.42 49.09 46.81 46.63 43.20 41.01 41.31 39.05 33.54 35.82 40.15 40.19 41.01 43.99 41.04 43.30 46.99 47.04 49.61 51.25 55.24 55.40 61.50
53.41 53.19 53.36 53.75 54.06 54.90 54.90 54.26 53.76 53.80 54.04 54.09 54.10 54.51 54.76 54.47 46.07 43.42 60.25 60.69 61.32 59.85 48.90 49.59 49.38 47.29 42.55 41.25 40.63 38.36 37.10 39.84 42.34 43.14 42.08 41.67 42.13 48.27 46.32 44.75 49.49 49.50 52.12 55.43 59.29
52.45 52.49 52.78 53.02 53.21 53.04 54.21 54.12 54.21 53.67 53.62 53.79 53.27 54.01 54.57 53.04 34.86 46.81 60.89 61.55 62.17 54.66 47.87 46.30 45.68 43.18 40.39 39.49 41.34 37.01 41.78 41.58 42.90 43.52 43.25 42.30 44.69 48.73 47.16 48.23 54.17 53.63 55.15 58.70 57.49
52.43 52.18 52.21 52.47 52.53 52.56 53.45 53.73 53.83 53.20 53.05 52.93 52.95 53.41 51.29 43.72 45.01 51.78 60.92 59.11 53.22 48.82 45.95 45.44 44.44 43.60 40.84 41.23 41.34 39.48 41.66 43.34 44.67 44.86 44.02 45.44 45.20 47.46 49.60 51.81 57.99 59.37 58.57 57.85 57.65
53.07 52.89 52.33 52.27 52.17 52.18 52.74 52.80 52.68 52.76 52.39 52.55 52.96 53.44 47.75 36.77 48.48 50.99 51.62 53.69 49.82 46.97 46.04 46.09 44.38 45.98 43.21 42.74 41.45 43.08 42.74 43.75 44.04 43.59 44.15 45.08 46.01 47.86 48.25 54.48 53.13 56.11 55.77 57.28 57.01
53.40 53.38 53.01 52.26 52.08 51.99 52.33 52.29 51.85 51.76 51.93 52.05 52.44 50.39 46.06 40.92 47.68 48.88 50.88 49.51 48.97 49.37 46.43 47.50 47.74 44.94 44.82 42.22 45.22 43.64 40.13 41.72 41.89 41.23 43.27 44.29 41.70 44.96 48.84 54.90 53.02 52.81 54.04 54.67 54.45
51.52 52.35 52.85 52.77 52.50 52.17 51.90 51.50 51.39 51.58 51.83 51.83 52.07 49.18 41.61 51.88 51.09 51.03 50.18 49.94 51.31 50.14 49.26 50.33 49.89 45.88 44.19 45.39 43.88 40.17 38.96 34.37 39.25 41.84 43.17 43.54 37.79 43.36 50.65 52.66 51.77 52.28 53.05 52.40 52.55
51.22 52.01 52.14 52.25 52.32 52.08 51.59 51.15 51.01 52.14 52.35 51.93 48.86 46.45 39.60 53.31 49.93 50.98 51.68 49.57 49.63 50.43 50.07 53.65 49.29 45.14 43.77 39.30 36.23 36.59 31.90 33.31 38.69 42.95 41.62 40.97 39.17 41.07 49.45 49.64 48.53 49.44 51.61 50.24 52.97
50.92 51.62 51.85 51.71 51.76 51.96 51.17 50.83 50.46 51.06 50.86 51.03 51.23 40.25 41.71 41.75 50.42 51.49 51.29 51.20 47.32 47.83 46.93 46.36 44.44 39.93 38.00 36.18 29.97 32.71 33.43 35.96 36.03 39.55 40.60 38.60 40.09 43.23 47.31 48.37 47.40 49.22 49.91 48.98 49.60
50.50 50.46 51.41 51.46 51.34 51.75 48.76 44.57 41.19 39.83 42.92 41.64 41.94 42.13 45.23 51.69 53.82 49.85 49.85 47.81 46.58 44.43 39.47 42.20 37.45 35.39 38.27 38.83 39.00 37.74 36.59 34.87 38.02 41.14 39.75 38.75 37.77 41.96 43.82 46.47 46.75 48.33 48.55 48.08 48.50
49.80 49.78 50.76 50.85 50.84 51.23 44.67 41.61 42.83 43.42 37.54 43.58 43.64 44.02 47.11 49.50 43.56 45.85 50.94 44.25 42.62 38.72 41.08 38.84 35.91 41.36 41.95 41.16 39.90 38.35 36.53 35.99 39.04 41.59 40.46 39.56 39.22 42.06 42.07 45.10 46.77 47.59 48.40 47.81 47.99
49.61 49.41 50.28 50.67 50.66 44.65 41.24 43.50 46.77 45.44 39.40 40.59 43.93 43.63 44.94 46.07 41.57 42.25 46.31 44.95 41.52 38.48 39.20 37.87 39.78 44.08 41.81 39.36 38.40 37.35 36.72 36.15 36.50 39.32 39.93 37.38 36.48 38.94 42.27 45.30 46.94 48.04 49.48 49.41 48.20
50.00 49.89 50.43 50.45 43.45 42.47 38.94 44.77 45.56 44.97 32.97 33.93 39.99 42.14 45.02 45.28 40.31 46.97 47.71 45.28 41.66 38.29 39.34 38.15 43.05 41.28 39.96 39.29 40.09 34.87 40.56 40.20 38.99 35.91 31.37 37.81 29.55 36.01 40.44 41.72 45.88 46.91 48.25 49.21 48.86
49.62 49.68 50.35 50.28 43.83 40.22 40.98 45.54 45.30 46.36 18.72 35.29 40.31 47.01 44.72 40.75 39.99 43.73 48.46 44.66 38.00 38.82 39.07 36.16 38.36 38.60 37.50 39.68 41.51 38.82 42.47 40.31 39.54 35.91 33.45 33.88 31.28 35.29 38.76 40.19 42.81 45.68 47.50 49.31 50.03
48.93 49.62 50.16 45.45 42.71 43.49 44.59 44.78 45.08 32.34 20.06 33.38 41.26 40.47 39.61 41.15 40.63 43.16 43.48 44.49 44.20 40.21 37.84 37.84 42.13 40.49 40.00 43.38 42.87 44.58 40.44 39.59 37.54 35.22 28.36 34.26 33.67 32.71 35.54 40.11 43.36 45.23 47.76 48.86 49.88
49.02 49.43 47.91 46.86 39.21 43.88 44.06 40.67 31.82 23.05 35.23 33.23 34.98 37.17 37.13 37.36 39.26 39.96 38.45 37.33 34.70 32.27 32.87 36.68 38.23 40.59 43.13 38.68 41.40 41.01 35.94 28.41 27.11 27.19 27.63 35.59 33.38 37.17 40.30 42.63 43.78 45.11 47.19 49.32 50.24
48.85 48.58 46.58 46.31 45.03 44.57 40.80 33.36 24.41 30.41 31.96 36.41 34.90 35.96 33.95 35.35 37.89 39.11 36.45 33.00 37.23 36.78 32.33 29.86 28.57 37.71 41.05 40.22 38.09 37.85 36.67 28.89 26.04 25.78 28.80 36.06 31.60 36.96 44.14 45.06 45.56 45.89 47.70 49.26 49.73
47.83 42.35 43.18 43.42 45.38 43.37 34.86 21.52 25.61 29.41 34.38 32.20 33.15 30.93 31.36 33.53 34.73 36.19 36.12 35.65 37.33 37.90 33.01 31.52 31.17 40.77 41.71 42.58 42.55 37.13 34.70 39.78 32.14 31.40 29.32 32.37 36.42 42.04 44.18 43.41 43.47 43.45 47.90 48.53 49.51
40.24 40.25 39.00 44.10 45.69 41.19 31.96 24.56 26.01 34.43 35.00 34.13 27.47 30.50 26.13 28.59 29.16 30.99 33.16 38.48 38.03 41.57 42.18 36.11 31.37 39.68 41.27 41.33 41.24 39.49 41.80 33.50 32.19 26.66 26.09 29.50 31.55 34.78 40.43 42.37 42.19 42.44 46.26 47.81 49.24
41.06 36.43 42.22 45.14 43.63 36.59 25.11 24.59 30.20 35.09 34.31 31.41 30.51 28.67 29.13 28.43 29.69 29.41 31.06 36.90 40.20 40.18 42.09 40.13 33.43 33.60 39.07 36.96 35.83 36.52 36.31 35.95 36.55 32.49 27.85 26.17 29.86 39.04 42.19 43.40 43.20 42.22 45.19 47.33 48.44
39.03 30.94 41.54 44.82 33.04 33.18 27.67 29.28 34.65 32.41 35.94 32.97 33.66 31.61 28.89 29.88 28.32 28.39 30.59 34.41 40.46 41.78 37.35 40.53 37.12 29.65 34.27 40.60 41.95 39.18 37.51 38.30 32.64 29.92 31.03 29.96 32.95 41.85 42.70 43.59 43.70 43.96 44.10 46.71 49.01
34.95 35.37 42.69 41.83 26.97 27.23 31.38 31.20 32.85 30.79 31.78 32.23 32.02 33.69 33.37 29.22 25.75 29.36 30.94 38.12 41.93 41.32 38.58 39.30 35.96 30.42 30.44 36.32 39.35 36.31 38.32 39.00 37.95 35.28 31.54 29.46 31.56 42.90 42.96 43.00 43.95 43.74 43.99 44.21 47.46
35.50 29.29 35.68 38.63 34.17 29.07 27.90 28.87 29.00 34.96 31.50 32.31 32.29 32.97 31.19 28.89 32.32 29.40 30.51 35.45 38.06 37.04 44.69 41.70 35.82 33.89 29.90 32.40 37.16 34.74 37.45 39.51 38.11 31.37 32.98 34.42 34.87 39.80 41.91 43.25 43.70 43.78 43.69 43.59 44.60
35.70 31.19 35.04 25.02 30.78 31.26 29.91 29.80 27.83 29.25 33.14 32.67 29.52 29.81 28.76 25.92 26.93 26.99 30.49 32.29 35.08 38.93 40.86 39.60 31.66 34.49 36.06 37.70 37.49 37.17 37.09 37.74 36.85 36.95 33.29 34.65 36.68 40.26 42.51 43.80 44.58 45.81 44.96 44.36 43.79
32.33 32.21 34.76 34.93 31.93 31.92 31.96 29.10 28.65 30.60 31.69 30.13 29.01 32.18 30.93 27.08 28.54 27.17 30.95 31.56 31.19 38.24 37.68 38.65 31.17 33.41 32.30 34.65 36.53 35.05 38.06 38.57 38.41 37.26 36.83 36.47 36.15 42.76 44.60 44.07 42.81 45.32 45.79 44.81 44.72
38.29 39.79 36.21 33.12 30.91 31.14 30.22 30.88 30.72 32.66 34.58 35.25 33.95 32.72 31.12 32.58 34.60 35.41 35.33 35.11 34.36 32.28 34.38 35.66 34.06 31.37 27.26 32.99 34.29 30.57 35.02 38.38 38.49 38.88 38.25 34.38 38.21 42.22 42.86 42.95 43.70 45.47 45.13 45.26 45.97

GFSSW_sfc_wetblb_087.txt.gz
Wetbulb
55.00 54.99 54.83 54.79 55.12 55.06 55.12 55.13 54.72 53.99 53.46 53.62 53.62 53.73 54.03 55.27 54.54 52.97 47.83 52.52 55.93 60.26 57.71 52.68 51.78 50.88 49.21 48.40 48.33 47.03 44.01 40.46 41.37 40.80 44.67 46.48 46.35 49.85 53.62 53.35 54.74 56.09 55.59 56.32 61.03
53.84 53.74 53.66 53.51 54.16 54.46 54.80 54.99 54.68 54.53 53.95 53.96 54.24 54.08 54.44 54.58 51.42 48.74 54.77 58.74 60.72 60.45 51.46 50.47 48.28 48.99 47.96 47.37 47.34 46.51 42.60 42.45 45.15 45.25 45.59 47.23 46.10 47.16 49.98 51.38 52.48 54.09 56.93 58.41 61.69
52.22 52.42 52.54 52.75 52.99 53.07 53.93 53.84 54.02 54.00 53.94 54.11 54.03 54.24 54.14 54.10 46.02 44.25 61.00 60.26 60.76 59.77 53.27 53.16 51.67 50.54 47.68 47.16 46.47 44.53 43.42 44.68 45.98 46.95 46.82 45.89 46.47 48.36 49.88 49.20 52.19 52.90 54.81 56.88 60.25
52.51 52.49 52.64 52.57 52.61 52.49 52.96 53.31 53.00 52.82 53.09 53.22 53.23 53.69 53.98 52.98 36.65 48.77 60.94 61.88 61.66 56.81 51.40 51.05 50.25 48.08 46.21 45.19 46.63 43.42 45.76 45.95 46.73 46.86 47.00 46.16 49.26 50.57 50.98 52.19 56.11 55.60 56.28 58.09 59.20
53.24 53.04 53.02 52.59 52.47 52.30 52.69 52.75 52.56 51.96 51.97 52.25 52.76 52.98 51.15 43.02 43.61 52.38 57.78 59.40 55.49 51.89 49.39 48.40 47.61 47.32 45.29 45.43 45.13 43.35 45.61 46.13 46.92 46.52 47.49 47.86 47.64 48.84 51.08 54.99 58.07 58.00 58.16 59.29 59.02
52.69 53.00 52.71 52.58 52.40 52.48 52.73 52.60 52.19 52.21 51.75 51.63 52.01 52.38 48.81 36.00 47.70 52.78 51.92 54.49 52.19 49.58 48.42 48.52 47.86 49.36 47.08 46.14 44.86 46.75 45.48 46.41 47.64 47.84 47.50 46.81 48.25 50.42 52.33 56.70 58.55 58.83 58.83 58.79 58.26
52.06 52.16 51.79 51.29 51.50 52.27 52.79 52.71 52.13 52.12 52.02 51.79 51.73 50.04 44.61 42.43 49.63 50.73 51.65 50.72 51.85 51.15 48.30 49.41 50.38 48.72 48.26 45.88 47.83 47.05 44.59 46.11 46.66 46.54 46.75 47.97 46.37 47.90 52.48 56.37 54.62 55.91 56.19 56.71 56.56
51.25 51.68 51.92 52.07 51.98 52.11 52.19 52.04 51.90 52.13 52.81 52.71 51.71 48.44 40.13 50.77 52.89 51.41 52.05 50.88 51.95 51.71 50.72 52.72 52.42 49.33 47.89 48.70 46.87 44.42 43.54 40.74 44.06 46.26 46.90 47.85 43.89 47.83 51.38 54.83 54.09 54.11 54.64 54.66 56.01
50.59 51.41 51.54 51.69 51.55 51.45 51.26 51.39 51.80 52.19 52.15 52.00 48.09 45.92 38.93 51.36 48.98 52.22 52.48 49.19 50.60 50.56 50.59 53.27 51.56 48.46 47.21 43.64 41.32 41.54 38.07 38.94 41.90 46.14 47.03 46.47 44.25 48.41 52.51 53.28 53.42 54.17 53.96 54.26 54.83
50.19 50.86 51.12 51.30 51.13 50.85 50.54 50.99 50.64 51.56 51.05 50.95 50.12 41.16 42.54 41.50 51.42 53.34 52.82 52.44 48.65 48.35 48.66 48.26 47.67 44.39 43.42 41.67 34.80 37.11 37.95 39.25 40.33 44.53 44.66 43.76 44.09 47.35 48.98 51.55 51.83 52.23 54.12 53.94 53.85
50.12 50.10 50.51 50.79 50.94 50.68 49.31 45.34 42.63 41.28 43.19 41.54 41.34 41.31 43.34 49.74 53.05 51.33 51.69 49.60 48.74 46.16 41.62 45.58 41.70 39.28 42.15 43.48 42.22 41.32 39.60 39.56 42.30 44.68 43.29 43.86 43.23 46.20 47.96 49.60 50.21 51.56 53.15 53.48 53.25
49.74 49.54 50.11 50.65 50.96 50.63 46.08 43.12 41.06 41.65 36.36 43.12 42.68 42.51 45.53 47.12 41.86 45.92 51.41 45.93 44.34 40.40 43.07 41.64 38.67 43.08 44.12 43.67 43.29 41.69 39.89 39.74 42.62 43.92 43.21 44.03 43.65 46.94 46.78 48.80 50.22 51.34 52.76 53.30 52.35
49.18 49.05 49.60 50.22 50.41 45.94 42.84 43.27 46.03 44.91 38.44 40.19 43.52 42.77 43.63 45.22 40.94 42.33 45.67 46.41 42.86 40.07 40.73 39.37 41.67 44.48 42.92 41.37 40.60 40.87 39.80 40.07 39.85 42.57 43.83 42.62 42.16 44.82 47.03 48.37 50.35 51.30 53.37 54.09 52.97
49.63 49.74 49.63 49.95 44.05 44.60 40.52 45.74 46.33 45.41 33.87 34.63 39.92 42.89 45.56 45.43 40.31 46.93 47.10 43.98 43.43 40.15 40.78 40.31 43.59 42.47 41.60 40.45 42.03 37.65 42.83 42.25 40.79 39.68 35.48 43.15 35.38 42.45 46.62 46.51 48.21 50.70 51.47 52.95 52.66
48.73 49.29 49.00 49.93 44.41 40.82 42.98 46.39 46.54 44.99 20.98 35.99 39.98 48.10 45.61 41.81 41.91 43.79 47.87 44.51 38.12 40.55 41.05 38.85 39.77 40.46 39.48 40.81 43.03 40.42 44.18 42.29 42.00 39.59 38.56 39.63 36.96 41.44 43.19 44.76 47.31 49.02 51.17 52.57 53.55
48.60 48.50 49.04 45.68 43.76 44.93 45.70 45.68 46.17 33.36 20.89 33.66 41.34 40.54 39.62 41.49 41.65 43.89 44.46 46.46 45.15 39.75 40.89 40.63 43.59 42.69 42.40 43.61 44.19 45.28 42.77 41.93 40.84 39.79 33.53 38.66 37.72 39.78 43.03 45.35 47.14 49.16 51.07 52.33 53.28
48.35 48.28 46.95 47.64 40.24 45.41 45.63 42.48 32.74 24.19 35.09 32.90 34.42 37.35 37.35 36.20 40.07 41.18 39.26 38.22 36.32 32.47 33.25 38.45 39.48 42.63 44.64 40.63 43.51 43.56 39.77 33.19 31.89 32.02 32.04 39.50 36.78 41.16 45.40 46.68 47.43 49.52 50.48 52.67 53.82
47.99 47.61 45.70 46.07 46.16 46.26 42.50 35.41 23.46 29.32 31.35 36.50 35.08 35.96 34.45 34.72 37.05 39.22 37.36 34.93 39.75 37.98 34.90 31.37 29.77 39.39 42.83 42.32 39.87 40.54 40.39 34.13 27.58 30.02 34.03 38.22 35.49 41.24 47.72 49.36 49.70 49.68 49.95 52.75 53.13
46.63 42.44 43.23 43.63 46.12 44.89 36.83 24.72 25.82 29.60 33.91 32.38 33.66 31.92 32.10 33.38 34.57 35.58 37.09 36.17 39.34 40.81 33.83 33.39 31.76 41.42 42.12 43.91 44.20 39.56 36.26 42.43 35.31 35.69 34.38 37.38 40.87 45.14 47.93 48.17 47.88 48.20 50.07 51.75 52.86
40.99 39.86 39.73 44.80 45.94 42.28 31.43 24.52 27.18 33.84 33.86 33.92 28.25 31.43 27.20 29.77 30.50 31.47 34.07 38.99 38.52 41.10 43.22 38.41 31.54 39.89 41.48 43.06 43.41 42.48 43.81 35.72 36.52 28.83 27.95 33.90 35.97 38.81 43.80 46.29 47.94 48.22 49.43 51.97 52.90
39.91 34.81 40.66 45.36 44.39 36.64 24.66 25.41 29.54 34.70 35.46 30.89 30.65 29.50 29.52 28.99 31.06 30.32 32.87 37.35 39.68 39.20 43.28 40.12 36.38 35.59 40.29 38.33 37.80 38.78 37.97 39.38 39.45 36.54 31.65 30.38 35.17 44.67 45.95 48.03 47.38 49.46 48.81 51.18 52.90
37.65 29.76 41.83 44.92 31.42 32.64 26.89 28.91 34.06 32.26 35.68 33.79 34.22 32.15 29.82 30.49 28.91 29.19 30.18 34.33 38.28 42.30 36.56 40.62 37.99 33.50 35.44 41.95 43.08 41.31 39.02 39.35 33.82 33.01 35.84 35.07 36.49 45.76 48.16 47.93 48.81 49.20 49.66 49.70 52.67
33.75 33.75 42.47 41.62 26.20 25.99 30.52 30.26 32.37 30.75 31.11 32.34 31.95 34.07 34.10 30.51 26.53 29.79 31.77 37.38 39.23 38.64 34.61 37.57 34.18 27.44 32.99 37.46 40.93 38.41 39.53 40.35 39.81 38.93 34.47 32.31 35.94 45.93 46.40 46.32 47.80 48.18 50.62 50.74 49.54
33.98 27.88 34.20 37.43 35.87 30.01 27.85 28.54 28.51 34.56 32.34 32.72 31.90 33.84 32.40 30.80 33.18 30.14 30.88 34.93 37.39 36.16 39.65 42.03 35.27 30.30 26.95 33.11 36.32 33.43 36.59 38.83 38.28 34.43 35.39 36.19 38.34 43.90 45.18 45.93 48.44 48.86 48.97 49.05 48.85
34.10 30.46 32.80 27.13 29.85 30.93 30.59 29.46 27.24 27.29 33.48 33.82 30.03 30.71 30.54 27.51 28.37 28.25 31.19 33.17 36.46 39.25 38.11 39.86 32.27 34.46 35.46 36.15 36.54 36.08 35.53 36.60 36.09 37.82 34.45 38.09 39.14 43.11 46.11 47.70 49.41 50.46 49.61 48.87 49.41
29.71 29.81 34.13 32.65 32.06 31.21 31.41 28.30 27.96 28.85 31.27 30.09 28.66 31.36 31.25 27.82 29.60 27.87 31.60 32.47 32.25 37.44 38.37 39.51 31.99 33.28 30.74 35.43 36.15 33.87 36.38 37.48 38.28 39.12 39.07 39.67 39.40 46.11 48.44 48.69 47.54 48.55 48.88 48.98 49.44
37.35 38.51 34.58 30.86 29.73 29.68 29.21 29.72 29.50 32.08 33.48 34.51 33.09 31.59 30.88 32.86 35.40 36.38 36.59 36.31 35.68 33.37 32.12 32.73 31.77 30.24 27.83 33.73 34.10 29.97 35.47 37.64 39.20 41.52 40.85 36.97 42.49 45.83 45.12 45.93 46.88 48.33 49.01 48.82 50.10

GFSSW_sfc_wetblb_093.txt.gz
Wetbulb
53.26 53.57 53.44 53.43 53.49 53.46 53.53 53.49 53.14 53.25 53.53 53.83 53.74 53.66 54.57 54.88 53.72 55.18 51.40 56.78 59.05 60.89 59.60 59.16 58.85 56.70 56.61 55.17 56.11 55.19 47.90 46.37 47.97 48.04 48.94 51.78 50.61 53.61 55.10 53.82 54.54 55.79 57.65 60.28 62.71
54.05 54.32 54.31 54.01 53.91 53.88 53.45 53.37 53.48 53.08 53.09 53.13 53.03 53.58 54.08 54.08 53.61 51.49 60.79 59.80 58.64 60.90 58.09 57.06 55.59 54.65 52.87 53.24 53.96 51.14 47.83 48.08 51.55 50.96 49.50 51.48 51.55 52.34 52.27 52.26 52.97 54.93 58.65 61.49 62.87
52.81 53.24 53.30 53.12 52.83 52.80 53.15 53.44 53.44 52.98 53.07 53.68 53.48 53.63 53.69 53.80 51.23 52.92 60.84 60.85 61.73 60.60 59.05 58.29 56.92 54.07 51.56 53.11 52.24 51.23 47.59 50.95 51.48 51.60 51.78 50.98 51.31 53.07 51.80 50.60 53.69 54.06 56.46 59.43 61.93
52.29 52.24 52.33 52.22 52.08 52.35 52.86 52.81 52.51 52.26 52.35 52.63 53.27 53.45 53.69 54.08 43.42 55.69 60.97 60.45 61.22 61.38 58.41 56.30 54.50 51.54 50.02 49.33 52.03 48.31 50.52 51.18 51.79 51.76 51.19 50.58 52.32 51.18 52.12 52.74 55.69 56.25 58.93 60.12 60.72
51.98 52.04 52.00 51.78 51.84 52.04 52.63 52.59 52.29 51.82 51.91 52.45 53.33 53.39 52.74 48.24 50.09 56.55 59.27 60.91 60.33 58.81 56.09 54.27 52.94 51.89 48.92 50.66 51.30 49.80 50.59 51.88 52.55 52.15 51.75 51.92 50.16 50.42 51.23 54.24 56.08 57.60 59.73 59.65 60.90
52.10 51.89 51.30 51.35 51.51 51.65 52.02 52.13 51.98 52.19 51.61 52.20 53.63 53.20 51.60 43.69 52.92 52.39 53.65 54.09 55.54 57.79 56.66 55.63 54.33 55.24 52.23 51.28 50.31 51.88 51.59 51.51 52.57 52.12 52.07 50.26 50.58 51.19 51.85 54.78 56.16 58.31 59.65 60.63 62.06
51.96 51.99 51.34 51.06 50.98 50.95 51.39 51.57 51.52 51.54 51.56 52.67 53.99 53.31 49.68 47.50 52.38 54.08 54.91 53.20 55.17 54.91 54.84 56.86 56.69 53.07 52.63 49.94 52.70 51.45 48.73 50.51 51.19 51.74 51.00 52.00 48.44 49.07 52.62 54.99 55.98 57.59 60.44 61.29 62.18
51.20 51.65 51.67 51.44 51.27 51.11 51.04 50.86 51.06 51.59 52.65 53.22 53.48 53.21 46.45 52.50 54.21 52.24 53.40 51.77 54.23 55.84 55.02 56.53 56.68 53.92 52.14 53.00 51.13 48.28 48.97 45.03 50.48 51.94 51.81 50.87 45.09 51.61 54.87 55.24 55.10 57.92 59.82 60.63 61.12
51.50 51.54 51.31 51.36 50.77 50.73 50.44 50.22 50.56 52.51 52.77 52.31 52.99 51.26 46.08 52.36 49.00 51.88 53.61 48.77 50.21 50.80 51.67 52.65 53.94 51.23 51.75 47.47 45.19 46.98 42.70 45.60 48.40 51.61 50.37 49.72 47.55 52.46 56.24 55.44 54.65 56.69 58.41 59.75 60.61
50.97 51.40 51.27 50.70 50.32 50.34 49.91 49.69 51.90 51.47 52.90 54.69 53.71 46.70 49.99 45.11 50.70 53.45 57.72 55.71 51.15 50.69 47.41 49.25 49.23 46.60 46.93 45.82 39.43 41.34 43.30 46.01 46.19 50.23 49.58 48.12 47.90 51.52 53.28 54.33 54.40 55.57 57.19 59.32 60.23
51.30 50.98 50.95 50.53 50.26 49.97 48.93 51.80 48.59 48.63 50.90 45.85 46.83 47.22 47.78 50.37 52.57 50.20 54.86 55.18 54.67 50.38 43.00 47.24 43.96 42.59 45.17 46.79 46.95 46.55 45.77 45.74 48.45 50.55 47.68 47.82 48.24 49.50 51.88 53.20 53.82 54.40 55.85 57.99 60.01
50.02 49.51 49.25 49.40 49.75 49.47 49.45 47.76 45.56 46.68 40.08 46.53 46.33 46.49 48.44 49.36 44.41 48.51 53.97 49.64 50.02 45.59 46.15 43.79 41.33 46.04 48.67 47.97 47.06 46.05 44.74 45.02 47.66 49.68 48.38 47.74 47.22 49.37 50.77 51.57 53.84 54.15 55.91 57.37 59.83
49.91 49.18 48.55 48.91 48.91 48.67 48.43 48.23 52.05 50.84 41.23 43.27 47.29 47.01 48.48 49.55 44.76 45.77 49.08 50.17 47.67 45.59 45.80 42.67 44.58 48.08 46.17 46.40 44.71 45.34 44.03 44.53 44.54 48.39 48.83 47.18 45.60 47.41 50.45 51.78 53.38 54.70 55.80 56.83 59.17
49.68 48.36 48.08 48.65 45.47 49.53 46.96 51.24 52.50 51.58 37.76 40.48 44.21 47.08 48.72 48.65 44.21 50.08 49.49 47.70 46.55 44.29 45.28 45.25 47.29 46.31 45.70 44.48 46.02 42.96 47.14 45.14 45.11 44.87 41.25 48.46 39.38 46.01 49.38 50.76 52.70 53.85 55.18 56.29 58.30
49.80 48.27 47.86 46.60 45.48 44.85 48.53 51.11 51.73 48.05 26.59 41.40 43.99 52.76 50.69 46.28 47.34 46.71 50.95 46.13 42.23 44.17 44.72 43.21 44.36 44.14 43.75 44.90 46.77 44.43 46.99 45.39 45.36 44.58 44.01 44.09 41.67 44.67 49.07 47.95 50.18 52.74 54.42 56.19 58.57
49.44 48.23 47.42 47.28 47.77 48.68 51.17 51.68 49.18 35.00 26.32 38.43 45.00 44.00 44.35 46.41 45.93 47.72 46.70 49.54 47.31 42.48 44.77 45.17 49.11 47.16 45.83 46.96 47.16 47.55 45.36 45.13 45.17 44.45 38.30 43.03 42.72 42.70 46.46 49.21 51.08 52.65 54.45 56.41 58.34
48.71 48.05 47.02 48.59 44.35 51.15 50.95 46.77 33.49 27.73 38.24 36.74 39.69 43.00 41.75 42.03 43.54 44.57 42.87 41.82 40.28 35.68 36.74 41.90 43.83 46.98 47.53 44.08 47.42 46.05 43.09 36.20 33.03 35.25 36.13 44.84 42.01 43.90 49.71 50.50 51.56 52.43 53.63 56.99 58.88
48.01 47.40 47.83 48.13 50.01 49.38 47.16 37.95 26.25 34.09 36.37 41.70 40.36 41.26 39.13 40.92 42.20 42.76 42.24 40.28 44.33 41.94 39.65 35.49 34.11 43.36 46.32 45.22 43.34 43.46 43.14 37.39 29.52 33.23 37.90 45.26 39.37 43.86 51.29 52.73 53.50 53.67 54.50 57.27 58.74
47.05 46.90 46.54 47.88 50.22 48.46 40.72 29.21 30.14 34.02 37.84 37.32 39.51 37.25 38.76 39.22 39.26 42.24 41.53 41.79 43.25 43.32 39.19 38.07 36.55 43.52 44.09 44.93 45.30 42.67 39.94 45.51 39.69 41.72 38.31 41.74 44.72 48.49 50.96 51.74 52.12 52.60 54.67 55.94 58.28
44.43 43.45 43.06 49.43 50.18 44.85 36.10 29.80 34.16 38.13 39.00 37.94 33.63 37.15 35.77 37.84 36.99 37.60 40.77 43.57 41.22 43.09 46.87 42.73 37.58 42.89 42.97 44.97 45.01 42.94 45.77 38.90 40.74 32.60 31.17 39.02 40.73 41.75 46.22 49.49 51.41 51.53 52.64 54.57 57.43
43.91 38.12 45.53 50.11 48.31 39.47 30.66 32.23 35.11 38.42 38.06 36.49 35.50 35.12 36.78 35.63 36.98 35.59 37.84 41.63 42.62 42.08 45.59 43.07 41.88 40.84 43.48 41.61 40.50 40.98 40.06 41.84 42.87 40.97 35.02 34.21 39.16 48.71 47.99 49.92 51.08 52.54 53.83 55.16 57.18
40.69 33.14 47.48 48.55 35.47 35.67 32.62 35.28 38.12 36.20 38.56 38.20 38.35 37.09 36.06 35.63 34.15 33.80 34.12 38.08 41.48 41.06 38.57 42.27 41.32 37.79 39.88 45.12 46.50 45.37 42.74 42.29 37.59 37.03 40.59 39.62 39.86 50.72 49.92 50.71 53.25 53.20 54.20 55.39 57.79
37.08 37.69 47.33 46.25 30.06 31.11 35.02 35.00 36.80 35.55 35.62 36.21 35.86 37.87 38.08 35.31 31.60 34.03 34.95 40.32 42.33 40.92 39.38 41.04 38.25 34.31 35.55 40.96 44.09 42.49 44.20 44.43 44.22 43.24 38.84 37.19 39.60 50.47 49.56 49.25 50.59 51.42 53.45 54.82 56.07
38.40 32.15 38.30 41.26 39.21 34.62 32.59 32.53 31.98 37.56 36.10 37.09 35.97 37.91 36.09 34.59 36.62 33.19 33.99 38.59 42.14 41.69 40.61 41.40 38.56 36.07 32.15 35.91 39.78 37.89 41.40 43.47 41.84 37.82 38.93 39.81 41.60 45.96 47.89 48.32 49.80 51.01 53.16 54.80 55.98
36.75 33.82 37.29 31.25 33.38 34.28 34.50 33.54 31.62 31.24 36.53 37.67 34.84 34.82 33.74 30.95 32.44 32.44 35.39 36.69 40.13 41.36 41.99 40.68 33.67 36.85 37.05 37.72 38.79 38.44 38.64 40.08 39.19 40.40 37.60 40.84 42.03 45.79 48.50 49.28 49.96 51.42 52.30 52.25 53.96
34.22 34.19 37.58 35.42 36.28 34.03 33.34 32.16 31.77 33.52 34.32 33.22 33.35 35.62 36.26 32.50 34.22 33.22 35.77 36.79 36.08 39.81 39.56 41.01 34.77 36.52 33.64 37.23 37.70 35.98 38.25 38.96 39.27 40.35 41.34 41.94 41.25 47.37 49.34 50.26 49.56 50.36 50.86 51.56 52.49
40.06 41.40 37.25 33.98 34.09 32.25 32.80 33.38 33.14 35.69 36.60 37.76 36.64 35.87 34.85 36.54 39.34 40.79 40.63 40.19 39.49 38.00 36.39 36.69 36.09 33.14 29.84 36.26 36.26 32.68 37.42 38.83 39.45 40.71 40.97 38.52 43.30 47.17 48.36 49.19 50.28 50.39 50.83 50.98 52.46

GFSSW_sfc_wetblb_096.txt.gz
Wetbulb
54.16 54.10 54.28 54.11 53.89 53.94 53.74 53.64 53.83 53.10 53.36 53.68 53.85 54.17 54.90 54.94 53.87 53.29 49.36 56.58 59.37 60.71 59.03 59.03 58.12 56.71 56.07 53.83 54.63 54.51 47.33 44.55 46.06 47.28 49.16 52.14 50.35 53.17 54.30 52.30 53.70 54.54 55.47 57.78 63.28
52.93 52.93 53.10 52.98 53.08 53.24 53.39 53.04 53.33 52.55 52.86 52.97 53.72 54.20 54.79 54.67 51.37 51.04 59.21 60.18 61.24 61.29 54.69 54.01 54.05 55.25 52.37 52.08 52.79 50.62 46.85 46.45 49.96 50.84 49.72 50.84 50.49 51.80 50.97 51.09 51.85 53.52 59.33 59.41 61.14
52.43 52.55 52.70 52.68 52.51 52.30 53.16 53.35 53.29 52.35 52.41 53.02 53.53 54.09 54.25 53.96 50.06 53.95 60.95 61.46 60.66 60.08 54.11 54.37 56.28 55.38 50.91 51.92 51.38 50.43 46.94 49.94 50.55 51.62 51.96 50.48 50.38 52.30 50.36 48.92 52.56 52.44 55.10 57.28 60.85
51.59 51.89 52.01 52.01 51.88 52.00 52.69 52.60 52.64 51.68 51.65 51.94 52.37 53.43 54.36 52.67 43.61 56.18 62.24 62.16 62.33 59.28 56.15 54.39 54.26 52.13 49.86 48.67 51.82 47.88 50.26 50.63 50.78 51.33 50.99 49.73 51.49 50.55 50.79 51.14 54.03 54.89 56.80 58.42 59.33
51.89 51.44 51.50 51.50 51.59 51.68 52.08 51.96 52.02 51.35 51.34 51.76 52.17 53.30 52.30 46.88 48.17 54.13 61.70 61.08 59.24 58.32 55.39 54.06 52.27 51.96 48.72 49.88 50.65 49.13 49.84 50.93 51.67 51.45 51.72 52.18 50.34 50.18 50.22 52.36 53.83 54.92 56.87 58.34 59.23
52.52 52.49 51.77 51.10 51.22 51.11 51.52 51.52 51.56 51.71 51.56 51.69 52.72 53.66 50.21 42.70 52.89 53.73 53.25 53.16 53.38 55.53 54.82 55.22 53.10 53.66 51.18 50.43 49.41 50.95 50.95 50.84 51.58 51.56 51.91 50.58 50.90 51.12 51.65 53.15 52.95 54.88 56.72 58.61 59.62
52.68 52.38 52.38 51.32 50.77 51.01 51.31 51.09 50.93 51.07 51.49 52.00 53.60 53.13 47.87 45.60 52.86 53.87 53.66 53.42 53.00 53.21 52.24 55.86 55.50 53.20 53.32 50.10 53.30 51.72 47.99 49.55 50.32 50.80 50.30 51.75 48.30 48.70 52.49 53.77 52.59 54.22 56.06 58.98 59.76
52.87 52.26 51.79 51.68 51.45 50.99 50.71 50.01 50.35 50.95 51.16 53.15 53.76 51.42 44.36 52.78 54.55 51.97 52.45 51.05 52.60 53.57 54.25 55.00 56.50 54.06 52.46 53.04 50.44 47.70 48.04 43.78 49.19 50.64 51.44 50.79 44.74 50.69 53.80 52.82 51.83 54.84 56.45 58.59 60.01
52.69 52.27 51.83 51.49 50.95 50.61 50.04 50.00 49.99 50.99 52.37 53.64 50.98 49.96 45.18 55.25 49.95 52.03 51.49 48.36 49.71 51.11 52.32 53.57 53.17 50.79 50.95 46.67 44.31 45.87 41.35 43.43 45.69 51.17 50.79 49.55 45.84 50.28 54.06 53.87 53.53 54.25 55.55 57.72 59.47
51.85 52.33 51.79 51.22 50.60 50.07 49.47 49.37 50.22 51.60 52.17 53.96 52.79 46.78 49.55 46.87 49.47 51.97 53.39 55.92 50.51 48.35 47.18 46.45 45.24 44.12 45.60 44.02 38.12 41.17 42.33 44.15 43.53 48.01 50.13 48.21 47.17 50.26 51.88 53.72 53.71 54.17 54.85 56.48 58.79
50.93 51.56 51.50 50.61 50.27 49.77 47.95 47.29 48.47 47.18 50.29 47.45 48.91 46.98 49.34 50.74 50.26 49.57 51.72 52.28 53.32 49.30 43.07 45.15 39.72 38.56 42.37 45.00 44.99 45.09 44.49 43.75 46.66 50.05 49.01 48.16 47.55 49.14 51.59 51.58 52.14 53.22 54.15 55.12 58.18
50.53 50.71 50.55 49.97 49.93 49.27 47.01 44.96 46.82 46.95 39.45 45.59 45.09 45.36 47.15 47.68 43.45 46.69 51.17 48.10 49.26 44.73 47.39 43.11 38.35 43.20 44.83 45.45 45.11 44.36 42.60 43.26 47.12 48.81 48.57 47.60 46.49 49.21 50.80 51.22 51.40 51.30 53.22 55.45 57.86
49.57 49.73 49.93 49.91 49.19 47.42 47.32 47.31 51.97 50.56 39.50 41.56 44.73 44.59 46.19 48.10 43.88 44.73 48.05 46.76 45.90 44.93 45.18 40.91 42.57 45.23 44.06 42.88 42.69 44.60 43.51 43.83 43.97 46.99 48.74 47.09 45.00 46.76 49.93 51.59 52.07 52.44 54.34 55.39 57.35
49.37 49.42 49.94 49.45 45.18 47.24 46.16 50.73 51.28 51.24 35.04 37.92 43.13 46.17 48.18 48.73 44.07 49.82 49.93 46.46 44.43 42.32 44.44 44.01 46.99 45.09 43.46 42.83 43.17 40.28 46.58 45.85 45.02 43.10 38.33 46.62 38.70 45.88 48.66 49.45 51.12 51.69 53.06 55.32 55.42
48.95 49.71 49.38 48.12 44.57 42.69 47.13 51.23 51.14 48.59 23.23 42.16 44.62 51.84 50.03 45.19 47.27 46.65 50.64 46.68 41.03 43.09 43.82 41.85 43.46 43.14 42.37 43.21 45.95 42.64 46.75 45.45 45.70 42.44 41.54 41.84 40.42 43.68 48.33 47.02 49.09 52.04 54.12 55.02 56.18
48.23 48.72 48.84 46.73 46.91 47.60 50.04 50.65 48.25 32.56 23.12 37.39 45.00 43.73 44.05 45.98 45.80 48.19 47.60 48.09 46.64 41.55 42.40 42.54 46.89 45.53 45.20 46.21 46.09 47.11 45.36 45.04 44.22 42.55 35.13 40.29 40.80 41.56 44.69 47.83 50.08 52.06 53.78 56.90 56.36
47.91 47.97 47.22 47.70 41.68 48.92 50.50 44.94 30.64 24.78 38.81 36.16 39.29 43.25 42.83 42.52 43.71 43.97 43.45 42.26 39.62 35.06 35.36 39.36 40.52 45.06 47.05 43.64 45.98 44.87 41.84 34.72 33.42 33.60 32.63 43.13 40.82 43.66 48.37 50.56 51.49 52.20 53.88 56.96 57.43
47.53 47.23 47.11 47.13 48.41 49.23 45.78 35.84 24.07 33.21 34.63 39.98 40.87 41.24 39.05 41.44 42.35 43.20 42.29 39.83 43.37 41.87 37.78 34.37 32.80 39.93 45.66 43.72 41.95 42.39 41.79 36.10 29.17 31.58 35.51 43.94 38.54 43.74 49.88 51.60 52.71 54.05 55.50 56.38 57.39
46.24 45.22 45.54 47.78 49.40 47.00 37.81 27.32 28.27 33.00 37.55 36.89 38.28 35.88 36.83 40.40 39.94 41.68 41.56 41.09 43.11 44.10 36.93 36.62 37.15 43.21 44.46 46.20 45.16 42.39 39.29 44.42 38.78 40.15 34.59 38.84 43.65 49.27 50.18 50.76 52.10 52.35 53.63 55.73 57.04
42.95 42.68 42.77 49.81 50.24 43.87 32.27 28.45 33.08 37.85 38.30 37.97 32.72 37.09 34.21 37.46 37.60 38.58 40.50 43.99 42.05 43.33 44.93 42.36 36.34 42.41 43.32 45.43 45.45 43.25 45.82 38.11 39.57 30.49 29.02 36.51 37.95 40.45 46.75 48.71 51.14 51.36 52.60 55.07 56.94
41.21 37.10 44.47 50.71 47.51 38.18 28.04 30.27 34.63 38.73 39.26 35.23 34.82 34.40 35.62 36.02 35.68 37.05 38.34 42.84 44.20 42.65 43.61 43.22 39.95 39.35 41.68 39.28 38.50 39.51 38.62 40.09 40.47 38.99 32.53 31.49 36.56 47.20 47.24 49.11 50.60 52.10 54.27 55.07 57.55
38.66 33.81 47.05 47.49 34.53 34.17 29.79 33.87 37.75 37.56 39.23 36.70 37.05 36.54 35.85 36.50 35.27 35.91 36.18 38.94 41.99 41.40 37.25 42.03 38.23 36.26 38.86 44.73 46.28 44.73 40.72 40.47 35.00 34.66 38.92 37.08 37.57 48.60 50.13 49.64 50.98 51.58 52.72 56.18 56.80
35.44 36.43 47.09 45.41 29.66 30.35 34.69 34.42 36.73 36.05 36.19 35.39 34.44 36.62 37.74 35.20 32.19 35.92 36.79 41.37 42.38 41.20 37.59 39.38 37.08 32.55 35.22 40.38 44.22 41.34 43.39 43.32 41.87 40.79 36.75 33.63 36.75 49.66 50.11 49.29 51.88 50.95 51.93 53.38 56.56
36.88 31.31 37.66 39.48 38.13 33.33 31.46 32.50 32.29 37.91 36.47 37.05 35.67 36.99 35.27 34.29 37.06 34.14 34.69 38.83 42.09 41.36 42.42 41.40 36.04 34.34 31.51 34.43 39.07 38.33 41.31 43.07 41.72 36.64 37.47 38.39 40.41 45.25 46.17 47.61 49.95 51.02 52.36 52.58 53.51
36.57 32.33 36.36 31.55 33.05 33.80 34.32 33.30 31.53 31.73 36.59 37.20 33.89 34.28 33.46 30.44 32.28 32.51 35.79 36.57 39.08 41.36 40.11 39.40 31.57 34.81 36.27 37.76 37.83 37.11 37.94 39.30 38.42 40.08 36.06 39.47 40.62 44.44 46.58 47.24 48.32 49.79 51.59 51.49 51.71
34.15 33.33 36.25 33.76 35.52 33.02 33.62 31.82 31.49 33.47 34.44 33.21 32.62 34.97 34.70 31.55 32.78 31.01 34.68 36.11 35.27 38.79 38.51 40.81 33.09 35.21 32.61 36.30 36.19 34.50 37.13 38.01 38.57 38.91 38.98 40.27 40.25 46.62 47.95 48.44 48.42 49.25 49.86 50.18 50.93
40.37 40.27 36.37 33.03 32.85 31.90 31.90 32.83 32.83 35.29 36.05 37.44 36.15 34.84 33.59 35.45 38.96 39.21 40.80 40.44 39.43 37.55 37.03 36.51 34.60 33.17 28.98 35.59 35.19 31.27 35.55 36.64 37.49 39.01 38.79 35.58 41.13 45.76 45.97 46.93 48.20 49.02 50.41 50.61 51.49

GFSSW_sfc_wetblb_099.txt.gz
Wetbulb
52.96 53.04 53.11 53.20 53.03 52.98 52.83 52.99 53.05 52.75 53.05 53.14 53.09 53.37 54.16 54.90 54.09 50.35 46.33 52.06 54.55 60.74 59.56 55.14 54.51 54.04 52.24 48.47 49.03 46.26 38.70 38.38 40.24 42.77 45.45 49.25 46.28 49.69 49.62 47.79 49.08 51.16 51.77 56.13 64.10
52.25 52.43 52.62 52.72 52.46 52.33 52.41 52.50 52.61 52.18 52.15 52.42 52.60 53.34 54.11 54.40 50.43 47.58 53.80 60.38 61.32 61.51 52.93 51.56 50.83 52.31 47.27 45.62 46.09 44.43 37.75 41.45 46.66 47.73 46.73 49.09 46.05 48.12 45.67 45.44 47.88 50.44 56.35 62.53 62.96
51.85 51.78 51.96 51.91 52.07 52.09 52.11 52.46 52.23 51.75 51.72 52.22 52.36 53.15 53.54 53.52 47.11 50.42 60.69 59.89 60.71 60.62 51.87 50.07 50.63 51.22 46.85 47.09 45.99 43.74 41.91 46.11 47.74 49.20 49.14 47.38 46.12 47.62 45.75 43.79 48.38 48.42 51.10 54.81 59.70
51.77 51.55 51.57 51.65 51.48 51.59 52.34 52.13 51.42 51.39 51.54 51.48 51.78 52.93 53.81 51.32 37.81 52.78 61.13 61.53 61.06 56.72 53.71 50.67 48.21 45.37 45.85 44.52 46.98 42.96 46.66 47.65 48.15 49.66 48.35 46.37 47.74 47.50 46.08 46.96 50.17 50.25 52.18 54.66 55.31
53.09 52.58 51.71 51.56 51.37 51.49 51.82 51.69 51.65 51.51 51.30 51.35 51.51 52.90 50.74 44.79 45.37 54.91 61.40 61.64 59.35 56.23 52.47 50.39 48.74 47.60 44.84 46.67 46.73 45.47 46.72 48.49 49.21 48.59 47.40 48.47 47.30 47.76 46.90 48.79 50.57 51.30 51.58 54.73 55.15
53.05 52.94 52.71 51.95 51.29 51.35 51.61 51.25 51.02 50.93 51.56 50.99 51.39 53.03 48.49 39.17 50.73 51.47 54.65 55.66 54.31 53.05 51.88 51.65 50.19 51.05 48.25 47.45 45.37 47.78 47.78 47.77 47.33 46.98 47.30 47.60 47.65 46.11 49.13 49.74 50.41 51.83 50.18 53.54 55.68
52.90 52.69 52.63 52.53 52.09 51.92 51.54 51.02 50.47 50.53 50.95 50.84 51.58 51.83 46.25 42.10 49.01 49.59 50.07 50.14 50.62 49.86 47.32 50.94 52.48 49.46 48.75 46.48 49.98 48.64 44.53 47.01 47.54 46.57 46.51 47.68 45.04 45.60 49.53 51.31 50.85 49.95 51.02 54.03 55.30
51.15 52.19 52.17 52.09 51.90 51.52 51.00 50.30 50.06 50.51 50.89 50.79 53.12 49.27 41.84 51.50 49.83 51.10 51.20 48.40 49.56 49.62 49.09 51.34 51.27 49.85 48.23 49.42 48.20 44.43 43.21 38.24 44.73 46.98 48.57 46.56 41.34 48.46 51.26 50.18 49.17 50.19 51.70 53.15 55.68
51.90 51.63 51.77 51.74 51.55 50.79 50.36 49.68 49.68 50.51 51.35 52.63 48.91 46.22 42.30 54.77 49.62 51.92 52.10 47.96 47.66 47.69 48.63 50.87 49.40 45.85 47.04 41.88 39.08 40.04 36.30 38.55 42.02 47.45 47.03 45.05 42.98 48.11 50.16 49.58 49.67 50.20 50.27 51.71 54.26
50.63 51.42 51.76 51.42 50.96 50.08 49.54 49.35 48.81 49.61 49.77 50.80 50.80 43.06 47.92 46.12 49.01 49.34 49.83 50.82 49.62 47.69 45.27 44.43 41.34 38.82 40.17 37.60 32.94 35.16 37.30 40.39 40.20 45.15 46.95 44.00 43.78 46.60 48.28 47.49 49.17 49.61 49.22 50.35 53.79
49.53 50.00 51.23 51.19 50.75 49.96 47.31 41.80 42.09 41.30 45.36 44.47 45.50 43.73 46.36 51.36 53.05 46.51 49.12 48.54 47.23 48.08 38.25 41.41 35.21 32.62 35.33 40.35 41.76 41.40 40.27 39.34 42.34 45.84 45.75 43.39 44.12 46.57 46.99 45.11 45.81 48.66 48.39 48.99 53.47
49.67 49.57 50.32 50.88 50.46 49.82 45.50 38.15 43.60 43.00 36.55 43.89 44.05 43.41 46.83 49.85 43.36 45.54 47.04 41.45 43.21 41.72 43.95 38.64 34.51 38.89 40.16 40.71 41.10 40.74 38.79 38.20 42.05 45.11 45.60 44.00 42.95 46.26 47.30 46.80 46.92 46.48 46.24 48.89 56.01
49.40 49.51 49.64 50.16 50.02 44.88 41.16 42.86 48.90 46.69 34.83 38.41 42.34 41.78 43.03 44.01 39.90 40.26 44.04 42.53 40.31 41.06 42.57 38.86 41.20 42.86 40.20 38.97 38.41 38.65 38.23 38.66 39.37 43.79 46.45 43.46 41.23 42.99 47.66 47.88 48.57 49.91 48.92 50.86 55.89
48.96 49.40 49.02 49.09 43.70 41.42 39.25 47.39 49.31 46.38 30.65 34.25 39.17 41.80 43.31 44.27 41.58 46.47 45.78 42.77 40.63 37.82 41.26 41.44 45.42 42.93 39.16 38.28 39.91 35.69 41.14 41.89 42.13 41.27 35.07 44.23 33.04 41.11 45.21 46.89 48.18 49.25 49.91 48.48 55.69
48.25 48.91 48.78 48.13 42.05 38.30 42.95 47.02 48.28 43.10 17.59 37.52 40.51 48.42 45.24 42.56 44.87 44.70 47.82 43.99 38.09 38.58 40.39 38.18 40.77 40.56 39.92 41.05 41.66 38.97 42.45 42.04 42.04 39.99 37.12 38.57 36.07 37.46 44.92 44.92 47.09 46.26 47.68 49.04 56.22
47.27 47.43 48.29 43.89 42.36 43.25 45.91 45.06 42.58 28.27 18.40 34.53 43.61 41.88 41.46 42.83 43.30 45.18 44.20 45.61 44.41 39.54 39.56 38.66 42.69 41.01 40.68 43.57 43.69 44.86 42.09 41.80 41.85 38.18 31.94 37.99 37.09 34.18 40.34 44.89 47.90 49.35 49.64 50.03 55.81
46.65 46.73 45.45 45.01 38.21 45.56 46.74 40.38 25.90 20.57 34.95 32.62 35.62 41.88 40.63 40.18 41.26 42.24 41.28 37.80 34.45 31.07 31.70 36.31 37.02 40.30 42.62 38.48 42.22 41.38 37.39 30.08 29.65 27.41 27.73 39.95 37.35 38.16 44.45 47.89 48.92 49.34 49.82 50.42 56.06
46.03 46.30 44.71 44.77 45.15 44.51 42.76 32.01 20.78 28.90 29.13 36.53 37.44 38.27 37.17 39.98 40.54 40.96 38.85 36.05 39.68 37.88 32.80 29.59 28.46 36.84 41.31 38.97 38.24 39.37 38.13 31.09 25.06 26.62 30.26 40.69 35.15 38.97 48.09 50.12 50.94 51.50 50.62 54.34 55.30
45.21 40.04 40.24 42.58 45.65 42.98 36.12 22.52 22.98 28.98 34.29 33.48 34.59 33.27 34.32 38.30 37.71 39.45 37.82 37.00 39.78 40.42 33.59 32.95 33.33 43.10 41.41 41.48 42.10 39.52 35.73 40.75 36.11 37.11 31.80 35.76 39.13 44.66 48.38 49.05 50.58 49.42 50.75 52.53 54.97
37.89 37.60 38.08 44.30 45.68 42.04 32.67 25.03 28.53 34.91 35.82 34.03 28.22 34.21 30.42 33.01 35.26 34.29 35.98 40.82 39.52 42.32 42.09 39.59 33.38 42.00 43.51 41.76 41.70 41.51 43.51 35.27 36.72 27.47 25.01 32.97 36.06 37.72 43.23 45.93 49.19 49.80 49.21 51.95 55.46
37.06 34.09 39.28 44.35 44.24 35.92 25.01 25.36 30.55 35.76 37.04 33.43 31.20 30.27 31.84 32.58 33.64 34.60 34.75 37.89 38.79 39.13 39.55 39.11 36.47 37.24 41.28 37.31 37.25 38.00 37.63 38.43 38.91 35.31 27.44 26.05 32.74 44.27 45.12 46.61 46.32 48.63 49.83 50.75 53.08
37.29 27.44 41.98 45.66 33.04 32.10 26.07 30.34 34.97 33.57 36.95 35.49 34.96 32.80 31.19 32.73 32.60 32.95 32.13 36.62 40.38 40.12 35.63 37.48 35.59 33.57 37.15 41.31 42.97 41.77 38.53 38.04 31.77 30.14 33.59 33.00 33.29 47.41 46.85 48.28 47.91 48.84 50.14 50.45 50.87
33.94 31.08 41.07 38.27 27.27 25.10 30.88 31.87 33.19 32.42 33.67 34.10 33.93 34.61 34.54 31.32 28.27 34.31 33.92 41.48 41.48 39.12 35.14 36.06 33.04 29.34 33.89 36.79 40.63 39.82 41.67 42.42 38.86 36.60 32.35 27.28 31.96 47.10 47.33 47.16 48.64 48.74 50.02 50.30 51.10
35.00 27.55 31.91 35.40 36.27 31.52 29.76 30.66 30.46 36.50 34.67 35.64 34.43 34.78 31.98 30.23 33.74 31.70 33.80 39.16 40.73 40.78 42.18 39.91 33.35 30.01 26.25 32.04 36.12 33.29 36.66 40.64 37.40 31.25 32.27 32.59 36.34 43.35 44.95 45.81 47.20 47.28 48.68 49.22 50.05
34.64 27.11 33.55 27.81 30.52 31.25 31.71 31.33 29.47 29.88 35.51 35.54 32.73 31.94 30.21 26.52 28.95 29.25 32.94 34.55 37.36 40.99 38.48 36.21 29.82 32.96 34.25 35.35 34.95 34.17 34.08 36.67 34.21 37.01 34.57 37.13 37.68 42.19 44.61 44.96 46.16 46.54 49.89 50.65 51.32
31.06 27.53 31.53 29.76 32.18 31.02 31.72 29.76 29.40 31.23 32.29 31.49 30.45 32.95 32.02 27.96 29.43 28.08 31.57 31.56 33.09 37.02 34.85 36.83 30.74 33.76 31.32 35.60 35.65 32.65 34.91 35.20 35.78 36.25 35.69 36.79 36.13 42.21 44.84 46.01 44.89 49.21 49.67 50.03 51.22
36.77 36.41 32.87 28.87 27.59 25.63 26.99 30.38 31.18 32.70 34.44 35.98 34.80 32.72 30.37 33.55 36.17 36.45 37.24 36.34 36.31 34.23 33.50 34.34 31.63 30.13 27.64 34.10 33.12 27.19 33.15 35.13 35.71 36.94 35.58 31.75 37.38 41.76 41.04 45.45 46.53 46.42 47.42 48.03 49.85

GFSSW_sfc_wetblb_102.txt.gz
Wetbulb
52.43 52.59 52.54 52.58 52.70 52.55 52.74 52.66 52.44 52.25 52.46 52.72 52.73 52.73 53.31 54.28 53.65 50.57 43.92 49.55 51.57 59.16 59.63 54.36 53.52 51.89 50.28 46.22 46.47 44.57 36.86 33.33 36.12 39.15 42.37 47.72 45.28 47.76 47.90 45.91 47.50 49.33 50.72 52.20 62.51
52.31 52.22 52.26 52.23 52.51 52.33 51.95 51.85 52.23 51.73 52.00 52.17 52.31 52.42 53.46 53.86 49.84 46.85 52.63 58.40 59.20 61.02 52.21 50.50 49.70 50.81 45.71 43.84 45.59 41.54 35.57 38.39 42.96 44.12 44.60 47.76 44.15 46.70 44.22 45.23 46.16 48.62 59.42 61.76 61.99
52.27 52.37 52.09 51.92 51.99 52.17 52.16 52.19 52.12 51.40 52.19 52.16 52.45 52.96 53.00 53.09 46.27 47.24 60.03 58.78 62.36 61.29 51.82 50.74 49.88 50.20 45.00 44.31 43.82 40.65 40.53 43.92 45.30 46.23 46.69 47.04 44.68 45.72 43.61 42.88 46.90 46.79 56.07 60.12 60.66
52.57 52.45 52.13 52.18 52.01 51.93 52.33 51.89 51.75 51.06 51.40 51.56 51.55 52.13 53.45 50.68 33.88 49.52 61.13 60.86 60.84 56.01 50.73 50.24 46.82 42.50 42.03 42.89 45.36 40.79 44.48 44.85 45.99 47.54 46.38 45.68 47.75 45.67 45.18 46.56 49.30 49.26 51.00 59.61 59.17
53.20 52.77 52.24 52.08 51.70 51.76 52.03 51.82 51.82 51.56 51.04 50.98 51.35 51.80 50.06 43.13 43.15 51.13 60.42 61.20 59.47 55.24 51.49 50.08 45.57 44.06 41.62 43.66 44.97 43.19 45.44 46.98 47.27 47.18 47.02 47.32 44.89 45.28 45.80 48.32 49.60 49.91 50.28 55.92 57.49
52.59 52.53 52.43 51.48 51.55 51.58 52.01 51.76 51.34 50.98 50.99 50.26 50.97 51.49 47.32 37.24 47.67 49.93 49.66 51.42 55.78 53.37 51.66 50.75 48.16 48.98 46.26 45.41 43.85 46.59 46.06 46.20 46.11 45.59 45.43 45.68 45.70 43.74 47.58 48.24 49.18 50.32 49.37 49.70 53.32
51.60 51.80 51.80 51.47 51.95 51.91 51.84 51.51 50.56 50.45 50.65 50.09 50.61 49.60 45.19 40.57 45.58 46.70 48.20 48.03 48.71 49.54 46.56 48.73 51.24 47.44 47.59 44.43 47.93 46.56 42.79 43.93 44.35 44.70 44.54 45.61 42.95 43.15 47.82 49.15 48.94 49.56 49.06 48.52 52.82
50.49 50.94 51.45 51.93 52.22 51.93 51.13 50.56 50.11 50.28 50.56 50.23 50.69 49.24 40.30 50.25 48.45 48.59 48.03 48.30 49.30 48.24 47.42 47.99 48.13 46.41 46.02 47.64 46.53 43.15 41.24 36.36 43.24 44.45 45.94 43.34 39.26 46.26 49.74 47.90 47.66 49.07 49.83 48.83 52.55
50.41 50.58 50.82 51.18 51.57 51.18 50.68 50.12 49.92 50.26 50.23 50.45 46.95 45.40 39.02 53.15 49.36 50.92 50.34 47.57 47.92 46.94 45.58 48.58 46.75 44.24 44.81 40.53 37.65 38.18 36.23 36.97 39.90 45.02 43.98 42.90 40.66 45.53 47.80 48.16 48.07 48.76 48.99 49.57 51.64
49.85 49.88 50.26 50.12 50.85 50.45 49.88 49.36 49.13 49.92 48.92 49.50 49.50 42.06 44.90 43.97 48.74 50.03 48.76 50.35 46.78 47.57 43.09 42.45 40.59 37.20 38.06 37.32 32.31 34.86 35.27 37.75 36.82 41.58 43.66 41.31 41.98 44.65 46.23 46.13 46.79 46.88 47.00 47.56 52.75
49.55 49.41 50.03 49.97 50.09 50.27 47.38 40.20 40.05 39.30 41.78 40.77 43.02 42.61 44.60 49.09 52.52 48.05 47.83 45.06 44.45 43.36 38.50 39.33 33.38 31.73 34.42 39.70 41.50 40.43 38.27 36.70 38.09 43.40 41.06 40.04 40.32 42.17 45.05 45.07 43.90 44.97 46.33 47.16 51.30
49.09 48.89 49.22 49.97 49.71 49.82 42.76 37.58 40.64 42.96 34.96 42.79 42.76 42.62 45.16 46.99 41.60 44.91 47.40 39.99 39.76 36.18 40.65 36.64 32.47 37.41 38.89 38.48 38.36 39.30 37.21 36.72 40.57 42.58 41.83 40.37 40.74 42.64 45.31 45.12 46.50 46.32 45.69 47.01 53.69
48.22 48.25 48.68 49.20 48.87 42.80 39.09 39.42 45.91 45.59 35.35 37.47 40.47 39.83 41.07 43.06 38.54 39.57 42.63 39.28 36.75 35.38 38.93 37.33 38.78 40.58 38.18 36.52 35.79 36.26 35.93 36.51 36.70 40.69 41.90 39.79 39.27 41.74 45.15 46.19 48.69 49.91 46.94 49.81 54.47
47.97 48.10 48.60 48.71 41.67 40.38 36.75 43.56 46.13 45.47 28.08 31.25 36.71 38.82 41.83 42.15 37.57 42.74 43.20 39.87 37.24 34.45 36.32 39.40 44.01 42.25 38.77 35.69 36.66 32.15 38.35 38.28 37.85 36.24 31.45 41.18 31.94 39.28 43.19 44.93 47.08 48.81 49.73 48.64 54.16
47.39 47.46 47.89 47.70 39.64 37.80 40.25 44.55 45.21 43.25 14.76 34.25 37.35 43.76 42.02 38.87 41.25 42.70 42.86 39.51 35.20 36.50 37.05 35.10 39.45 40.06 38.96 39.16 38.98 35.23 39.58 38.57 38.05 35.32 33.13 35.28 32.79 35.20 42.10 41.70 44.59 47.67 49.56 47.23 54.27
46.91 46.99 47.34 43.03 39.31 41.32 43.36 42.97 41.92 26.42 15.20 30.38 40.33 39.26 36.90 38.25 41.01 43.21 41.21 42.10 41.10 36.38 37.07 36.67 40.64 39.07 40.11 42.44 41.82 41.20 38.08 38.13 37.73 35.08 29.62 35.29 34.83 33.18 36.91 42.26 44.67 48.38 50.25 47.85 53.50
46.22 46.38 45.35 44.72 35.73 41.32 42.93 39.16 24.86 18.18 32.20 29.57 32.76 35.93 36.54 37.09 37.93 39.60 38.48 35.69 32.49 28.65 29.75 34.25 36.00 39.32 39.99 35.80 38.85 38.40 34.11 27.47 26.24 25.91 26.22 36.98 34.51 36.91 42.37 45.98 46.54 47.54 49.51 50.37 52.32
46.35 46.15 43.75 42.98 41.87 41.85 40.06 32.18 19.27 24.96 26.05 33.45 33.77 34.51 33.02 38.61 38.69 38.58 36.71 32.57 36.20 34.34 30.11 27.67 26.01 35.19 38.89 36.65 34.71 35.82 34.80 27.25 23.54 24.36 27.89 37.49 31.21 37.25 46.12 48.77 49.80 50.16 49.60 51.48 53.33
45.78 38.97 37.61 40.06 42.29 41.66 35.30 21.97 22.76 26.95 31.92 29.87 32.18 31.06 30.91 33.44 35.04 37.09 36.43 35.35 36.73 37.56 31.12 30.50 29.25 40.20 38.78 39.70 39.01 35.70 33.71 38.26 31.84 33.62 28.39 32.28 36.72 42.68 46.95 47.67 48.99 49.37 48.56 51.22 52.95
40.23 37.76 35.78 40.37 42.24 38.37 31.26 24.54 26.90 32.54 32.41 32.16 26.13 31.07 26.39 28.76 31.47 34.02 33.01 37.87 36.00 38.49 39.33 36.96 31.44 40.09 41.88 41.68 39.20 38.44 40.78 32.68 32.26 24.82 23.38 29.54 31.82 34.60 42.03 45.02 46.89 47.81 47.39 50.85 53.79
34.66 31.19 35.91 41.52 41.34 33.64 24.77 24.52 29.20 33.99 34.11 30.45 28.10 27.60 29.69 28.91 30.10 32.85 31.57 36.72 38.82 37.35 39.09 36.24 35.17 34.50 39.57 35.71 33.17 34.47 35.08 35.62 36.16 32.25 26.70 23.97 28.93 42.98 43.16 45.36 45.90 47.46 49.70 48.98 50.23
36.14 26.98 37.36 42.76 31.42 30.39 28.38 30.02 34.21 32.12 34.75 32.06 33.07 31.62 30.55 30.65 29.54 31.98 31.35 33.26 40.03 38.56 34.52 36.62 33.59 30.39 36.64 40.48 41.74 39.61 36.77 37.86 30.31 28.97 31.82 30.18 31.33 45.85 44.44 47.16 48.33 47.66 50.13 50.57 49.70
32.50 29.42 37.61 37.27 21.47 27.53 29.77 30.85 32.94 31.93 32.55 31.44 31.25 32.88 33.97 30.76 26.99 31.82 33.76 38.38 40.15 37.36 33.98 35.19 31.87 26.73 33.15 37.19 39.25 35.60 37.88 40.66 37.93 34.98 30.45 27.92 30.25 45.82 46.56 45.48 46.51 47.24 49.18 49.89 51.42
32.71 25.29 28.37 36.61 35.03 30.00 29.70 28.60 28.98 35.24 33.39 34.70 33.20 33.83 30.18 28.22 32.22 29.29 31.88 36.55 38.65 38.31 38.56 37.84 32.67 27.83 25.00 31.92 35.24 31.04 33.63 37.66 36.73 29.16 30.71 32.06 35.01 42.10 44.19 44.71 46.17 47.10 48.55 48.81 51.05
33.01 26.71 28.74 18.27 24.83 29.41 31.32 29.90 28.51 28.67 34.07 34.71 31.26 31.37 28.98 24.39 26.16 25.85 30.60 32.49 35.56 39.53 39.41 35.79 30.02 31.87 32.37 34.46 35.43 33.04 33.09 33.30 34.03 33.75 29.87 34.91 37.04 41.28 44.18 46.12 46.87 47.56 49.57 48.90 50.77
29.65 30.30 30.09 27.96 30.41 27.76 28.47 28.27 28.96 29.57 31.25 30.64 29.60 31.81 31.32 27.21 28.65 27.63 31.26 31.26 30.75 36.23 34.95 37.32 30.84 31.98 28.53 33.67 34.50 32.92 34.47 34.41 35.05 34.76 34.14 34.67 33.99 41.82 45.92 46.40 45.56 46.59 47.51 47.80 49.24
36.60 34.97 32.15 27.40 26.12 22.69 25.19 28.39 28.95 31.22 32.99 34.41 33.38 31.50 29.72 32.52 34.93 35.31 35.41 34.82 34.00 33.42 31.89 33.51 31.22 28.66 25.89 32.23 32.67 26.12 31.69 34.04 35.04 36.70 36.08 31.33 38.70 43.17 44.13 44.12 44.41 44.02 45.89 47.54 48.49

GFSSW_sfc_wetblb_105.txt.gz
Wetbulb
52.44 52.54 52.56 52.50 52.35 52.44 52.33 51.98 52.36 51.67 52.00 52.22 52.15 52.45 52.89 53.74 53.23 49.54 43.93 48.24 50.62 58.11 58.95 53.88 52.18 50.90 48.65 45.14 44.64 42.36 35.98 32.78 35.40 37.14 40.39 45.24 44.42 46.76 47.13 44.57 46.14 47.32 51.53 53.42 60.14
52.55 52.67 52.59 52.44 52.45 52.61 52.27 51.91 52.02 51.52 51.73 51.76 51.77 52.65 53.12 53.28 49.21 45.88 51.67 56.62 57.52 60.01 50.89 49.80 48.47 49.03 44.52 43.86 43.65 41.11 34.03 37.48 40.72 41.97 41.69 45.18 42.29 46.42 44.05 44.40 44.57 46.36 57.75 59.33 61.12
52.52 52.39 52.52 52.34 52.15 52.30 52.61 52.57 52.14 51.40 51.43 51.46 51.56 52.50 52.68 52.26 44.68 42.73 59.35 59.75 59.29 60.33 51.04 50.47 49.62 49.09 43.77 43.20 41.89 39.79 38.64 42.95 42.74 44.33 44.04 44.25 43.13 45.08 42.70 43.25 45.24 46.18 50.40 58.18 59.06
52.25 52.11 51.85 51.57 51.46 51.62 52.32 52.28 51.97 51.29 51.18 50.71 50.88 51.41 52.60 49.62 32.78 45.09 60.73 59.90 60.68 58.26 50.89 47.01 44.56 41.91 40.51 40.84 43.88 38.98 41.74 45.34 44.40 45.59 43.66 43.20 44.66 44.07 43.47 46.65 49.05 48.40 52.57 58.57 58.25
51.26 51.29 51.16 51.25 51.14 51.48 52.03 52.03 52.05 51.40 50.84 50.62 50.55 50.99 48.60 40.93 39.68 47.52 58.14 59.08 57.01 52.41 47.95 47.72 43.64 41.59 38.83 40.45 42.73 41.33 43.01 45.35 45.91 45.62 44.59 45.53 43.61 44.42 44.74 46.97 48.14 48.51 48.82 57.69 58.59
50.84 50.62 50.58 50.64 50.37 50.86 51.86 52.01 51.65 51.44 51.29 50.38 50.40 50.45 46.01 35.15 45.12 47.03 46.45 46.82 52.40 52.06 50.05 49.12 46.60 45.86 42.60 42.18 41.78 44.60 44.82 45.41 45.85 45.86 45.28 44.25 44.77 42.53 46.32 46.36 48.07 49.03 47.96 53.49 58.20
50.62 50.72 50.51 50.19 49.73 49.90 51.50 51.63 51.17 51.09 51.29 50.62 50.54 47.51 43.11 38.94 44.85 47.20 48.15 45.95 45.44 50.66 48.53 49.06 50.33 46.79 45.73 43.26 46.44 44.93 41.08 42.89 42.65 43.73 43.28 44.12 40.24 41.04 46.72 47.41 47.28 47.73 48.15 47.37 53.24
49.81 50.43 50.75 50.41 50.18 50.44 50.82 50.80 50.57 50.85 51.42 50.87 49.80 46.97 38.32 48.84 47.69 48.20 46.39 46.18 47.22 47.44 46.83 47.16 46.78 44.26 43.21 45.24 44.50 41.85 40.53 35.78 42.26 43.89 44.66 42.98 39.43 44.48 47.73 45.89 46.01 47.19 47.74 48.25 46.51
49.66 50.07 50.52 50.31 50.17 50.05 49.80 50.20 50.01 50.94 51.74 49.24 45.94 44.28 36.35 50.70 47.38 50.48 48.52 45.73 46.85 46.45 45.13 47.67 44.28 41.45 41.70 38.22 35.30 37.13 33.37 35.45 39.08 44.49 42.86 41.85 38.29 42.99 45.61 45.81 45.39 45.84 46.73 47.51 45.60
49.51 49.64 49.81 50.04 50.03 49.61 49.42 49.06 49.34 49.71 48.45 48.60 48.91 40.30 42.67 41.93 48.19 50.29 48.24 49.15 45.61 44.28 43.44 40.05 38.50 35.39 35.30 34.97 29.96 32.83 33.92 36.65 36.70 40.81 41.95 39.85 40.35 42.18 44.53 43.42 44.60 44.33 44.89 44.48 45.66
48.78 48.99 48.76 49.54 49.27 49.14 46.54 39.86 38.29 37.94 40.16 36.53 38.53 41.12 42.41 47.17 49.16 47.59 48.48 46.46 43.18 40.90 36.53 37.95 31.57 30.58 34.52 37.35 38.92 38.07 36.31 34.96 37.16 42.44 40.26 38.18 38.84 40.66 42.07 43.22 42.86 44.56 44.25 44.66 45.76
48.41 48.39 48.35 48.50 48.64 48.92 40.88 36.16 39.01 40.48 33.88 40.99 41.03 40.84 43.25 44.41 38.29 41.66 46.34 40.43 38.03 33.99 37.49 36.29 31.72 35.33 36.80 36.67 37.17 36.91 35.83 35.34 38.19 41.17 40.44 39.53 39.24 42.12 41.66 43.34 44.50 44.71 45.14 44.41 49.81
48.04 48.16 48.20 47.90 48.20 42.29 37.71 38.19 43.28 44.23 34.60 36.74 40.24 39.23 40.09 41.82 36.92 37.50 42.37 39.35 35.99 33.47 34.82 33.43 37.26 41.03 36.69 34.84 33.75 33.33 33.49 34.01 35.81 39.74 39.18 36.19 35.94 38.66 42.36 44.06 45.83 46.92 47.22 45.52 50.22
47.41 47.44 47.88 48.20 39.83 38.85 35.41 42.39 44.13 44.60 28.25 30.29 34.93 38.25 39.53 40.45 35.10 40.65 42.20 38.74 34.56 32.99 34.19 34.88 39.65 39.20 35.56 33.89 34.23 30.22 35.64 36.26 35.45 34.07 29.05 37.09 28.74 36.12 40.81 43.11 44.60 46.29 46.21 45.38 50.25
47.19 46.90 46.74 46.88 40.47 36.37 39.26 42.94 43.79 42.49 13.51 32.51 35.24 41.94 39.66 36.31 37.29 39.35 40.18 38.19 33.23 33.23 34.40 31.98 37.89 37.02 36.16 37.77 36.30 33.00 37.65 35.22 34.62 31.66 28.74 32.43 30.40 32.76 39.28 39.89 42.67 45.80 45.53 45.85 50.42
46.95 46.57 46.41 42.27 38.13 39.68 42.04 41.50 39.18 25.29 15.18 28.15 35.56 34.94 35.19 36.81 37.30 39.95 37.15 38.96 37.42 32.75 34.71 34.22 38.23 39.47 39.08 41.58 40.46 39.08 35.48 34.58 33.53 31.25 24.48 31.10 31.39 30.30 34.18 39.94 42.41 45.45 46.56 47.06 48.57
46.42 46.48 44.74 43.63 35.62 39.37 41.42 36.16 22.51 16.42 30.03 26.80 28.75 32.14 33.13 33.51 36.07 35.93 34.98 32.71 29.56 26.07 26.72 32.12 33.60 35.81 38.51 33.73 36.55 36.20 31.90 24.72 23.92 24.14 24.01 34.19 32.70 35.34 39.62 43.07 43.98 46.33 47.77 48.37 47.61
46.04 45.88 42.76 42.33 39.90 40.37 37.58 30.67 13.31 23.78 24.53 30.90 30.38 31.08 30.63 33.13 33.50 34.97 34.32 30.53 34.44 32.48 27.46 25.16 24.41 33.36 37.04 35.44 32.10 32.70 32.42 25.98 22.23 23.00 26.07 35.36 29.32 34.46 42.51 45.85 47.57 49.09 48.68 49.30 50.11
45.41 37.65 35.82 38.08 39.82 39.72 33.48 12.94 19.62 25.21 30.14 28.03 29.75 27.67 27.59 31.63 31.27 32.31 34.11 33.37 34.90 34.94 28.57 26.84 27.27 35.98 36.79 38.28 37.50 34.06 29.72 36.39 30.09 30.20 27.07 30.22 34.66 40.01 43.66 45.69 46.66 47.11 48.25 47.96 52.72
39.96 34.32 33.67 38.91 41.16 37.24 29.88 23.11 24.88 31.57 31.16 30.83 23.20 27.95 22.86 27.51 27.97 28.42 32.84 34.63 35.50 38.26 37.91 33.76 28.48 37.20 39.55 37.64 36.85 36.20 38.06 29.98 30.37 24.32 23.56 27.13 29.72 31.74 38.53 43.14 45.77 46.12 46.96 48.34 49.42
33.78 29.34 34.18 39.82 39.89 34.09 19.40 24.06 28.23 33.25 33.35 28.72 26.53 25.51 26.77 27.16 28.31 27.42 31.96 34.07 37.35 36.42 37.75 33.40 31.48 32.89 37.75 34.53 32.40 31.60 32.19 33.74 34.62 29.89 26.24 23.68 27.03 37.84 39.39 43.23 43.90 47.09 47.70 48.80 48.85
33.93 18.77 35.08 39.30 26.54 29.23 25.32 29.57 33.29 31.46 34.23 32.02 31.26 30.25 29.03 29.50 27.32 27.71 31.79 32.82 38.85 38.08 33.42 33.72 30.89 26.65 32.98 38.98 38.93 36.38 33.52 34.53 28.41 27.90 29.28 27.49 27.66 41.92 42.14 44.56 45.54 47.52 49.00 49.22 49.23
30.43 30.94 35.91 36.54 22.42 21.43 30.43 30.26 32.03 30.58 31.47 31.07 30.12 32.43 32.31 29.62 26.07 29.31 31.08 37.67 38.33 36.64 33.56 34.19 29.70 24.70 29.18 33.98 37.51 33.51 34.79 37.70 35.68 34.12 29.81 25.86 27.93 43.78 43.76 43.47 46.11 46.85 49.26 49.22 50.02
30.99 23.61 25.76 36.55 34.11 27.04 26.54 27.40 27.90 34.08 32.26 33.37 32.28 33.47 30.56 28.08 31.84 28.30 29.63 34.93 36.88 36.49 37.79 36.94 31.29 27.99 23.70 27.07 35.41 31.55 32.37 36.33 35.05 28.68 29.11 28.91 33.11 40.72 43.57 44.12 45.93 47.10 47.81 48.78 49.85
31.65 27.12 28.49 16.68 24.78 27.95 29.43 28.31 26.87 27.24 33.03 33.93 30.20 30.68 29.09 25.17 26.53 27.55 31.47 32.68 35.77 39.06 36.19 33.83 27.93 30.37 31.67 33.86 34.71 33.85 31.99 32.68 33.43 32.83 28.86 32.02 33.09 39.01 42.67 42.70 45.67 47.71 47.99 48.56 48.62
28.21 26.83 33.03 27.56 28.40 26.54 26.45 24.66 26.41 27.48 29.93 29.78 29.25 30.67 30.16 26.88 28.70 27.16 30.24 29.87 29.43 33.88 32.72 36.63 29.13 30.99 28.86 33.25 33.77 32.54 33.56 34.40 34.85 35.70 35.37 36.06 33.28 41.68 44.09 45.10 44.88 46.26 48.32 47.59 47.95
34.74 35.94 31.81 26.17 25.79 22.12 24.50 27.55 26.85 29.41 32.19 33.49 31.73 29.67 28.87 30.52 33.85 34.23 34.00 33.84 32.75 31.03 29.98 32.19 31.28 28.67 23.68 31.08 30.04 26.55 31.72 33.58 34.19 36.34 36.99 32.72 37.38 42.59 41.94 42.85 43.81 44.91 46.67 46.73 47.35

GFSSW_sfc_wetblb_108.txt.gz
Wetbulb
52.55 52.57 52.55 52.54 52.40 52.20 52.24 51.96 52.36 51.92 52.25 52.14 52.10 51.83 52.25 53.43 52.82 48.67 42.50 47.20 50.06 57.68 57.93 53.57 51.43 49.27 47.62 44.52 42.93 40.45 34.34 31.17 34.31 35.85 39.19 43.26 42.07 45.27 45.46 43.39 44.55 46.20 49.28 53.40 58.34
52.65 52.61 52.49 52.00 51.50 51.55 51.54 51.55 51.87 51.62 51.79 51.79 51.59 51.65 52.35 53.01 48.06 44.61 50.91 56.79 57.57 60.02 51.49 49.42 47.19 48.03 43.28 42.89 42.44 39.44 33.09 35.14 39.38 40.37 40.32 42.68 40.30 43.84 43.00 43.33 43.80 45.41 52.48 57.95 59.34
51.77 51.67 51.57 51.42 51.06 50.97 50.96 51.66 51.62 51.60 51.68 51.55 51.24 51.59 52.06 51.38 43.06 40.73 60.04 59.36 58.62 58.36 50.30 49.53 49.65 48.22 42.42 41.26 41.27 38.76 36.75 39.43 41.38 42.47 41.85 42.00 41.60 42.80 40.90 41.78 44.53 45.03 46.57 56.16 58.32
50.66 50.79 50.75 50.83 50.85 50.30 50.93 51.38 51.11 51.30 51.46 51.27 51.22 50.97 51.48 48.03 32.26 44.96 58.34 59.90 59.06 57.79 51.28 46.03 44.85 42.93 41.04 39.72 41.98 36.97 39.99 43.33 42.13 43.97 41.74 41.88 42.31 42.46 42.64 45.05 48.02 47.69 47.07 55.67 56.92
50.63 50.82 50.99 50.80 50.32 49.91 50.35 50.64 50.75 50.40 50.93 51.10 51.25 50.85 46.90 38.35 36.98 44.66 54.57 51.02 55.44 52.18 47.49 45.90 42.28 41.15 37.66 38.77 40.47 39.68 40.64 42.80 43.51 43.90 42.79 44.10 43.15 42.71 43.07 47.14 47.22 47.34 46.98 53.42 56.58
49.92 50.16 50.54 50.33 49.95 49.78 49.73 50.62 50.58 50.69 50.79 51.13 51.26 50.33 44.06 32.84 42.17 44.36 46.70 46.73 46.71 50.06 48.02 47.09 44.81 43.82 40.53 39.26 39.91 42.00 42.39 43.80 43.78 43.68 43.98 44.23 45.25 40.75 45.02 44.35 46.24 47.88 47.26 46.16 55.74
49.84 49.84 49.92 49.92 49.36 49.47 49.90 50.38 50.28 50.44 50.75 51.47 51.47 47.38 41.70 36.86 43.30 46.20 46.51 44.75 44.01 45.41 42.22 48.20 48.71 44.97 44.36 41.62 44.83 43.35 39.71 41.26 41.24 42.16 42.13 42.87 38.93 39.86 45.80 46.28 46.01 46.47 46.66 46.24 49.01
49.84 49.81 50.04 49.82 49.76 50.22 50.02 49.38 49.59 50.48 51.09 51.85 50.18 45.04 35.71 46.71 46.85 46.99 46.24 45.52 47.11 46.07 44.39 46.98 46.77 43.93 42.88 43.45 41.33 39.53 38.65 34.01 40.32 42.59 43.68 43.75 38.75 42.86 46.07 44.48 44.55 45.85 46.26 46.21 46.19
49.04 48.98 49.30 49.47 49.80 49.76 49.01 49.24 49.78 50.35 49.89 49.96 43.78 41.85 33.81 47.75 45.23 48.99 48.34 45.08 47.05 45.10 44.30 48.02 43.15 39.49 39.35 35.89 33.08 34.62 30.70 33.17 37.33 42.82 42.59 41.87 39.57 41.25 43.46 44.37 44.01 44.48 44.33 45.28 44.99
48.93 48.74 48.53 48.80 49.40 49.09 48.80 48.27 49.12 48.31 47.28 48.33 47.88 38.41 40.52 40.34 46.67 47.19 47.53 48.11 44.40 43.28 41.68 38.98 37.14 33.83 32.72 32.82 26.95 29.96 31.29 34.55 34.09 38.64 40.77 38.56 39.36 40.94 43.69 41.87 42.22 42.84 44.70 44.03 44.76
48.27 48.33 48.45 48.42 48.63 48.97 43.81 39.06 36.09 34.71 38.33 34.03 35.50 36.32 38.09 42.32 45.89 43.09 46.09 43.48 42.45 39.10 34.48 36.36 30.78 30.01 33.16 34.40 35.80 35.58 33.60 32.64 34.29 39.95 37.87 37.57 38.58 38.60 40.95 40.55 40.41 41.58 42.74 44.21 44.18
47.58 47.70 47.94 47.91 47.99 46.66 40.14 35.50 37.57 38.60 32.97 39.31 39.18 39.02 41.44 42.40 36.44 39.66 43.67 36.64 37.92 32.57 35.86 34.26 30.16 34.27 34.95 34.92 35.33 34.72 33.49 33.42 35.75 39.65 39.56 38.67 38.69 41.67 40.05 40.41 41.56 42.49 43.47 44.05 44.01
47.36 47.30 47.21 47.22 47.17 40.63 36.86 37.41 42.41 42.19 32.35 34.96 38.56 37.89 38.72 40.39 35.23 36.04 40.54 38.11 34.84 33.06 33.42 31.81 34.69 39.87 36.18 32.99 32.51 33.10 32.85 33.01 33.69 36.38 38.07 34.11 34.91 36.98 39.49 40.02 42.60 43.89 44.57 45.34 45.46
47.27 47.04 46.53 46.64 39.55 38.24 33.87 41.10 41.63 40.71 26.04 28.17 34.19 36.85 38.93 39.37 33.96 39.99 40.89 38.12 33.98 32.64 32.37 32.73 37.44 36.41 34.24 33.46 33.56 29.52 34.42 35.09 33.78 31.53 25.90 33.84 25.98 31.65 36.80 39.49 42.33 43.88 44.11 44.49 44.69
46.40 46.66 46.55 45.58 37.63 34.83 37.89 41.29 41.03 38.67 10.21 30.93 33.59 40.37 38.25 34.69 35.87 36.65 38.95 36.29 31.44 30.29 32.57 31.89 32.54 32.93 32.84 34.81 34.84 32.08 35.89 33.65 32.65 29.62 26.34 28.37 25.57 28.77 36.10 37.33 41.18 43.27 44.15 45.63 44.50
45.83 46.22 46.03 41.63 37.82 38.10 40.32 40.14 36.68 21.62 11.67 26.58 33.55 31.70 31.15 33.51 36.15 38.39 36.22 37.68 35.68 30.85 31.17 32.13 35.75 36.21 35.32 37.46 37.36 36.88 33.91 33.03 31.18 28.78 22.43 28.06 27.50 25.54 30.84 36.23 41.70 44.93 46.77 48.54 48.28
45.88 45.98 43.56 42.94 33.96 37.99 39.20 33.96 18.08 13.59 28.15 24.84 27.17 30.02 29.27 29.68 33.30 34.24 32.80 30.08 27.26 23.57 22.89 28.96 30.68 33.60 37.65 33.59 37.00 35.43 30.92 24.39 22.26 21.25 22.51 31.06 27.93 31.10 36.97 40.37 44.57 44.55 46.36 47.59 51.01
45.53 45.00 40.97 40.98 38.70 38.77 35.50 22.59 6.94 21.92 22.92 30.70 29.70 28.05 26.24 29.81 31.24 31.96 33.24 29.44 33.64 31.70 24.83 21.81 21.53 31.36 35.00 33.91 31.36 32.82 33.48 25.87 21.64 22.01 24.52 32.48 25.86 32.45 40.03 44.59 46.79 47.30 47.30 48.05 47.58
45.07 36.03 34.81 36.55 38.46 37.76 27.07 8.87 17.22 22.87 28.13 26.86 27.90 24.81 26.20 28.74 28.52 31.31 29.53 32.21 35.81 36.02 27.91 24.58 24.54 33.01 35.04 35.61 36.15 31.49 29.31 34.77 27.57 28.69 25.77 27.67 31.65 38.54 41.82 43.58 45.42 45.47 46.81 46.72 48.52
35.28 31.98 31.99 37.91 39.27 35.05 24.71 22.39 23.49 30.46 30.53 29.95 22.32 26.58 21.64 24.43 26.75 28.45 28.69 33.00 33.07 36.74 37.46 32.29 27.20 35.71 36.48 35.53 35.23 33.94 36.30 27.90 27.85 22.70 21.44 24.64 27.65 30.86 37.69 41.36 43.98 43.88 44.91 46.26 48.35
32.54 26.62 33.59 38.89 37.98 29.54 17.75 22.54 26.76 32.04 32.09 28.44 25.90 24.80 25.90 25.29 28.65 27.42 27.88 32.87 34.44 34.10 37.93 33.24 30.14 31.21 35.84 32.27 29.22 29.76 29.40 31.00 31.28 27.89 23.75 21.91 25.48 35.51 36.59 41.01 42.59 44.52 46.11 46.78 47.45
30.56 17.59 36.73 37.16 23.45 27.99 23.99 28.14 33.08 30.90 33.53 30.91 30.99 29.41 27.75 29.17 28.32 27.49 27.25 30.04 35.89 35.17 33.15 34.55 30.10 26.77 30.43 37.27 37.73 33.67 30.91 32.50 26.33 25.97 27.68 26.65 26.72 40.61 41.75 42.92 44.19 44.63 47.66 47.81 47.72
27.08 27.93 34.70 36.39 20.77 19.08 27.37 29.51 31.25 29.78 30.15 30.54 29.36 31.61 32.33 29.03 25.42 28.71 29.71 34.68 35.67 35.14 32.35 34.19 28.83 24.77 26.67 32.19 35.70 31.97 32.94 35.33 33.01 31.05 27.43 24.29 26.88 41.92 42.92 43.14 44.70 45.65 47.20 48.10 47.89
27.96 18.83 25.12 35.58 33.69 27.44 20.10 24.77 26.38 32.84 31.21 32.07 31.28 32.62 30.18 28.09 31.14 27.85 29.65 34.41 36.51 36.23 38.71 36.52 32.02 27.17 23.29 26.32 31.56 30.37 31.31 32.17 31.87 26.74 27.94 27.78 32.68 38.81 40.99 41.61 43.79 45.51 46.89 48.82 48.17
28.25 20.18 29.25 20.17 22.25 26.48 25.98 27.31 25.00 24.67 31.63 32.99 29.64 29.43 28.45 25.79 26.64 27.24 30.97 32.25 35.00 37.80 37.12 34.41 28.25 30.05 30.22 32.18 33.31 33.44 33.23 31.66 31.86 30.60 28.12 30.05 30.00 34.54 42.39 42.65 43.26 46.41 47.55 48.13 47.65
27.61 23.50 30.62 28.07 27.67 26.40 24.51 23.80 25.53 25.74 27.84 28.01 27.51 28.62 29.64 26.93 27.68 26.12 29.22 30.02 29.27 33.69 32.39 35.22 26.46 30.58 26.98 30.94 30.28 30.52 32.73 32.31 33.30 33.93 33.66 32.78 33.10 40.71 42.88 44.52 45.14 46.86 47.08 46.83 47.54
31.44 32.34 28.65 25.27 25.43 21.83 23.37 25.97 25.11 27.90 29.95 31.83 30.75 28.70 27.63 29.59 31.52 32.63 33.84 33.10 32.69 30.72 29.64 30.39 29.17 26.33 23.29 28.91 28.14 24.88 30.68 32.75 33.87 35.88 34.60 29.49 35.79 41.51 40.95 43.31 44.14 44.77 45.73 46.04 46.92

GFSSW_sfc_wetblb_111.txt.gz
Wetbulb
52.62 52.11 52.03 51.88 51.45 51.40 51.26 51.29 51.27 51.40 51.97 52.45 52.43 52.24 52.25 52.78 52.20 48.88 43.75 49.02 51.79 58.08 58.00 53.52 52.73 51.64 51.65 48.84 48.25 46.57 42.03 38.86 40.60 40.77 43.42 47.30 46.90 49.04 50.56 49.04 49.85 51.28 52.04 56.15 61.09
51.41 51.51 51.53 51.36 51.26 51.09 50.79 50.43 50.23 50.54 51.49 51.83 51.85 51.71 52.06 52.64 47.65 45.25 51.80 56.74 57.34 58.56 53.61 51.75 49.39 50.74 48.78 48.35 47.28 45.81 41.04 40.18 43.67 44.77 44.68 46.55 46.81 47.72 48.15 47.87 48.49 49.70 52.48 59.49 61.67
51.14 51.16 51.34 51.38 50.84 50.65 50.30 50.12 50.10 50.28 50.41 50.76 51.40 51.74 52.08 51.05 43.07 42.03 59.05 59.43 59.15 57.84 53.13 52.34 51.55 49.70 45.67 46.48 46.01 45.17 41.51 43.54 44.83 46.03 46.45 46.41 46.60 48.40 47.38 46.59 49.19 49.47 51.62 53.44 59.17
50.59 50.45 50.71 50.58 50.43 50.34 50.21 50.75 50.11 50.27 50.25 50.47 51.42 51.92 51.64 48.25 33.95 50.15 55.40 56.76 59.55 57.00 52.64 49.09 49.27 46.84 45.06 43.27 46.18 42.05 43.78 45.90 46.50 46.70 46.64 45.83 47.36 47.09 47.47 48.69 51.74 51.59 52.25 51.65 53.89
49.99 49.95 50.35 50.29 49.99 49.80 50.07 50.64 49.81 49.94 50.13 50.65 51.33 51.32 47.39 38.07 38.27 45.72 52.15 50.67 53.52 54.83 50.59 47.29 45.49 45.60 41.94 43.05 44.39 42.69 44.24 45.45 46.81 46.82 46.78 47.39 46.41 46.64 46.46 50.50 51.57 51.58 51.41 51.05 52.46
50.05 49.96 49.92 49.73 49.75 49.53 49.45 50.24 50.29 49.71 50.37 50.96 51.72 50.13 44.08 33.06 43.32 46.67 46.86 46.35 46.13 50.74 50.04 48.22 46.45 46.63 43.91 42.50 42.69 44.44 44.76 45.41 46.24 46.29 46.15 45.55 46.53 46.94 48.08 50.46 49.98 50.42 51.62 52.51 51.67
49.34 49.04 49.17 49.43 49.45 49.37 49.35 49.87 50.34 50.38 50.71 51.97 51.68 47.58 41.25 37.35 47.06 47.84 47.31 45.55 46.23 45.73 43.56 45.90 47.83 47.02 46.63 43.44 46.60 45.39 41.99 44.46 44.82 45.69 45.84 46.68 44.28 44.57 49.80 50.67 49.39 50.13 51.41 51.66 51.85
48.97 48.82 48.78 49.03 49.14 49.30 49.56 49.72 49.63 50.05 50.90 51.16 51.38 45.38 36.05 45.91 47.97 48.24 49.33 49.03 49.11 47.97 45.47 45.51 46.21 44.74 45.49 46.72 42.53 41.31 41.77 37.61 43.72 45.32 46.39 46.47 41.19 47.13 50.24 48.43 48.96 49.47 50.12 51.00 52.14
48.19 48.54 48.32 48.89 48.92 49.43 49.03 48.87 49.15 50.80 50.27 50.34 45.50 41.55 35.83 48.26 45.78 49.47 49.91 47.33 48.47 46.73 46.02 47.79 46.50 43.44 42.76 39.09 36.75 38.16 34.27 36.67 39.86 45.17 45.50 44.67 42.82 46.90 48.52 47.71 48.14 49.36 49.98 50.39 50.99
47.71 47.95 48.25 48.29 48.68 48.89 47.74 47.00 48.32 46.97 46.83 48.66 47.27 39.07 42.29 39.94 44.17 46.22 46.74 48.66 44.35 45.33 42.81 42.65 41.18 38.48 37.98 37.23 30.08 32.89 34.18 36.52 37.37 43.29 44.01 43.32 42.69 45.55 47.93 47.57 48.21 48.49 48.95 49.96 50.47
47.63 47.79 47.87 47.61 47.62 47.41 42.97 40.06 36.85 36.55 38.85 34.16 35.32 35.18 37.16 42.02 44.99 42.68 45.96 43.41 43.58 42.18 38.10 39.35 35.35 32.80 35.97 38.06 38.30 37.46 36.56 36.21 39.74 43.59 42.50 42.61 42.98 45.17 46.69 46.91 46.54 48.24 48.83 49.34 50.08
47.41 47.57 47.19 47.11 47.18 45.88 41.33 36.79 37.13 38.13 32.01 38.30 38.61 38.44 40.97 42.13 36.00 40.53 44.00 37.11 36.65 32.87 38.54 36.54 32.90 38.39 38.00 37.91 36.91 36.29 34.79 34.83 38.25 41.62 41.54 41.07 40.89 44.25 45.64 46.10 47.46 47.70 48.02 48.43 49.84
47.07 46.95 46.86 46.63 45.29 41.20 38.30 38.47 42.82 41.16 32.29 33.63 38.48 37.79 39.52 41.10 35.99 37.38 41.05 38.50 34.54 32.43 34.25 34.44 37.12 40.29 36.92 34.85 33.95 34.94 33.93 34.39 34.41 39.34 41.90 39.88 37.68 39.70 43.17 45.02 46.00 46.58 47.73 48.93 49.28
46.45 46.54 46.40 46.06 39.03 39.28 36.07 41.31 41.95 40.96 25.43 28.09 34.38 37.81 38.58 39.61 34.80 41.07 41.72 38.93 35.89 32.19 33.38 34.05 38.63 37.94 36.53 34.79 35.73 31.83 36.82 36.13 35.54 34.89 30.60 38.32 30.65 37.68 40.86 42.29 44.54 46.83 48.73 50.79 52.41
46.11 46.22 45.97 44.81 38.92 35.77 39.34 41.43 42.32 39.46 17.49 30.18 33.94 42.29 39.14 34.59 35.19 37.93 43.14 38.65 33.05 32.76 33.90 32.21 34.63 34.90 34.53 36.12 37.15 34.55 38.02 36.57 36.24 34.36 33.73 34.31 31.58 35.40 39.49 40.72 42.94 48.51 49.33 51.00 53.78
45.70 45.91 45.48 41.36 39.39 39.31 40.60 41.12 38.55 23.24 15.10 25.85 33.43 31.41 31.45 33.81 35.57 38.77 39.35 41.26 38.86 33.45 33.54 32.74 36.59 37.56 37.19 38.39 38.91 38.86 36.56 35.52 34.98 33.54 26.65 32.04 31.46 33.04 37.66 40.51 45.74 47.78 49.28 50.55 52.40
45.37 45.20 43.03 43.14 35.24 40.15 40.77 35.30 22.18 16.19 28.24 25.39 26.63 30.39 29.74 29.86 31.97 31.89 31.01 32.29 30.37 25.94 27.13 31.24 31.18 35.49 39.89 35.72 38.04 36.85 34.22 27.47 25.99 25.53 26.30 33.96 30.74 34.97 40.43 44.58 47.63 47.28 48.92 50.74 52.28
45.38 43.36 40.50 41.00 40.56 41.12 36.82 25.29 13.27 22.37 23.41 30.13 29.27 29.50 26.49 30.70 29.66 30.08 30.34 28.66 35.37 32.13 28.92 26.29 25.32 31.45 35.75 36.59 34.66 34.18 34.40 28.05 21.21 23.56 28.02 33.63 29.03 35.10 42.92 46.34 49.02 49.00 50.06 51.05 51.84
43.67 37.10 36.45 38.03 40.27 39.76 30.28 16.55 19.20 22.83 28.05 26.82 28.09 24.65 25.33 28.91 28.88 29.76 30.01 30.07 32.49 32.32 28.21 28.21 26.47 34.16 34.80 37.61 39.95 34.76 31.33 38.14 31.34 32.26 29.62 32.67 36.59 41.73 44.39 46.54 47.63 47.77 49.30 49.31 51.60
36.61 34.02 33.82 39.06 40.84 36.67 26.33 23.13 23.78 29.30 30.43 29.37 22.55 25.99 22.35 25.71 25.70 28.36 29.16 31.95 31.48 33.42 33.87 32.64 27.47 36.59 37.16 36.58 38.07 37.50 40.09 30.72 32.26 24.58 23.55 29.69 32.43 35.28 40.98 43.54 46.28 46.83 47.69 48.64 51.64
34.08 30.19 37.70 40.53 40.16 31.33 21.56 23.68 27.12 31.94 32.15 28.31 26.25 25.08 26.03 25.59 28.07 27.70 28.24 31.00 34.08 32.90 35.40 33.68 30.99 32.97 37.12 32.93 31.27 32.79 33.39 35.36 35.81 32.70 26.95 26.01 30.89 40.47 40.97 45.06 46.15 47.31 47.53 48.53 50.49
32.32 22.93 38.76 39.77 26.58 28.71 24.29 27.25 32.43 31.03 33.93 31.52 31.23 28.94 27.17 28.44 27.71 27.83 27.10 29.84 35.84 34.87 29.91 34.88 32.00 27.98 32.38 38.36 39.51 36.63 34.37 35.72 31.11 28.89 32.67 32.40 32.21 43.60 45.17 46.58 46.84 47.75 47.58 48.58 49.62
29.23 29.13 36.68 38.53 20.54 22.81 27.53 28.85 31.38 30.15 30.71 30.83 29.79 31.53 32.56 28.76 25.55 29.16 29.90 35.56 36.55 34.81 32.32 33.90 30.71 25.82 29.08 34.28 36.54 33.25 34.89 35.64 35.77 34.69 31.19 29.01 31.93 44.15 45.55 45.82 47.84 47.91 48.12 49.07 49.52
29.55 20.79 27.81 35.32 33.63 27.01 24.34 24.88 26.18 32.03 31.09 32.15 31.20 32.54 29.62 27.82 31.10 27.82 29.28 34.00 35.82 35.66 38.66 35.87 32.20 28.74 24.59 27.86 32.27 30.82 33.97 35.63 34.53 30.01 31.23 32.85 36.06 41.27 43.30 44.77 46.55 47.92 48.78 49.82 49.59
27.52 23.34 29.09 21.33 26.27 27.60 27.30 26.80 24.68 25.15 30.04 32.10 29.81 29.17 28.13 25.45 26.78 27.59 30.00 31.04 34.05 36.88 35.23 35.05 27.63 29.98 30.63 32.13 33.34 33.05 32.54 33.33 32.05 33.67 30.68 33.95 34.99 41.59 43.91 45.56 46.51 48.37 48.76 48.71 49.01
26.81 26.59 29.96 27.43 28.37 26.83 26.32 24.38 24.78 25.59 27.30 26.86 28.13 28.91 29.23 26.48 27.59 25.96 28.16 28.53 28.98 33.70 31.75 34.04 28.92 30.26 27.74 31.55 31.23 29.50 33.58 34.03 33.42 35.72 35.45 35.98 36.86 43.02 45.44 47.39 47.36 47.50 47.78 47.77 47.72
33.05 33.66 30.14 25.95 26.42 24.74 24.74 26.03 25.49 27.37 29.46 30.89 29.38 27.37 28.38 30.02 31.94 32.38 33.07 32.56 32.36 30.52 29.77 29.78 28.94 27.63 23.98 30.27 29.29 26.94 31.66 33.24 33.69 35.48 36.10 33.25 39.12 44.44 44.22 45.61 45.99 46.49 46.98 46.09 45.50

GFSSW_sfc_wetblb_117.txt.gz
Wetbulb
51.47 51.74 51.81 51.92 51.56 51.50 51.32 51.36 51.12 51.20 51.74 51.79 52.05 52.08 52.71 53.65 53.27 54.86 49.68 54.86 56.60 57.56 56.53 54.49 55.76 55.26 56.30 54.65 55.34 55.38 47.89 45.86 47.32 47.85 49.29 52.55 49.88 53.44 54.72 53.52 54.64 56.34 57.05 59.16 61.99
51.07 51.05 51.36 51.47 51.26 51.29 51.23 51.11 51.06 51.27 51.33 51.57 51.86 52.34 52.67 53.33 52.92 51.53 56.41 58.63 60.35 57.74 55.21 53.16 51.40 53.71 52.40 52.89 53.65 50.98 47.86 48.11 51.46 51.51 50.21 51.47 50.68 51.90 51.58 52.18 52.96 54.46 57.43 58.17 59.54
50.85 50.64 50.91 50.83 51.01 51.02 51.06 50.86 51.03 51.38 51.47 51.66 51.89 52.45 52.94 53.10 51.17 51.96 56.18 56.69 59.09 56.72 56.49 54.87 53.71 52.35 50.50 52.82 52.46 51.55 47.21 51.30 52.05 52.73 52.30 50.56 50.33 52.16 50.58 49.99 53.07 53.23 55.56 57.60 58.23
50.47 50.39 50.18 50.49 50.89 50.97 50.95 51.41 50.99 51.21 51.30 51.65 52.09 52.55 53.21 53.57 40.16 53.11 55.68 56.59 56.56 58.05 54.15 51.59 51.96 49.80 48.15 47.84 51.88 48.70 51.53 51.91 52.46 53.18 52.46 50.42 52.27 50.96 51.32 51.32 53.75 55.00 56.54 56.78 56.91
49.82 49.85 50.04 50.37 50.59 50.59 50.46 51.17 50.71 50.90 51.41 51.73 52.17 52.72 53.19 47.69 45.14 49.95 55.41 56.58 50.14 50.01 51.35 50.58 48.11 48.61 47.42 49.07 50.12 48.80 50.16 51.75 52.50 52.35 51.73 52.46 50.83 51.04 51.81 54.05 54.71 54.49 54.80 55.23 56.25
49.46 49.46 49.66 49.77 49.99 50.07 49.84 50.63 51.03 50.16 51.30 52.29 52.95 52.48 51.88 43.12 49.40 52.00 53.53 53.33 52.09 51.54 48.44 47.01 49.30 49.47 47.30 47.25 47.45 50.11 50.18 50.80 51.88 51.76 52.03 50.07 50.56 51.39 52.30 54.54 54.22 54.50 54.23 54.92 55.55
49.06 48.83 49.26 49.43 49.65 49.32 49.37 50.33 50.27 50.10 52.04 52.42 52.74 52.98 49.05 46.08 52.18 56.07 53.63 51.97 54.70 52.60 51.04 52.51 48.62 48.04 48.95 46.39 50.12 48.77 46.05 48.12 49.12 49.98 49.84 51.41 48.00 49.20 53.23 54.37 53.77 54.12 55.07 55.45 55.51
48.43 48.74 48.90 48.99 48.83 48.77 49.39 49.81 49.69 50.86 51.54 52.40 52.57 52.68 46.12 49.90 52.86 50.52 50.89 49.48 50.46 50.96 51.06 52.88 51.94 47.32 45.75 47.29 45.67 43.37 46.13 42.71 48.15 49.60 50.07 49.59 44.03 50.96 54.50 54.28 53.83 54.43 55.51 55.90 56.42
47.95 48.50 48.58 48.37 48.59 49.39 49.48 49.47 49.69 50.93 51.10 51.83 52.25 49.82 44.33 52.38 47.58 50.06 50.52 47.53 48.68 49.54 49.52 51.56 50.31 46.09 44.66 40.83 39.21 41.46 37.52 40.76 43.81 49.10 49.54 48.70 45.57 50.79 53.46 53.91 53.23 54.55 55.49 56.12 56.87
47.71 48.24 48.34 48.03 48.52 49.07 48.54 48.88 48.55 49.70 51.16 51.99 52.14 44.11 45.58 42.94 47.35 49.00 50.34 48.52 46.90 47.11 46.17 45.94 45.63 42.69 42.68 39.10 33.73 35.58 37.68 40.37 41.37 45.39 46.76 46.01 46.33 49.93 52.19 52.68 52.75 53.99 55.07 55.78 56.27
47.72 47.88 47.70 47.68 47.67 48.67 49.13 50.21 46.06 47.00 46.14 41.00 41.09 41.11 43.33 46.40 48.82 46.26 48.37 46.42 46.86 45.54 40.64 43.78 39.52 37.82 39.96 41.44 40.62 38.43 37.76 37.25 41.27 45.61 44.69 44.56 45.17 47.30 50.69 51.70 51.99 52.71 53.77 55.27 56.22
47.16 47.36 47.44 47.47 47.32 47.90 50.77 44.85 42.10 43.92 40.37 43.49 44.16 43.97 45.30 45.84 40.94 43.40 47.48 42.35 41.56 38.66 41.81 39.97 36.68 40.76 41.39 41.79 40.56 39.34 36.78 37.55 40.75 42.43 42.46 42.89 43.26 47.33 48.65 49.10 51.09 51.92 52.90 54.10 55.05
46.65 46.99 47.21 46.67 46.75 48.74 46.61 44.21 48.38 47.38 41.76 39.58 42.94 42.27 42.15 44.13 40.38 41.59 44.67 43.08 40.07 37.94 38.73 36.85 39.36 41.71 39.80 39.06 38.27 39.03 37.53 37.79 37.56 40.61 42.47 41.95 40.48 42.79 45.96 47.93 48.93 50.33 51.84 53.37 54.12
46.25 46.58 46.60 46.06 44.11 47.76 45.43 47.21 49.38 49.12 38.35 35.29 38.39 42.05 42.42 43.43 39.67 44.96 46.23 42.33 40.07 36.96 38.01 37.60 40.86 38.74 38.14 37.11 38.49 35.75 41.03 39.75 37.80 36.72 34.20 41.87 34.40 40.98 44.86 46.30 48.24 49.57 50.92 51.76 52.70
45.95 46.18 46.22 45.66 46.86 45.45 45.57 48.67 49.85 48.12 28.77 35.88 37.36 44.13 43.14 39.97 40.71 41.61 46.11 42.78 37.95 38.66 39.13 36.00 37.46 36.34 36.63 37.79 39.78 36.51 41.04 40.47 39.77 37.57 36.87 37.46 35.65 39.89 44.47 43.89 46.47 48.66 50.08 52.16 54.21
45.69 45.96 46.09 47.85 48.99 47.12 49.35 49.41 47.57 36.22 26.36 33.24 37.33 37.31 37.67 39.64 39.49 41.36 41.70 44.97 44.17 38.75 39.11 38.09 41.77 40.47 38.27 39.68 40.34 41.12 38.93 39.83 40.14 38.36 31.41 36.69 36.47 37.55 41.46 44.04 46.86 49.85 51.18 53.75 56.15
45.40 45.37 46.41 48.88 46.00 49.71 50.06 45.97 35.17 29.98 34.70 32.08 32.86 36.42 36.30 35.81 37.00 37.91 37.29 37.15 34.53 29.37 30.36 35.49 37.18 40.06 41.21 37.21 39.93 39.30 36.22 30.11 28.89 30.18 29.98 38.27 36.07 38.78 44.06 46.22 47.88 51.01 53.80 55.61 57.50
45.40 43.74 45.64 48.19 50.15 49.84 47.63 40.53 27.10 30.93 31.42 36.09 35.13 36.04 32.89 35.39 35.64 36.29 35.96 33.91 37.17 34.77 30.73 28.38 27.15 35.06 37.89 35.94 35.57 36.53 35.80 31.17 24.50 26.83 30.93 37.78 33.91 38.77 45.58 47.39 50.20 53.40 55.10 56.22 57.03
44.14 48.04 49.36 48.75 50.14 49.41 42.81 32.99 32.16 31.71 33.05 32.36 34.82 31.60 32.19 35.13 34.93 35.29 34.78 33.68 35.30 35.79 27.95 27.34 28.07 36.89 39.59 40.81 39.63 36.05 33.90 38.83 34.23 35.93 32.32 35.36 38.56 43.09 45.71 46.41 51.10 52.67 53.89 55.29 57.18
46.10 45.91 46.45 48.93 50.26 47.05 39.88 30.69 32.94 35.12 35.27 34.83 28.88 31.95 29.36 32.32 32.37 32.88 32.36 36.26 35.29 37.29 38.32 32.70 25.24 35.88 38.44 41.43 41.62 38.56 39.92 32.96 34.77 26.48 26.42 33.33 35.97 37.16 42.06 44.40 49.43 50.88 52.84 55.32 57.23
44.96 41.69 45.67 49.45 48.72 42.98 35.02 34.10 33.89 37.04 36.85 33.70 31.88 31.14 32.41 31.34 32.69 31.83 31.22 35.70 37.82 36.82 37.58 35.21 31.60 30.85 35.06 34.70 34.70 36.55 34.89 36.31 36.22 34.82 28.95 28.74 34.12 43.91 44.18 45.99 47.73 50.98 53.55 55.19 56.36
44.45 37.10 46.43 47.81 38.49 39.85 35.85 34.31 33.16 35.89 37.86 35.91 35.80 34.65 32.85 33.13 31.64 31.99 31.51 34.49 39.11 38.20 32.35 34.99 31.65 27.34 29.42 38.27 41.33 41.38 37.15 37.16 31.58 30.79 34.32 33.91 34.87 47.77 47.80 49.05 50.01 51.42 53.54 55.69 56.18
39.86 40.78 46.10 44.65 33.58 33.84 35.48 33.98 35.36 34.81 35.00 34.51 33.91 35.69 36.76 33.39 29.50 33.38 34.42 38.76 39.18 37.26 33.75 34.59 30.25 24.17 30.22 33.52 36.73 35.69 39.08 37.74 37.74 37.68 33.27 30.95 33.92 47.95 48.50 49.57 51.22 52.18 53.30 54.28 54.69
41.19 34.47 38.66 40.39 41.17 35.70 31.48 32.25 32.10 36.33 34.70 35.86 35.35 36.72 34.93 32.63 35.31 32.36 33.64 37.60 39.09 38.20 37.97 37.57 32.07 27.63 23.66 28.57 32.25 30.13 34.82 38.48 37.27 33.89 34.03 34.93 37.24 42.93 46.58 47.52 51.19 50.97 53.03 53.61 54.24
40.68 36.00 39.15 31.10 34.13 35.29 34.96 33.14 30.98 30.24 35.38 36.85 33.94 34.67 33.06 29.16 31.15 31.58 34.81 35.86 37.65 38.08 37.42 35.88 28.21 31.03 31.93 33.66 34.14 34.47 35.09 35.83 35.89 36.41 33.79 37.37 38.17 42.79 47.02 48.94 51.09 52.43 52.03 51.75 51.46
36.20 36.49 37.86 38.08 36.76 34.83 31.92 31.59 31.15 32.56 32.71 32.04 32.20 34.16 34.67 30.68 31.91 30.54 33.95 33.82 32.57 37.10 35.28 37.13 29.43 31.85 29.67 34.86 34.99 34.07 36.41 36.29 36.53 37.12 38.30 38.85 37.86 43.65 46.39 49.67 50.99 52.00 52.11 49.78 50.46
42.49 42.87 39.16 34.70 34.30 33.01 33.21 32.48 31.53 33.40 34.45 35.29 34.51 33.61 32.03 34.10 37.27 38.02 38.05 37.54 37.19 35.24 33.49 33.40 32.05 30.33 26.07 33.03 31.92 30.39 34.56 36.68 37.51 39.43 39.06 36.36 41.72 47.75 46.09 42.90 50.00 50.90 49.93 48.40 49.35

GFSSW_sfc_wetblb_120.txt.gz
Wetbulb
51.30 51.66 51.86 51.98 51.78 51.83 51.70 51.76 51.59 51.72 52.03 52.38 52.59 52.75 53.05 53.83 53.32 54.99 52.14 53.85 56.82 60.96 57.39 53.59 53.39 53.95 54.01 52.16 54.53 54.83 46.94 43.86 45.51 46.35 48.30 52.29 51.16 53.31 54.04 52.00 52.74 55.80 56.92 60.29 63.55
51.27 51.41 51.61 51.38 51.40 51.44 51.60 51.49 51.40 51.74 51.79 52.07 52.30 52.72 53.21 53.99 52.16 52.44 54.16 57.60 58.66 60.36 55.08 53.25 51.78 52.52 50.60 51.43 52.07 50.18 46.46 46.20 50.13 50.96 50.47 51.82 51.64 51.51 50.69 50.65 51.22 54.06 57.92 58.88 60.60
51.27 51.17 50.93 51.04 51.29 51.35 51.38 51.33 51.20 51.41 51.75 51.96 52.49 52.87 53.46 53.37 51.78 50.50 54.19 56.42 57.24 57.80 53.41 52.55 52.68 51.67 48.53 50.42 50.79 50.44 46.33 49.77 50.81 52.38 53.02 51.82 51.62 52.34 49.89 48.69 51.95 51.94 55.14 56.43 58.27
50.52 50.31 50.44 50.84 51.09 50.98 50.80 51.13 50.74 50.78 51.18 52.07 52.76 53.16 54.10 53.08 41.26 48.97 54.81 56.25 58.08 53.74 55.35 52.29 49.53 47.32 47.50 46.52 49.88 47.17 50.08 50.98 51.40 52.59 52.08 50.92 52.78 50.84 50.58 50.77 53.59 54.23 55.79 56.11 56.62
50.00 50.09 50.26 50.53 50.74 50.68 50.21 50.90 50.25 50.25 50.93 52.38 53.32 53.92 53.36 50.18 44.92 50.87 58.58 58.87 52.69 49.44 47.07 45.75 45.12 46.80 43.84 45.67 48.23 47.36 48.04 49.83 51.26 51.82 51.94 52.80 50.76 50.83 51.13 53.67 55.05 54.92 54.36 53.74 56.59
49.78 49.31 49.71 49.95 50.08 49.86 49.75 50.41 50.33 49.92 50.95 53.00 53.46 53.45 52.83 44.58 50.28 55.28 53.56 51.81 53.45 52.25 50.73 50.59 47.06 45.97 44.73 45.04 44.38 46.61 47.05 48.14 49.89 50.42 51.23 50.09 50.44 51.01 51.69 53.94 53.97 54.65 54.33 53.96 53.90
49.16 49.20 49.35 49.58 49.60 49.45 49.58 49.71 50.16 50.10 51.77 52.83 53.47 52.82 50.51 45.93 52.61 51.85 51.13 49.79 50.01 50.06 47.74 49.74 51.43 48.23 45.26 43.27 47.63 46.76 44.06 46.07 46.74 48.54 48.40 50.02 46.92 48.30 52.64 53.83 53.37 53.57 54.06 54.51 54.55
48.68 48.72 49.03 49.22 48.92 49.18 49.50 50.11 49.83 50.88 52.44 52.80 53.13 53.97 46.79 50.48 52.42 50.14 50.94 49.32 50.52 50.34 48.95 49.05 50.89 48.42 45.85 46.11 43.79 41.45 41.62 38.21 43.86 46.87 48.43 48.12 41.94 48.83 52.49 52.03 51.73 53.62 54.38 54.50 54.98
47.83 48.53 48.82 48.66 49.20 49.48 49.67 49.86 49.91 51.11 52.13 52.42 52.28 50.86 44.66 51.70 47.74 49.42 50.68 46.43 47.68 49.68 50.08 48.45 49.14 45.46 45.06 40.29 37.34 38.85 34.87 36.57 39.55 44.82 44.67 46.27 44.04 48.84 51.75 51.53 51.45 53.12 54.45 54.61 55.11
48.04 48.38 48.34 48.23 48.89 48.95 49.36 49.70 51.50 50.05 50.61 52.48 51.81 44.75 46.35 43.61 46.26 48.44 49.54 48.45 45.97 47.22 46.12 45.79 44.80 41.32 41.48 38.43 31.36 34.19 35.06 38.12 37.58 41.59 43.92 43.30 44.45 48.39 50.37 50.26 51.15 52.58 53.75 54.53 55.38
47.94 47.97 47.92 47.77 48.15 48.94 48.44 49.18 44.69 46.38 46.28 41.24 41.96 42.28 43.81 46.95 47.63 45.48 47.86 46.06 45.86 43.85 39.58 43.19 38.94 36.49 38.70 40.66 40.37 39.04 37.45 36.15 39.08 41.96 41.53 41.72 42.57 45.58 48.12 49.13 49.43 51.17 52.64 53.49 54.87
47.33 47.39 47.55 47.65 47.59 48.98 49.54 44.42 43.11 43.96 40.48 44.63 44.82 44.92 46.07 45.85 41.48 44.26 47.27 42.33 41.62 37.75 40.67 38.80 35.68 40.23 41.18 40.42 38.91 38.16 36.81 36.91 39.96 41.06 40.04 39.97 39.83 43.85 45.70 47.49 49.42 50.48 51.25 52.86 53.92
46.60 47.05 47.08 47.23 47.58 47.12 46.29 44.53 48.58 48.36 41.80 41.56 43.46 42.64 41.88 44.02 40.83 41.57 45.22 42.71 39.12 36.99 37.77 35.13 37.67 40.81 38.86 37.81 36.70 37.15 35.80 36.29 36.80 39.72 40.62 39.45 37.59 40.62 44.30 46.12 48.06 49.27 49.35 50.06 52.96
46.69 46.70 46.74 47.07 44.70 48.22 45.71 47.86 49.49 49.56 38.52 37.38 40.32 43.05 42.80 43.18 40.30 44.92 46.13 42.29 39.48 36.60 38.51 37.56 40.63 38.70 37.77 36.15 37.18 33.05 38.78 38.28 37.12 36.32 31.75 39.22 30.44 38.58 42.10 43.61 46.02 47.14 48.07 49.06 50.66
46.27 46.31 46.56 46.56 46.78 46.06 46.44 49.20 49.35 48.43 28.20 37.30 38.88 44.67 43.09 40.11 40.44 41.45 45.52 42.58 37.18 38.07 37.94 34.63 35.92 35.37 34.66 35.45 37.59 35.23 39.94 37.91 37.10 35.21 35.84 35.69 32.52 36.28 41.35 40.99 43.58 46.52 48.79 49.84 50.59
45.86 46.23 46.48 48.27 49.28 48.18 50.01 49.66 47.77 36.77 26.98 34.38 38.26 37.42 37.75 39.97 39.79 41.90 41.61 43.99 42.98 39.08 38.89 36.73 40.11 38.41 37.38 39.03 38.94 39.70 37.40 36.34 36.92 35.34 28.86 34.97 34.04 34.14 37.61 40.78 43.51 47.41 49.58 50.86 53.17
45.74 46.05 45.43 48.22 46.34 49.95 50.44 46.64 34.52 29.31 36.23 33.72 34.32 36.66 36.54 36.39 37.21 38.02 37.06 36.87 34.54 29.19 29.30 33.78 35.45 38.60 40.15 34.68 37.77 36.35 32.87 25.53 24.73 26.42 26.82 36.32 33.92 36.08 41.65 43.34 44.43 47.80 52.26 54.63 56.30
45.44 45.35 48.37 48.57 50.62 50.41 48.27 40.12 27.91 33.49 32.83 37.02 35.63 35.97 34.23 36.01 35.98 36.43 35.71 32.91 37.18 35.01 30.24 27.13 25.42 34.57 38.12 34.67 33.15 33.22 32.44 26.32 18.84 23.36 27.82 36.05 31.14 36.41 43.33 44.87 46.44 52.60 54.13 55.23 56.13
45.27 46.47 47.88 49.18 50.43 49.55 42.89 33.00 32.47 33.99 35.07 33.34 35.07 33.01 32.86 35.38 35.09 35.15 34.15 33.27 35.58 36.22 27.92 26.63 26.65 36.53 38.11 38.92 37.21 34.97 30.74 36.00 30.73 32.62 28.69 33.45 36.98 41.48 43.47 43.98 45.31 51.97 53.49 53.87 55.78
43.68 45.43 46.13 49.26 50.32 46.66 39.19 33.89 34.34 36.48 36.10 35.58 29.79 32.96 29.69 32.59 32.05 32.56 32.20 35.72 34.78 37.94 38.33 32.72 25.06 34.19 36.56 38.69 40.19 37.28 39.49 29.87 31.21 22.25 21.35 29.14 33.19 35.29 39.86 41.81 45.65 50.70 51.72 54.48 56.59
42.48 40.67 46.12 49.20 48.33 42.44 34.31 35.40 35.90 38.33 37.31 34.33 33.03 31.80 32.66 31.40 32.58 31.45 31.79 35.72 37.59 36.54 37.80 35.81 30.67 29.39 34.29 31.72 31.39 33.32 33.06 34.96 34.06 31.81 25.26 24.73 31.32 42.06 43.97 43.73 47.77 50.45 53.06 54.05 55.01
43.60 37.67 46.36 48.08 38.29 39.47 35.79 36.40 34.17 37.23 38.70 36.35 36.10 34.40 33.06 33.46 31.65 31.68 31.21 34.40 38.86 38.39 32.48 36.09 31.50 24.82 28.85 35.35 38.41 37.23 32.79 34.18 29.14 27.50 32.31 31.96 31.91 43.68 46.65 47.47 49.39 50.32 53.08 54.99 55.35
39.07 40.44 45.84 45.39 33.64 34.68 37.43 35.76 36.30 35.85 36.00 35.37 34.51 36.04 36.53 33.11 29.52 32.69 33.56 38.26 38.90 36.83 34.14 34.83 28.70 23.14 25.97 31.87 34.94 32.32 34.69 35.57 35.65 35.84 30.95 28.31 32.03 43.65 46.17 46.67 48.90 51.29 53.16 53.54 53.29
40.81 34.87 38.57 39.06 39.69 36.12 35.42 33.97 33.29 37.17 35.98 36.42 35.23 36.70 34.23 32.89 35.28 31.51 32.43 36.75 38.87 37.95 37.81 37.93 31.34 26.96 21.96 26.23 31.54 28.82 32.51 34.48 35.07 29.43 31.56 33.03 35.36 39.64 44.81 43.47 48.40 49.27 49.28 50.78 51.93
40.85 36.15 39.34 32.53 34.33 35.80 36.89 34.83 32.71 31.92 35.90 36.58 34.26 34.16 33.01 29.93 31.35 30.48 33.43 34.62 37.13 38.90 37.14 36.06 28.00 30.42 31.48 32.67 33.15 33.01 33.64 35.15 34.21 35.48 30.65 34.89 35.98 39.62 43.80 44.71 47.86 49.61 50.95 50.96 50.65
37.03 36.30 38.59 36.11 37.54 35.32 33.57 33.33 32.85 34.16 34.13 32.46 32.25 34.30 34.59 31.16 31.90 29.23 32.24 32.58 31.92 35.12 34.16 36.55 28.45 31.61 29.47 33.13 34.13 31.44 34.67 35.77 36.11 36.55 35.77 37.20 37.19 44.37 46.30 44.21 45.39 45.95 49.64 49.24 48.74
41.98 42.14 38.61 36.28 35.45 33.78 33.79 33.58 33.45 35.36 35.50 36.16 34.71 33.13 31.97 33.97 36.25 36.41 37.12 36.38 35.39 33.39 33.28 33.78 31.19 29.15 25.26 31.86 31.76 29.05 32.23 33.62 34.60 38.37 38.70 34.81 39.53 43.05 44.30 44.55 43.00 41.36 45.77 47.30 47.61

GFSSW_sfc_wetblb_123.txt.gz
Wetbulb
51.43 51.71 51.90 52.00 51.68 51.97 52.01 52.12 51.81 51.79 52.09 52.55 52.86 53.16 53.29 53.42 53.44 52.89 48.18 49.30 53.55 59.79 59.05 52.95 50.76 48.52 49.42 46.22 46.71 46.60 39.38 39.13 39.07 41.54 44.56 49.89 48.70 51.78 50.42 46.63 48.38 49.90 54.40 60.24 62.99
51.21 51.40 51.36 51.25 51.42 51.57 51.69 51.48 51.34 51.53 51.74 51.94 52.59 53.23 53.29 53.66 50.46 48.83 51.48 57.22 57.67 57.98 50.54 48.03 46.76 47.83 43.95 44.38 44.69 42.16 38.54 38.84 45.60 47.07 46.68 49.86 48.83 50.25 48.91 46.58 47.56 49.89 56.47 60.38 60.35
50.99 50.74 50.66 51.13 51.31 51.29 51.35 51.19 51.02 51.20 51.15 51.54 52.68 53.68 54.24 53.19 49.37 46.11 55.08 55.88 57.29 57.06 51.81 51.87 49.27 46.10 43.51 43.44 42.98 44.01 41.35 45.36 47.40 49.09 49.72 49.17 48.95 50.89 47.75 44.31 48.20 47.83 52.23 55.47 57.26
50.51 50.44 50.57 50.95 51.01 51.05 50.74 51.12 50.62 50.74 51.06 51.83 53.40 54.46 54.63 50.99 37.86 43.12 55.75 57.33 58.44 55.00 48.46 46.30 43.43 41.74 39.61 39.40 44.41 40.72 44.71 46.66 47.50 49.27 48.90 47.99 49.94 49.13 49.08 48.63 50.69 51.05 51.75 52.59 53.29
50.00 50.17 49.88 50.54 50.60 50.56 50.28 50.32 50.49 50.62 50.89 52.16 53.66 54.52 50.80 47.63 41.88 49.32 58.38 57.48 54.44 49.14 46.68 46.58 43.07 39.21 37.20 39.66 40.99 40.21 42.45 45.83 46.90 47.37 47.18 48.52 47.46 48.22 48.58 51.16 52.10 53.22 53.04 50.27 50.42
49.74 49.74 49.76 50.04 50.15 49.98 49.91 50.08 50.59 50.44 51.18 52.53 53.48 54.42 48.94 41.51 48.27 49.55 49.01 48.68 47.47 46.33 45.28 45.65 44.65 46.57 43.03 38.59 38.51 42.01 42.73 42.81 43.98 44.24 45.09 45.54 46.30 45.83 48.80 50.49 51.41 52.35 51.73 51.15 50.47
49.57 49.37 49.44 49.82 49.93 49.72 49.65 50.08 50.60 50.72 51.56 52.93 53.89 51.96 48.47 43.89 47.55 47.17 48.63 47.15 46.76 46.59 43.94 45.06 44.57 43.64 43.79 40.13 42.76 41.39 37.37 39.82 41.32 43.27 43.22 45.48 42.65 43.86 48.49 50.66 51.24 51.68 52.10 52.67 51.48
49.22 48.73 49.25 49.59 49.38 49.40 49.83 50.44 50.61 50.47 51.63 53.78 53.55 50.81 44.38 50.40 47.53 47.47 47.07 46.75 47.30 46.74 46.30 46.53 45.48 41.80 42.89 43.42 41.25 36.81 35.54 31.11 38.82 40.84 42.72 42.66 38.30 45.33 49.08 49.22 48.97 50.70 51.54 52.14 52.98
48.18 48.64 49.06 49.24 49.42 49.70 49.81 50.11 50.58 50.97 51.31 52.97 48.75 48.19 41.83 52.10 44.36 46.29 46.57 45.42 45.98 46.03 46.22 48.70 43.62 40.14 40.66 34.82 31.98 32.41 27.43 30.18 34.79 40.32 40.08 39.58 37.08 41.60 48.01 48.84 48.56 49.49 51.00 51.29 51.82
47.98 48.49 48.65 48.49 49.31 49.21 49.46 50.29 50.87 50.81 49.92 50.07 50.39 41.83 44.88 42.79 44.22 45.20 45.54 46.00 43.28 43.51 42.19 42.03 39.30 35.67 34.40 31.12 26.02 28.02 29.05 33.24 33.02 37.40 38.95 38.01 37.86 41.44 45.00 46.40 47.90 48.68 49.86 50.80 51.09
47.72 48.06 47.91 48.19 48.44 49.00 46.75 43.54 40.56 42.49 43.62 38.56 40.29 41.51 43.26 45.40 46.44 43.03 45.47 43.65 43.14 40.55 34.13 38.19 32.40 29.12 33.24 34.96 35.70 34.02 32.77 32.39 35.70 38.95 37.48 36.92 37.49 38.89 42.48 44.28 43.78 45.95 48.17 49.22 50.29
47.42 47.47 47.47 47.80 47.92 48.55 45.40 39.79 40.66 40.22 35.91 43.95 44.49 44.38 45.99 44.54 39.86 42.41 46.29 39.41 38.05 33.03 36.44 33.44 29.62 36.27 38.93 37.86 35.76 34.31 31.85 31.45 35.39 38.05 37.35 36.74 36.34 38.82 40.62 42.07 43.43 43.59 44.78 47.46 49.33
46.81 47.18 47.15 47.21 47.83 45.01 40.32 40.58 45.30 45.14 35.45 41.24 43.41 42.39 41.74 42.41 39.07 39.14 42.74 40.56 35.78 33.25 34.14 31.21 35.00 39.43 37.14 34.86 33.66 33.63 31.73 31.95 31.89 35.55 36.58 35.21 33.66 36.11 39.87 42.14 43.61 44.13 44.88 46.01 46.21
46.52 46.73 46.68 47.82 44.85 43.70 40.33 44.62 45.67 45.31 32.08 35.38 38.91 41.85 42.13 41.30 38.69 41.87 43.85 39.66 36.52 33.31 34.94 33.45 38.34 36.21 34.20 32.64 33.64 28.60 35.86 34.97 33.25 31.25 25.77 34.86 25.53 34.03 37.68 39.85 41.77 43.04 44.04 45.47 46.43
46.19 46.20 46.71 46.54 41.07 41.10 43.42 45.35 43.71 43.17 22.15 37.33 37.81 42.60 40.99 38.29 38.58 40.02 42.02 39.75 34.39 34.54 34.85 32.01 33.76 32.63 31.34 32.69 36.17 32.49 36.49 34.17 33.44 29.89 29.45 29.98 27.21 31.52 37.02 37.24 39.33 41.89 43.44 45.68 47.17
45.46 46.19 46.53 46.35 43.59 43.61 45.99 45.37 42.78 31.91 22.51 32.93 37.70 37.08 36.48 38.38 38.75 39.77 39.46 41.05 40.28 36.50 36.05 34.50 37.53 35.21 34.26 36.77 36.13 36.37 34.17 33.43 32.46 29.74 22.09 28.41 28.17 28.99 33.73 37.03 39.53 42.27 43.85 45.97 47.02
45.45 45.90 44.67 45.23 41.68 46.28 45.55 41.77 29.89 24.33 36.63 32.02 33.79 36.25 35.07 34.74 36.09 36.57 35.03 32.74 29.04 25.69 26.27 31.64 32.39 35.78 37.69 31.57 34.65 33.71 29.88 21.57 19.24 20.44 19.88 31.04 28.80 30.75 37.33 40.08 41.10 42.11 44.39 51.58 51.34
45.34 46.11 44.87 46.39 46.62 45.98 43.23 34.94 24.90 33.74 32.87 36.75 35.44 34.52 32.41 35.03 34.50 34.89 32.79 28.36 34.03 31.60 26.28 24.11 21.83 31.29 35.66 32.38 30.78 30.31 29.94 22.98 16.82 17.39 21.02 31.08 25.67 31.17 39.89 42.30 43.39 44.35 51.67 52.11 53.37
45.08 42.22 43.21 45.59 46.48 45.00 37.88 24.89 27.18 33.26 35.17 33.23 33.56 30.73 32.17 34.72 33.41 32.72 30.76 29.04 32.47 32.41 23.33 24.34 24.55 34.16 35.62 35.76 34.36 30.97 28.90 34.61 27.84 27.58 22.63 26.95 31.28 37.00 39.07 41.06 42.75 43.81 51.69 52.33 53.28
40.01 41.81 42.75 45.88 46.10 42.37 33.80 31.53 32.84 36.82 36.05 35.13 29.19 32.56 28.02 30.35 29.88 29.56 29.42 34.40 33.31 35.71 35.55 30.49 21.99 31.95 34.66 36.23 37.23 33.69 36.62 28.54 28.04 17.96 16.93 23.75 26.52 28.77 35.47 39.03 41.19 45.43 49.17 53.07 53.65
38.67 36.59 42.95 45.90 43.88 37.57 27.87 30.81 35.38 38.01 37.26 33.35 32.08 30.92 31.23 29.45 30.64 28.24 28.90 33.46 36.20 35.09 34.97 30.50 26.49 26.99 31.38 29.30 27.79 30.98 29.44 31.07 31.77 28.29 19.81 18.74 24.01 34.81 38.42 40.50 43.15 47.84 52.08 52.00 51.61
38.22 32.21 43.19 44.00 33.75 34.82 30.42 36.78 36.08 36.15 37.88 35.84 35.33 33.74 31.02 31.92 29.38 28.96 28.04 31.78 37.64 35.59 29.59 31.57 25.09 21.96 25.03 32.65 36.69 34.92 30.99 31.10 26.15 25.22 26.68 26.30 25.52 39.03 40.19 45.12 47.29 50.24 52.08 51.48 51.48
35.25 36.23 42.83 41.36 27.99 29.15 35.18 35.66 35.93 35.11 35.52 35.11 34.01 35.80 35.27 30.97 26.16 31.32 31.43 36.59 36.44 35.77 31.28 31.05 22.78 19.28 23.26 29.09 33.33 29.90 32.31 33.00 33.78 32.24 26.11 23.52 27.00 40.73 45.00 46.14 47.86 48.75 49.83 49.69 49.12
36.54 30.80 34.54 35.19 35.77 33.18 31.16 32.41 31.73 36.60 35.08 35.99 34.32 34.49 31.80 29.91 33.01 29.77 30.89 35.14 36.66 35.95 39.12 35.48 27.25 25.58 19.00 22.39 28.47 26.48 30.40 33.32 33.05 28.34 28.54 28.65 32.24 38.35 42.03 43.81 45.94 44.97 44.63 49.56 48.89
37.15 32.96 36.22 28.52 30.92 32.08 32.64 34.34 31.90 31.28 35.12 35.39 32.84 32.58 30.17 26.17 28.97 28.50 30.85 31.77 34.00 36.90 33.81 30.90 21.31 25.26 28.07 30.31 30.80 30.34 31.27 32.94 31.64 33.18 28.91 32.01 32.58 37.65 41.13 43.61 45.51 45.61 44.07 47.89 48.19
32.78 32.03 35.61 32.23 35.17 32.22 33.02 31.59 31.73 33.34 33.27 32.10 30.54 32.73 31.84 27.21 28.46 25.27 28.68 28.51 27.99 31.98 29.63 30.81 23.39 28.22 25.99 30.74 31.36 29.69 32.64 33.44 33.66 33.90 34.98 35.39 34.20 41.12 43.04 42.37 42.14 41.59 41.24 41.52 46.55
37.75 38.50 34.81 33.80 30.66 28.99 29.53 32.21 32.41 34.24 34.64 35.09 32.84 30.31 28.97 31.38 32.44 32.33 32.44 32.36 31.69 29.06 27.48 27.26 26.34 25.17 22.45 29.49 29.17 27.26 31.75 32.10 32.22 34.09 33.69 30.07 36.89 42.41 41.73 40.70 39.89 41.02 41.98 41.82 42.07